<?xml version="1.0" encoding="UTF-8"?>
<gpx version="1.1" creator="https://www.youtrack.es" xsi:schemaLocation="http://www.topografix.com/GPX/1/1 http://www.topografix.com/GPX/1/1/gpx.xsd http://www.garmin.com/xmlschemas/GpxExtensions/v3 http://www.garmin.com/xmlschemas/GpxExtensionsv3.xsd http://www.garmin.com/xmlschemas/TrackPointExtension/v1 http://www.garmin.com/xmlschemas/TrackPointExtensionv1.xsd" xmlns:gpxtpx="http://www.garmin.com/xmlschemas/TrackPointExtension/v1" xmlns:gpxx="http://www.garmin.com/xmlschemas/GpxExtensions/v3" xmlns:xsi="http://www.w3.org/2001/XMLSchema-instance">
  <metadata>
    <link href="https://www.youtrack.es">
      <text>YouTrack.es</text>
    </link>
    <time>2026-05-08T16:43:50Z</time>
  </metadata>
  <trk>
    <src>https://www.youtrack.es</src>
    <link href="https://www.youtrack.es/ruta/7524-carros-de-fog">
      <text>YouTrack.es</text>
    </link>
    <trkseg>
      <trkpt lat="42.584066" lon=".855181">
        <ele>1752.672</ele>
        <time>2012-07-08T05:06:30Z</time>
      </trkpt>
      <trkpt lat="42.584057" lon=".855189">
        <ele>1751.713</ele>
        <time>2012-07-08T05:06:31Z</time>
      </trkpt>
      <trkpt lat="42.584059" lon=".855182">
        <ele>1747.814</ele>
        <time>2012-07-08T05:06:33Z</time>
      </trkpt>
      <trkpt lat="42.584078" lon=".855152">
        <ele>1744.007</ele>
        <time>2012-07-08T05:06:35Z</time>
      </trkpt>
      <trkpt lat="42.584084" lon=".855139">
        <ele>1740.620</ele>
        <time>2012-07-08T05:06:37Z</time>
      </trkpt>
      <trkpt lat="42.584082" lon=".855135">
        <ele>1741.188</ele>
        <time>2012-07-08T05:06:38Z</time>
      </trkpt>
      <trkpt lat="42.584046" lon=".855133">
        <ele>1737.781</ele>
        <time>2012-07-08T05:06:43Z</time>
      </trkpt>
      <trkpt lat="42.584012" lon=".855137">
        <ele>1734.841</ele>
        <time>2012-07-08T05:06:47Z</time>
      </trkpt>
      <trkpt lat="42.584005" lon=".855139">
        <ele>1734.887</ele>
        <time>2012-07-08T05:06:48Z</time>
      </trkpt>
      <trkpt lat="42.583932" lon=".855173">
        <ele>1734.430</ele>
        <time>2012-07-08T05:06:56Z</time>
      </trkpt>
      <trkpt lat="42.583811" lon=".855219">
        <ele>1733.417</ele>
        <time>2012-07-08T05:07:08Z</time>
      </trkpt>
      <trkpt lat="42.583752" lon=".855225">
        <ele>1732.977</ele>
        <time>2012-07-08T05:07:13Z</time>
      </trkpt>
      <trkpt lat="42.583595" lon=".85529">
        <ele>1731.061</ele>
        <time>2012-07-08T05:07:29Z</time>
      </trkpt>
      <trkpt lat="42.58346" lon=".855323">
        <ele>1730.527</ele>
        <time>2012-07-08T05:07:42Z</time>
      </trkpt>
      <trkpt lat="42.583449" lon=".855328">
        <ele>1730.507</ele>
        <time>2012-07-08T05:07:43Z</time>
      </trkpt>
      <trkpt lat="42.58338" lon=".855334">
        <ele>1729.640</ele>
        <time>2012-07-08T05:07:49Z</time>
      </trkpt>
      <trkpt lat="42.583295" lon=".855382">
        <ele>1729.638</ele>
        <time>2012-07-08T05:07:58Z</time>
      </trkpt>
      <trkpt lat="42.583265" lon=".855387">
        <ele>1729.111</ele>
        <time>2012-07-08T05:08:01Z</time>
      </trkpt>
      <trkpt lat="42.583164" lon=".855397">
        <ele>1731.031</ele>
        <time>2012-07-08T05:08:10Z</time>
      </trkpt>
      <trkpt lat="42.583112" lon=".85541">
        <ele>1731.067</ele>
        <time>2012-07-08T05:08:15Z</time>
      </trkpt>
      <trkpt lat="42.582918" lon=".855542">
        <ele>1732.940</ele>
        <time>2012-07-08T05:08:31Z</time>
      </trkpt>
      <trkpt lat="42.582789" lon=".855613">
        <ele>1732.497</ele>
        <time>2012-07-08T05:08:42Z</time>
      </trkpt>
      <trkpt lat="42.582589" lon=".855701">
        <ele>1735.363</ele>
        <time>2012-07-08T05:09:00Z</time>
      </trkpt>
      <trkpt lat="42.582421" lon=".855735">
        <ele>1738.244</ele>
        <time>2012-07-08T05:09:15Z</time>
      </trkpt>
      <trkpt lat="42.582274" lon=".855803">
        <ele>1739.218</ele>
        <time>2012-07-08T05:09:29Z</time>
      </trkpt>
      <trkpt lat="42.582141" lon=".855912">
        <ele>1738.707</ele>
        <time>2012-07-08T05:09:42Z</time>
      </trkpt>
      <trkpt lat="42.581996" lon=".856019">
        <ele>1740.639</ele>
        <time>2012-07-08T05:09:57Z</time>
      </trkpt>
      <trkpt lat="42.581863" lon=".856112">
        <ele>1742.127</ele>
        <time>2012-07-08T05:10:11Z</time>
      </trkpt>
      <trkpt lat="42.581709" lon=".856224">
        <ele>1743.590</ele>
        <time>2012-07-08T05:10:27Z</time>
      </trkpt>
      <trkpt lat="42.581679" lon=".856236">
        <ele>1744.080</ele>
        <time>2012-07-08T05:10:38Z</time>
      </trkpt>
      <trkpt lat="42.581679" lon=".856236">
        <ele>1744.026</ele>
        <time>2012-07-08T05:11:05Z</time>
      </trkpt>
      <trkpt lat="42.581645" lon=".856259">
        <ele>1743.079</ele>
        <time>2012-07-08T05:11:10Z</time>
      </trkpt>
      <trkpt lat="42.581404" lon=".856256">
        <ele>1743.046</ele>
        <time>2012-07-08T05:11:29Z</time>
      </trkpt>
      <trkpt lat="42.581289" lon=".85622">
        <ele>1741.651</ele>
        <time>2012-07-08T05:11:39Z</time>
      </trkpt>
      <trkpt lat="42.581267" lon=".856223">
        <ele>1741.601</ele>
        <time>2012-07-08T05:11:41Z</time>
      </trkpt>
      <trkpt lat="42.581284" lon=".856283">
        <ele>1741.611</ele>
        <time>2012-07-08T05:11:46Z</time>
      </trkpt>
      <trkpt lat="42.581259" lon=".856349">
        <ele>1740.607</ele>
        <time>2012-07-08T05:11:51Z</time>
      </trkpt>
      <trkpt lat="42.581012" lon=".856276">
        <ele>1742.148</ele>
        <time>2012-07-08T05:12:09Z</time>
      </trkpt>
      <trkpt lat="42.580784" lon=".856272">
        <ele>1744.586</ele>
        <time>2012-07-08T05:12:25Z</time>
      </trkpt>
      <trkpt lat="42.580571" lon=".856272">
        <ele>1747.819</ele>
        <time>2012-07-08T05:12:41Z</time>
      </trkpt>
      <trkpt lat="42.580376" lon=".856262">
        <ele>1750.279</ele>
        <time>2012-07-08T05:12:56Z</time>
      </trkpt>
      <trkpt lat="42.580154" lon=".856338">
        <ele>1751.785</ele>
        <time>2012-07-08T05:13:14Z</time>
      </trkpt>
      <trkpt lat="42.579974" lon=".856399">
        <ele>1754.598</ele>
        <time>2012-07-08T05:13:29Z</time>
      </trkpt>
      <trkpt lat="42.57977" lon=".856466">
        <ele>1757.025</ele>
        <time>2012-07-08T05:13:46Z</time>
      </trkpt>
      <trkpt lat="42.579624" lon=".856504">
        <ele>1757.988</ele>
        <time>2012-07-08T05:13:58Z</time>
      </trkpt>
      <trkpt lat="42.579462" lon=".856558">
        <ele>1759.824</ele>
        <time>2012-07-08T05:14:11Z</time>
      </trkpt>
      <trkpt lat="42.579432" lon=".856673">
        <ele>1761.326</ele>
        <time>2012-07-08T05:14:20Z</time>
      </trkpt>
      <trkpt lat="42.579506" lon=".856754">
        <ele>1762.207</ele>
        <time>2012-07-08T05:14:28Z</time>
      </trkpt>
      <trkpt lat="42.579661" lon=".856746">
        <ele>1764.271</ele>
        <time>2012-07-08T05:14:42Z</time>
      </trkpt>
      <trkpt lat="42.579723" lon=".856736">
        <ele>1764.659</ele>
        <time>2012-07-08T05:14:48Z</time>
      </trkpt>
      <trkpt lat="42.57982" lon=".856724">
        <ele>1765.682</ele>
        <time>2012-07-08T05:14:56Z</time>
      </trkpt>
      <trkpt lat="42.579857" lon=".856713">
        <ele>1766.142</ele>
        <time>2012-07-08T05:14:59Z</time>
      </trkpt>
      <trkpt lat="42.57989" lon=".856702">
        <ele>1766.648</ele>
        <time>2012-07-08T05:15:02Z</time>
      </trkpt>
      <trkpt lat="42.579925" lon=".856706">
        <ele>1767.531</ele>
        <time>2012-07-08T05:15:05Z</time>
      </trkpt>
      <trkpt lat="42.580009" lon=".856703">
        <ele>1769.078</ele>
        <time>2012-07-08T05:15:13Z</time>
      </trkpt>
      <trkpt lat="42.580107" lon=".856728">
        <ele>1770.416</ele>
        <time>2012-07-08T05:15:22Z</time>
      </trkpt>
      <trkpt lat="42.580176" lon=".856767">
        <ele>1770.476</ele>
        <time>2012-07-08T05:15:28Z</time>
      </trkpt>
      <trkpt lat="42.580327" lon=".856864">
        <ele>1769.013</ele>
        <time>2012-07-08T05:15:42Z</time>
      </trkpt>
      <trkpt lat="42.580452" lon=".856942">
        <ele>1766.607</ele>
        <time>2012-07-08T05:15:53Z</time>
      </trkpt>
      <trkpt lat="42.580512" lon=".856949">
        <ele>1766.184</ele>
        <time>2012-07-08T05:15:58Z</time>
      </trkpt>
      <trkpt lat="42.580607" lon=".857016">
        <ele>1765.622</ele>
        <time>2012-07-08T05:16:06Z</time>
      </trkpt>
      <trkpt lat="42.580613" lon=".857073">
        <ele>1766.115</ele>
        <time>2012-07-08T05:16:11Z</time>
      </trkpt>
      <trkpt lat="42.580599" lon=".857098">
        <ele>1765.675</ele>
        <time>2012-07-08T05:16:14Z</time>
      </trkpt>
      <trkpt lat="42.58043" lon=".857062">
        <ele>1767.051</ele>
        <time>2012-07-08T05:16:30Z</time>
      </trkpt>
      <trkpt lat="42.580346" lon=".857033">
        <ele>1768.074</ele>
        <time>2012-07-08T05:16:37Z</time>
      </trkpt>
      <trkpt lat="42.580184" lon=".857009">
        <ele>1771.481</ele>
        <time>2012-07-08T05:16:50Z</time>
      </trkpt>
      <trkpt lat="42.579988" lon=".857028">
        <ele>1773.816</ele>
        <time>2012-07-08T05:17:07Z</time>
      </trkpt>
      <trkpt lat="42.579905" lon=".857075">
        <ele>1775.776</ele>
        <time>2012-07-08T05:17:14Z</time>
      </trkpt>
      <trkpt lat="42.579769" lon=".857116">
        <ele>1778.113</ele>
        <time>2012-07-08T05:17:26Z</time>
      </trkpt>
      <trkpt lat="42.579586" lon=".857124">
        <ele>1781.007</ele>
        <time>2012-07-08T05:17:41Z</time>
      </trkpt>
      <trkpt lat="42.579453" lon=".857185">
        <ele>1781.944</ele>
        <time>2012-07-08T05:17:53Z</time>
      </trkpt>
      <trkpt lat="42.579445" lon=".857217">
        <ele>1781.932</ele>
        <time>2012-07-08T05:17:55Z</time>
      </trkpt>
      <trkpt lat="42.579446" lon=".857269">
        <ele>1781.925</ele>
        <time>2012-07-08T05:17:58Z</time>
      </trkpt>
      <trkpt lat="42.579522" lon=".857368">
        <ele>1782.475</ele>
        <time>2012-07-08T05:18:08Z</time>
      </trkpt>
      <trkpt lat="42.579679" lon=".857348">
        <ele>1783.461</ele>
        <time>2012-07-08T05:18:21Z</time>
      </trkpt>
      <trkpt lat="42.579843" lon=".857378">
        <ele>1783.444</ele>
        <time>2012-07-08T05:18:36Z</time>
      </trkpt>
      <trkpt lat="42.57998" lon=".857422">
        <ele>1781.981</ele>
        <time>2012-07-08T05:18:50Z</time>
      </trkpt>
      <trkpt lat="42.580056" lon=".857437">
        <ele>1780.571</ele>
        <time>2012-07-08T05:18:58Z</time>
      </trkpt>
      <trkpt lat="42.580174" lon=".857498">
        <ele>1779.141</ele>
        <time>2012-07-08T05:19:09Z</time>
      </trkpt>
      <trkpt lat="42.580215" lon=".857522">
        <ele>1779.515</ele>
        <time>2012-07-08T05:19:13Z</time>
      </trkpt>
      <trkpt lat="42.580338" lon=".857572">
        <ele>1781.007</ele>
        <time>2012-07-08T05:19:27Z</time>
      </trkpt>
      <trkpt lat="42.580375" lon=".857618">
        <ele>1781.020</ele>
        <time>2012-07-08T05:19:32Z</time>
      </trkpt>
      <trkpt lat="42.580371" lon=".85773">
        <ele>1782.978</ele>
        <time>2012-07-08T05:19:44Z</time>
      </trkpt>
      <trkpt lat="42.580343" lon=".857757">
        <ele>1782.921</ele>
        <time>2012-07-08T05:19:48Z</time>
      </trkpt>
      <trkpt lat="42.580257" lon=".857731">
        <ele>1786.341</ele>
        <time>2012-07-08T05:19:57Z</time>
      </trkpt>
      <trkpt lat="42.580222" lon=".857691">
        <ele>1787.727</ele>
        <time>2012-07-08T05:20:02Z</time>
      </trkpt>
      <trkpt lat="42.580086" lon=".85763">
        <ele>1790.130</ele>
        <time>2012-07-08T05:20:16Z</time>
      </trkpt>
      <trkpt lat="42.580027" lon=".857629">
        <ele>1790.197</ele>
        <time>2012-07-08T05:20:22Z</time>
      </trkpt>
      <trkpt lat="42.579949" lon=".857671">
        <ele>1788.778</ele>
        <time>2012-07-08T05:20:32Z</time>
      </trkpt>
      <trkpt lat="42.579859" lon=".857711">
        <ele>1791.133</ele>
        <time>2012-07-08T05:20:40Z</time>
      </trkpt>
      <trkpt lat="42.579756" lon=".857732">
        <ele>1794.426</ele>
        <time>2012-07-08T05:20:50Z</time>
      </trkpt>
      <trkpt lat="42.579739" lon=".857735">
        <ele>1795.407</ele>
        <time>2012-07-08T05:21:06Z</time>
      </trkpt>
      <trkpt lat="42.579577" lon=".857805">
        <ele>1799.260</ele>
        <time>2012-07-08T05:21:26Z</time>
      </trkpt>
      <trkpt lat="42.579569" lon=".857811">
        <ele>1799.288</ele>
        <time>2012-07-08T05:21:27Z</time>
      </trkpt>
      <trkpt lat="42.579546" lon=".857814">
        <ele>1799.711</ele>
        <time>2012-07-08T05:21:29Z</time>
      </trkpt>
      <trkpt lat="42.579377" lon=".857813">
        <ele>1802.111</ele>
        <time>2012-07-08T05:21:44Z</time>
      </trkpt>
      <trkpt lat="42.579338" lon=".857792">
        <ele>1803.117</ele>
        <time>2012-07-08T05:21:48Z</time>
      </trkpt>
      <trkpt lat="42.579297" lon=".857788">
        <ele>1803.610</ele>
        <time>2012-07-08T05:21:52Z</time>
      </trkpt>
      <trkpt lat="42.579162" lon=".857788">
        <ele>1804.187</ele>
        <time>2012-07-08T05:22:05Z</time>
      </trkpt>
      <trkpt lat="42.579056" lon=".857739">
        <ele>1806.513</ele>
        <time>2012-07-08T05:22:18Z</time>
      </trkpt>
      <trkpt lat="42.578916" lon=".857646">
        <ele>1808.443</ele>
        <time>2012-07-08T05:22:33Z</time>
      </trkpt>
      <trkpt lat="42.578832" lon=".857652">
        <ele>1808.907</ele>
        <time>2012-07-08T05:22:41Z</time>
      </trkpt>
      <trkpt lat="42.578765" lon=".857685">
        <ele>1808.407</ele>
        <time>2012-07-08T05:22:53Z</time>
      </trkpt>
      <trkpt lat="42.578772" lon=".857689">
        <ele>1807.954</ele>
        <time>2012-07-08T05:22:54Z</time>
      </trkpt>
      <trkpt lat="42.578789" lon=".857704">
        <ele>1806.972</ele>
        <time>2012-07-08T05:22:56Z</time>
      </trkpt>
      <trkpt lat="42.578854" lon=".857785">
        <ele>1805.095</ele>
        <time>2012-07-08T05:23:03Z</time>
      </trkpt>
      <trkpt lat="42.578926" lon=".857853">
        <ele>1804.555</ele>
        <time>2012-07-08T05:23:11Z</time>
      </trkpt>
      <trkpt lat="42.579027" lon=".857941">
        <ele>1805.581</ele>
        <time>2012-07-08T05:23:22Z</time>
      </trkpt>
      <trkpt lat="42.579193" lon=".858073">
        <ele>1807.934</ele>
        <time>2012-07-08T05:23:37Z</time>
      </trkpt>
      <trkpt lat="42.579318" lon=".858144">
        <ele>1806.571</ele>
        <time>2012-07-08T05:23:49Z</time>
      </trkpt>
      <trkpt lat="42.579367" lon=".858188">
        <ele>1807.931</ele>
        <time>2012-07-08T05:23:55Z</time>
      </trkpt>
      <trkpt lat="42.579389" lon=".858196">
        <ele>1809.861</ele>
        <time>2012-07-08T05:23:57Z</time>
      </trkpt>
      <trkpt lat="42.579522" lon=".858229">
        <ele>1810.307</ele>
        <time>2012-07-08T05:24:10Z</time>
      </trkpt>
      <trkpt lat="42.579547" lon=".858263">
        <ele>1811.307</ele>
        <time>2012-07-08T05:24:20Z</time>
      </trkpt>
      <trkpt lat="42.579549" lon=".858281">
        <ele>1812.216</ele>
        <time>2012-07-08T05:24:33Z</time>
      </trkpt>
      <trkpt lat="42.579555" lon=".858291">
        <ele>1812.754</ele>
        <time>2012-07-08T05:24:53Z</time>
      </trkpt>
      <trkpt lat="42.579564" lon=".858339">
        <ele>1815.137</ele>
        <time>2012-07-08T05:25:06Z</time>
      </trkpt>
      <trkpt lat="42.579585" lon=".858366">
        <ele>1818.017</ele>
        <time>2012-07-08T05:25:23Z</time>
      </trkpt>
      <trkpt lat="42.579603" lon=".8584">
        <ele>1819.953</ele>
        <time>2012-07-08T05:25:32Z</time>
      </trkpt>
      <trkpt lat="42.57961" lon=".858437">
        <ele>1821.486</ele>
        <time>2012-07-08T05:25:44Z</time>
      </trkpt>
      <trkpt lat="42.579577" lon=".858489">
        <ele>1824.243</ele>
        <time>2012-07-08T05:25:55Z</time>
      </trkpt>
      <trkpt lat="42.579593" lon=".858536">
        <ele>1822.813</ele>
        <time>2012-07-08T05:26:09Z</time>
      </trkpt>
      <trkpt lat="42.579604" lon=".858593">
        <ele>1823.843</ele>
        <time>2012-07-08T05:26:22Z</time>
      </trkpt>
      <trkpt lat="42.579618" lon=".858683">
        <ele>1825.207</ele>
        <time>2012-07-08T05:26:35Z</time>
      </trkpt>
      <trkpt lat="42.57961" lon=".858702">
        <ele>1827.607</ele>
        <time>2012-07-08T05:26:47Z</time>
      </trkpt>
      <trkpt lat="42.579606" lon=".858721">
        <ele>1830.074</ele>
        <time>2012-07-08T05:26:59Z</time>
      </trkpt>
      <trkpt lat="42.579622" lon=".85875">
        <ele>1832.482</ele>
        <time>2012-07-08T05:27:10Z</time>
      </trkpt>
      <trkpt lat="42.579627" lon=".858761">
        <ele>1833.485</ele>
        <time>2012-07-08T05:27:22Z</time>
      </trkpt>
      <trkpt lat="42.579623" lon=".858798">
        <ele>1834.325</ele>
        <time>2012-07-08T05:27:35Z</time>
      </trkpt>
      <trkpt lat="42.579667" lon=".858881">
        <ele>1836.351</ele>
        <time>2012-07-08T05:27:48Z</time>
      </trkpt>
      <trkpt lat="42.579706" lon=".858888">
        <ele>1837.734</ele>
        <time>2012-07-08T05:28:00Z</time>
      </trkpt>
      <trkpt lat="42.579748" lon=".858908">
        <ele>1838.761</ele>
        <time>2012-07-08T05:28:15Z</time>
      </trkpt>
      <trkpt lat="42.579748" lon=".858935">
        <ele>1842.557</ele>
        <time>2012-07-08T05:28:20Z</time>
      </trkpt>
      <trkpt lat="42.579739" lon=".85894">
        <ele>1845.400</ele>
        <time>2012-07-08T05:28:24Z</time>
      </trkpt>
      <trkpt lat="42.579739" lon=".85894">
        <ele>1845.420</ele>
        <time>2012-07-08T05:28:25Z</time>
      </trkpt>
      <trkpt lat="42.579748" lon=".858962">
        <ele>1847.807</ele>
        <time>2012-07-08T05:28:36Z</time>
      </trkpt>
      <trkpt lat="42.579725" lon=".85896">
        <ele>1851.268</ele>
        <time>2012-07-08T05:28:42Z</time>
      </trkpt>
      <trkpt lat="42.579722" lon=".858962">
        <ele>1851.666</ele>
        <time>2012-07-08T05:28:44Z</time>
      </trkpt>
      <trkpt lat="42.579751" lon=".858996">
        <ele>1854.089</ele>
        <time>2012-07-08T05:28:55Z</time>
      </trkpt>
      <trkpt lat="42.579763" lon=".859018">
        <ele>1855.549</ele>
        <time>2012-07-08T05:29:06Z</time>
      </trkpt>
      <trkpt lat="42.579769" lon=".859058">
        <ele>1856.445</ele>
        <time>2012-07-08T05:29:19Z</time>
      </trkpt>
      <trkpt lat="42.579786" lon=".859099">
        <ele>1858.998</ele>
        <time>2012-07-08T05:29:33Z</time>
      </trkpt>
      <trkpt lat="42.579789" lon=".859106">
        <ele>1860.375</ele>
        <time>2012-07-08T05:29:48Z</time>
      </trkpt>
      <trkpt lat="42.579762" lon=".859135">
        <ele>1862.239</ele>
        <time>2012-07-08T05:29:59Z</time>
      </trkpt>
      <trkpt lat="42.579763" lon=".859191">
        <ele>1864.101</ele>
        <time>2012-07-08T05:30:09Z</time>
      </trkpt>
      <trkpt lat="42.57975" lon=".859187">
        <ele>1867.021</ele>
        <time>2012-07-08T05:30:17Z</time>
      </trkpt>
      <trkpt lat="42.579726" lon=".859203">
        <ele>1870.407</ele>
        <time>2012-07-08T05:30:27Z</time>
      </trkpt>
      <trkpt lat="42.579722" lon=".859253">
        <ele>1871.896</ele>
        <time>2012-07-08T05:30:39Z</time>
      </trkpt>
      <trkpt lat="42.579774" lon=".859323">
        <ele>1871.344</ele>
        <time>2012-07-08T05:30:52Z</time>
      </trkpt>
      <trkpt lat="42.579772" lon=".859356">
        <ele>1871.857</ele>
        <time>2012-07-08T05:31:07Z</time>
      </trkpt>
      <trkpt lat="42.579766" lon=".859368">
        <ele>1873.347</ele>
        <time>2012-07-08T05:31:18Z</time>
      </trkpt>
      <trkpt lat="42.579749" lon=".859377">
        <ele>1875.713</ele>
        <time>2012-07-08T05:31:30Z</time>
      </trkpt>
      <trkpt lat="42.579715" lon=".85939">
        <ele>1878.146</ele>
        <time>2012-07-08T05:31:42Z</time>
      </trkpt>
      <trkpt lat="42.579674" lon=".859426">
        <ele>1878.173</ele>
        <time>2012-07-08T05:31:54Z</time>
      </trkpt>
      <trkpt lat="42.579648" lon=".859441">
        <ele>1878.126</ele>
        <time>2012-07-08T05:32:19Z</time>
      </trkpt>
      <trkpt lat="42.579617" lon=".859469">
        <ele>1879.547</ele>
        <time>2012-07-08T05:32:32Z</time>
      </trkpt>
      <trkpt lat="42.579616" lon=".859481">
        <ele>1880.011</ele>
        <time>2012-07-08T05:32:45Z</time>
      </trkpt>
      <trkpt lat="42.579619" lon=".859553">
        <ele>1882.407</ele>
        <time>2012-07-08T05:32:58Z</time>
      </trkpt>
      <trkpt lat="42.579637" lon=".859607">
        <ele>1885.395</ele>
        <time>2012-07-08T05:33:12Z</time>
      </trkpt>
      <trkpt lat="42.579615" lon=".859637">
        <ele>1887.713</ele>
        <time>2012-07-08T05:33:23Z</time>
      </trkpt>
      <trkpt lat="42.579597" lon=".859651">
        <ele>1889.166</ele>
        <time>2012-07-08T05:33:33Z</time>
      </trkpt>
      <trkpt lat="42.579592" lon=".85967">
        <ele>1891.146</ele>
        <time>2012-07-08T05:33:47Z</time>
      </trkpt>
      <trkpt lat="42.579594" lon=".85968">
        <ele>1892.522</ele>
        <time>2012-07-08T05:33:59Z</time>
      </trkpt>
      <trkpt lat="42.579594" lon=".85968">
        <ele>1892.575</ele>
        <time>2012-07-08T05:34:01Z</time>
      </trkpt>
      <trkpt lat="42.579582" lon=".859717">
        <ele>1891.172</ele>
        <time>2012-07-08T05:34:14Z</time>
      </trkpt>
      <trkpt lat="42.579594" lon=".859745">
        <ele>1890.619</ele>
        <time>2012-07-08T05:34:24Z</time>
      </trkpt>
      <trkpt lat="42.579585" lon=".859785">
        <ele>1890.609</ele>
        <time>2012-07-08T05:34:35Z</time>
      </trkpt>
      <trkpt lat="42.579577" lon=".859811">
        <ele>1891.519</ele>
        <time>2012-07-08T05:34:46Z</time>
      </trkpt>
      <trkpt lat="42.579548" lon=".859827">
        <ele>1892.507</ele>
        <time>2012-07-08T05:35:00Z</time>
      </trkpt>
      <trkpt lat="42.579581" lon=".859873">
        <ele>1893.584</ele>
        <time>2012-07-08T05:35:24Z</time>
      </trkpt>
      <trkpt lat="42.579596" lon=".859937">
        <ele>1896.342</ele>
        <time>2012-07-08T05:35:36Z</time>
      </trkpt>
      <trkpt lat="42.579594" lon=".859956">
        <ele>1898.365</ele>
        <time>2012-07-08T05:35:46Z</time>
      </trkpt>
      <trkpt lat="42.579605" lon=".859988">
        <ele>1901.635</ele>
        <time>2012-07-08T05:35:59Z</time>
      </trkpt>
      <trkpt lat="42.579598" lon=".860038">
        <ele>1903.651</ele>
        <time>2012-07-08T05:36:09Z</time>
      </trkpt>
      <trkpt lat="42.579612" lon=".860068">
        <ele>1906.064</ele>
        <time>2012-07-08T05:36:21Z</time>
      </trkpt>
      <trkpt lat="42.579574" lon=".860098">
        <ele>1907.411</ele>
        <time>2012-07-08T05:36:39Z</time>
      </trkpt>
      <trkpt lat="42.579555" lon=".860097">
        <ele>1909.828</ele>
        <time>2012-07-08T05:36:50Z</time>
      </trkpt>
      <trkpt lat="42.579563" lon=".860143">
        <ele>1909.889</ele>
        <time>2012-07-08T05:37:03Z</time>
      </trkpt>
      <trkpt lat="42.579546" lon=".860198">
        <ele>1911.717</ele>
        <time>2012-07-08T05:37:14Z</time>
      </trkpt>
      <trkpt lat="42.579568" lon=".860212">
        <ele>1913.607</ele>
        <time>2012-07-08T05:37:25Z</time>
      </trkpt>
      <trkpt lat="42.579564" lon=".860214">
        <ele>1915.135</ele>
        <time>2012-07-08T05:37:32Z</time>
      </trkpt>
      <trkpt lat="42.579551" lon=".860208">
        <ele>1917.053</ele>
        <time>2012-07-08T05:37:39Z</time>
      </trkpt>
      <trkpt lat="42.579566" lon=".860258">
        <ele>1918.066</ele>
        <time>2012-07-08T05:37:52Z</time>
      </trkpt>
      <trkpt lat="42.579569" lon=".860279">
        <ele>1919.436</ele>
        <time>2012-07-08T05:38:06Z</time>
      </trkpt>
      <trkpt lat="42.579548" lon=".860315">
        <ele>1922.882</ele>
        <time>2012-07-08T05:38:25Z</time>
      </trkpt>
      <trkpt lat="42.579532" lon=".860326">
        <ele>1925.775</ele>
        <time>2012-07-08T05:38:33Z</time>
      </trkpt>
      <trkpt lat="42.579539" lon=".860359">
        <ele>1929.532</ele>
        <time>2012-07-08T05:38:46Z</time>
      </trkpt>
      <trkpt lat="42.579558" lon=".860375">
        <ele>1930.535</ele>
        <time>2012-07-08T05:38:50Z</time>
      </trkpt>
      <trkpt lat="42.579563" lon=".860404">
        <ele>1933.486</ele>
        <time>2012-07-08T05:39:03Z</time>
      </trkpt>
      <trkpt lat="42.579563" lon=".860404">
        <ele>1933.414</ele>
        <time>2012-07-08T05:39:16Z</time>
      </trkpt>
      <trkpt lat="42.579555" lon=".860434">
        <ele>1936.207</ele>
        <time>2012-07-08T05:39:27Z</time>
      </trkpt>
      <trkpt lat="42.57953" lon=".860428">
        <ele>1939.686</ele>
        <time>2012-07-08T05:39:37Z</time>
      </trkpt>
      <trkpt lat="42.579528" lon=".860453">
        <ele>1941.524</ele>
        <time>2012-07-08T05:39:54Z</time>
      </trkpt>
      <trkpt lat="42.579529" lon=".860494">
        <ele>1943.047</ele>
        <time>2012-07-08T05:39:58Z</time>
      </trkpt>
      <trkpt lat="42.579541" lon=".860517">
        <ele>1944.487</ele>
        <time>2012-07-08T05:40:11Z</time>
      </trkpt>
      <trkpt lat="42.579541" lon=".860517">
        <ele>1944.463</ele>
        <time>2012-07-08T05:40:26Z</time>
      </trkpt>
      <trkpt lat="42.579541" lon=".860517">
        <ele>1944.496</ele>
        <time>2012-07-08T05:40:39Z</time>
      </trkpt>
      <trkpt lat="42.579524" lon=".860537">
        <ele>1945.973</ele>
        <time>2012-07-08T05:40:46Z</time>
      </trkpt>
      <trkpt lat="42.579521" lon=".860597">
        <ele>1947.862</ele>
        <time>2012-07-08T05:40:59Z</time>
      </trkpt>
      <trkpt lat="42.579522" lon=".860604">
        <ele>1948.383</ele>
        <time>2012-07-08T05:41:00Z</time>
      </trkpt>
      <trkpt lat="42.57953" lon=".860666">
        <ele>1949.211</ele>
        <time>2012-07-08T05:41:11Z</time>
      </trkpt>
      <trkpt lat="42.579534" lon=".860688">
        <ele>1949.207</ele>
        <time>2012-07-08T05:41:29Z</time>
      </trkpt>
      <trkpt lat="42.579535" lon=".860691">
        <ele>1949.289</ele>
        <time>2012-07-08T05:41:42Z</time>
      </trkpt>
      <trkpt lat="42.57955" lon=".86074">
        <ele>1949.797</ele>
        <time>2012-07-08T05:41:55Z</time>
      </trkpt>
      <trkpt lat="42.579559" lon=".860806">
        <ele>1950.710</ele>
        <time>2012-07-08T05:42:10Z</time>
      </trkpt>
      <trkpt lat="42.579559" lon=".86085">
        <ele>1953.520</ele>
        <time>2012-07-08T05:42:25Z</time>
      </trkpt>
      <trkpt lat="42.579554" lon=".860868">
        <ele>1955.016</ele>
        <time>2012-07-08T05:42:47Z</time>
      </trkpt>
      <trkpt lat="42.579544" lon=".86089">
        <ele>1955.979</ele>
        <time>2012-07-08T05:42:59Z</time>
      </trkpt>
      <trkpt lat="42.579552" lon=".860918">
        <ele>1956.486</ele>
        <time>2012-07-08T05:43:16Z</time>
      </trkpt>
      <trkpt lat="42.579548" lon=".860959">
        <ele>1957.959</ele>
        <time>2012-07-08T05:43:29Z</time>
      </trkpt>
      <trkpt lat="42.579539" lon=".861">
        <ele>1958.303</ele>
        <time>2012-07-08T05:43:42Z</time>
      </trkpt>
      <trkpt lat="42.579552" lon=".86103">
        <ele>1959.823</ele>
        <time>2012-07-08T05:43:57Z</time>
      </trkpt>
      <trkpt lat="42.579553" lon=".861038">
        <ele>1960.307</ele>
        <time>2012-07-08T05:44:13Z</time>
      </trkpt>
      <trkpt lat="42.579548" lon=".861046">
        <ele>1960.338</ele>
        <time>2012-07-08T05:44:34Z</time>
      </trkpt>
      <trkpt lat="42.579554" lon=".861088">
        <ele>1960.896</ele>
        <time>2012-07-08T05:44:48Z</time>
      </trkpt>
      <trkpt lat="42.579562" lon=".861095">
        <ele>1961.749</ele>
        <time>2012-07-08T05:44:50Z</time>
      </trkpt>
      <trkpt lat="42.579547" lon=".861139">
        <ele>1964.639</ele>
        <time>2012-07-08T05:45:03Z</time>
      </trkpt>
      <trkpt lat="42.579539" lon=".861179">
        <ele>1965.665</ele>
        <time>2012-07-08T05:45:16Z</time>
      </trkpt>
      <trkpt lat="42.579529" lon=".861207">
        <ele>1966.548</ele>
        <time>2012-07-08T05:45:27Z</time>
      </trkpt>
      <trkpt lat="42.579535" lon=".861229">
        <ele>1968.475</ele>
        <time>2012-07-08T05:45:40Z</time>
      </trkpt>
      <trkpt lat="42.579535" lon=".861236">
        <ele>1968.959</ele>
        <time>2012-07-08T05:46:00Z</time>
      </trkpt>
      <trkpt lat="42.579543" lon=".861264">
        <ele>1969.903</ele>
        <time>2012-07-08T05:46:15Z</time>
      </trkpt>
      <trkpt lat="42.579543" lon=".861323">
        <ele>1973.223</ele>
        <time>2012-07-08T05:46:25Z</time>
      </trkpt>
      <trkpt lat="42.57957" lon=".86134">
        <ele>1976.107</ele>
        <time>2012-07-08T05:46:37Z</time>
      </trkpt>
      <trkpt lat="42.579561" lon=".861366">
        <ele>1979.088</ele>
        <time>2012-07-08T05:46:52Z</time>
      </trkpt>
      <trkpt lat="42.579567" lon=".861371">
        <ele>1979.536</ele>
        <time>2012-07-08T05:47:06Z</time>
      </trkpt>
      <trkpt lat="42.579566" lon=".861382">
        <ele>1980.589</ele>
        <time>2012-07-08T05:47:20Z</time>
      </trkpt>
      <trkpt lat="42.579557" lon=".86139">
        <ele>1982.469</ele>
        <time>2012-07-08T05:47:26Z</time>
      </trkpt>
      <trkpt lat="42.579551" lon=".861401">
        <ele>1982.435</ele>
        <time>2012-07-08T05:47:41Z</time>
      </trkpt>
      <trkpt lat="42.579562" lon=".861432">
        <ele>1982.478</ele>
        <time>2012-07-08T05:47:57Z</time>
      </trkpt>
      <trkpt lat="42.57956" lon=".861491">
        <ele>1983.395</ele>
        <time>2012-07-08T05:48:14Z</time>
      </trkpt>
      <trkpt lat="42.579557" lon=".861522">
        <ele>1985.315</ele>
        <time>2012-07-08T05:48:18Z</time>
      </trkpt>
      <trkpt lat="42.579567" lon=".861556">
        <ele>1987.765</ele>
        <time>2012-07-08T05:48:25Z</time>
      </trkpt>
      <trkpt lat="42.579595" lon=".861593">
        <ele>1990.611</ele>
        <time>2012-07-08T05:48:40Z</time>
      </trkpt>
      <trkpt lat="42.5796" lon=".861604">
        <ele>1991.007</ele>
        <time>2012-07-08T05:48:54Z</time>
      </trkpt>
      <trkpt lat="42.5796" lon=".861618">
        <ele>1992.044</ele>
        <time>2012-07-08T05:49:07Z</time>
      </trkpt>
      <trkpt lat="42.579593" lon=".861671">
        <ele>1994.942</ele>
        <time>2012-07-08T05:49:19Z</time>
      </trkpt>
      <trkpt lat="42.579595" lon=".86169">
        <ele>1994.975</ele>
        <time>2012-07-08T05:49:35Z</time>
      </trkpt>
      <trkpt lat="42.579595" lon=".861734">
        <ele>1996.875</ele>
        <time>2012-07-08T05:49:49Z</time>
      </trkpt>
      <trkpt lat="42.57962" lon=".861758">
        <ele>1999.721</ele>
        <time>2012-07-08T05:49:57Z</time>
      </trkpt>
      <trkpt lat="42.579649" lon=".861773">
        <ele>2001.174</ele>
        <time>2012-07-08T05:50:00Z</time>
      </trkpt>
      <trkpt lat="42.579655" lon=".861785">
        <ele>2001.661</ele>
        <time>2012-07-08T05:50:23Z</time>
      </trkpt>
      <trkpt lat="42.57965" lon=".861821">
        <ele>2005.559</ele>
        <time>2012-07-08T05:50:33Z</time>
      </trkpt>
      <trkpt lat="42.57963" lon=".86186">
        <ele>2008.303</ele>
        <time>2012-07-08T05:50:45Z</time>
      </trkpt>
      <trkpt lat="42.579635" lon=".861899">
        <ele>2011.223</ele>
        <time>2012-07-08T05:50:56Z</time>
      </trkpt>
      <trkpt lat="42.579636" lon=".861899">
        <ele>2011.207</ele>
        <time>2012-07-08T05:50:57Z</time>
      </trkpt>
      <trkpt lat="42.579657" lon=".861906">
        <ele>2013.158</ele>
        <time>2012-07-08T05:51:00Z</time>
      </trkpt>
      <trkpt lat="42.579643" lon=".861934">
        <ele>2014.616</ele>
        <time>2012-07-08T05:51:11Z</time>
      </trkpt>
      <trkpt lat="42.579666" lon=".861951">
        <ele>2017.029</ele>
        <time>2012-07-08T05:51:23Z</time>
      </trkpt>
      <trkpt lat="42.579683" lon=".861966">
        <ele>2018.949</ele>
        <time>2012-07-08T05:51:33Z</time>
      </trkpt>
      <trkpt lat="42.579683" lon=".861966">
        <ele>2018.915</ele>
        <time>2012-07-08T05:51:53Z</time>
      </trkpt>
      <trkpt lat="42.579696" lon=".861994">
        <ele>2018.478</ele>
        <time>2012-07-08T05:52:06Z</time>
      </trkpt>
      <trkpt lat="42.579701" lon=".862002">
        <ele>2018.465</ele>
        <time>2012-07-08T05:52:21Z</time>
      </trkpt>
      <trkpt lat="42.579701" lon=".862002">
        <ele>2018.496</ele>
        <time>2012-07-08T05:52:36Z</time>
      </trkpt>
      <trkpt lat="42.579711" lon=".862086">
        <ele>2020.831</ele>
        <time>2012-07-08T05:52:51Z</time>
      </trkpt>
      <trkpt lat="42.579718" lon=".8621">
        <ele>2021.324</ele>
        <time>2012-07-08T05:53:07Z</time>
      </trkpt>
      <trkpt lat="42.579727" lon=".862136">
        <ele>2022.307</ele>
        <time>2012-07-08T05:53:27Z</time>
      </trkpt>
      <trkpt lat="42.579735" lon=".862155">
        <ele>2023.212</ele>
        <time>2012-07-08T05:53:44Z</time>
      </trkpt>
      <trkpt lat="42.579747" lon=".862161">
        <ele>2023.750</ele>
        <time>2012-07-08T05:54:01Z</time>
      </trkpt>
      <trkpt lat="42.579747" lon=".862161">
        <ele>2023.783</ele>
        <time>2012-07-08T05:54:21Z</time>
      </trkpt>
      <trkpt lat="42.579765" lon=".862302">
        <ele>2026.653</ele>
        <time>2012-07-08T05:54:36Z</time>
      </trkpt>
      <trkpt lat="42.579779" lon=".862371">
        <ele>2029.589</ele>
        <time>2012-07-08T05:54:46Z</time>
      </trkpt>
      <trkpt lat="42.57977" lon=".862394">
        <ele>2030.012</ele>
        <time>2012-07-08T05:55:00Z</time>
      </trkpt>
      <trkpt lat="42.579779" lon=".862454">
        <ele>2030.919</ele>
        <time>2012-07-08T05:55:14Z</time>
      </trkpt>
      <trkpt lat="42.579795" lon=".862482">
        <ele>2032.425</ele>
        <time>2012-07-08T05:55:31Z</time>
      </trkpt>
      <trkpt lat="42.579797" lon=".862485">
        <ele>2032.826</ele>
        <time>2012-07-08T05:55:52Z</time>
      </trkpt>
      <trkpt lat="42.57981" lon=".862511">
        <ele>2034.308</ele>
        <time>2012-07-08T05:56:05Z</time>
      </trkpt>
      <trkpt lat="42.579806" lon=".862543">
        <ele>2037.707</ele>
        <time>2012-07-08T05:56:14Z</time>
      </trkpt>
      <trkpt lat="42.579789" lon=".862547">
        <ele>2041.045</ele>
        <time>2012-07-08T05:56:19Z</time>
      </trkpt>
      <trkpt lat="42.579791" lon=".862551">
        <ele>2042.053</ele>
        <time>2012-07-08T05:56:35Z</time>
      </trkpt>
      <trkpt lat="42.579797" lon=".862566">
        <ele>2042.976</ele>
        <time>2012-07-08T05:56:57Z</time>
      </trkpt>
      <trkpt lat="42.57979" lon=".862586">
        <ele>2042.966</ele>
        <time>2012-07-08T05:57:14Z</time>
      </trkpt>
      <trkpt lat="42.579782" lon=".862597">
        <ele>2043.492</ele>
        <time>2012-07-08T05:57:32Z</time>
      </trkpt>
      <trkpt lat="42.579784" lon=".862617">
        <ele>2044.485</ele>
        <time>2012-07-08T05:57:52Z</time>
      </trkpt>
      <trkpt lat="42.579791" lon=".862632">
        <ele>2044.942</ele>
        <time>2012-07-08T05:58:09Z</time>
      </trkpt>
      <trkpt lat="42.579802" lon=".862659">
        <ele>2045.368</ele>
        <time>2012-07-08T05:58:32Z</time>
      </trkpt>
      <trkpt lat="42.579808" lon=".862671">
        <ele>2045.842</ele>
        <time>2012-07-08T05:58:59Z</time>
      </trkpt>
      <trkpt lat="42.579802" lon=".862692">
        <ele>2046.326</ele>
        <time>2012-07-08T05:59:22Z</time>
      </trkpt>
      <trkpt lat="42.579845" lon=".862776">
        <ele>2048.207</ele>
        <time>2012-07-08T05:59:37Z</time>
      </trkpt>
      <trkpt lat="42.579837" lon=".862778">
        <ele>2049.749</ele>
        <time>2012-07-08T05:59:42Z</time>
      </trkpt>
      <trkpt lat="42.57985" lon=".862783">
        <ele>2051.657</ele>
        <time>2012-07-08T05:59:48Z</time>
      </trkpt>
      <trkpt lat="42.579845" lon=".862802">
        <ele>2054.560</ele>
        <time>2012-07-08T05:59:56Z</time>
      </trkpt>
      <trkpt lat="42.579838" lon=".862819">
        <ele>2058.380</ele>
        <time>2012-07-08T06:00:03Z</time>
      </trkpt>
      <trkpt lat="42.579838" lon=".862828">
        <ele>2061.226</ele>
        <time>2012-07-08T06:00:07Z</time>
      </trkpt>
      <trkpt lat="42.579839" lon=".862867">
        <ele>2062.719</ele>
        <time>2012-07-08T06:00:23Z</time>
      </trkpt>
      <trkpt lat="42.579865" lon=".862887">
        <ele>2065.136</ele>
        <time>2012-07-08T06:00:38Z</time>
      </trkpt>
      <trkpt lat="42.57988" lon=".862924">
        <ele>2065.153</ele>
        <time>2012-07-08T06:00:53Z</time>
      </trkpt>
      <trkpt lat="42.579833" lon=".862912">
        <ele>2068.404</ele>
        <time>2012-07-08T06:01:06Z</time>
      </trkpt>
      <trkpt lat="42.579814" lon=".862915">
        <ele>2072.314</ele>
        <time>2012-07-08T06:01:16Z</time>
      </trkpt>
      <trkpt lat="42.5798" lon=".862888">
        <ele>2073.707</ele>
        <time>2012-07-08T06:01:21Z</time>
      </trkpt>
      <trkpt lat="42.579766" lon=".862859">
        <ele>2077.128</ele>
        <time>2012-07-08T06:01:30Z</time>
      </trkpt>
      <trkpt lat="42.57975" lon=".862845">
        <ele>2079.056</ele>
        <time>2012-07-08T06:01:46Z</time>
      </trkpt>
      <trkpt lat="42.579725" lon=".862836">
        <ele>2080.479</ele>
        <time>2012-07-08T06:02:01Z</time>
      </trkpt>
      <trkpt lat="42.579727" lon=".862835">
        <ele>2080.469</ele>
        <time>2012-07-08T06:02:22Z</time>
      </trkpt>
      <trkpt lat="42.579729" lon=".862823">
        <ele>2080.475</ele>
        <time>2012-07-08T06:02:40Z</time>
      </trkpt>
      <trkpt lat="42.579716" lon=".862828">
        <ele>2080.978</ele>
        <time>2012-07-08T06:02:54Z</time>
      </trkpt>
      <trkpt lat="42.579716" lon=".862828">
        <ele>2080.995</ele>
        <time>2012-07-08T06:03:08Z</time>
      </trkpt>
      <trkpt lat="42.579703" lon=".86281">
        <ele>2081.931</ele>
        <time>2012-07-08T06:03:16Z</time>
      </trkpt>
      <trkpt lat="42.579682" lon=".862774">
        <ele>2083.861</ele>
        <time>2012-07-08T06:03:19Z</time>
      </trkpt>
      <trkpt lat="42.57968" lon=".862766">
        <ele>2084.307</ele>
        <time>2012-07-08T06:03:37Z</time>
      </trkpt>
      <trkpt lat="42.579652" lon=".862721">
        <ele>2088.107</ele>
        <time>2012-07-08T06:03:48Z</time>
      </trkpt>
      <trkpt lat="42.579647" lon=".86271">
        <ele>2089.156</ele>
        <time>2012-07-08T06:03:50Z</time>
      </trkpt>
      <trkpt lat="42.579616" lon=".862677">
        <ele>2092.944</ele>
        <time>2012-07-08T06:03:57Z</time>
      </trkpt>
      <trkpt lat="42.579618" lon=".862681">
        <ele>2092.917</ele>
        <time>2012-07-08T06:03:58Z</time>
      </trkpt>
      <trkpt lat="42.579601" lon=".862653">
        <ele>2096.357</ele>
        <time>2012-07-08T06:04:10Z</time>
      </trkpt>
      <trkpt lat="42.579601" lon=".862653">
        <ele>2096.363</ele>
        <time>2012-07-08T06:04:11Z</time>
      </trkpt>
      <trkpt lat="42.579579" lon=".862654">
        <ele>2098.756</ele>
        <time>2012-07-08T06:04:22Z</time>
      </trkpt>
      <trkpt lat="42.579541" lon=".862652">
        <ele>2100.123</ele>
        <time>2012-07-08T06:04:32Z</time>
      </trkpt>
      <trkpt lat="42.579504" lon=".862659">
        <ele>2101.185</ele>
        <time>2012-07-08T06:04:44Z</time>
      </trkpt>
      <trkpt lat="42.579491" lon=".862696">
        <ele>2103.089</ele>
        <time>2012-07-08T06:04:56Z</time>
      </trkpt>
      <trkpt lat="42.579501" lon=".862723">
        <ele>2104.517</ele>
        <time>2012-07-08T06:05:14Z</time>
      </trkpt>
      <trkpt lat="42.57948" lon=".862752">
        <ele>2107.407</ele>
        <time>2012-07-08T06:05:28Z</time>
      </trkpt>
      <trkpt lat="42.579461" lon=".862773">
        <ele>2109.851</ele>
        <time>2012-07-08T06:05:41Z</time>
      </trkpt>
      <trkpt lat="42.579432" lon=".862792">
        <ele>2110.729</ele>
        <time>2012-07-08T06:05:53Z</time>
      </trkpt>
      <trkpt lat="42.579406" lon=".862849">
        <ele>2112.682</ele>
        <time>2012-07-08T06:06:05Z</time>
      </trkpt>
      <trkpt lat="42.579426" lon=".862891">
        <ele>2112.612</ele>
        <time>2012-07-08T06:06:17Z</time>
      </trkpt>
      <trkpt lat="42.579436" lon=".862904">
        <ele>2113.638</ele>
        <time>2012-07-08T06:06:31Z</time>
      </trkpt>
      <trkpt lat="42.579435" lon=".862932">
        <ele>2114.181</ele>
        <time>2012-07-08T06:06:46Z</time>
      </trkpt>
      <trkpt lat="42.579441" lon=".862939">
        <ele>2114.178</ele>
        <time>2012-07-08T06:07:03Z</time>
      </trkpt>
      <trkpt lat="42.579448" lon=".862953">
        <ele>2114.666</ele>
        <time>2012-07-08T06:07:16Z</time>
      </trkpt>
      <trkpt lat="42.579454" lon=".862974">
        <ele>2116.029</ele>
        <time>2012-07-08T06:07:30Z</time>
      </trkpt>
      <trkpt lat="42.579452" lon=".863005">
        <ele>2117.021</ele>
        <time>2012-07-08T06:07:48Z</time>
      </trkpt>
      <trkpt lat="42.57947" lon=".863062">
        <ele>2118.407</ele>
        <time>2012-07-08T06:07:59Z</time>
      </trkpt>
      <trkpt lat="42.579471" lon=".863099">
        <ele>2120.369</ele>
        <time>2012-07-08T06:08:14Z</time>
      </trkpt>
      <trkpt lat="42.57945" lon=".863108">
        <ele>2122.387</ele>
        <time>2012-07-08T06:08:26Z</time>
      </trkpt>
      <trkpt lat="42.579446" lon=".863121">
        <ele>2123.780</ele>
        <time>2012-07-08T06:08:38Z</time>
      </trkpt>
      <trkpt lat="42.57944" lon=".86312">
        <ele>2123.740</ele>
        <time>2012-07-08T06:09:01Z</time>
      </trkpt>
      <trkpt lat="42.579419" lon=".863149">
        <ele>2125.636</ele>
        <time>2012-07-08T06:09:15Z</time>
      </trkpt>
      <trkpt lat="42.579405" lon=".86318">
        <ele>2127.149</ele>
        <time>2012-07-08T06:09:32Z</time>
      </trkpt>
      <trkpt lat="42.579407" lon=".863211">
        <ele>2128.056</ele>
        <time>2012-07-08T06:09:50Z</time>
      </trkpt>
      <trkpt lat="42.579436" lon=".863275">
        <ele>2129.027</ele>
        <time>2012-07-08T06:10:04Z</time>
      </trkpt>
      <trkpt lat="42.579424" lon=".86333">
        <ele>2130.968</ele>
        <time>2012-07-08T06:10:16Z</time>
      </trkpt>
      <trkpt lat="42.579401" lon=".863357">
        <ele>2133.314</ele>
        <time>2012-07-08T06:10:31Z</time>
      </trkpt>
      <trkpt lat="42.579396" lon=".863388">
        <ele>2135.707</ele>
        <time>2012-07-08T06:10:44Z</time>
      </trkpt>
      <trkpt lat="42.579399" lon=".86341">
        <ele>2136.745</ele>
        <time>2012-07-08T06:10:58Z</time>
      </trkpt>
      <trkpt lat="42.579397" lon=".863409">
        <ele>2136.773</ele>
        <time>2012-07-08T06:11:27Z</time>
      </trkpt>
      <trkpt lat="42.579394" lon=".863402">
        <ele>2137.266</ele>
        <time>2012-07-08T06:12:00Z</time>
      </trkpt>
      <trkpt lat="42.579394" lon=".86343">
        <ele>2137.616</ele>
        <time>2012-07-08T06:12:16Z</time>
      </trkpt>
      <trkpt lat="42.579413" lon=".863447">
        <ele>2139.172</ele>
        <time>2012-07-08T06:12:29Z</time>
      </trkpt>
      <trkpt lat="42.579409" lon=".863459">
        <ele>2140.055</ele>
        <time>2012-07-08T06:12:45Z</time>
      </trkpt>
      <trkpt lat="42.57944" lon=".863478">
        <ele>2142.412</ele>
        <time>2012-07-08T06:12:56Z</time>
      </trkpt>
      <trkpt lat="42.57945" lon=".863502">
        <ele>2143.942</ele>
        <time>2012-07-08T06:13:08Z</time>
      </trkpt>
      <trkpt lat="42.57944" lon=".863515">
        <ele>2144.422</ele>
        <time>2012-07-08T06:13:25Z</time>
      </trkpt>
      <trkpt lat="42.579432" lon=".86354">
        <ele>2144.814</ele>
        <time>2012-07-08T06:13:37Z</time>
      </trkpt>
      <trkpt lat="42.579427" lon=".863551">
        <ele>2145.307</ele>
        <time>2012-07-08T06:13:52Z</time>
      </trkpt>
      <trkpt lat="42.579429" lon=".863563">
        <ele>2145.877</ele>
        <time>2012-07-08T06:14:10Z</time>
      </trkpt>
      <trkpt lat="42.579438" lon=".863587">
        <ele>2146.395</ele>
        <time>2012-07-08T06:14:25Z</time>
      </trkpt>
      <trkpt lat="42.579445" lon=".863601">
        <ele>2146.348</ele>
        <time>2012-07-08T06:14:42Z</time>
      </trkpt>
      <trkpt lat="42.579444" lon=".863609">
        <ele>2146.318</ele>
        <time>2012-07-08T06:14:56Z</time>
      </trkpt>
      <trkpt lat="42.579444" lon=".863609">
        <ele>2146.354</ele>
        <time>2012-07-08T06:15:21Z</time>
      </trkpt>
      <trkpt lat="42.579453" lon=".863676">
        <ele>2148.297</ele>
        <time>2012-07-08T06:15:33Z</time>
      </trkpt>
      <trkpt lat="42.57946" lon=".863685">
        <ele>2149.284</ele>
        <time>2012-07-08T06:15:51Z</time>
      </trkpt>
      <trkpt lat="42.579468" lon=".863707">
        <ele>2150.183</ele>
        <time>2012-07-08T06:15:54Z</time>
      </trkpt>
      <trkpt lat="42.579459" lon=".86374">
        <ele>2151.625</ele>
        <time>2012-07-08T06:16:04Z</time>
      </trkpt>
      <trkpt lat="42.579458" lon=".863761">
        <ele>2152.117</ele>
        <time>2012-07-08T06:16:20Z</time>
      </trkpt>
      <trkpt lat="42.579455" lon=".863775">
        <ele>2152.507</ele>
        <time>2012-07-08T06:16:31Z</time>
      </trkpt>
      <trkpt lat="42.579454" lon=".863796">
        <ele>2154.561</ele>
        <time>2012-07-08T06:16:39Z</time>
      </trkpt>
      <trkpt lat="42.579436" lon=".863825">
        <ele>2156.929</ele>
        <time>2012-07-08T06:16:53Z</time>
      </trkpt>
      <trkpt lat="42.579429" lon=".863844">
        <ele>2158.322</ele>
        <time>2012-07-08T06:17:08Z</time>
      </trkpt>
      <trkpt lat="42.579434" lon=".863858">
        <ele>2159.392</ele>
        <time>2012-07-08T06:17:23Z</time>
      </trkpt>
      <trkpt lat="42.579458" lon=".863903">
        <ele>2161.718</ele>
        <time>2012-07-08T06:17:37Z</time>
      </trkpt>
      <trkpt lat="42.579469" lon=".863929">
        <ele>2164.141</ele>
        <time>2012-07-08T06:17:50Z</time>
      </trkpt>
      <trkpt lat="42.579475" lon=".863951">
        <ele>2165.578</ele>
        <time>2012-07-08T06:18:03Z</time>
      </trkpt>
      <trkpt lat="42.579482" lon=".863999">
        <ele>2167.436</ele>
        <time>2012-07-08T06:18:15Z</time>
      </trkpt>
      <trkpt lat="42.579481" lon=".864005">
        <ele>2167.417</ele>
        <time>2012-07-08T06:18:27Z</time>
      </trkpt>
      <trkpt lat="42.579481" lon=".864005">
        <ele>2167.418</ele>
        <time>2012-07-08T06:18:59Z</time>
      </trkpt>
      <trkpt lat="42.579473" lon=".864005">
        <ele>2168.407</ele>
        <time>2012-07-08T06:19:22Z</time>
      </trkpt>
      <trkpt lat="42.579472" lon=".864014">
        <ele>2168.426</ele>
        <time>2012-07-08T06:19:56Z</time>
      </trkpt>
      <trkpt lat="42.579471" lon=".864016">
        <ele>2168.924</ele>
        <time>2012-07-08T06:20:31Z</time>
      </trkpt>
      <trkpt lat="42.579472" lon=".864016">
        <ele>2168.947</ele>
        <time>2012-07-08T06:21:04Z</time>
      </trkpt>
      <trkpt lat="42.579472" lon=".864016">
        <ele>2168.967</ele>
        <time>2012-07-08T06:21:38Z</time>
      </trkpt>
      <trkpt lat="42.579473" lon=".864017">
        <ele>2169.453</ele>
        <time>2012-07-08T06:22:13Z</time>
      </trkpt>
      <trkpt lat="42.579474" lon=".864019">
        <ele>2169.866</ele>
        <time>2012-07-08T06:22:51Z</time>
      </trkpt>
      <trkpt lat="42.579473" lon=".864019">
        <ele>2169.833</ele>
        <time>2012-07-08T06:23:24Z</time>
      </trkpt>
      <trkpt lat="42.579471" lon=".864019">
        <ele>2170.331</ele>
        <time>2012-07-08T06:23:56Z</time>
      </trkpt>
      <trkpt lat="42.579471" lon=".864018">
        <ele>2170.361</ele>
        <time>2012-07-08T06:24:32Z</time>
      </trkpt>
      <trkpt lat="42.579473" lon=".86402">
        <ele>2170.807</ele>
        <time>2012-07-08T06:25:09Z</time>
      </trkpt>
      <trkpt lat="42.579473" lon=".86402">
        <ele>2170.807</ele>
        <time>2012-07-08T06:25:35Z</time>
      </trkpt>
      <trkpt lat="42.579474" lon=".864019">
        <ele>2170.866</ele>
        <time>2012-07-08T06:26:12Z</time>
      </trkpt>
      <trkpt lat="42.579475" lon=".864017">
        <ele>2170.844</ele>
        <time>2012-07-08T06:26:47Z</time>
      </trkpt>
      <trkpt lat="42.579476" lon=".864022">
        <ele>2171.377</ele>
        <time>2012-07-08T06:27:08Z</time>
      </trkpt>
      <trkpt lat="42.579477" lon=".864019">
        <ele>2171.327</ele>
        <time>2012-07-08T06:27:41Z</time>
      </trkpt>
      <trkpt lat="42.579479" lon=".864018">
        <ele>2171.353</ele>
        <time>2012-07-08T06:28:17Z</time>
      </trkpt>
      <trkpt lat="42.579479" lon=".864018">
        <ele>2171.356</ele>
        <time>2012-07-08T06:28:53Z</time>
      </trkpt>
      <trkpt lat="42.579482" lon=".864019">
        <ele>2171.833</ele>
        <time>2012-07-08T06:29:23Z</time>
      </trkpt>
      <trkpt lat="42.579478" lon=".86402">
        <ele>2172.717</ele>
        <time>2012-07-08T06:29:35Z</time>
      </trkpt>
      <trkpt lat="42.579478" lon=".86402">
        <ele>2172.787</ele>
        <time>2012-07-08T06:30:06Z</time>
      </trkpt>
      <trkpt lat="42.579476" lon=".864031">
        <ele>2174.215</ele>
        <time>2012-07-08T06:30:18Z</time>
      </trkpt>
      <trkpt lat="42.579462" lon=".864102">
        <ele>2176.107</ele>
        <time>2012-07-08T06:30:31Z</time>
      </trkpt>
      <trkpt lat="42.579492" lon=".864135">
        <ele>2177.044</ele>
        <time>2012-07-08T06:30:47Z</time>
      </trkpt>
      <trkpt lat="42.579584" lon=".864205">
        <ele>2179.022</ele>
        <time>2012-07-08T06:31:02Z</time>
      </trkpt>
      <trkpt lat="42.579576" lon=".864266">
        <ele>2179.925</ele>
        <time>2012-07-08T06:31:15Z</time>
      </trkpt>
      <trkpt lat="42.579564" lon=".864337">
        <ele>2181.425</ele>
        <time>2012-07-08T06:31:33Z</time>
      </trkpt>
      <trkpt lat="42.579599" lon=".864357">
        <ele>2182.381</ele>
        <time>2012-07-08T06:31:48Z</time>
      </trkpt>
      <trkpt lat="42.579595" lon=".864415">
        <ele>2184.394</ele>
        <time>2012-07-08T06:31:59Z</time>
      </trkpt>
      <trkpt lat="42.579595" lon=".864446">
        <ele>2185.771</ele>
        <time>2012-07-08T06:32:16Z</time>
      </trkpt>
      <trkpt lat="42.579601" lon=".864506">
        <ele>2189.144</ele>
        <time>2012-07-08T06:32:30Z</time>
      </trkpt>
      <trkpt lat="42.579606" lon=".864561">
        <ele>2191.005</ele>
        <time>2012-07-08T06:32:40Z</time>
      </trkpt>
      <trkpt lat="42.579598" lon=".864611">
        <ele>2193.415</ele>
        <time>2012-07-08T06:32:51Z</time>
      </trkpt>
      <trkpt lat="42.579594" lon=".864631">
        <ele>2196.307</ele>
        <time>2012-07-08T06:33:06Z</time>
      </trkpt>
      <trkpt lat="42.579587" lon=".864692">
        <ele>2199.297</ele>
        <time>2012-07-08T06:33:18Z</time>
      </trkpt>
      <trkpt lat="42.579624" lon=".864697">
        <ele>2200.655</ele>
        <time>2012-07-08T06:33:32Z</time>
      </trkpt>
      <trkpt lat="42.579664" lon=".864709">
        <ele>2201.668</ele>
        <time>2012-07-08T06:33:45Z</time>
      </trkpt>
      <trkpt lat="42.57968" lon=".864743">
        <ele>2202.578</ele>
        <time>2012-07-08T06:33:48Z</time>
      </trkpt>
      <trkpt lat="42.579744" lon=".864822">
        <ele>2204.924</ele>
        <time>2012-07-08T06:34:00Z</time>
      </trkpt>
      <trkpt lat="42.579745" lon=".86483">
        <ele>2204.947</ele>
        <time>2012-07-08T06:34:01Z</time>
      </trkpt>
      <trkpt lat="42.579784" lon=".864872">
        <ele>2205.474</ele>
        <time>2012-07-08T06:34:09Z</time>
      </trkpt>
      <trkpt lat="42.579831" lon=".864913">
        <ele>2205.965</ele>
        <time>2012-07-08T06:34:22Z</time>
      </trkpt>
      <trkpt lat="42.57982" lon=".864981">
        <ele>2208.868</ele>
        <time>2012-07-08T06:34:33Z</time>
      </trkpt>
      <trkpt lat="42.579815" lon=".86499">
        <ele>2208.814</ele>
        <time>2012-07-08T06:34:34Z</time>
      </trkpt>
      <trkpt lat="42.57981" lon=".865015">
        <ele>2212.607</ele>
        <time>2012-07-08T06:34:38Z</time>
      </trkpt>
      <trkpt lat="42.579805" lon=".865008">
        <ele>2212.629</ele>
        <time>2012-07-08T06:34:39Z</time>
      </trkpt>
      <trkpt lat="42.579777" lon=".865022">
        <ele>2215.587</ele>
        <time>2012-07-08T06:34:43Z</time>
      </trkpt>
      <trkpt lat="42.579739" lon=".865012">
        <ele>2218.960</ele>
        <time>2012-07-08T06:34:47Z</time>
      </trkpt>
      <trkpt lat="42.579693" lon=".865053">
        <ele>2222.760</ele>
        <time>2012-07-08T06:34:58Z</time>
      </trkpt>
      <trkpt lat="42.579635" lon=".865118">
        <ele>2225.636</ele>
        <time>2012-07-08T06:35:09Z</time>
      </trkpt>
      <trkpt lat="42.579615" lon=".865122">
        <ele>2227.089</ele>
        <time>2012-07-08T06:35:23Z</time>
      </trkpt>
      <trkpt lat="42.579615" lon=".865122">
        <ele>2227.066</ele>
        <time>2012-07-08T06:35:44Z</time>
      </trkpt>
      <trkpt lat="42.579609" lon=".865128">
        <ele>2228.579</ele>
        <time>2012-07-08T06:35:58Z</time>
      </trkpt>
      <trkpt lat="42.579623" lon=".865219">
        <ele>2231.805</ele>
        <time>2012-07-08T06:36:08Z</time>
      </trkpt>
      <trkpt lat="42.579608" lon=".865256">
        <ele>2233.325</ele>
        <time>2012-07-08T06:36:21Z</time>
      </trkpt>
      <trkpt lat="42.579579" lon=".865277">
        <ele>2234.707</ele>
        <time>2012-07-08T06:36:26Z</time>
      </trkpt>
      <trkpt lat="42.579571" lon=".865286">
        <ele>2234.730</ele>
        <time>2012-07-08T06:36:28Z</time>
      </trkpt>
      <trkpt lat="42.579546" lon=".865302">
        <ele>2236.218</ele>
        <time>2012-07-08T06:36:31Z</time>
      </trkpt>
      <trkpt lat="42.579479" lon=".865349">
        <ele>2237.611</ele>
        <time>2012-07-08T06:36:44Z</time>
      </trkpt>
      <trkpt lat="42.579422" lon=".865377">
        <ele>2239.131</ele>
        <time>2012-07-08T06:36:55Z</time>
      </trkpt>
      <trkpt lat="42.579397" lon=".865396">
        <ele>2238.647</ele>
        <time>2012-07-08T06:37:03Z</time>
      </trkpt>
      <trkpt lat="42.579388" lon=".865411">
        <ele>2239.170</ele>
        <time>2012-07-08T06:37:05Z</time>
      </trkpt>
      <trkpt lat="42.579328" lon=".865466">
        <ele>2240.597</ele>
        <time>2012-07-08T06:37:17Z</time>
      </trkpt>
      <trkpt lat="42.579293" lon=".865518">
        <ele>2241.084</ele>
        <time>2012-07-08T06:37:28Z</time>
      </trkpt>
      <trkpt lat="42.579301" lon=".86556">
        <ele>2241.007</ele>
        <time>2012-07-08T06:37:40Z</time>
      </trkpt>
      <trkpt lat="42.579262" lon=".865579">
        <ele>2242.917</ele>
        <time>2012-07-08T06:37:52Z</time>
      </trkpt>
      <trkpt lat="42.579255" lon=".865626">
        <ele>2242.907</ele>
        <time>2012-07-08T06:38:03Z</time>
      </trkpt>
      <trkpt lat="42.579264" lon=".865647">
        <ele>2243.411</ele>
        <time>2012-07-08T06:38:21Z</time>
      </trkpt>
      <trkpt lat="42.57925" lon=".865708">
        <ele>2245.849</ele>
        <time>2012-07-08T06:38:32Z</time>
      </trkpt>
      <trkpt lat="42.579241" lon=".865698">
        <ele>2245.322</ele>
        <time>2012-07-08T06:38:51Z</time>
      </trkpt>
      <trkpt lat="42.579251" lon=".865714">
        <ele>2245.342</ele>
        <time>2012-07-08T06:39:16Z</time>
      </trkpt>
      <trkpt lat="42.579303" lon=".865812">
        <ele>2246.358</ele>
        <time>2012-07-08T06:39:28Z</time>
      </trkpt>
      <trkpt lat="42.579317" lon=".865815">
        <ele>2246.741</ele>
        <time>2012-07-08T06:39:32Z</time>
      </trkpt>
      <trkpt lat="42.579324" lon=".865832">
        <ele>2247.738</ele>
        <time>2012-07-08T06:39:39Z</time>
      </trkpt>
      <trkpt lat="42.579354" lon=".865845">
        <ele>2247.723</ele>
        <time>2012-07-08T06:39:44Z</time>
      </trkpt>
      <trkpt lat="42.579389" lon=".865882">
        <ele>2247.783</ele>
        <time>2012-07-08T06:39:56Z</time>
      </trkpt>
      <trkpt lat="42.579395" lon=".865932">
        <ele>2249.611</ele>
        <time>2012-07-08T06:40:12Z</time>
      </trkpt>
      <trkpt lat="42.579399" lon=".865992">
        <ele>2252.007</ele>
        <time>2012-07-08T06:40:24Z</time>
      </trkpt>
      <trkpt lat="42.579402" lon=".866013">
        <ele>2252.525</ele>
        <time>2012-07-08T06:40:41Z</time>
      </trkpt>
      <trkpt lat="42.579411" lon=".866049">
        <ele>2254.923</ele>
        <time>2012-07-08T06:40:57Z</time>
      </trkpt>
      <trkpt lat="42.579411" lon=".866048">
        <ele>2254.946</ele>
        <time>2012-07-08T06:41:19Z</time>
      </trkpt>
      <trkpt lat="42.57944" lon=".866068">
        <ele>2257.316</ele>
        <time>2012-07-08T06:41:32Z</time>
      </trkpt>
      <trkpt lat="42.579456" lon=".866071">
        <ele>2258.852</ele>
        <time>2012-07-08T06:41:44Z</time>
      </trkpt>
      <trkpt lat="42.579474" lon=".86607">
        <ele>2260.775</ele>
        <time>2012-07-08T06:41:55Z</time>
      </trkpt>
      <trkpt lat="42.579482" lon=".866115">
        <ele>2262.612</ele>
        <time>2012-07-08T06:42:06Z</time>
      </trkpt>
      <trkpt lat="42.579474" lon=".866156">
        <ele>2264.084</ele>
        <time>2012-07-08T06:42:22Z</time>
      </trkpt>
      <trkpt lat="42.579495" lon=".86619">
        <ele>2266.907</ele>
        <time>2012-07-08T06:42:33Z</time>
      </trkpt>
      <trkpt lat="42.579492" lon=".866218">
        <ele>2269.817</ele>
        <time>2012-07-08T06:42:45Z</time>
      </trkpt>
      <trkpt lat="42.579488" lon=".866216">
        <ele>2270.807</ele>
        <time>2012-07-08T06:43:01Z</time>
      </trkpt>
      <trkpt lat="42.579526" lon=".866254">
        <ele>2272.221</ele>
        <time>2012-07-08T06:43:11Z</time>
      </trkpt>
      <trkpt lat="42.579551" lon=".86627">
        <ele>2273.279</ele>
        <time>2012-07-08T06:43:21Z</time>
      </trkpt>
      <trkpt lat="42.579561" lon=".866301">
        <ele>2273.252</ele>
        <time>2012-07-08T06:43:35Z</time>
      </trkpt>
      <trkpt lat="42.579572" lon=".866327">
        <ele>2274.682</ele>
        <time>2012-07-08T06:43:47Z</time>
      </trkpt>
      <trkpt lat="42.579551" lon=".866371">
        <ele>2277.028</ele>
        <time>2012-07-08T06:43:59Z</time>
      </trkpt>
      <trkpt lat="42.57954" lon=".866403">
        <ele>2278.071</ele>
        <time>2012-07-08T06:44:11Z</time>
      </trkpt>
      <trkpt lat="42.579525" lon=".866469">
        <ele>2278.998</ele>
        <time>2012-07-08T06:44:25Z</time>
      </trkpt>
      <trkpt lat="42.579526" lon=".866466">
        <ele>2278.961</ele>
        <time>2012-07-08T06:44:41Z</time>
      </trkpt>
      <trkpt lat="42.579529" lon=".866503">
        <ele>2279.921</ele>
        <time>2012-07-08T06:44:44Z</time>
      </trkpt>
      <trkpt lat="42.579504" lon=".866602">
        <ele>2282.813</ele>
        <time>2012-07-08T06:44:56Z</time>
      </trkpt>
      <trkpt lat="42.579487" lon=".866625">
        <ele>2283.307</ele>
        <time>2012-07-08T06:45:12Z</time>
      </trkpt>
      <trkpt lat="42.579488" lon=".866625">
        <ele>2283.349</ele>
        <time>2012-07-08T06:45:43Z</time>
      </trkpt>
      <trkpt lat="42.579488" lon=".866625">
        <ele>2283.367</ele>
        <time>2012-07-08T06:46:08Z</time>
      </trkpt>
      <trkpt lat="42.579489" lon=".866659">
        <ele>2284.290</ele>
        <time>2012-07-08T06:46:28Z</time>
      </trkpt>
      <trkpt lat="42.579481" lon=".866723">
        <ele>2283.860</ele>
        <time>2012-07-08T06:46:39Z</time>
      </trkpt>
      <trkpt lat="42.579431" lon=".866748">
        <ele>2282.896</ele>
        <time>2012-07-08T06:46:52Z</time>
      </trkpt>
      <trkpt lat="42.5794" lon=".866791">
        <ele>2282.389</ele>
        <time>2012-07-08T06:47:04Z</time>
      </trkpt>
      <trkpt lat="42.579381" lon=".86682">
        <ele>2282.356</ele>
        <time>2012-07-08T06:47:14Z</time>
      </trkpt>
      <trkpt lat="42.579372" lon=".866848">
        <ele>2283.378</ele>
        <time>2012-07-08T06:47:28Z</time>
      </trkpt>
      <trkpt lat="42.579369" lon=".866852">
        <ele>2283.833</ele>
        <time>2012-07-08T06:47:45Z</time>
      </trkpt>
      <trkpt lat="42.579372" lon=".866899">
        <ele>2284.726</ele>
        <time>2012-07-08T06:48:03Z</time>
      </trkpt>
      <trkpt lat="42.579364" lon=".866937">
        <ele>2286.207</ele>
        <time>2012-07-08T06:48:15Z</time>
      </trkpt>
      <trkpt lat="42.579392" lon=".866962">
        <ele>2286.260</ele>
        <time>2012-07-08T06:48:28Z</time>
      </trkpt>
      <trkpt lat="42.579407" lon=".866987">
        <ele>2287.168</ele>
        <time>2012-07-08T06:48:41Z</time>
      </trkpt>
      <trkpt lat="42.579443" lon=".867022">
        <ele>2288.131</ele>
        <time>2012-07-08T06:48:54Z</time>
      </trkpt>
      <trkpt lat="42.579463" lon=".867055">
        <ele>2290.521</ele>
        <time>2012-07-08T06:49:06Z</time>
      </trkpt>
      <trkpt lat="42.579479" lon=".867089">
        <ele>2292.967</ele>
        <time>2012-07-08T06:49:17Z</time>
      </trkpt>
      <trkpt lat="42.579482" lon=".867094">
        <ele>2293.850</ele>
        <time>2012-07-08T06:49:27Z</time>
      </trkpt>
      <trkpt lat="42.579494" lon=".867135">
        <ele>2295.837</ele>
        <time>2012-07-08T06:49:42Z</time>
      </trkpt>
      <trkpt lat="42.579509" lon=".867163">
        <ele>2298.229</ele>
        <time>2012-07-08T06:49:58Z</time>
      </trkpt>
      <trkpt lat="42.579521" lon=".867208">
        <ele>2300.600</ele>
        <time>2012-07-08T06:50:10Z</time>
      </trkpt>
      <trkpt lat="42.579547" lon=".867224">
        <ele>2301.520</ele>
        <time>2012-07-08T06:50:25Z</time>
      </trkpt>
      <trkpt lat="42.57956" lon=".867271">
        <ele>2304.907</ele>
        <time>2012-07-08T06:50:39Z</time>
      </trkpt>
      <trkpt lat="42.579566" lon=".867319">
        <ele>2307.345</ele>
        <time>2012-07-08T06:50:49Z</time>
      </trkpt>
      <trkpt lat="42.579546" lon=".86736">
        <ele>2309.243</ele>
        <time>2012-07-08T06:50:58Z</time>
      </trkpt>
      <trkpt lat="42.579542" lon=".867441">
        <ele>2309.746</ele>
        <time>2012-07-08T06:51:10Z</time>
      </trkpt>
      <trkpt lat="42.579537" lon=".867497">
        <ele>2311.276</ele>
        <time>2012-07-08T06:51:22Z</time>
      </trkpt>
      <trkpt lat="42.579536" lon=".86756">
        <ele>2313.612</ele>
        <time>2012-07-08T06:51:35Z</time>
      </trkpt>
      <trkpt lat="42.579541" lon=".867577">
        <ele>2314.095</ele>
        <time>2012-07-08T06:51:49Z</time>
      </trkpt>
      <trkpt lat="42.579591" lon=".867631">
        <ele>2316.472</ele>
        <time>2012-07-08T06:52:00Z</time>
      </trkpt>
      <trkpt lat="42.579651" lon=".867673">
        <ele>2317.965</ele>
        <time>2012-07-08T06:52:12Z</time>
      </trkpt>
      <trkpt lat="42.579689" lon=".867681">
        <ele>2319.368</ele>
        <time>2012-07-08T06:52:25Z</time>
      </trkpt>
      <trkpt lat="42.579677" lon=".86772">
        <ele>2321.214</ele>
        <time>2012-07-08T06:52:36Z</time>
      </trkpt>
      <trkpt lat="42.579694" lon=".867734">
        <ele>2322.207</ele>
        <time>2012-07-08T06:52:49Z</time>
      </trkpt>
      <trkpt lat="42.579712" lon=".867792">
        <ele>2323.229</ele>
        <time>2012-07-08T06:53:03Z</time>
      </trkpt>
      <trkpt lat="42.579739" lon=".867838">
        <ele>2323.627</ele>
        <time>2012-07-08T06:53:14Z</time>
      </trkpt>
      <trkpt lat="42.579745" lon=".867852">
        <ele>2325.160</ele>
        <time>2012-07-08T06:53:38Z</time>
      </trkpt>
      <trkpt lat="42.579784" lon=".867866">
        <ele>2326.140</ele>
        <time>2012-07-08T06:53:53Z</time>
      </trkpt>
      <trkpt lat="42.579812" lon=".867864">
        <ele>2326.546</ele>
        <time>2012-07-08T06:54:05Z</time>
      </trkpt>
      <trkpt lat="42.579815" lon=".867914">
        <ele>2328.939</ele>
        <time>2012-07-08T06:54:16Z</time>
      </trkpt>
      <trkpt lat="42.579828" lon=".867938">
        <ele>2329.936</ele>
        <time>2012-07-08T06:54:27Z</time>
      </trkpt>
      <trkpt lat="42.579803" lon=".867991">
        <ele>2332.847</ele>
        <time>2012-07-08T06:54:37Z</time>
      </trkpt>
      <trkpt lat="42.579788" lon=".868013">
        <ele>2333.729</ele>
        <time>2012-07-08T06:54:55Z</time>
      </trkpt>
      <trkpt lat="42.579786" lon=".868035">
        <ele>2334.221</ele>
        <time>2012-07-08T06:55:02Z</time>
      </trkpt>
      <trkpt lat="42.579764" lon=".868061">
        <ele>2334.707</ele>
        <time>2012-07-08T06:55:12Z</time>
      </trkpt>
      <trkpt lat="42.579742" lon=".868097">
        <ele>2336.187</ele>
        <time>2012-07-08T06:55:26Z</time>
      </trkpt>
      <trkpt lat="42.579737" lon=".8681">
        <ele>2336.145</ele>
        <time>2012-07-08T06:55:35Z</time>
      </trkpt>
      <trkpt lat="42.579681" lon=".868121">
        <ele>2337.698</ele>
        <time>2012-07-08T06:55:45Z</time>
      </trkpt>
      <trkpt lat="42.579652" lon=".868142">
        <ele>2337.668</ele>
        <time>2012-07-08T06:55:57Z</time>
      </trkpt>
      <trkpt lat="42.579625" lon=".86818">
        <ele>2336.674</ele>
        <time>2012-07-08T06:56:10Z</time>
      </trkpt>
      <trkpt lat="42.579598" lon=".868215">
        <ele>2336.657</ele>
        <time>2012-07-08T06:56:21Z</time>
      </trkpt>
      <trkpt lat="42.579579" lon=".868237">
        <ele>2337.664</ele>
        <time>2012-07-08T06:56:36Z</time>
      </trkpt>
      <trkpt lat="42.579551" lon=".868265">
        <ele>2338.514</ele>
        <time>2012-07-08T06:56:47Z</time>
      </trkpt>
      <trkpt lat="42.579514" lon=".868273">
        <ele>2338.154</ele>
        <time>2012-07-08T06:56:59Z</time>
      </trkpt>
      <trkpt lat="42.579512" lon=".868314">
        <ele>2338.509</ele>
        <time>2012-07-08T06:57:10Z</time>
      </trkpt>
      <trkpt lat="42.579509" lon=".868324">
        <ele>2339.007</ele>
        <time>2012-07-08T06:57:16Z</time>
      </trkpt>
      <trkpt lat="42.579494" lon=".868368">
        <ele>2340.094</ele>
        <time>2012-07-08T06:57:26Z</time>
      </trkpt>
      <trkpt lat="42.579491" lon=".868396">
        <ele>2340.032</ele>
        <time>2012-07-08T06:57:39Z</time>
      </trkpt>
      <trkpt lat="42.579477" lon=".868441">
        <ele>2341.035</ele>
        <time>2012-07-08T06:57:51Z</time>
      </trkpt>
      <trkpt lat="42.579448" lon=".868474">
        <ele>2342.425</ele>
        <time>2012-07-08T06:58:05Z</time>
      </trkpt>
      <trkpt lat="42.579438" lon=".868492">
        <ele>2342.931</ele>
        <time>2012-07-08T06:58:21Z</time>
      </trkpt>
      <trkpt lat="42.579402" lon=".868563">
        <ele>2344.814</ele>
        <time>2012-07-08T06:58:35Z</time>
      </trkpt>
      <trkpt lat="42.579408" lon=".868613">
        <ele>2346.221</ele>
        <time>2012-07-08T06:58:47Z</time>
      </trkpt>
      <trkpt lat="42.579411" lon=".86863">
        <ele>2347.214</ele>
        <time>2012-07-08T06:59:00Z</time>
      </trkpt>
      <trkpt lat="42.579422" lon=".868661">
        <ele>2348.654</ele>
        <time>2012-07-08T06:59:09Z</time>
      </trkpt>
      <trkpt lat="42.579445" lon=".868699">
        <ele>2350.109</ele>
        <time>2012-07-08T06:59:23Z</time>
      </trkpt>
      <trkpt lat="42.579439" lon=".868741">
        <ele>2352.007</ele>
        <time>2012-07-08T06:59:34Z</time>
      </trkpt>
      <trkpt lat="42.579455" lon=".868761">
        <ele>2353.964</ele>
        <time>2012-07-08T06:59:44Z</time>
      </trkpt>
      <trkpt lat="42.579472" lon=".868795">
        <ele>2354.452</ele>
        <time>2012-07-08T06:59:57Z</time>
      </trkpt>
      <trkpt lat="42.579475" lon=".868813">
        <ele>2354.465</ele>
        <time>2012-07-08T07:00:12Z</time>
      </trkpt>
      <trkpt lat="42.579493" lon=".868832">
        <ele>2355.495</ele>
        <time>2012-07-08T07:00:24Z</time>
      </trkpt>
      <trkpt lat="42.579524" lon=".868882">
        <ele>2356.851</ele>
        <time>2012-07-08T07:00:35Z</time>
      </trkpt>
      <trkpt lat="42.579532" lon=".868909">
        <ele>2356.834</ele>
        <time>2012-07-08T07:00:49Z</time>
      </trkpt>
      <trkpt lat="42.57953" lon=".868903">
        <ele>2356.841</ele>
        <time>2012-07-08T07:01:19Z</time>
      </trkpt>
      <trkpt lat="42.579549" lon=".868925">
        <ele>2358.761</ele>
        <time>2012-07-08T07:01:35Z</time>
      </trkpt>
      <trkpt lat="42.579569" lon=".868948">
        <ele>2358.721</ele>
        <time>2012-07-08T07:01:50Z</time>
      </trkpt>
      <trkpt lat="42.579569" lon=".868948">
        <ele>2358.713</ele>
        <time>2012-07-08T07:02:20Z</time>
      </trkpt>
      <trkpt lat="42.579553" lon=".869021">
        <ele>2360.707</ele>
        <time>2012-07-08T07:02:36Z</time>
      </trkpt>
      <trkpt lat="42.579566" lon=".869077">
        <ele>2362.169</ele>
        <time>2012-07-08T07:02:47Z</time>
      </trkpt>
      <trkpt lat="42.579587" lon=".869104">
        <ele>2364.057</ele>
        <time>2012-07-08T07:02:59Z</time>
      </trkpt>
      <trkpt lat="42.579615" lon=".86911">
        <ele>2364.540</ele>
        <time>2012-07-08T07:03:12Z</time>
      </trkpt>
      <trkpt lat="42.579644" lon=".869128">
        <ele>2366.460</ele>
        <time>2012-07-08T07:03:25Z</time>
      </trkpt>
      <trkpt lat="42.579665" lon=".86918">
        <ele>2367.996</ele>
        <time>2012-07-08T07:03:36Z</time>
      </trkpt>
      <trkpt lat="42.579719" lon=".869228">
        <ele>2370.319</ele>
        <time>2012-07-08T07:03:49Z</time>
      </trkpt>
      <trkpt lat="42.579704" lon=".869239">
        <ele>2372.216</ele>
        <time>2012-07-08T07:04:03Z</time>
      </trkpt>
      <trkpt lat="42.579686" lon=".869287">
        <ele>2374.682</ele>
        <time>2012-07-08T07:04:15Z</time>
      </trkpt>
      <trkpt lat="42.579676" lon=".869338">
        <ele>2375.643</ele>
        <time>2012-07-08T07:04:30Z</time>
      </trkpt>
      <trkpt lat="42.579688" lon=".869415">
        <ele>2377.017</ele>
        <time>2012-07-08T07:04:42Z</time>
      </trkpt>
      <trkpt lat="42.579709" lon=".86944">
        <ele>2377.507</ele>
        <time>2012-07-08T07:04:54Z</time>
      </trkpt>
      <trkpt lat="42.579717" lon=".869459">
        <ele>2378.011</ele>
        <time>2012-07-08T07:05:07Z</time>
      </trkpt>
      <trkpt lat="42.579781" lon=".869503">
        <ele>2380.419</ele>
        <time>2012-07-08T07:05:19Z</time>
      </trkpt>
      <trkpt lat="42.579786" lon=".869501">
        <ele>2380.822</ele>
        <time>2012-07-08T07:05:30Z</time>
      </trkpt>
      <trkpt lat="42.579791" lon=".869513">
        <ele>2382.332</ele>
        <time>2012-07-08T07:05:52Z</time>
      </trkpt>
      <trkpt lat="42.579802" lon=".86951">
        <ele>2384.748</ele>
        <time>2012-07-08T07:05:56Z</time>
      </trkpt>
      <trkpt lat="42.579811" lon=".869522">
        <ele>2385.731</ele>
        <time>2012-07-08T07:06:09Z</time>
      </trkpt>
      <trkpt lat="42.579826" lon=".869546">
        <ele>2387.178</ele>
        <time>2012-07-08T07:06:22Z</time>
      </trkpt>
      <trkpt lat="42.579852" lon=".869571">
        <ele>2390.067</ele>
        <time>2012-07-08T07:06:34Z</time>
      </trkpt>
      <trkpt lat="42.579854" lon=".869589">
        <ele>2390.981</ele>
        <time>2012-07-08T07:06:55Z</time>
      </trkpt>
      <trkpt lat="42.579861" lon=".869633">
        <ele>2391.419</ele>
        <time>2012-07-08T07:07:07Z</time>
      </trkpt>
      <trkpt lat="42.579861" lon=".869633">
        <ele>2391.407</ele>
        <time>2012-07-08T07:07:08Z</time>
      </trkpt>
      <trkpt lat="42.579918" lon=".869693">
        <ele>2392.429</ele>
        <time>2012-07-08T07:07:21Z</time>
      </trkpt>
      <trkpt lat="42.579925" lon=".86971">
        <ele>2393.377</ele>
        <time>2012-07-08T07:07:37Z</time>
      </trkpt>
      <trkpt lat="42.579922" lon=".869758">
        <ele>2394.330</ele>
        <time>2012-07-08T07:07:47Z</time>
      </trkpt>
      <trkpt lat="42.579933" lon=".869775">
        <ele>2396.220</ele>
        <time>2012-07-08T07:08:01Z</time>
      </trkpt>
      <trkpt lat="42.579944" lon=".869807">
        <ele>2397.776</ele>
        <time>2012-07-08T07:08:17Z</time>
      </trkpt>
      <trkpt lat="42.579948" lon=".869829">
        <ele>2398.669</ele>
        <time>2012-07-08T07:08:31Z</time>
      </trkpt>
      <trkpt lat="42.579941" lon=".869839">
        <ele>2400.156</ele>
        <time>2012-07-08T07:08:42Z</time>
      </trkpt>
      <trkpt lat="42.579934" lon=".869848">
        <ele>2402.552</ele>
        <time>2012-07-08T07:08:47Z</time>
      </trkpt>
      <trkpt lat="42.579935" lon=".869852">
        <ele>2403.053</ele>
        <time>2012-07-08T07:09:08Z</time>
      </trkpt>
      <trkpt lat="42.579934" lon=".869847">
        <ele>2403.008</ele>
        <time>2012-07-08T07:09:32Z</time>
      </trkpt>
      <trkpt lat="42.579933" lon=".86985">
        <ele>2403.407</ele>
        <time>2012-07-08T07:10:07Z</time>
      </trkpt>
      <trkpt lat="42.579928" lon=".869846">
        <ele>2403.488</ele>
        <time>2012-07-08T07:10:38Z</time>
      </trkpt>
      <trkpt lat="42.579931" lon=".869846">
        <ele>2403.956</ele>
        <time>2012-07-08T07:11:02Z</time>
      </trkpt>
      <trkpt lat="42.579924" lon=".869842">
        <ele>2403.979</ele>
        <time>2012-07-08T07:11:39Z</time>
      </trkpt>
      <trkpt lat="42.579926" lon=".869849">
        <ele>2404.929</ele>
        <time>2012-07-08T07:12:07Z</time>
      </trkpt>
      <trkpt lat="42.579927" lon=".869848">
        <ele>2404.995</ele>
        <time>2012-07-08T07:12:28Z</time>
      </trkpt>
      <trkpt lat="42.579927" lon=".869848">
        <ele>2404.948</ele>
        <time>2012-07-08T07:12:51Z</time>
      </trkpt>
      <trkpt lat="42.579934" lon=".869873">
        <ele>2405.415</ele>
        <time>2012-07-08T07:13:03Z</time>
      </trkpt>
      <trkpt lat="42.579937" lon=".869919">
        <ele>2405.837</ele>
        <time>2012-07-08T07:13:14Z</time>
      </trkpt>
      <trkpt lat="42.579953" lon=".869925">
        <ele>2405.849</ele>
        <time>2012-07-08T07:13:29Z</time>
      </trkpt>
      <trkpt lat="42.579967" lon=".869948">
        <ele>2405.413</ele>
        <time>2012-07-08T07:13:45Z</time>
      </trkpt>
      <trkpt lat="42.57997" lon=".869972">
        <ele>2406.807</ele>
        <time>2012-07-08T07:13:53Z</time>
      </trkpt>
      <trkpt lat="42.579952" lon=".870016">
        <ele>2408.286</ele>
        <time>2012-07-08T07:14:05Z</time>
      </trkpt>
      <trkpt lat="42.579938" lon=".870053">
        <ele>2411.124</ele>
        <time>2012-07-08T07:14:14Z</time>
      </trkpt>
      <trkpt lat="42.579934" lon=".870076">
        <ele>2411.647</ele>
        <time>2012-07-08T07:14:23Z</time>
      </trkpt>
      <trkpt lat="42.579914" lon=".870085">
        <ele>2411.657</ele>
        <time>2012-07-08T07:14:39Z</time>
      </trkpt>
      <trkpt lat="42.579908" lon=".870102">
        <ele>2413.163</ele>
        <time>2012-07-08T07:14:47Z</time>
      </trkpt>
      <trkpt lat="42.579921" lon=".87012">
        <ele>2414.066</ele>
        <time>2012-07-08T07:14:58Z</time>
      </trkpt>
      <trkpt lat="42.579909" lon=".870198">
        <ele>2415.513</ele>
        <time>2012-07-08T07:15:14Z</time>
      </trkpt>
      <trkpt lat="42.579915" lon=".870218">
        <ele>2415.571</ele>
        <time>2012-07-08T07:15:16Z</time>
      </trkpt>
      <trkpt lat="42.579939" lon=".870245">
        <ele>2415.941</ele>
        <time>2012-07-08T07:15:30Z</time>
      </trkpt>
      <trkpt lat="42.579949" lon=".870266">
        <ele>2415.915</ele>
        <time>2012-07-08T07:15:45Z</time>
      </trkpt>
      <trkpt lat="42.579968" lon=".870319">
        <ele>2416.907</ele>
        <time>2012-07-08T07:15:59Z</time>
      </trkpt>
      <trkpt lat="42.579969" lon=".870347">
        <ele>2416.960</ele>
        <time>2012-07-08T07:16:06Z</time>
      </trkpt>
      <trkpt lat="42.579984" lon=".870393">
        <ele>2418.338</ele>
        <time>2012-07-08T07:16:16Z</time>
      </trkpt>
      <trkpt lat="42.579989" lon=".87044">
        <ele>2420.321</ele>
        <time>2012-07-08T07:16:29Z</time>
      </trkpt>
      <trkpt lat="42.579984" lon=".87045">
        <ele>2421.291</ele>
        <time>2012-07-08T07:16:47Z</time>
      </trkpt>
      <trkpt lat="42.579967" lon=".870501">
        <ele>2422.247</ele>
        <time>2012-07-08T07:17:00Z</time>
      </trkpt>
      <trkpt lat="42.579953" lon=".870522">
        <ele>2423.690</ele>
        <time>2012-07-08T07:17:12Z</time>
      </trkpt>
      <trkpt lat="42.579957" lon=".870584">
        <ele>2425.177</ele>
        <time>2012-07-08T07:17:29Z</time>
      </trkpt>
      <trkpt lat="42.579944" lon=".870656">
        <ele>2425.571</ele>
        <time>2012-07-08T07:17:41Z</time>
      </trkpt>
      <trkpt lat="42.579947" lon=".870692">
        <ele>2427.041</ele>
        <time>2012-07-08T07:17:54Z</time>
      </trkpt>
      <trkpt lat="42.579959" lon=".870713">
        <ele>2428.415</ele>
        <time>2012-07-08T07:18:06Z</time>
      </trkpt>
      <trkpt lat="42.579968" lon=".870749">
        <ele>2429.907</ele>
        <time>2012-07-08T07:18:20Z</time>
      </trkpt>
      <trkpt lat="42.579978" lon=".870767">
        <ele>2430.860</ele>
        <time>2012-07-08T07:18:34Z</time>
      </trkpt>
      <trkpt lat="42.579979" lon=".87082">
        <ele>2431.368</ele>
        <time>2012-07-08T07:18:45Z</time>
      </trkpt>
      <trkpt lat="42.579989" lon=".870853">
        <ele>2431.811</ele>
        <time>2012-07-08T07:18:57Z</time>
      </trkpt>
      <trkpt lat="42.579983" lon=".870856">
        <ele>2431.881</ele>
        <time>2012-07-08T07:18:58Z</time>
      </trkpt>
      <trkpt lat="42.579987" lon=".870923">
        <ele>2432.327</ele>
        <time>2012-07-08T07:19:11Z</time>
      </trkpt>
      <trkpt lat="42.579982" lon=".870976">
        <ele>2433.280</ele>
        <time>2012-07-08T07:19:24Z</time>
      </trkpt>
      <trkpt lat="42.579995" lon=".871003">
        <ele>2434.267</ele>
        <time>2012-07-08T07:19:34Z</time>
      </trkpt>
      <trkpt lat="42.579995" lon=".871003">
        <ele>2434.263</ele>
        <time>2012-07-08T07:19:39Z</time>
      </trkpt>
      <trkpt lat="42.579998" lon=".871033">
        <ele>2434.244</ele>
        <time>2012-07-08T07:19:53Z</time>
      </trkpt>
      <trkpt lat="42.579999" lon=".871033">
        <ele>2434.218</ele>
        <time>2012-07-08T07:20:15Z</time>
      </trkpt>
      <trkpt lat="42.580008" lon=".871056">
        <ele>2435.607</ele>
        <time>2012-07-08T07:20:29Z</time>
      </trkpt>
      <trkpt lat="42.580011" lon=".871065">
        <ele>2436.659</ele>
        <time>2012-07-08T07:20:43Z</time>
      </trkpt>
      <trkpt lat="42.58003" lon=".87109">
        <ele>2437.667</ele>
        <time>2012-07-08T07:20:55Z</time>
      </trkpt>
      <trkpt lat="42.580024" lon=".871099">
        <ele>2437.660</ele>
        <time>2012-07-08T07:21:12Z</time>
      </trkpt>
      <trkpt lat="42.580024" lon=".871099">
        <ele>2437.660</ele>
        <time>2012-07-08T07:21:16Z</time>
      </trkpt>
      <trkpt lat="42.580012" lon=".871186">
        <ele>2440.946</ele>
        <time>2012-07-08T07:21:27Z</time>
      </trkpt>
      <trkpt lat="42.580016" lon=".871241">
        <ele>2444.339</ele>
        <time>2012-07-08T07:21:41Z</time>
      </trkpt>
      <trkpt lat="42.580024" lon=".871274">
        <ele>2445.716</ele>
        <time>2012-07-08T07:21:52Z</time>
      </trkpt>
      <trkpt lat="42.58002" lon=".871321">
        <ele>2447.721</ele>
        <time>2012-07-08T07:22:05Z</time>
      </trkpt>
      <trkpt lat="42.580002" lon=".871369">
        <ele>2449.141</ele>
        <time>2012-07-08T07:22:17Z</time>
      </trkpt>
      <trkpt lat="42.579996" lon=".871394">
        <ele>2449.605</ele>
        <time>2012-07-08T07:22:33Z</time>
      </trkpt>
      <trkpt lat="42.579987" lon=".871419">
        <ele>2450.107</ele>
        <time>2012-07-08T07:23:07Z</time>
      </trkpt>
      <trkpt lat="42.579969" lon=".871463">
        <ele>2451.555</ele>
        <time>2012-07-08T07:23:19Z</time>
      </trkpt>
      <trkpt lat="42.579949" lon=".871509">
        <ele>2452.053</ele>
        <time>2012-07-08T07:23:33Z</time>
      </trkpt>
      <trkpt lat="42.57991" lon=".871577">
        <ele>2454.436</ele>
        <time>2012-07-08T07:23:44Z</time>
      </trkpt>
      <trkpt lat="42.579888" lon=".871613">
        <ele>2456.356</ele>
        <time>2012-07-08T07:23:55Z</time>
      </trkpt>
      <trkpt lat="42.579879" lon=".871629">
        <ele>2456.882</ele>
        <time>2012-07-08T07:24:10Z</time>
      </trkpt>
      <trkpt lat="42.579865" lon=".871729">
        <ele>2456.395</ele>
        <time>2012-07-08T07:24:20Z</time>
      </trkpt>
      <trkpt lat="42.579876" lon=".87175">
        <ele>2456.362</ele>
        <time>2012-07-08T07:24:30Z</time>
      </trkpt>
      <trkpt lat="42.579859" lon=".871796">
        <ele>2458.217</ele>
        <time>2012-07-08T07:24:44Z</time>
      </trkpt>
      <trkpt lat="42.579846" lon=".871856">
        <ele>2459.287</ele>
        <time>2012-07-08T07:24:59Z</time>
      </trkpt>
      <trkpt lat="42.579833" lon=".871902">
        <ele>2461.115</ele>
        <time>2012-07-08T07:25:09Z</time>
      </trkpt>
      <trkpt lat="42.579816" lon=".871912">
        <ele>2462.607</ele>
        <time>2012-07-08T07:25:22Z</time>
      </trkpt>
      <trkpt lat="42.579799" lon=".871943">
        <ele>2465.084</ele>
        <time>2012-07-08T07:25:37Z</time>
      </trkpt>
      <trkpt lat="42.579812" lon=".87197">
        <ele>2466.982</ele>
        <time>2012-07-08T07:25:49Z</time>
      </trkpt>
      <trkpt lat="42.57983" lon=".872012">
        <ele>2468.855</ele>
        <time>2012-07-08T07:26:03Z</time>
      </trkpt>
      <trkpt lat="42.579852" lon=".872045">
        <ele>2469.335</ele>
        <time>2012-07-08T07:26:16Z</time>
      </trkpt>
      <trkpt lat="42.579841" lon=".872088">
        <ele>2470.211</ele>
        <time>2012-07-08T07:26:30Z</time>
      </trkpt>
      <trkpt lat="42.579824" lon=".872114">
        <ele>2471.754</ele>
        <time>2012-07-08T07:26:44Z</time>
      </trkpt>
      <trkpt lat="42.579848" lon=".872141">
        <ele>2471.751</ele>
        <time>2012-07-08T07:26:55Z</time>
      </trkpt>
      <trkpt lat="42.579878" lon=".87218">
        <ele>2472.786</ele>
        <time>2012-07-08T07:27:06Z</time>
      </trkpt>
      <trkpt lat="42.579918" lon=".872219">
        <ele>2474.160</ele>
        <time>2012-07-08T07:27:16Z</time>
      </trkpt>
      <trkpt lat="42.579926" lon=".872236">
        <ele>2474.626</ele>
        <time>2012-07-08T07:27:30Z</time>
      </trkpt>
      <trkpt lat="42.579921" lon=".872237">
        <ele>2476.507</ele>
        <time>2012-07-08T07:27:44Z</time>
      </trkpt>
      <trkpt lat="42.579922" lon=".872243">
        <ele>2477.081</ele>
        <time>2012-07-08T07:28:04Z</time>
      </trkpt>
      <trkpt lat="42.579919" lon=".872249">
        <ele>2477.589</ele>
        <time>2012-07-08T07:28:23Z</time>
      </trkpt>
      <trkpt lat="42.579914" lon=".872254">
        <ele>2477.932</ele>
        <time>2012-07-08T07:28:24Z</time>
      </trkpt>
      <trkpt lat="42.579926" lon=".872289">
        <ele>2479.412</ele>
        <time>2012-07-08T07:28:29Z</time>
      </trkpt>
      <trkpt lat="42.579918" lon=".872396">
        <ele>2482.768</ele>
        <time>2012-07-08T07:28:40Z</time>
      </trkpt>
      <trkpt lat="42.579908" lon=".872471">
        <ele>2485.681</ele>
        <time>2012-07-08T07:28:52Z</time>
      </trkpt>
      <trkpt lat="42.579922" lon=".872489">
        <ele>2486.678</ele>
        <time>2012-07-08T07:29:08Z</time>
      </trkpt>
      <trkpt lat="42.579916" lon=".872527">
        <ele>2488.535</ele>
        <time>2012-07-08T07:29:21Z</time>
      </trkpt>
      <trkpt lat="42.579908" lon=".87258">
        <ele>2489.086</ele>
        <time>2012-07-08T07:29:34Z</time>
      </trkpt>
      <trkpt lat="42.579899" lon=".872592">
        <ele>2489.514</ele>
        <time>2012-07-08T07:29:36Z</time>
      </trkpt>
      <trkpt lat="42.579886" lon=".872668">
        <ele>2489.507</ele>
        <time>2012-07-08T07:29:49Z</time>
      </trkpt>
      <trkpt lat="42.579882" lon=".872721">
        <ele>2490.916</ele>
        <time>2012-07-08T07:30:00Z</time>
      </trkpt>
      <trkpt lat="42.579891" lon=".872769">
        <ele>2491.964</ele>
        <time>2012-07-08T07:30:10Z</time>
      </trkpt>
      <trkpt lat="42.579885" lon=".872835">
        <ele>2492.837</ele>
        <time>2012-07-08T07:30:19Z</time>
      </trkpt>
      <trkpt lat="42.579878" lon=".872867">
        <ele>2493.857</ele>
        <time>2012-07-08T07:30:29Z</time>
      </trkpt>
      <trkpt lat="42.579883" lon=".872915">
        <ele>2494.863</ele>
        <time>2012-07-08T07:30:40Z</time>
      </trkpt>
      <trkpt lat="42.579902" lon=".872934">
        <ele>2495.726</ele>
        <time>2012-07-08T07:30:50Z</time>
      </trkpt>
      <trkpt lat="42.579909" lon=".872963">
        <ele>2497.253</ele>
        <time>2012-07-08T07:31:01Z</time>
      </trkpt>
      <trkpt lat="42.579924" lon=".872986">
        <ele>2498.198</ele>
        <time>2012-07-08T07:31:10Z</time>
      </trkpt>
      <trkpt lat="42.579969" lon=".873008">
        <ele>2499.615</ele>
        <time>2012-07-08T07:31:21Z</time>
      </trkpt>
      <trkpt lat="42.579981" lon=".873016">
        <ele>2501.026</ele>
        <time>2012-07-08T07:31:25Z</time>
      </trkpt>
      <trkpt lat="42.579999" lon=".873045">
        <ele>2503.407</ele>
        <time>2012-07-08T07:31:37Z</time>
      </trkpt>
      <trkpt lat="42.58002" lon=".873071">
        <ele>2504.912</ele>
        <time>2012-07-08T07:31:52Z</time>
      </trkpt>
      <trkpt lat="42.580062" lon=".873126">
        <ele>2505.870</ele>
        <time>2012-07-08T07:32:05Z</time>
      </trkpt>
      <trkpt lat="42.580093" lon=".873157">
        <ele>2508.763</ele>
        <time>2012-07-08T07:32:14Z</time>
      </trkpt>
      <trkpt lat="42.580115" lon=".873171">
        <ele>2510.663</ele>
        <time>2012-07-08T07:32:24Z</time>
      </trkpt>
      <trkpt lat="42.580128" lon=".873203">
        <ele>2512.179</ele>
        <time>2012-07-08T07:32:35Z</time>
      </trkpt>
      <trkpt lat="42.580162" lon=".873217">
        <ele>2515.442</ele>
        <time>2012-07-08T07:32:44Z</time>
      </trkpt>
      <trkpt lat="42.580183" lon=".873272">
        <ele>2516.469</ele>
        <time>2012-07-08T07:32:54Z</time>
      </trkpt>
      <trkpt lat="42.580195" lon=".873295">
        <ele>2517.868</ele>
        <time>2012-07-08T07:33:07Z</time>
      </trkpt>
      <trkpt lat="42.580198" lon=".873304">
        <ele>2518.342</ele>
        <time>2012-07-08T07:33:23Z</time>
      </trkpt>
      <trkpt lat="42.580238" lon=".873321">
        <ele>2519.326</ele>
        <time>2012-07-08T07:33:37Z</time>
      </trkpt>
      <trkpt lat="42.580259" lon=".873314">
        <ele>2519.307</ele>
        <time>2012-07-08T07:33:48Z</time>
      </trkpt>
      <trkpt lat="42.580269" lon=".873351">
        <ele>2523.119</ele>
        <time>2012-07-08T07:33:59Z</time>
      </trkpt>
      <trkpt lat="42.580274" lon=".873386">
        <ele>2523.647</ele>
        <time>2012-07-08T07:34:12Z</time>
      </trkpt>
      <trkpt lat="42.580267" lon=".873439">
        <ele>2524.660</ele>
        <time>2012-07-08T07:34:21Z</time>
      </trkpt>
      <trkpt lat="42.580265" lon=".873472">
        <ele>2525.050</ele>
        <time>2012-07-08T07:34:34Z</time>
      </trkpt>
      <trkpt lat="42.58026" lon=".873496">
        <ele>2525.596</ele>
        <time>2012-07-08T07:34:49Z</time>
      </trkpt>
      <trkpt lat="42.58026" lon=".873577">
        <ele>2526.539</ele>
        <time>2012-07-08T07:35:00Z</time>
      </trkpt>
      <trkpt lat="42.580264" lon=".873625">
        <ele>2527.936</ele>
        <time>2012-07-08T07:35:12Z</time>
      </trkpt>
      <trkpt lat="42.580266" lon=".873669">
        <ele>2528.481</ele>
        <time>2012-07-08T07:35:22Z</time>
      </trkpt>
      <trkpt lat="42.580275" lon=".873683">
        <ele>2528.961</ele>
        <time>2012-07-08T07:35:34Z</time>
      </trkpt>
      <trkpt lat="42.580285" lon=".873689">
        <ele>2529.917</ele>
        <time>2012-07-08T07:35:45Z</time>
      </trkpt>
      <trkpt lat="42.580312" lon=".873739">
        <ele>2530.807</ele>
        <time>2012-07-08T07:35:54Z</time>
      </trkpt>
      <trkpt lat="42.580315" lon=".873755">
        <ele>2531.861</ele>
        <time>2012-07-08T07:36:05Z</time>
      </trkpt>
      <trkpt lat="42.580331" lon=".87379">
        <ele>2532.769</ele>
        <time>2012-07-08T07:36:16Z</time>
      </trkpt>
      <trkpt lat="42.580356" lon=".873795">
        <ele>2533.762</ele>
        <time>2012-07-08T07:36:27Z</time>
      </trkpt>
      <trkpt lat="42.580377" lon=".873824">
        <ele>2534.742</ele>
        <time>2012-07-08T07:36:37Z</time>
      </trkpt>
      <trkpt lat="42.580379" lon=".873848">
        <ele>2535.638</ele>
        <time>2012-07-08T07:36:51Z</time>
      </trkpt>
      <trkpt lat="42.580393" lon=".873858">
        <ele>2536.681</ele>
        <time>2012-07-08T07:37:03Z</time>
      </trkpt>
      <trkpt lat="42.580406" lon=".873895">
        <ele>2538.038</ele>
        <time>2012-07-08T07:37:14Z</time>
      </trkpt>
      <trkpt lat="42.580426" lon=".873902">
        <ele>2538.585</ele>
        <time>2012-07-08T07:37:26Z</time>
      </trkpt>
      <trkpt lat="42.580443" lon=".873919">
        <ele>2539.589</ele>
        <time>2012-07-08T07:37:43Z</time>
      </trkpt>
      <trkpt lat="42.580453" lon=".873962">
        <ele>2540.917</ele>
        <time>2012-07-08T07:37:54Z</time>
      </trkpt>
      <trkpt lat="42.580437" lon=".874001">
        <ele>2543.307</ele>
        <time>2012-07-08T07:38:09Z</time>
      </trkpt>
      <trkpt lat="42.580441" lon=".874009">
        <ele>2543.381</ele>
        <time>2012-07-08T07:38:14Z</time>
      </trkpt>
      <trkpt lat="42.580447" lon=".874047">
        <ele>2543.399</ele>
        <time>2012-07-08T07:38:24Z</time>
      </trkpt>
      <trkpt lat="42.580449" lon=".874081">
        <ele>2544.322</ele>
        <time>2012-07-08T07:38:39Z</time>
      </trkpt>
      <trkpt lat="42.580436" lon=".874112">
        <ele>2544.852</ele>
        <time>2012-07-08T07:38:42Z</time>
      </trkpt>
      <trkpt lat="42.580424" lon=".874153">
        <ele>2546.788</ele>
        <time>2012-07-08T07:38:52Z</time>
      </trkpt>
      <trkpt lat="42.580434" lon=".874171">
        <ele>2549.161</ele>
        <time>2012-07-08T07:39:03Z</time>
      </trkpt>
      <trkpt lat="42.580433" lon=".874201">
        <ele>2549.618</ele>
        <time>2012-07-08T07:39:13Z</time>
      </trkpt>
      <trkpt lat="42.580444" lon=".874227">
        <ele>2550.564</ele>
        <time>2012-07-08T07:39:24Z</time>
      </trkpt>
      <trkpt lat="42.580434" lon=".874259">
        <ele>2552.006</ele>
        <time>2012-07-08T07:39:37Z</time>
      </trkpt>
      <trkpt lat="42.58041" lon=".874314">
        <ele>2554.416</ele>
        <time>2012-07-08T07:39:48Z</time>
      </trkpt>
      <trkpt lat="42.58041" lon=".874315">
        <ele>2554.407</ele>
        <time>2012-07-08T07:39:49Z</time>
      </trkpt>
      <trkpt lat="42.58041" lon=".874315">
        <ele>2554.469</ele>
        <time>2012-07-08T07:39:51Z</time>
      </trkpt>
      <trkpt lat="42.580397" lon=".874326">
        <ele>2553.957</ele>
        <time>2012-07-08T07:40:02Z</time>
      </trkpt>
      <trkpt lat="42.580398" lon=".874379">
        <ele>2555.380</ele>
        <time>2012-07-08T07:40:13Z</time>
      </trkpt>
      <trkpt lat="42.580353" lon=".874424">
        <ele>2556.320</ele>
        <time>2012-07-08T07:40:23Z</time>
      </trkpt>
      <trkpt lat="42.580342" lon=".874445">
        <ele>2556.356</ele>
        <time>2012-07-08T07:40:25Z</time>
      </trkpt>
      <trkpt lat="42.580333" lon=".874468">
        <ele>2556.349</ele>
        <time>2012-07-08T07:40:27Z</time>
      </trkpt>
      <trkpt lat="42.580312" lon=".874525">
        <ele>2558.756</ele>
        <time>2012-07-08T07:40:38Z</time>
      </trkpt>
      <trkpt lat="42.580276" lon=".874562">
        <ele>2559.256</ele>
        <time>2012-07-08T07:40:51Z</time>
      </trkpt>
      <trkpt lat="42.58025" lon=".874603">
        <ele>2559.259</ele>
        <time>2012-07-08T07:41:02Z</time>
      </trkpt>
      <trkpt lat="42.580279" lon=".874646">
        <ele>2559.214</ele>
        <time>2012-07-08T07:41:16Z</time>
      </trkpt>
      <trkpt lat="42.580272" lon=".874662">
        <ele>2559.207</ele>
        <time>2012-07-08T07:41:27Z</time>
      </trkpt>
      <trkpt lat="42.580255" lon=".874673">
        <ele>2560.648</ele>
        <time>2012-07-08T07:41:37Z</time>
      </trkpt>
      <trkpt lat="42.580242" lon=".874709">
        <ele>2560.686</ele>
        <time>2012-07-08T07:42:01Z</time>
      </trkpt>
      <trkpt lat="42.58022" lon=".874734">
        <ele>2561.689</ele>
        <time>2012-07-08T07:42:12Z</time>
      </trkpt>
      <trkpt lat="42.580209" lon=".874774">
        <ele>2562.579</ele>
        <time>2012-07-08T07:42:18Z</time>
      </trkpt>
      <trkpt lat="42.580182" lon=".874812">
        <ele>2562.115</ele>
        <time>2012-07-08T07:42:22Z</time>
      </trkpt>
      <trkpt lat="42.580147" lon=".874868">
        <ele>2563.088</ele>
        <time>2012-07-08T07:42:34Z</time>
      </trkpt>
      <trkpt lat="42.580139" lon=".874934">
        <ele>2564.045</ele>
        <time>2012-07-08T07:42:45Z</time>
      </trkpt>
      <trkpt lat="42.580121" lon=".874989">
        <ele>2565.432</ele>
        <time>2012-07-08T07:42:57Z</time>
      </trkpt>
      <trkpt lat="42.580119" lon=".874986">
        <ele>2565.492</ele>
        <time>2012-07-08T07:43:16Z</time>
      </trkpt>
      <trkpt lat="42.580083" lon=".875028">
        <ele>2564.511</ele>
        <time>2012-07-08T07:43:28Z</time>
      </trkpt>
      <trkpt lat="42.580081" lon=".875045">
        <ele>2564.507</ele>
        <time>2012-07-08T07:43:33Z</time>
      </trkpt>
      <trkpt lat="42.580056" lon=".875082">
        <ele>2564.056</ele>
        <time>2012-07-08T07:43:41Z</time>
      </trkpt>
      <trkpt lat="42.580067" lon=".875156">
        <ele>2564.524</ele>
        <time>2012-07-08T07:43:54Z</time>
      </trkpt>
      <trkpt lat="42.580058" lon=".875214">
        <ele>2564.977</ele>
        <time>2012-07-08T07:44:07Z</time>
      </trkpt>
      <trkpt lat="42.580034" lon=".875283">
        <ele>2564.977</ele>
        <time>2012-07-08T07:44:19Z</time>
      </trkpt>
      <trkpt lat="42.580025" lon=".875352">
        <ele>2565.953</ele>
        <time>2012-07-08T07:44:30Z</time>
      </trkpt>
      <trkpt lat="42.580021" lon=".875402">
        <ele>2566.936</ele>
        <time>2012-07-08T07:44:37Z</time>
      </trkpt>
      <trkpt lat="42.580003" lon=".875454">
        <ele>2567.353</ele>
        <time>2012-07-08T07:44:48Z</time>
      </trkpt>
      <trkpt lat="42.579974" lon=".875528">
        <ele>2568.334</ele>
        <time>2012-07-08T07:44:59Z</time>
      </trkpt>
      <trkpt lat="42.579968" lon=".875546">
        <ele>2567.355</ele>
        <time>2012-07-08T07:45:01Z</time>
      </trkpt>
      <trkpt lat="42.579922" lon=".875611">
        <ele>2566.410</ele>
        <time>2012-07-08T07:45:14Z</time>
      </trkpt>
      <trkpt lat="42.57987" lon=".875652">
        <ele>2565.907</ele>
        <time>2012-07-08T07:45:28Z</time>
      </trkpt>
      <trkpt lat="42.579892" lon=".875679">
        <ele>2565.496</ele>
        <time>2012-07-08T07:45:37Z</time>
      </trkpt>
      <trkpt lat="42.579871" lon=".875742">
        <ele>2564.934</ele>
        <time>2012-07-08T07:45:50Z</time>
      </trkpt>
      <trkpt lat="42.579824" lon=".875847">
        <ele>2564.987</ele>
        <time>2012-07-08T07:46:04Z</time>
      </trkpt>
      <trkpt lat="42.579808" lon=".875925">
        <ele>2564.087</ele>
        <time>2012-07-08T07:46:16Z</time>
      </trkpt>
      <trkpt lat="42.579803" lon=".875932">
        <ele>2564.043</ele>
        <time>2012-07-08T07:46:23Z</time>
      </trkpt>
      <trkpt lat="42.579784" lon=".875972">
        <ele>2564.596</ele>
        <time>2012-07-08T07:46:36Z</time>
      </trkpt>
      <trkpt lat="42.579767" lon=".876022">
        <ele>2565.493</ele>
        <time>2012-07-08T07:46:49Z</time>
      </trkpt>
      <trkpt lat="42.579759" lon=".876113">
        <ele>2565.435</ele>
        <time>2012-07-08T07:47:01Z</time>
      </trkpt>
      <trkpt lat="42.579754" lon=".87615">
        <ele>2565.986</ele>
        <time>2012-07-08T07:47:12Z</time>
      </trkpt>
      <trkpt lat="42.579754" lon=".876159">
        <ele>2566.414</ele>
        <time>2012-07-08T07:47:24Z</time>
      </trkpt>
      <trkpt lat="42.579765" lon=".87624">
        <ele>2568.807</ele>
        <time>2012-07-08T07:47:37Z</time>
      </trkpt>
      <trkpt lat="42.579773" lon=".876296">
        <ele>2570.716</ele>
        <time>2012-07-08T07:47:50Z</time>
      </trkpt>
      <trkpt lat="42.579785" lon=".876395">
        <ele>2573.114</ele>
        <time>2012-07-08T07:48:01Z</time>
      </trkpt>
      <trkpt lat="42.579783" lon=".87641">
        <ele>2573.187</ele>
        <time>2012-07-08T07:48:04Z</time>
      </trkpt>
      <trkpt lat="42.579783" lon=".876499">
        <ele>2576.547</ele>
        <time>2012-07-08T07:48:17Z</time>
      </trkpt>
      <trkpt lat="42.57978" lon=".876603">
        <ele>2577.023</ele>
        <time>2012-07-08T07:48:30Z</time>
      </trkpt>
      <trkpt lat="42.579784" lon=".876623">
        <ele>2577.956</ele>
        <time>2012-07-08T07:48:32Z</time>
      </trkpt>
      <trkpt lat="42.579789" lon=".876685">
        <ele>2579.853</ele>
        <time>2012-07-08T07:48:41Z</time>
      </trkpt>
      <trkpt lat="42.579792" lon=".876771">
        <ele>2581.374</ele>
        <time>2012-07-08T07:48:54Z</time>
      </trkpt>
      <trkpt lat="42.579771" lon=".876854">
        <ele>2580.356</ele>
        <time>2012-07-08T07:49:09Z</time>
      </trkpt>
      <trkpt lat="42.579763" lon=".876917">
        <ele>2580.321</ele>
        <time>2012-07-08T07:49:22Z</time>
      </trkpt>
      <trkpt lat="42.57976" lon=".876918">
        <ele>2580.807</ele>
        <time>2012-07-08T07:49:36Z</time>
      </trkpt>
      <trkpt lat="42.579754" lon=".876922">
        <ele>2580.850</ele>
        <time>2012-07-08T07:49:50Z</time>
      </trkpt>
      <trkpt lat="42.579751" lon=".876932">
        <ele>2580.818</ele>
        <time>2012-07-08T07:50:04Z</time>
      </trkpt>
      <trkpt lat="42.57974" lon=".876934">
        <ele>2580.861</ele>
        <time>2012-07-08T07:50:16Z</time>
      </trkpt>
      <trkpt lat="42.579741" lon=".876942">
        <ele>2580.871</ele>
        <time>2012-07-08T07:50:32Z</time>
      </trkpt>
      <trkpt lat="42.579738" lon=".876969">
        <ele>2581.327</ele>
        <time>2012-07-08T07:50:46Z</time>
      </trkpt>
      <trkpt lat="42.579733" lon=".876991">
        <ele>2581.840</ele>
        <time>2012-07-08T07:51:03Z</time>
      </trkpt>
      <trkpt lat="42.579742" lon=".877013">
        <ele>2582.227</ele>
        <time>2012-07-08T07:51:16Z</time>
      </trkpt>
      <trkpt lat="42.579736" lon=".877028">
        <ele>2581.346</ele>
        <time>2012-07-08T07:51:33Z</time>
      </trkpt>
      <trkpt lat="42.579736" lon=".877042">
        <ele>2580.388</ele>
        <time>2012-07-08T07:51:48Z</time>
      </trkpt>
      <trkpt lat="42.579722" lon=".877071">
        <ele>2579.416</ele>
        <time>2012-07-08T07:51:54Z</time>
      </trkpt>
      <trkpt lat="42.579695" lon=".87716">
        <ele>2576.007</ele>
        <time>2012-07-08T07:52:08Z</time>
      </trkpt>
      <trkpt lat="42.579694" lon=".877157">
        <ele>2576.037</ele>
        <time>2012-07-08T07:52:09Z</time>
      </trkpt>
      <trkpt lat="42.579685" lon=".8772">
        <ele>2574.175</ele>
        <time>2012-07-08T07:52:14Z</time>
      </trkpt>
      <trkpt lat="42.579648" lon=".877279">
        <ele>2572.698</ele>
        <time>2012-07-08T07:52:27Z</time>
      </trkpt>
      <trkpt lat="42.579639" lon=".877361">
        <ele>2572.178</ele>
        <time>2012-07-08T07:52:39Z</time>
      </trkpt>
      <trkpt lat="42.579627" lon=".877422">
        <ele>2571.754</ele>
        <time>2012-07-08T07:52:50Z</time>
      </trkpt>
      <trkpt lat="42.579626" lon=".877425">
        <ele>2571.747</ele>
        <time>2012-07-08T07:52:51Z</time>
      </trkpt>
      <trkpt lat="42.579593" lon=".877507">
        <ele>2571.284</ele>
        <time>2012-07-08T07:53:02Z</time>
      </trkpt>
      <trkpt lat="42.579571" lon=".877551">
        <ele>2571.768</ele>
        <time>2012-07-08T07:53:14Z</time>
      </trkpt>
      <trkpt lat="42.579546" lon=".877613">
        <ele>2570.742</ele>
        <time>2012-07-08T07:53:28Z</time>
      </trkpt>
      <trkpt lat="42.579531" lon=".877638">
        <ele>2570.726</ele>
        <time>2012-07-08T07:53:39Z</time>
      </trkpt>
      <trkpt lat="42.579508" lon=".877695">
        <ele>2569.707</ele>
        <time>2012-07-08T07:53:49Z</time>
      </trkpt>
      <trkpt lat="42.579526" lon=".877791">
        <ele>2571.729</ele>
        <time>2012-07-08T07:54:01Z</time>
      </trkpt>
      <trkpt lat="42.579529" lon=".877796">
        <ele>2572.167</ele>
        <time>2012-07-08T07:54:02Z</time>
      </trkpt>
      <trkpt lat="42.579532" lon=".877826">
        <ele>2572.660</ele>
        <time>2012-07-08T07:54:05Z</time>
      </trkpt>
      <trkpt lat="42.579536" lon=".877903">
        <ele>2574.130</ele>
        <time>2012-07-08T07:54:17Z</time>
      </trkpt>
      <trkpt lat="42.579526" lon=".877979">
        <ele>2575.046</ele>
        <time>2012-07-08T07:54:29Z</time>
      </trkpt>
      <trkpt lat="42.57952" lon=".87804">
        <ele>2577.929</ele>
        <time>2012-07-08T07:54:40Z</time>
      </trkpt>
      <trkpt lat="42.579509" lon=".878074">
        <ele>2579.876</ele>
        <time>2012-07-08T07:54:55Z</time>
      </trkpt>
      <trkpt lat="42.579477" lon=".878129">
        <ele>2582.757</ele>
        <time>2012-07-08T07:55:09Z</time>
      </trkpt>
      <trkpt lat="42.579404" lon=".878147">
        <ele>2584.600</ele>
        <time>2012-07-08T07:55:22Z</time>
      </trkpt>
      <trkpt lat="42.579343" lon=".878166">
        <ele>2586.620</ele>
        <time>2012-07-08T07:55:31Z</time>
      </trkpt>
      <trkpt lat="42.579323" lon=".878187">
        <ele>2587.507</ele>
        <time>2012-07-08T07:55:35Z</time>
      </trkpt>
      <trkpt lat="42.579302" lon=".878196">
        <ele>2587.558</ele>
        <time>2012-07-08T07:55:37Z</time>
      </trkpt>
      <trkpt lat="42.579267" lon=".878263">
        <ele>2588.036</ele>
        <time>2012-07-08T07:55:45Z</time>
      </trkpt>
      <trkpt lat="42.579251" lon=".878351">
        <ele>2589.549</ele>
        <time>2012-07-08T07:55:55Z</time>
      </trkpt>
      <trkpt lat="42.579175" lon=".878436">
        <ele>2591.959</ele>
        <time>2012-07-08T07:56:08Z</time>
      </trkpt>
      <trkpt lat="42.579121" lon=".878516">
        <ele>2591.945</ele>
        <time>2012-07-08T07:56:21Z</time>
      </trkpt>
      <trkpt lat="42.57908" lon=".878612">
        <ele>2592.868</ele>
        <time>2012-07-08T07:56:36Z</time>
      </trkpt>
      <trkpt lat="42.579103" lon=".878666">
        <ele>2593.325</ele>
        <time>2012-07-08T07:56:50Z</time>
      </trkpt>
      <trkpt lat="42.579104" lon=".878724">
        <ele>2593.836</ele>
        <time>2012-07-08T07:56:57Z</time>
      </trkpt>
      <trkpt lat="42.579145" lon=".87887">
        <ele>2594.317</ele>
        <time>2012-07-08T07:57:11Z</time>
      </trkpt>
      <trkpt lat="42.579149" lon=".878894">
        <ele>2593.818</ele>
        <time>2012-07-08T07:57:15Z</time>
      </trkpt>
      <trkpt lat="42.579174" lon=".878917">
        <ele>2594.307</ele>
        <time>2012-07-08T07:57:19Z</time>
      </trkpt>
      <trkpt lat="42.5792" lon=".878965">
        <ele>2594.716</ele>
        <time>2012-07-08T07:57:24Z</time>
      </trkpt>
      <trkpt lat="42.579226" lon=".878981">
        <ele>2594.724</ele>
        <time>2012-07-08T07:57:28Z</time>
      </trkpt>
      <trkpt lat="42.579218" lon=".879028">
        <ele>2595.257</ele>
        <time>2012-07-08T07:57:32Z</time>
      </trkpt>
      <trkpt lat="42.579239" lon=".879138">
        <ele>2597.617</ele>
        <time>2012-07-08T07:57:44Z</time>
      </trkpt>
      <trkpt lat="42.579256" lon=".879204">
        <ele>2599.113</ele>
        <time>2012-07-08T07:57:51Z</time>
      </trkpt>
      <trkpt lat="42.579269" lon=".879296">
        <ele>2601.056</ele>
        <time>2012-07-08T07:58:05Z</time>
      </trkpt>
      <trkpt lat="42.579276" lon=".879336">
        <ele>2602.023</ele>
        <time>2012-07-08T07:58:17Z</time>
      </trkpt>
      <trkpt lat="42.579249" lon=".879352">
        <ele>2603.986</ele>
        <time>2012-07-08T07:58:32Z</time>
      </trkpt>
      <trkpt lat="42.579249" lon=".879352">
        <ele>2603.960</ele>
        <time>2012-07-08T07:58:49Z</time>
      </trkpt>
      <trkpt lat="42.579288" lon=".879386">
        <ele>2605.326</ele>
        <time>2012-07-08T07:58:59Z</time>
      </trkpt>
      <trkpt lat="42.579329" lon=".879441">
        <ele>2606.307</ele>
        <time>2012-07-08T07:59:11Z</time>
      </trkpt>
      <trkpt lat="42.579345" lon=".87946">
        <ele>2607.221</ele>
        <time>2012-07-08T07:59:21Z</time>
      </trkpt>
      <trkpt lat="42.579342" lon=".879486">
        <ele>2608.229</ele>
        <time>2012-07-08T07:59:34Z</time>
      </trkpt>
      <trkpt lat="42.579317" lon=".87956">
        <ele>2610.672</ele>
        <time>2012-07-08T07:59:46Z</time>
      </trkpt>
      <trkpt lat="42.579335" lon=".879632">
        <ele>2613.542</ele>
        <time>2012-07-08T07:59:58Z</time>
      </trkpt>
      <trkpt lat="42.579361" lon=".879671">
        <ele>2616.448</ele>
        <time>2012-07-08T08:00:06Z</time>
      </trkpt>
      <trkpt lat="42.579362" lon=".879722">
        <ele>2618.841</ele>
        <time>2012-07-08T08:00:16Z</time>
      </trkpt>
      <trkpt lat="42.579399" lon=".8798">
        <ele>2621.288</ele>
        <time>2012-07-08T08:00:28Z</time>
      </trkpt>
      <trkpt lat="42.579438" lon=".879872">
        <ele>2623.124</ele>
        <time>2012-07-08T08:00:41Z</time>
      </trkpt>
      <trkpt lat="42.579475" lon=".879969">
        <ele>2625.504</ele>
        <time>2012-07-08T08:00:53Z</time>
      </trkpt>
      <trkpt lat="42.579499" lon=".879994">
        <ele>2626.514</ele>
        <time>2012-07-08T08:00:57Z</time>
      </trkpt>
      <trkpt lat="42.579514" lon=".880041">
        <ele>2627.407</ele>
        <time>2012-07-08T08:01:12Z</time>
      </trkpt>
      <trkpt lat="42.579513" lon=".880055">
        <ele>2627.475</ele>
        <time>2012-07-08T08:01:15Z</time>
      </trkpt>
      <trkpt lat="42.579526" lon=".880185">
        <ele>2627.973</ele>
        <time>2012-07-08T08:01:26Z</time>
      </trkpt>
      <trkpt lat="42.579526" lon=".880299">
        <ele>2628.926</ele>
        <time>2012-07-08T08:01:36Z</time>
      </trkpt>
      <trkpt lat="42.579517" lon=".880346">
        <ele>2629.886</ele>
        <time>2012-07-08T08:01:40Z</time>
      </trkpt>
      <trkpt lat="42.579531" lon=".880385">
        <ele>2630.392</ele>
        <time>2012-07-08T08:01:43Z</time>
      </trkpt>
      <trkpt lat="42.579557" lon=".880424">
        <ele>2630.885</ele>
        <time>2012-07-08T08:01:47Z</time>
      </trkpt>
      <trkpt lat="42.579563" lon=".880453">
        <ele>2630.882</ele>
        <time>2012-07-08T08:01:49Z</time>
      </trkpt>
      <trkpt lat="42.579609" lon=".880551">
        <ele>2631.855</ele>
        <time>2012-07-08T08:01:59Z</time>
      </trkpt>
      <trkpt lat="42.579624" lon=".880618">
        <ele>2633.707</ele>
        <time>2012-07-08T08:02:05Z</time>
      </trkpt>
      <trkpt lat="42.57964" lon=".880749">
        <ele>2635.617</ele>
        <time>2012-07-08T08:02:16Z</time>
      </trkpt>
      <trkpt lat="42.579628" lon=".880786">
        <ele>2635.607</ele>
        <time>2012-07-08T08:02:20Z</time>
      </trkpt>
      <trkpt lat="42.57963" lon=".880805">
        <ele>2636.128</ele>
        <time>2012-07-08T08:02:22Z</time>
      </trkpt>
      <trkpt lat="42.579627" lon=".880828">
        <ele>2636.196</ele>
        <time>2012-07-08T08:02:24Z</time>
      </trkpt>
      <trkpt lat="42.579589" lon=".880872">
        <ele>2636.649</ele>
        <time>2012-07-08T08:02:29Z</time>
      </trkpt>
      <trkpt lat="42.579582" lon=".880941">
        <ele>2636.629</ele>
        <time>2012-07-08T08:02:34Z</time>
      </trkpt>
      <trkpt lat="42.579584" lon=".880971">
        <ele>2636.665</ele>
        <time>2012-07-08T08:02:36Z</time>
      </trkpt>
      <trkpt lat="42.579582" lon=".881001">
        <ele>2636.628</ele>
        <time>2012-07-08T08:02:38Z</time>
      </trkpt>
      <trkpt lat="42.579585" lon=".881025">
        <ele>2636.695</ele>
        <time>2012-07-08T08:02:40Z</time>
      </trkpt>
      <trkpt lat="42.579542" lon=".881155">
        <ele>2637.594</ele>
        <time>2012-07-08T08:02:52Z</time>
      </trkpt>
      <trkpt lat="42.579568" lon=".881321">
        <ele>2635.657</ele>
        <time>2012-07-08T08:03:06Z</time>
      </trkpt>
      <trkpt lat="42.579569" lon=".881334">
        <ele>2635.122</ele>
        <time>2012-07-08T08:03:07Z</time>
      </trkpt>
      <trkpt lat="42.579561" lon=".881364">
        <ele>2635.107</ele>
        <time>2012-07-08T08:03:09Z</time>
      </trkpt>
      <trkpt lat="42.579552" lon=".881504">
        <ele>2636.152</ele>
        <time>2012-07-08T08:03:21Z</time>
      </trkpt>
      <trkpt lat="42.579559" lon=".881531">
        <ele>2636.160</ele>
        <time>2012-07-08T08:03:23Z</time>
      </trkpt>
      <trkpt lat="42.579587" lon=".881681">
        <ele>2636.193</ele>
        <time>2012-07-08T08:03:35Z</time>
      </trkpt>
      <trkpt lat="42.579574" lon=".881754">
        <ele>2637.013</ele>
        <time>2012-07-08T08:03:47Z</time>
      </trkpt>
      <trkpt lat="42.579572" lon=".881755">
        <ele>2637.039</ele>
        <time>2012-07-08T08:04:05Z</time>
      </trkpt>
      <trkpt lat="42.579578" lon=".881765">
        <ele>2637.072</ele>
        <time>2012-07-08T08:04:22Z</time>
      </trkpt>
      <trkpt lat="42.579613" lon=".881867">
        <ele>2637.049</ele>
        <time>2012-07-08T08:04:36Z</time>
      </trkpt>
      <trkpt lat="42.57968" lon=".881917">
        <ele>2635.664</ele>
        <time>2012-07-08T08:04:47Z</time>
      </trkpt>
      <trkpt lat="42.579677" lon=".881946">
        <ele>2635.606</ele>
        <time>2012-07-08T08:05:04Z</time>
      </trkpt>
      <trkpt lat="42.579721" lon=".882017">
        <ele>2634.216</ele>
        <time>2012-07-08T08:05:16Z</time>
      </trkpt>
      <trkpt lat="42.57972" lon=".882121">
        <ele>2631.307</ele>
        <time>2012-07-08T08:05:29Z</time>
      </trkpt>
      <trkpt lat="42.579722" lon=".882129">
        <ele>2631.319</ele>
        <time>2012-07-08T08:05:30Z</time>
      </trkpt>
      <trkpt lat="42.579797" lon=".882208">
        <ele>2627.487</ele>
        <time>2012-07-08T08:05:44Z</time>
      </trkpt>
      <trkpt lat="42.57982" lon=".882313">
        <ele>2625.020</ele>
        <time>2012-07-08T08:05:57Z</time>
      </trkpt>
      <trkpt lat="42.579883" lon=".882404">
        <ele>2622.140</ele>
        <time>2012-07-08T08:06:09Z</time>
      </trkpt>
      <trkpt lat="42.579931" lon=".882457">
        <ele>2620.256</ele>
        <time>2012-07-08T08:06:22Z</time>
      </trkpt>
      <trkpt lat="42.579941" lon=".882495">
        <ele>2618.899</ele>
        <time>2012-07-08T08:06:37Z</time>
      </trkpt>
      <trkpt lat="42.57996" lon=".882533">
        <ele>2617.846</ele>
        <time>2012-07-08T08:06:49Z</time>
      </trkpt>
      <trkpt lat="42.57997" lon=".882539">
        <ele>2617.383</ele>
        <time>2012-07-08T08:07:03Z</time>
      </trkpt>
      <trkpt lat="42.579987" lon=".882581">
        <ele>2616.925</ele>
        <time>2012-07-08T08:07:14Z</time>
      </trkpt>
      <trkpt lat="42.580024" lon=".882628">
        <ele>2615.417</ele>
        <time>2012-07-08T08:07:26Z</time>
      </trkpt>
      <trkpt lat="42.580095" lon=".882699">
        <ele>2614.407</ele>
        <time>2012-07-08T08:07:39Z</time>
      </trkpt>
      <trkpt lat="42.580113" lon=".882768">
        <ele>2613.041</ele>
        <time>2012-07-08T08:07:49Z</time>
      </trkpt>
      <trkpt lat="42.580126" lon=".882784">
        <ele>2613.019</ele>
        <time>2012-07-08T08:07:52Z</time>
      </trkpt>
      <trkpt lat="42.580173" lon=".882854">
        <ele>2611.642</ele>
        <time>2012-07-08T08:08:05Z</time>
      </trkpt>
      <trkpt lat="42.580211" lon=".882953">
        <ele>2612.542</ele>
        <time>2012-07-08T08:08:17Z</time>
      </trkpt>
      <trkpt lat="42.580241" lon=".882997">
        <ele>2612.598</ele>
        <time>2012-07-08T08:08:29Z</time>
      </trkpt>
      <trkpt lat="42.580261" lon=".883092">
        <ele>2614.421</ele>
        <time>2012-07-08T08:08:42Z</time>
      </trkpt>
      <trkpt lat="42.580292" lon=".883151">
        <ele>2615.478</ele>
        <time>2012-07-08T08:08:53Z</time>
      </trkpt>
      <trkpt lat="42.580297" lon=".883141">
        <ele>2615.448</ele>
        <time>2012-07-08T08:08:58Z</time>
      </trkpt>
      <trkpt lat="42.580337" lon=".883188">
        <ele>2616.461</ele>
        <time>2012-07-08T08:09:08Z</time>
      </trkpt>
      <trkpt lat="42.580355" lon=".883217">
        <ele>2617.317</ele>
        <time>2012-07-08T08:09:21Z</time>
      </trkpt>
      <trkpt lat="42.58035" lon=".883254">
        <ele>2618.307</ele>
        <time>2012-07-08T08:09:37Z</time>
      </trkpt>
      <trkpt lat="42.580385" lon=".88329">
        <ele>2616.977</ele>
        <time>2012-07-08T08:09:46Z</time>
      </trkpt>
      <trkpt lat="42.580401" lon=".883314">
        <ele>2618.345</ele>
        <time>2012-07-08T08:09:57Z</time>
      </trkpt>
      <trkpt lat="42.580439" lon=".883338">
        <ele>2617.398</ele>
        <time>2012-07-08T08:10:10Z</time>
      </trkpt>
      <trkpt lat="42.580485" lon=".883376">
        <ele>2615.988</ele>
        <time>2012-07-08T08:10:20Z</time>
      </trkpt>
      <trkpt lat="42.580502" lon=".883409">
        <ele>2615.494</ele>
        <time>2012-07-08T08:10:33Z</time>
      </trkpt>
      <trkpt lat="42.580513" lon=".883433">
        <ele>2614.977</ele>
        <time>2012-07-08T08:10:46Z</time>
      </trkpt>
      <trkpt lat="42.580538" lon=".883477">
        <ele>2613.544</ele>
        <time>2012-07-08T08:11:01Z</time>
      </trkpt>
      <trkpt lat="42.580532" lon=".883463">
        <ele>2613.521</ele>
        <time>2012-07-08T08:11:16Z</time>
      </trkpt>
      <trkpt lat="42.5806" lon=".883497">
        <ele>2612.041</ele>
        <time>2012-07-08T08:11:28Z</time>
      </trkpt>
      <trkpt lat="42.580631" lon=".883511">
        <ele>2611.105</ele>
        <time>2012-07-08T08:11:39Z</time>
      </trkpt>
      <trkpt lat="42.58064" lon=".883514">
        <ele>2610.607</ele>
        <time>2012-07-08T08:11:52Z</time>
      </trkpt>
      <trkpt lat="42.580656" lon=".883516">
        <ele>2610.625</ele>
        <time>2012-07-08T08:12:04Z</time>
      </trkpt>
      <trkpt lat="42.580691" lon=".88356">
        <ele>2615.453</ele>
        <time>2012-07-08T08:12:15Z</time>
      </trkpt>
      <trkpt lat="42.58071" lon=".883592">
        <ele>2615.436</ele>
        <time>2012-07-08T08:12:16Z</time>
      </trkpt>
      <trkpt lat="42.580726" lon=".883603">
        <ele>2616.456</ele>
        <time>2012-07-08T08:12:32Z</time>
      </trkpt>
      <trkpt lat="42.580748" lon=".883591">
        <ele>2618.362</ele>
        <time>2012-07-08T08:12:48Z</time>
      </trkpt>
      <trkpt lat="42.58076" lon=".883586">
        <ele>2618.895</ele>
        <time>2012-07-08T08:13:00Z</time>
      </trkpt>
      <trkpt lat="42.580787" lon=".883565">
        <ele>2620.742</ele>
        <time>2012-07-08T08:13:04Z</time>
      </trkpt>
      <trkpt lat="42.580802" lon=".883565">
        <ele>2621.792</ele>
        <time>2012-07-08T08:13:18Z</time>
      </trkpt>
      <trkpt lat="42.580813" lon=".883551">
        <ele>2623.173</ele>
        <time>2012-07-08T08:13:40Z</time>
      </trkpt>
      <trkpt lat="42.580839" lon=".883539">
        <ele>2626.020</ele>
        <time>2012-07-08T08:13:47Z</time>
      </trkpt>
      <trkpt lat="42.580856" lon=".883528">
        <ele>2629.307</ele>
        <time>2012-07-08T08:13:53Z</time>
      </trkpt>
      <trkpt lat="42.580857" lon=".883522">
        <ele>2629.342</ele>
        <time>2012-07-08T08:13:54Z</time>
      </trkpt>
      <trkpt lat="42.580865" lon=".883491">
        <ele>2632.280</ele>
        <time>2012-07-08T08:14:07Z</time>
      </trkpt>
      <trkpt lat="42.580875" lon=".883491">
        <ele>2632.763</ele>
        <time>2012-07-08T08:14:22Z</time>
      </trkpt>
      <trkpt lat="42.580874" lon=".883483">
        <ele>2633.233</ele>
        <time>2012-07-08T08:14:39Z</time>
      </trkpt>
      <trkpt lat="42.580891" lon=".88346">
        <ele>2635.189</ele>
        <time>2012-07-08T08:14:50Z</time>
      </trkpt>
      <trkpt lat="42.5809" lon=".883457">
        <ele>2636.192</ele>
        <time>2012-07-08T08:15:05Z</time>
      </trkpt>
      <trkpt lat="42.5809" lon=".883451">
        <ele>2635.619</ele>
        <time>2012-07-08T08:15:28Z</time>
      </trkpt>
      <trkpt lat="42.580915" lon=".883441">
        <ele>2637.599</ele>
        <time>2012-07-08T08:15:32Z</time>
      </trkpt>
      <trkpt lat="42.580931" lon=".883411">
        <ele>2639.007</ele>
        <time>2012-07-08T08:15:35Z</time>
      </trkpt>
      <trkpt lat="42.58097" lon=".883361">
        <ele>2641.827</ele>
        <time>2012-07-08T08:15:49Z</time>
      </trkpt>
      <trkpt lat="42.580988" lon=".883376">
        <ele>2642.807</ele>
        <time>2012-07-08T08:16:01Z</time>
      </trkpt>
      <trkpt lat="42.580989" lon=".883378">
        <ele>2642.832</ele>
        <time>2012-07-08T08:16:19Z</time>
      </trkpt>
      <trkpt lat="42.581023" lon=".883311">
        <ele>2644.260</ele>
        <time>2012-07-08T08:16:33Z</time>
      </trkpt>
      <trkpt lat="42.581052" lon=".883304">
        <ele>2644.763</ele>
        <time>2012-07-08T08:16:43Z</time>
      </trkpt>
      <trkpt lat="42.581079" lon=".883268">
        <ele>2646.753</ele>
        <time>2012-07-08T08:16:56Z</time>
      </trkpt>
      <trkpt lat="42.581098" lon=".88327">
        <ele>2648.169</ele>
        <time>2012-07-08T08:17:07Z</time>
      </trkpt>
      <trkpt lat="42.581125" lon=".883256">
        <ele>2649.582</ele>
        <time>2012-07-08T08:17:18Z</time>
      </trkpt>
      <trkpt lat="42.581149" lon=".883253">
        <ele>2651.549</ele>
        <time>2012-07-08T08:17:30Z</time>
      </trkpt>
      <trkpt lat="42.581163" lon=".883263">
        <ele>2651.554</ele>
        <time>2012-07-08T08:17:42Z</time>
      </trkpt>
      <trkpt lat="42.581163" lon=".883263">
        <ele>2651.556</ele>
        <time>2012-07-08T08:18:08Z</time>
      </trkpt>
      <trkpt lat="42.581181" lon=".883236">
        <ele>2652.911</ele>
        <time>2012-07-08T08:18:23Z</time>
      </trkpt>
      <trkpt lat="42.581195" lon=".883238">
        <ele>2652.907</ele>
        <time>2012-07-08T08:18:39Z</time>
      </trkpt>
      <trkpt lat="42.581211" lon=".883221">
        <ele>2653.438</ele>
        <time>2012-07-08T08:18:57Z</time>
      </trkpt>
      <trkpt lat="42.581218" lon=".883213">
        <ele>2653.416</ele>
        <time>2012-07-08T08:19:16Z</time>
      </trkpt>
      <trkpt lat="42.581227" lon=".883207">
        <ele>2653.939</ele>
        <time>2012-07-08T08:19:37Z</time>
      </trkpt>
      <trkpt lat="42.581227" lon=".883207">
        <ele>2653.919</ele>
        <time>2012-07-08T08:19:53Z</time>
      </trkpt>
      <trkpt lat="42.581227" lon=".883208">
        <ele>2654.385</ele>
        <time>2012-07-08T08:20:30Z</time>
      </trkpt>
      <trkpt lat="42.581229" lon=".883194">
        <ele>2654.828</ele>
        <time>2012-07-08T08:20:58Z</time>
      </trkpt>
      <trkpt lat="42.581227" lon=".883188">
        <ele>2654.325</ele>
        <time>2012-07-08T08:21:32Z</time>
      </trkpt>
      <trkpt lat="42.581226" lon=".883189">
        <ele>2654.851</ele>
        <time>2012-07-08T08:22:12Z</time>
      </trkpt>
      <trkpt lat="42.58123" lon=".883193">
        <ele>2654.801</ele>
        <time>2012-07-08T08:22:53Z</time>
      </trkpt>
      <trkpt lat="42.581235" lon=".883195">
        <ele>2655.311</ele>
        <time>2012-07-08T08:23:25Z</time>
      </trkpt>
      <trkpt lat="42.581235" lon=".883195">
        <ele>2655.307</ele>
        <time>2012-07-08T08:23:49Z</time>
      </trkpt>
      <trkpt lat="42.581242" lon=".883181">
        <ele>2655.358</ele>
        <time>2012-07-08T08:24:09Z</time>
      </trkpt>
      <trkpt lat="42.581246" lon=".883176">
        <ele>2655.816</ele>
        <time>2012-07-08T08:24:12Z</time>
      </trkpt>
      <trkpt lat="42.581288" lon=".883159">
        <ele>2657.299</ele>
        <time>2012-07-08T08:24:24Z</time>
      </trkpt>
      <trkpt lat="42.581309" lon=".883161">
        <ele>2658.269</ele>
        <time>2012-07-08T08:24:28Z</time>
      </trkpt>
      <trkpt lat="42.581381" lon=".883146">
        <ele>2661.635</ele>
        <time>2012-07-08T08:24:36Z</time>
      </trkpt>
      <trkpt lat="42.581421" lon=".883145">
        <ele>2664.958</ele>
        <time>2012-07-08T08:24:44Z</time>
      </trkpt>
      <trkpt lat="42.581432" lon=".883128">
        <ele>2666.435</ele>
        <time>2012-07-08T08:24:58Z</time>
      </trkpt>
      <trkpt lat="42.581462" lon=".883127">
        <ele>2666.872</ele>
        <time>2012-07-08T08:25:10Z</time>
      </trkpt>
      <trkpt lat="42.581474" lon=".883129">
        <ele>2666.813</ele>
        <time>2012-07-08T08:25:23Z</time>
      </trkpt>
      <trkpt lat="42.581529" lon=".883067">
        <ele>2669.214</ele>
        <time>2012-07-08T08:25:35Z</time>
      </trkpt>
      <trkpt lat="42.581567" lon=".883039">
        <ele>2670.707</ele>
        <time>2012-07-08T08:25:41Z</time>
      </trkpt>
      <trkpt lat="42.581585" lon=".883037">
        <ele>2671.650</ele>
        <time>2012-07-08T08:25:43Z</time>
      </trkpt>
      <trkpt lat="42.581656" lon=".883015">
        <ele>2674.578</ele>
        <time>2012-07-08T08:25:54Z</time>
      </trkpt>
      <trkpt lat="42.581693" lon=".883037">
        <ele>2677.961</ele>
        <time>2012-07-08T08:26:02Z</time>
      </trkpt>
      <trkpt lat="42.581708" lon=".883032">
        <ele>2680.391</ele>
        <time>2012-07-08T08:26:12Z</time>
      </trkpt>
      <trkpt lat="42.581747" lon=".883041">
        <ele>2683.257</ele>
        <time>2012-07-08T08:26:23Z</time>
      </trkpt>
      <trkpt lat="42.581755" lon=".883046">
        <ele>2683.280</ele>
        <time>2012-07-08T08:26:37Z</time>
      </trkpt>
      <trkpt lat="42.581755" lon=".883046">
        <ele>2683.277</ele>
        <time>2012-07-08T08:27:01Z</time>
      </trkpt>
      <trkpt lat="42.581743" lon=".883029">
        <ele>2683.229</ele>
        <time>2012-07-08T08:27:22Z</time>
      </trkpt>
      <trkpt lat="42.581743" lon=".883007">
        <ele>2684.600</ele>
        <time>2012-07-08T08:27:36Z</time>
      </trkpt>
      <trkpt lat="42.581741" lon=".882996">
        <ele>2684.620</ele>
        <time>2012-07-08T08:27:41Z</time>
      </trkpt>
      <trkpt lat="42.581727" lon=".88294">
        <ele>2683.707</ele>
        <time>2012-07-08T08:27:54Z</time>
      </trkpt>
      <trkpt lat="42.581721" lon=".882936">
        <ele>2683.745</ele>
        <time>2012-07-08T08:28:09Z</time>
      </trkpt>
      <trkpt lat="42.581719" lon=".88288">
        <ele>2683.713</ele>
        <time>2012-07-08T08:28:20Z</time>
      </trkpt>
      <trkpt lat="42.581728" lon=".882867">
        <ele>2684.666</ele>
        <time>2012-07-08T08:28:32Z</time>
      </trkpt>
      <trkpt lat="42.581735" lon=".882828">
        <ele>2688.066</ele>
        <time>2012-07-08T08:28:47Z</time>
      </trkpt>
      <trkpt lat="42.581722" lon=".882799">
        <ele>2689.432</ele>
        <time>2012-07-08T08:28:59Z</time>
      </trkpt>
      <trkpt lat="42.581714" lon=".882758">
        <ele>2690.485</ele>
        <time>2012-07-08T08:29:11Z</time>
      </trkpt>
      <trkpt lat="42.581772" lon=".882739">
        <ele>2692.842</ele>
        <time>2012-07-08T08:29:23Z</time>
      </trkpt>
      <trkpt lat="42.581777" lon=".882737">
        <ele>2693.394</ele>
        <time>2012-07-08T08:29:24Z</time>
      </trkpt>
      <trkpt lat="42.581802" lon=".882741">
        <ele>2694.257</ele>
        <time>2012-07-08T08:29:37Z</time>
      </trkpt>
      <trkpt lat="42.58182" lon=".882741">
        <ele>2694.722</ele>
        <time>2012-07-08T08:29:54Z</time>
      </trkpt>
      <trkpt lat="42.581828" lon=".882732">
        <ele>2695.207</ele>
        <time>2012-07-08T08:30:07Z</time>
      </trkpt>
      <trkpt lat="42.581861" lon=".882718">
        <ele>2697.132</ele>
        <time>2012-07-08T08:30:19Z</time>
      </trkpt>
      <trkpt lat="42.581939" lon=".882725">
        <ele>2700.550</ele>
        <time>2012-07-08T08:30:32Z</time>
      </trkpt>
      <trkpt lat="42.581945" lon=".882718">
        <ele>2700.093</ele>
        <time>2012-07-08T08:30:51Z</time>
      </trkpt>
      <trkpt lat="42.581975" lon=".882723">
        <ele>2700.583</ele>
        <time>2012-07-08T08:31:07Z</time>
      </trkpt>
      <trkpt lat="42.582042" lon=".882736">
        <ele>2700.539</ele>
        <time>2012-07-08T08:31:19Z</time>
      </trkpt>
      <trkpt lat="42.582126" lon=".882765">
        <ele>2698.662</ele>
        <time>2012-07-08T08:31:34Z</time>
      </trkpt>
      <trkpt lat="42.582142" lon=".882759">
        <ele>2699.019</ele>
        <time>2012-07-08T08:31:39Z</time>
      </trkpt>
      <trkpt lat="42.582208" lon=".882743">
        <ele>2701.466</ele>
        <time>2012-07-08T08:31:49Z</time>
      </trkpt>
      <trkpt lat="42.582215" lon=".882729">
        <ele>2701.929</ele>
        <time>2012-07-08T08:32:02Z</time>
      </trkpt>
      <trkpt lat="42.58224" lon=".882718">
        <ele>2704.321</ele>
        <time>2012-07-08T08:32:16Z</time>
      </trkpt>
      <trkpt lat="42.58225" lon=".882709">
        <ele>2705.807</ele>
        <time>2012-07-08T08:32:34Z</time>
      </trkpt>
      <trkpt lat="42.582267" lon=".882707">
        <ele>2706.719</ele>
        <time>2012-07-08T08:32:47Z</time>
      </trkpt>
      <trkpt lat="42.582272" lon=".882704">
        <ele>2707.777</ele>
        <time>2012-07-08T08:32:58Z</time>
      </trkpt>
      <trkpt lat="42.582272" lon=".882706">
        <ele>2707.790</ele>
        <time>2012-07-08T08:33:12Z</time>
      </trkpt>
      <trkpt lat="42.582306" lon=".882693">
        <ele>2709.680</ele>
        <time>2012-07-08T08:33:17Z</time>
      </trkpt>
      <trkpt lat="42.582344" lon=".882668">
        <ele>2711.596</ele>
        <time>2012-07-08T08:33:25Z</time>
      </trkpt>
      <trkpt lat="42.582365" lon=".882631">
        <ele>2713.979</ele>
        <time>2012-07-08T08:33:35Z</time>
      </trkpt>
      <trkpt lat="42.582382" lon=".882583">
        <ele>2715.426</ele>
        <time>2012-07-08T08:33:49Z</time>
      </trkpt>
      <trkpt lat="42.582385" lon=".882565">
        <ele>2717.822</ele>
        <time>2012-07-08T08:34:02Z</time>
      </trkpt>
      <trkpt lat="42.582378" lon=".882528">
        <ele>2718.862</ele>
        <time>2012-07-08T08:34:13Z</time>
      </trkpt>
      <trkpt lat="42.582398" lon=".882511">
        <ele>2719.208</ele>
        <time>2012-07-08T08:34:33Z</time>
      </trkpt>
      <trkpt lat="42.582393" lon=".882492">
        <ele>2719.707</ele>
        <time>2012-07-08T08:34:38Z</time>
      </trkpt>
      <trkpt lat="42.582418" lon=".88248">
        <ele>2721.655</ele>
        <time>2012-07-08T08:34:43Z</time>
      </trkpt>
      <trkpt lat="42.582426" lon=".882452">
        <ele>2723.173</ele>
        <time>2012-07-08T08:34:55Z</time>
      </trkpt>
      <trkpt lat="42.582422" lon=".882437">
        <ele>2723.676</ele>
        <time>2012-07-08T08:35:07Z</time>
      </trkpt>
      <trkpt lat="42.582459" lon=".882415">
        <ele>2724.596</ele>
        <time>2012-07-08T08:35:17Z</time>
      </trkpt>
      <trkpt lat="42.582453" lon=".882387">
        <ele>2725.072</ele>
        <time>2012-07-08T08:35:29Z</time>
      </trkpt>
      <trkpt lat="42.582452" lon=".882377">
        <ele>2726.025</ele>
        <time>2012-07-08T08:35:44Z</time>
      </trkpt>
      <trkpt lat="42.582438" lon=".882351">
        <ele>2727.492</ele>
        <time>2012-07-08T08:35:57Z</time>
      </trkpt>
      <trkpt lat="42.582434" lon=".88232">
        <ele>2729.311</ele>
        <time>2012-07-08T08:36:10Z</time>
      </trkpt>
      <trkpt lat="42.582428" lon=".882315">
        <ele>2730.321</ele>
        <time>2012-07-08T08:36:25Z</time>
      </trkpt>
      <trkpt lat="42.582428" lon=".882315">
        <ele>2730.303</ele>
        <time>2012-07-08T08:36:41Z</time>
      </trkpt>
      <trkpt lat="42.582441" lon=".882283">
        <ele>2733.207</ele>
        <time>2012-07-08T08:36:49Z</time>
      </trkpt>
      <trkpt lat="42.582444" lon=".882278">
        <ele>2733.714</ele>
        <time>2012-07-08T08:36:51Z</time>
      </trkpt>
      <trkpt lat="42.582464" lon=".882272">
        <ele>2735.162</ele>
        <time>2012-07-08T08:36:56Z</time>
      </trkpt>
      <trkpt lat="42.58253" lon=".882267">
        <ele>2738.595</ele>
        <time>2012-07-08T08:37:07Z</time>
      </trkpt>
      <trkpt lat="42.58254" lon=".882256">
        <ele>2739.495</ele>
        <time>2012-07-08T08:37:09Z</time>
      </trkpt>
      <trkpt lat="42.582544" lon=".882224">
        <ele>2740.931</ele>
        <time>2012-07-08T08:37:17Z</time>
      </trkpt>
      <trkpt lat="42.582524" lon=".882207">
        <ele>2743.754</ele>
        <time>2012-07-08T08:37:29Z</time>
      </trkpt>
      <trkpt lat="42.582528" lon=".882185">
        <ele>2744.261</ele>
        <time>2012-07-08T08:37:43Z</time>
      </trkpt>
      <trkpt lat="42.582528" lon=".882171">
        <ele>2744.278</ele>
        <time>2012-07-08T08:37:55Z</time>
      </trkpt>
      <trkpt lat="42.582519" lon=".882151">
        <ele>2745.233</ele>
        <time>2012-07-08T08:38:10Z</time>
      </trkpt>
      <trkpt lat="42.582511" lon=".882139">
        <ele>2745.726</ele>
        <time>2012-07-08T08:38:20Z</time>
      </trkpt>
      <trkpt lat="42.582523" lon=".882092">
        <ele>2746.107</ele>
        <time>2012-07-08T08:38:30Z</time>
      </trkpt>
      <trkpt lat="42.582526" lon=".882075">
        <ele>2748.660</ele>
        <time>2012-07-08T08:38:39Z</time>
      </trkpt>
      <trkpt lat="42.582533" lon=".882073">
        <ele>2748.668</ele>
        <time>2012-07-08T08:38:52Z</time>
      </trkpt>
      <trkpt lat="42.582541" lon=".882053">
        <ele>2751.021</ele>
        <time>2012-07-08T08:38:57Z</time>
      </trkpt>
      <trkpt lat="42.582557" lon=".882022">
        <ele>2753.461</ele>
        <time>2012-07-08T08:39:08Z</time>
      </trkpt>
      <trkpt lat="42.582559" lon=".881989">
        <ele>2755.367</ele>
        <time>2012-07-08T08:39:19Z</time>
      </trkpt>
      <trkpt lat="42.582572" lon=".881959">
        <ele>2755.850</ele>
        <time>2012-07-08T08:39:32Z</time>
      </trkpt>
      <trkpt lat="42.582569" lon=".881939">
        <ele>2756.267</ele>
        <time>2012-07-08T08:39:42Z</time>
      </trkpt>
      <trkpt lat="42.582563" lon=".881917">
        <ele>2756.719</ele>
        <time>2012-07-08T08:39:56Z</time>
      </trkpt>
      <trkpt lat="42.582571" lon=".881891">
        <ele>2758.209</ele>
        <time>2012-07-08T08:40:07Z</time>
      </trkpt>
      <trkpt lat="42.582585" lon=".881887">
        <ele>2759.119</ele>
        <time>2012-07-08T08:40:22Z</time>
      </trkpt>
      <trkpt lat="42.582602" lon=".881888">
        <ele>2761.007</ele>
        <time>2012-07-08T08:40:36Z</time>
      </trkpt>
      <trkpt lat="42.582625" lon=".881872">
        <ele>2761.564</ele>
        <time>2012-07-08T08:40:48Z</time>
      </trkpt>
      <trkpt lat="42.582632" lon=".881872">
        <ele>2762.052</ele>
        <time>2012-07-08T08:41:02Z</time>
      </trkpt>
      <trkpt lat="42.582677" lon=".881867">
        <ele>2763.035</ele>
        <time>2012-07-08T08:41:18Z</time>
      </trkpt>
      <trkpt lat="42.582683" lon=".881851">
        <ele>2763.915</ele>
        <time>2012-07-08T08:41:30Z</time>
      </trkpt>
      <trkpt lat="42.582689" lon=".881843">
        <ele>2764.971</ele>
        <time>2012-07-08T08:41:44Z</time>
      </trkpt>
      <trkpt lat="42.58271" lon=".881824">
        <ele>2766.854</ele>
        <time>2012-07-08T08:41:57Z</time>
      </trkpt>
      <trkpt lat="42.582701" lon=".881783">
        <ele>2767.361</ele>
        <time>2012-07-08T08:42:11Z</time>
      </trkpt>
      <trkpt lat="42.582715" lon=".881757">
        <ele>2768.757</ele>
        <time>2012-07-08T08:42:23Z</time>
      </trkpt>
      <trkpt lat="42.582725" lon=".881737">
        <ele>2770.700</ele>
        <time>2012-07-08T08:42:36Z</time>
      </trkpt>
      <trkpt lat="42.582734" lon=".881717">
        <ele>2772.120</ele>
        <time>2012-07-08T08:42:49Z</time>
      </trkpt>
      <trkpt lat="42.582731" lon=".881713">
        <ele>2772.107</ele>
        <time>2012-07-08T08:43:08Z</time>
      </trkpt>
      <trkpt lat="42.582732" lon=".881714">
        <ele>2772.668</ele>
        <time>2012-07-08T08:43:23Z</time>
      </trkpt>
      <trkpt lat="42.582732" lon=".881709">
        <ele>2772.646</ele>
        <time>2012-07-08T08:43:40Z</time>
      </trkpt>
      <trkpt lat="42.582729" lon=".881702">
        <ele>2773.119</ele>
        <time>2012-07-08T08:43:56Z</time>
      </trkpt>
      <trkpt lat="42.582737" lon=".881668">
        <ele>2774.069</ele>
        <time>2012-07-08T08:44:12Z</time>
      </trkpt>
      <trkpt lat="42.582746" lon=".881656">
        <ele>2775.055</ele>
        <time>2012-07-08T08:44:26Z</time>
      </trkpt>
      <trkpt lat="42.582739" lon=".88166">
        <ele>2775.538</ele>
        <time>2012-07-08T08:44:38Z</time>
      </trkpt>
      <trkpt lat="42.582745" lon=".881646">
        <ele>2777.465</ele>
        <time>2012-07-08T08:44:42Z</time>
      </trkpt>
      <trkpt lat="42.582759" lon=".881622">
        <ele>2778.862</ele>
        <time>2012-07-08T08:44:54Z</time>
      </trkpt>
      <trkpt lat="42.582773" lon=".881565">
        <ele>2780.883</ele>
        <time>2012-07-08T08:45:05Z</time>
      </trkpt>
      <trkpt lat="42.582785" lon=".88153">
        <ele>2783.611</ele>
        <time>2012-07-08T08:45:19Z</time>
      </trkpt>
      <trkpt lat="42.582807" lon=".881497">
        <ele>2786.507</ele>
        <time>2012-07-08T08:45:34Z</time>
      </trkpt>
      <trkpt lat="42.582806" lon=".881493">
        <ele>2786.539</ele>
        <time>2012-07-08T08:45:36Z</time>
      </trkpt>
      <trkpt lat="42.582845" lon=".881466">
        <ele>2787.537</ele>
        <time>2012-07-08T08:45:47Z</time>
      </trkpt>
      <trkpt lat="42.582845" lon=".881466">
        <ele>2787.550</ele>
        <time>2012-07-08T08:45:55Z</time>
      </trkpt>
      <trkpt lat="42.582875" lon=".88144">
        <ele>2788.980</ele>
        <time>2012-07-08T08:46:08Z</time>
      </trkpt>
      <trkpt lat="42.582885" lon=".881431">
        <ele>2789.926</ele>
        <time>2012-07-08T08:46:21Z</time>
      </trkpt>
      <trkpt lat="42.582905" lon=".881428">
        <ele>2790.829</ele>
        <time>2012-07-08T08:46:32Z</time>
      </trkpt>
      <trkpt lat="42.582924" lon=".881419">
        <ele>2791.376</ele>
        <time>2012-07-08T08:46:43Z</time>
      </trkpt>
      <trkpt lat="42.582923" lon=".881408">
        <ele>2791.383</ele>
        <time>2012-07-08T08:47:00Z</time>
      </trkpt>
      <trkpt lat="42.582923" lon=".881406">
        <ele>2791.325</ele>
        <time>2012-07-08T08:47:36Z</time>
      </trkpt>
      <trkpt lat="42.582923" lon=".881406">
        <ele>2791.317</ele>
        <time>2012-07-08T08:47:51Z</time>
      </trkpt>
      <trkpt lat="42.582943" lon=".881355">
        <ele>2792.807</ele>
        <time>2012-07-08T08:47:58Z</time>
      </trkpt>
      <trkpt lat="42.58296" lon=".881303">
        <ele>2793.371</ele>
        <time>2012-07-08T08:48:09Z</time>
      </trkpt>
      <trkpt lat="42.582972" lon=".881266">
        <ele>2794.239</ele>
        <time>2012-07-08T08:48:21Z</time>
      </trkpt>
      <trkpt lat="42.582985" lon=".881233">
        <ele>2796.142</ele>
        <time>2012-07-08T08:48:35Z</time>
      </trkpt>
      <trkpt lat="42.582981" lon=".881206">
        <ele>2797.612</ele>
        <time>2012-07-08T08:48:49Z</time>
      </trkpt>
      <trkpt lat="42.582972" lon=".881183">
        <ele>2797.678</ele>
        <time>2012-07-08T08:49:04Z</time>
      </trkpt>
      <trkpt lat="42.582974" lon=".88115">
        <ele>2799.051</ele>
        <time>2012-07-08T08:49:23Z</time>
      </trkpt>
      <trkpt lat="42.582983" lon=".881127">
        <ele>2799.528</ele>
        <time>2012-07-08T08:49:38Z</time>
      </trkpt>
      <trkpt lat="42.582981" lon=".881108">
        <ele>2800.032</ele>
        <time>2012-07-08T08:49:56Z</time>
      </trkpt>
      <trkpt lat="42.582998" lon=".881037">
        <ele>2801.992</ele>
        <time>2012-07-08T08:50:10Z</time>
      </trkpt>
      <trkpt lat="42.583014" lon=".881005">
        <ele>2803.811</ele>
        <time>2012-07-08T08:50:22Z</time>
      </trkpt>
      <trkpt lat="42.58301" lon=".880996">
        <ele>2804.307</ele>
        <time>2012-07-08T08:50:36Z</time>
      </trkpt>
      <trkpt lat="42.583011" lon=".880995">
        <ele>2804.356</ele>
        <time>2012-07-08T08:50:37Z</time>
      </trkpt>
      <trkpt lat="42.583018" lon=".880955">
        <ele>2806.754</ele>
        <time>2012-07-08T08:50:48Z</time>
      </trkpt>
      <trkpt lat="42.583017" lon=".880926">
        <ele>2807.747</ele>
        <time>2012-07-08T08:51:00Z</time>
      </trkpt>
      <trkpt lat="42.583023" lon=".880883">
        <ele>2809.147</ele>
        <time>2012-07-08T08:51:12Z</time>
      </trkpt>
      <trkpt lat="42.58303" lon=".880889">
        <ele>2810.113</ele>
        <time>2012-07-08T08:51:14Z</time>
      </trkpt>
      <trkpt lat="42.583026" lon=".880884">
        <ele>2810.676</ele>
        <time>2012-07-08T08:51:16Z</time>
      </trkpt>
      <trkpt lat="42.583022" lon=".880839">
        <ele>2812.023</ele>
        <time>2012-07-08T08:51:24Z</time>
      </trkpt>
      <trkpt lat="42.583025" lon=".880833">
        <ele>2812.588</ele>
        <time>2012-07-08T08:51:29Z</time>
      </trkpt>
      <trkpt lat="42.583041" lon=".8808">
        <ele>2813.424</ele>
        <time>2012-07-08T08:51:41Z</time>
      </trkpt>
      <trkpt lat="42.583028" lon=".880773">
        <ele>2814.426</ele>
        <time>2012-07-08T08:51:52Z</time>
      </trkpt>
      <trkpt lat="42.583035" lon=".880767">
        <ele>2814.907</ele>
        <time>2012-07-08T08:52:06Z</time>
      </trkpt>
      <trkpt lat="42.583038" lon=".880727">
        <ele>2815.881</ele>
        <time>2012-07-08T08:52:17Z</time>
      </trkpt>
      <trkpt lat="42.583031" lon=".88071">
        <ele>2816.859</ele>
        <time>2012-07-08T08:52:29Z</time>
      </trkpt>
      <trkpt lat="42.583038" lon=".880697">
        <ele>2816.872</ele>
        <time>2012-07-08T08:52:41Z</time>
      </trkpt>
      <trkpt lat="42.583042" lon=".880699">
        <ele>2817.322</ele>
        <time>2012-07-08T08:53:00Z</time>
      </trkpt>
      <trkpt lat="42.583051" lon=".880656">
        <ele>2818.798</ele>
        <time>2012-07-08T08:53:13Z</time>
      </trkpt>
      <trkpt lat="42.583078" lon=".880643">
        <ele>2819.711</ele>
        <time>2012-07-08T08:53:26Z</time>
      </trkpt>
      <trkpt lat="42.583095" lon=".880627">
        <ele>2820.718</ele>
        <time>2012-07-08T08:53:38Z</time>
      </trkpt>
      <trkpt lat="42.583107" lon=".880582">
        <ele>2821.694</ele>
        <time>2012-07-08T08:53:48Z</time>
      </trkpt>
      <trkpt lat="42.583106" lon=".880544">
        <ele>2823.157</ele>
        <time>2012-07-08T08:54:01Z</time>
      </trkpt>
      <trkpt lat="42.583105" lon=".880531">
        <ele>2822.122</ele>
        <time>2012-07-08T08:54:14Z</time>
      </trkpt>
      <trkpt lat="42.583097" lon=".880511">
        <ele>2823.107</ele>
        <time>2012-07-08T08:54:30Z</time>
      </trkpt>
      <trkpt lat="42.583093" lon=".880499">
        <ele>2823.552</ele>
        <time>2012-07-08T08:54:45Z</time>
      </trkpt>
      <trkpt lat="42.583092" lon=".880485">
        <ele>2824.070</ele>
        <time>2012-07-08T08:54:58Z</time>
      </trkpt>
      <trkpt lat="42.583082" lon=".88045">
        <ele>2825.973</ele>
        <time>2012-07-08T08:55:14Z</time>
      </trkpt>
      <trkpt lat="42.583105" lon=".880452">
        <ele>2828.373</ele>
        <time>2012-07-08T08:55:27Z</time>
      </trkpt>
      <trkpt lat="42.583118" lon=".880447">
        <ele>2829.399</ele>
        <time>2012-07-08T08:55:36Z</time>
      </trkpt>
      <trkpt lat="42.583128" lon=".880433">
        <ele>2829.832</ele>
        <time>2012-07-08T08:55:46Z</time>
      </trkpt>
      <trkpt lat="42.583153" lon=".880383">
        <ele>2832.229</ele>
        <time>2012-07-08T08:55:57Z</time>
      </trkpt>
      <trkpt lat="42.58314" lon=".880368">
        <ele>2833.152</ele>
        <time>2012-07-08T08:56:09Z</time>
      </trkpt>
      <trkpt lat="42.583142" lon=".88036">
        <ele>2834.153</ele>
        <time>2012-07-08T08:56:23Z</time>
      </trkpt>
      <trkpt lat="42.583144" lon=".880354">
        <ele>2835.108</ele>
        <time>2012-07-08T08:56:38Z</time>
      </trkpt>
      <trkpt lat="42.58314" lon=".880332">
        <ele>2835.607</ele>
        <time>2012-07-08T08:56:57Z</time>
      </trkpt>
      <trkpt lat="42.583149" lon=".880316">
        <ele>2836.588</ele>
        <time>2012-07-08T08:57:11Z</time>
      </trkpt>
      <trkpt lat="42.58313" lon=".880283">
        <ele>2837.576</ele>
        <time>2012-07-08T08:57:23Z</time>
      </trkpt>
      <trkpt lat="42.583157" lon=".880292">
        <ele>2841.359</ele>
        <time>2012-07-08T08:57:36Z</time>
      </trkpt>
      <trkpt lat="42.583154" lon=".88026">
        <ele>2842.369</ele>
        <time>2012-07-08T08:57:49Z</time>
      </trkpt>
      <trkpt lat="42.583167" lon=".880252">
        <ele>2843.285</ele>
        <time>2012-07-08T08:58:00Z</time>
      </trkpt>
      <trkpt lat="42.583177" lon=".880242">
        <ele>2843.748</ele>
        <time>2012-07-08T08:58:15Z</time>
      </trkpt>
      <trkpt lat="42.583182" lon=".880211">
        <ele>2844.275</ele>
        <time>2012-07-08T08:58:28Z</time>
      </trkpt>
      <trkpt lat="42.583189" lon=".880193">
        <ele>2844.211</ele>
        <time>2012-07-08T08:58:44Z</time>
      </trkpt>
      <trkpt lat="42.583198" lon=".880188">
        <ele>2845.621</ele>
        <time>2012-07-08T08:58:59Z</time>
      </trkpt>
      <trkpt lat="42.583213" lon=".880165">
        <ele>2846.103</ele>
        <time>2012-07-08T08:59:10Z</time>
      </trkpt>
      <trkpt lat="42.583218" lon=".880146">
        <ele>2846.607</ele>
        <time>2012-07-08T08:59:20Z</time>
      </trkpt>
      <trkpt lat="42.583214" lon=".880131">
        <ele>2846.674</ele>
        <time>2012-07-08T08:59:34Z</time>
      </trkpt>
      <trkpt lat="42.583211" lon=".880116">
        <ele>2847.192</ele>
        <time>2012-07-08T08:59:50Z</time>
      </trkpt>
      <trkpt lat="42.58321" lon=".880089">
        <ele>2848.535</ele>
        <time>2012-07-08T08:59:53Z</time>
      </trkpt>
      <trkpt lat="42.583177" lon=".88002">
        <ele>2850.095</ele>
        <time>2012-07-08T09:00:05Z</time>
      </trkpt>
      <trkpt lat="42.583177" lon=".879996">
        <ele>2850.911</ele>
        <time>2012-07-08T09:00:16Z</time>
      </trkpt>
      <trkpt lat="42.583189" lon=".879984">
        <ele>2852.994</ele>
        <time>2012-07-08T09:00:30Z</time>
      </trkpt>
      <trkpt lat="42.583192" lon=".879929">
        <ele>2854.871</ele>
        <time>2012-07-08T09:00:43Z</time>
      </trkpt>
      <trkpt lat="42.583184" lon=".879901">
        <ele>2855.748</ele>
        <time>2012-07-08T09:00:52Z</time>
      </trkpt>
      <trkpt lat="42.583196" lon=".879897">
        <ele>2858.161</ele>
        <time>2012-07-08T09:01:07Z</time>
      </trkpt>
      <trkpt lat="42.583208" lon=".879872">
        <ele>2859.117</ele>
        <time>2012-07-08T09:01:25Z</time>
      </trkpt>
      <trkpt lat="42.583205" lon=".879844">
        <ele>2859.607</ele>
        <time>2012-07-08T09:01:37Z</time>
      </trkpt>
      <trkpt lat="42.583202" lon=".879795">
        <ele>2860.167</ele>
        <time>2012-07-08T09:01:51Z</time>
      </trkpt>
      <trkpt lat="42.583155" lon=".879718">
        <ele>2861.075</ele>
        <time>2012-07-08T09:02:03Z</time>
      </trkpt>
      <trkpt lat="42.583115" lon=".879721">
        <ele>2862.948</ele>
        <time>2012-07-08T09:02:15Z</time>
      </trkpt>
      <trkpt lat="42.583104" lon=".879698">
        <ele>2865.448</ele>
        <time>2012-07-08T09:02:28Z</time>
      </trkpt>
      <trkpt lat="42.583107" lon=".8797">
        <ele>2865.874</ele>
        <time>2012-07-08T09:02:40Z</time>
      </trkpt>
      <trkpt lat="42.583079" lon=".879698">
        <ele>2866.347</ele>
        <time>2012-07-08T09:02:54Z</time>
      </trkpt>
      <trkpt lat="42.583057" lon=".879694">
        <ele>2867.314</ele>
        <time>2012-07-08T09:03:06Z</time>
      </trkpt>
      <trkpt lat="42.583056" lon=".879677">
        <ele>2868.232</ele>
        <time>2012-07-08T09:03:21Z</time>
      </trkpt>
      <trkpt lat="42.583059" lon=".879667">
        <ele>2868.792</ele>
        <time>2012-07-08T09:03:36Z</time>
      </trkpt>
      <trkpt lat="42.583062" lon=".87967">
        <ele>2869.711</ele>
        <time>2012-07-08T09:03:48Z</time>
      </trkpt>
      <trkpt lat="42.583065" lon=".879668">
        <ele>2871.107</ele>
        <time>2012-07-08T09:04:02Z</time>
      </trkpt>
      <trkpt lat="42.583071" lon=".879645">
        <ele>2872.656</ele>
        <time>2012-07-08T09:04:17Z</time>
      </trkpt>
      <trkpt lat="42.583055" lon=".87962">
        <ele>2874.084</ele>
        <time>2012-07-08T09:04:30Z</time>
      </trkpt>
      <trkpt lat="42.583054" lon=".879596">
        <ele>2874.527</ele>
        <time>2012-07-08T09:04:43Z</time>
      </trkpt>
      <trkpt lat="42.583052" lon=".879587">
        <ele>2875.477</ele>
        <time>2012-07-08T09:04:59Z</time>
      </trkpt>
      <trkpt lat="42.583053" lon=".879578">
        <ele>2875.463</ele>
        <time>2012-07-08T09:05:13Z</time>
      </trkpt>
      <trkpt lat="42.582998" lon=".87959">
        <ele>2872.646</ele>
        <time>2012-07-08T09:05:30Z</time>
      </trkpt>
      <trkpt lat="42.583021" lon=".879572">
        <ele>2875.913</ele>
        <time>2012-07-08T09:05:31Z</time>
      </trkpt>
      <trkpt lat="42.583025" lon=".87957">
        <ele>2879.364</ele>
        <time>2012-07-08T09:05:32Z</time>
      </trkpt>
      <trkpt lat="42.58304" lon=".879595">
        <ele>2882.206</ele>
        <time>2012-07-08T09:05:42Z</time>
      </trkpt>
      <trkpt lat="42.583037" lon=".879569">
        <ele>2879.816</ele>
        <time>2012-07-08T09:05:51Z</time>
      </trkpt>
      <trkpt lat="42.583043" lon=".879594">
        <ele>2881.707</ele>
        <time>2012-07-08T09:06:10Z</time>
      </trkpt>
      <trkpt lat="42.583083" lon=".879611">
        <ele>2881.259</ele>
        <time>2012-07-08T09:06:23Z</time>
      </trkpt>
      <trkpt lat="42.583126" lon=".879636">
        <ele>2881.277</ele>
        <time>2012-07-08T09:06:38Z</time>
      </trkpt>
      <trkpt lat="42.583184" lon=".879618">
        <ele>2880.780</ele>
        <time>2012-07-08T09:06:51Z</time>
      </trkpt>
      <trkpt lat="42.583191" lon=".879652">
        <ele>2879.890</ele>
        <time>2012-07-08T09:07:10Z</time>
      </trkpt>
      <trkpt lat="42.583187" lon=".879653">
        <ele>2879.886</ele>
        <time>2012-07-08T09:07:28Z</time>
      </trkpt>
      <trkpt lat="42.583188" lon=".879667">
        <ele>2879.369</ele>
        <time>2012-07-08T09:07:45Z</time>
      </trkpt>
      <trkpt lat="42.583213" lon=".879643">
        <ele>2879.826</ele>
        <time>2012-07-08T09:07:59Z</time>
      </trkpt>
      <trkpt lat="42.58324" lon=".87965">
        <ele>2879.366</ele>
        <time>2012-07-08T09:08:12Z</time>
      </trkpt>
      <trkpt lat="42.583258" lon=".879678">
        <ele>2879.829</ele>
        <time>2012-07-08T09:08:28Z</time>
      </trkpt>
      <trkpt lat="42.583275" lon=".87966">
        <ele>2878.821</ele>
        <time>2012-07-08T09:08:43Z</time>
      </trkpt>
      <trkpt lat="42.583275" lon=".87966">
        <ele>2878.807</ele>
        <time>2012-07-08T09:09:05Z</time>
      </trkpt>
      <trkpt lat="42.583327" lon=".879689">
        <ele>2879.899</ele>
        <time>2012-07-08T09:09:19Z</time>
      </trkpt>
      <trkpt lat="42.583367" lon=".87972">
        <ele>2880.367</ele>
        <time>2012-07-08T09:09:32Z</time>
      </trkpt>
      <trkpt lat="42.583374" lon=".879731">
        <ele>2879.820</ele>
        <time>2012-07-08T09:09:46Z</time>
      </trkpt>
      <trkpt lat="42.583393" lon=".87974">
        <ele>2877.840</ele>
        <time>2012-07-08T09:09:58Z</time>
      </trkpt>
      <trkpt lat="42.583417" lon=".879752">
        <ele>2876.976</ele>
        <time>2012-07-08T09:10:08Z</time>
      </trkpt>
      <trkpt lat="42.583451" lon=".879759">
        <ele>2876.419</ele>
        <time>2012-07-08T09:10:22Z</time>
      </trkpt>
      <trkpt lat="42.58348" lon=".879766">
        <ele>2875.956</ele>
        <time>2012-07-08T09:10:34Z</time>
      </trkpt>
      <trkpt lat="42.583508" lon=".879754">
        <ele>2876.986</ele>
        <time>2012-07-08T09:10:45Z</time>
      </trkpt>
      <trkpt lat="42.583526" lon=".879762">
        <ele>2876.960</ele>
        <time>2012-07-08T09:10:56Z</time>
      </trkpt>
      <trkpt lat="42.583557" lon=".87976">
        <ele>2876.426</ele>
        <time>2012-07-08T09:11:09Z</time>
      </trkpt>
      <trkpt lat="42.583567" lon=".879763">
        <ele>2875.907</ele>
        <time>2012-07-08T09:11:26Z</time>
      </trkpt>
      <trkpt lat="42.583611" lon=".879787">
        <ele>2875.911</ele>
        <time>2012-07-08T09:11:38Z</time>
      </trkpt>
      <trkpt lat="42.583651" lon=".879831">
        <ele>2877.869</ele>
        <time>2012-07-08T09:11:48Z</time>
      </trkpt>
      <trkpt lat="42.583702" lon=".879871">
        <ele>2877.482</ele>
        <time>2012-07-08T09:12:03Z</time>
      </trkpt>
      <trkpt lat="42.583708" lon=".879872">
        <ele>2877.422</ele>
        <time>2012-07-08T09:12:18Z</time>
      </trkpt>
      <trkpt lat="42.583733" lon=".879907">
        <ele>2878.378</ele>
        <time>2012-07-08T09:12:29Z</time>
      </trkpt>
      <trkpt lat="42.583798" lon=".879969">
        <ele>2878.881</ele>
        <time>2012-07-08T09:12:41Z</time>
      </trkpt>
      <trkpt lat="42.583874" lon=".880049">
        <ele>2881.738</ele>
        <time>2012-07-08T09:12:56Z</time>
      </trkpt>
      <trkpt lat="42.583891" lon=".880056">
        <ele>2881.797</ele>
        <time>2012-07-08T09:13:08Z</time>
      </trkpt>
      <trkpt lat="42.583939" lon=".880082">
        <ele>2882.723</ele>
        <time>2012-07-08T09:13:28Z</time>
      </trkpt>
      <trkpt lat="42.583998" lon=".88011">
        <ele>2883.125</ele>
        <time>2012-07-08T09:13:40Z</time>
      </trkpt>
      <trkpt lat="42.584047" lon=".880147">
        <ele>2884.607</ele>
        <time>2012-07-08T09:13:52Z</time>
      </trkpt>
      <trkpt lat="42.584054" lon=".880148">
        <ele>2885.512</ele>
        <time>2012-07-08T09:14:04Z</time>
      </trkpt>
      <trkpt lat="42.584114" lon=".88016">
        <ele>2887.020</ele>
        <time>2012-07-08T09:14:17Z</time>
      </trkpt>
      <trkpt lat="42.584147" lon=".880166">
        <ele>2887.563</ele>
        <time>2012-07-08T09:14:32Z</time>
      </trkpt>
      <trkpt lat="42.58418" lon=".880159">
        <ele>2888.483</ele>
        <time>2012-07-08T09:14:47Z</time>
      </trkpt>
      <trkpt lat="42.584215" lon=".880147">
        <ele>2891.399</ele>
        <time>2012-07-08T09:14:59Z</time>
      </trkpt>
      <trkpt lat="42.584228" lon=".880131">
        <ele>2891.822</ele>
        <time>2012-07-08T09:15:11Z</time>
      </trkpt>
      <trkpt lat="42.584233" lon=".880134">
        <ele>2891.889</ele>
        <time>2012-07-08T09:15:26Z</time>
      </trkpt>
      <trkpt lat="42.584244" lon=".880103">
        <ele>2892.799</ele>
        <time>2012-07-08T09:15:40Z</time>
      </trkpt>
      <trkpt lat="42.584244" lon=".880103">
        <ele>2892.707</ele>
        <time>2012-07-08T09:15:56Z</time>
      </trkpt>
      <trkpt lat="42.584256" lon=".880096">
        <ele>2893.727</ele>
        <time>2012-07-08T09:16:08Z</time>
      </trkpt>
      <trkpt lat="42.584284" lon=".880099">
        <ele>2895.207</ele>
        <time>2012-07-08T09:16:25Z</time>
      </trkpt>
      <trkpt lat="42.584286" lon=".880096">
        <ele>2895.272</ele>
        <time>2012-07-08T09:16:44Z</time>
      </trkpt>
      <trkpt lat="42.584322" lon=".880102">
        <ele>2896.180</ele>
        <time>2012-07-08T09:16:57Z</time>
      </trkpt>
      <trkpt lat="42.584357" lon=".880099">
        <ele>2897.633</ele>
        <time>2012-07-08T09:17:12Z</time>
      </trkpt>
      <trkpt lat="42.584389" lon=".880118">
        <ele>2899.553</ele>
        <time>2012-07-08T09:17:27Z</time>
      </trkpt>
      <trkpt lat="42.584435" lon=".880109">
        <ele>2901.989</ele>
        <time>2012-07-08T09:17:42Z</time>
      </trkpt>
      <trkpt lat="42.584432" lon=".880095">
        <ele>2901.952</ele>
        <time>2012-07-08T09:17:56Z</time>
      </trkpt>
      <trkpt lat="42.584498" lon=".88009">
        <ele>2904.339</ele>
        <time>2012-07-08T09:18:06Z</time>
      </trkpt>
      <trkpt lat="42.584513" lon=".880071">
        <ele>2904.891</ele>
        <time>2012-07-08T09:18:20Z</time>
      </trkpt>
      <trkpt lat="42.584532" lon=".880058">
        <ele>2905.781</ele>
        <time>2012-07-08T09:18:34Z</time>
      </trkpt>
      <trkpt lat="42.584555" lon=".880056">
        <ele>2907.719</ele>
        <time>2012-07-08T09:18:44Z</time>
      </trkpt>
      <trkpt lat="42.584586" lon=".880036">
        <ele>2910.507</ele>
        <time>2012-07-08T09:18:57Z</time>
      </trkpt>
      <trkpt lat="42.584595" lon=".88004">
        <ele>2911.522</ele>
        <time>2012-07-08T09:19:13Z</time>
      </trkpt>
      <trkpt lat="42.584621" lon=".880057">
        <ele>2913.450</ele>
        <time>2012-07-08T09:19:28Z</time>
      </trkpt>
      <trkpt lat="42.584667" lon=".880071">
        <ele>2913.943</ele>
        <time>2012-07-08T09:19:42Z</time>
      </trkpt>
      <trkpt lat="42.584712" lon=".880073">
        <ele>2916.893</ele>
        <time>2012-07-08T09:19:53Z</time>
      </trkpt>
      <trkpt lat="42.584736" lon=".880096">
        <ele>2918.749</ele>
        <time>2012-07-08T09:20:08Z</time>
      </trkpt>
      <trkpt lat="42.584786" lon=".880124">
        <ele>2920.622</ele>
        <time>2012-07-08T09:20:20Z</time>
      </trkpt>
      <trkpt lat="42.584823" lon=".880155">
        <ele>2922.129</ele>
        <time>2012-07-08T09:20:32Z</time>
      </trkpt>
      <trkpt lat="42.584826" lon=".880159">
        <ele>2922.519</ele>
        <time>2012-07-08T09:20:45Z</time>
      </trkpt>
      <trkpt lat="42.584826" lon=".880159">
        <ele>2922.509</ele>
        <time>2012-07-08T09:21:12Z</time>
      </trkpt>
      <trkpt lat="42.584853" lon=".88011">
        <ele>2923.519</ele>
        <time>2012-07-08T09:21:26Z</time>
      </trkpt>
      <trkpt lat="42.584856" lon=".880097">
        <ele>2925.007</ele>
        <time>2012-07-08T09:21:40Z</time>
      </trkpt>
      <trkpt lat="42.584857" lon=".880082">
        <ele>2925.074</ele>
        <time>2012-07-08T09:21:57Z</time>
      </trkpt>
      <trkpt lat="42.584848" lon=".880052">
        <ele>2925.942</ele>
        <time>2012-07-08T09:22:10Z</time>
      </trkpt>
      <trkpt lat="42.584853" lon=".880033">
        <ele>2926.955</ele>
        <time>2012-07-08T09:22:26Z</time>
      </trkpt>
      <trkpt lat="42.584854" lon=".880024">
        <ele>2926.995</ele>
        <time>2012-07-08T09:22:44Z</time>
      </trkpt>
      <trkpt lat="42.584871" lon=".879991">
        <ele>2927.831</ele>
        <time>2012-07-08T09:23:00Z</time>
      </trkpt>
      <trkpt lat="42.584884" lon=".879976">
        <ele>2928.314</ele>
        <time>2012-07-08T09:23:16Z</time>
      </trkpt>
      <trkpt lat="42.584894" lon=".879954">
        <ele>2928.811</ele>
        <time>2012-07-08T09:23:29Z</time>
      </trkpt>
      <trkpt lat="42.584912" lon=".879867">
        <ele>2930.216</ele>
        <time>2012-07-08T09:23:42Z</time>
      </trkpt>
      <trkpt lat="42.584916" lon=".879853">
        <ele>2930.276</ele>
        <time>2012-07-08T09:23:56Z</time>
      </trkpt>
      <trkpt lat="42.584918" lon=".879845">
        <ele>2931.213</ele>
        <time>2012-07-08T09:24:20Z</time>
      </trkpt>
      <trkpt lat="42.584921" lon=".879813">
        <ele>2932.607</ele>
        <time>2012-07-08T09:24:33Z</time>
      </trkpt>
      <trkpt lat="42.584938" lon=".879786">
        <ele>2935.094</ele>
        <time>2012-07-08T09:24:45Z</time>
      </trkpt>
      <trkpt lat="42.584944" lon=".879785">
        <ele>2935.552</ele>
        <time>2012-07-08T09:24:59Z</time>
      </trkpt>
      <trkpt lat="42.584942" lon=".879766">
        <ele>2937.075</ele>
        <time>2012-07-08T09:25:15Z</time>
      </trkpt>
      <trkpt lat="42.584943" lon=".879733">
        <ele>2938.415</ele>
        <time>2012-07-08T09:25:24Z</time>
      </trkpt>
      <trkpt lat="42.584938" lon=".87969">
        <ele>2939.921</ele>
        <time>2012-07-08T09:25:40Z</time>
      </trkpt>
      <trkpt lat="42.584938" lon=".879683">
        <ele>2940.384</ele>
        <time>2012-07-08T09:25:59Z</time>
      </trkpt>
      <trkpt lat="42.58494" lon=".879686">
        <ele>2942.751</ele>
        <time>2012-07-08T09:26:07Z</time>
      </trkpt>
      <trkpt lat="42.584965" lon=".879666">
        <ele>2946.155</ele>
        <time>2012-07-08T09:26:14Z</time>
      </trkpt>
      <trkpt lat="42.584979" lon=".87971">
        <ele>2949.507</ele>
        <time>2012-07-08T09:26:23Z</time>
      </trkpt>
      <trkpt lat="42.584985" lon=".87972">
        <ele>2950.417</ele>
        <time>2012-07-08T09:26:25Z</time>
      </trkpt>
      <trkpt lat="42.584993" lon=".879722">
        <ele>2951.407</ele>
        <time>2012-07-08T09:26:37Z</time>
      </trkpt>
      <trkpt lat="42.584982" lon=".879725">
        <ele>2952.848</ele>
        <time>2012-07-08T09:26:52Z</time>
      </trkpt>
      <trkpt lat="42.584995" lon=".879744">
        <ele>2954.396</ele>
        <time>2012-07-08T09:26:59Z</time>
      </trkpt>
      <trkpt lat="42.585024" lon=".879781">
        <ele>2956.759</ele>
        <time>2012-07-08T09:27:08Z</time>
      </trkpt>
      <trkpt lat="42.585052" lon=".879771">
        <ele>2959.649</ele>
        <time>2012-07-08T09:27:24Z</time>
      </trkpt>
      <trkpt lat="42.585069" lon=".879779">
        <ele>2961.065</ele>
        <time>2012-07-08T09:27:36Z</time>
      </trkpt>
      <trkpt lat="42.585085" lon=".879764">
        <ele>2962.098</ele>
        <time>2012-07-08T09:27:51Z</time>
      </trkpt>
      <trkpt lat="42.58509" lon=".87975">
        <ele>2963.935</ele>
        <time>2012-07-08T09:28:05Z</time>
      </trkpt>
      <trkpt lat="42.585102" lon=".879725">
        <ele>2966.873</ele>
        <time>2012-07-08T09:28:20Z</time>
      </trkpt>
      <trkpt lat="42.585107" lon=".87969">
        <ele>2967.785</ele>
        <time>2012-07-08T09:28:34Z</time>
      </trkpt>
      <trkpt lat="42.585117" lon=".879679">
        <ele>2968.713</ele>
        <time>2012-07-08T09:28:48Z</time>
      </trkpt>
      <trkpt lat="42.585132" lon=".879655">
        <ele>2971.107</ele>
        <time>2012-07-08T09:29:03Z</time>
      </trkpt>
      <trkpt lat="42.585139" lon=".879652">
        <ele>2971.670</ele>
        <time>2012-07-08T09:29:19Z</time>
      </trkpt>
      <trkpt lat="42.585152" lon=".879633">
        <ele>2973.588</ele>
        <time>2012-07-08T09:29:35Z</time>
      </trkpt>
      <trkpt lat="42.58516" lon=".879608">
        <ele>2976.431</ele>
        <time>2012-07-08T09:29:50Z</time>
      </trkpt>
      <trkpt lat="42.585183" lon=".8796">
        <ele>2979.351</ele>
        <time>2012-07-08T09:30:02Z</time>
      </trkpt>
      <trkpt lat="42.585181" lon=".879599">
        <ele>2979.377</ele>
        <time>2012-07-08T09:30:25Z</time>
      </trkpt>
      <trkpt lat="42.585189" lon=".879629">
        <ele>2980.260</ele>
        <time>2012-07-08T09:30:38Z</time>
      </trkpt>
      <trkpt lat="42.585193" lon=".87965">
        <ele>2980.787</ele>
        <time>2012-07-08T09:30:52Z</time>
      </trkpt>
      <trkpt lat="42.585226" lon=".879659">
        <ele>2981.772</ele>
        <time>2012-07-08T09:31:05Z</time>
      </trkpt>
      <trkpt lat="42.585222" lon=".879689">
        <ele>2983.113</ele>
        <time>2012-07-08T09:31:18Z</time>
      </trkpt>
      <trkpt lat="42.585228" lon=".879687">
        <ele>2983.114</ele>
        <time>2012-07-08T09:31:39Z</time>
      </trkpt>
      <trkpt lat="42.585231" lon=".87968">
        <ele>2983.107</ele>
        <time>2012-07-08T09:32:08Z</time>
      </trkpt>
      <trkpt lat="42.58523" lon=".879678">
        <ele>2983.150</ele>
        <time>2012-07-08T09:32:30Z</time>
      </trkpt>
      <trkpt lat="42.585231" lon=".879684">
        <ele>2983.168</ele>
        <time>2012-07-08T09:32:54Z</time>
      </trkpt>
      <trkpt lat="42.585233" lon=".87966">
        <ele>2983.691</ele>
        <time>2012-07-08T09:33:16Z</time>
      </trkpt>
      <trkpt lat="42.585235" lon=".879663">
        <ele>2983.611</ele>
        <time>2012-07-08T09:33:34Z</time>
      </trkpt>
      <trkpt lat="42.585235" lon=".879663">
        <ele>2983.667</ele>
        <time>2012-07-08T09:33:52Z</time>
      </trkpt>
      <trkpt lat="42.585258" lon=".879709">
        <ele>2984.140</ele>
        <time>2012-07-08T09:34:04Z</time>
      </trkpt>
      <trkpt lat="42.585284" lon=".879732">
        <ele>2985.037</ele>
        <time>2012-07-08T09:34:19Z</time>
      </trkpt>
      <trkpt lat="42.585289" lon=".879733">
        <ele>2985.561</ele>
        <time>2012-07-08T09:34:32Z</time>
      </trkpt>
      <trkpt lat="42.585289" lon=".879733">
        <ele>2985.521</ele>
        <time>2012-07-08T09:34:49Z</time>
      </trkpt>
      <trkpt lat="42.585299" lon=".879744">
        <ele>2986.513</ele>
        <time>2012-07-08T09:35:03Z</time>
      </trkpt>
      <trkpt lat="42.585315" lon=".879783">
        <ele>2986.507</ele>
        <time>2012-07-08T09:35:18Z</time>
      </trkpt>
      <trkpt lat="42.585315" lon=".879783">
        <ele>2986.569</ele>
        <time>2012-07-08T09:35:40Z</time>
      </trkpt>
      <trkpt lat="42.585335" lon=".8798">
        <ele>2987.427</ele>
        <time>2012-07-08T09:35:56Z</time>
      </trkpt>
      <trkpt lat="42.585361" lon=".879837">
        <ele>2988.450</ele>
        <time>2012-07-08T09:36:11Z</time>
      </trkpt>
      <trkpt lat="42.585387" lon=".879862">
        <ele>2988.980</ele>
        <time>2012-07-08T09:36:29Z</time>
      </trkpt>
      <trkpt lat="42.585414" lon=".879896">
        <ele>2991.396</ele>
        <time>2012-07-08T09:36:38Z</time>
      </trkpt>
      <trkpt lat="42.585449" lon=".879921">
        <ele>2994.289</ele>
        <time>2012-07-08T09:36:55Z</time>
      </trkpt>
      <trkpt lat="42.585448" lon=".879927">
        <ele>2995.136</ele>
        <time>2012-07-08T09:36:58Z</time>
      </trkpt>
      <trkpt lat="42.585472" lon=".879965">
        <ele>2998.037</ele>
        <time>2012-07-08T09:37:11Z</time>
      </trkpt>
      <trkpt lat="42.585478" lon=".879969">
        <ele>2999.049</ele>
        <time>2012-07-08T09:37:13Z</time>
      </trkpt>
      <trkpt lat="42.585478" lon=".87997">
        <ele>3000.413</ele>
        <time>2012-07-08T09:37:28Z</time>
      </trkpt>
      <trkpt lat="42.585496" lon=".880007">
        <ele>3003.307</ele>
        <time>2012-07-08T09:37:42Z</time>
      </trkpt>
      <trkpt lat="42.585512" lon=".880051">
        <ele>3005.276</ele>
        <time>2012-07-08T09:37:55Z</time>
      </trkpt>
      <trkpt lat="42.585562" lon=".880141">
        <ele>3007.694</ele>
        <time>2012-07-08T09:38:09Z</time>
      </trkpt>
      <trkpt lat="42.585575" lon=".880199">
        <ele>3008.117</ele>
        <time>2012-07-08T09:38:21Z</time>
      </trkpt>
      <trkpt lat="42.585597" lon=".880245">
        <ele>3008.637</ele>
        <time>2012-07-08T09:38:30Z</time>
      </trkpt>
      <trkpt lat="42.585599" lon=".880255">
        <ele>3008.663</ele>
        <time>2012-07-08T09:38:33Z</time>
      </trkpt>
      <trkpt lat="42.585627" lon=".880281">
        <ele>3010.086</ele>
        <time>2012-07-08T09:38:38Z</time>
      </trkpt>
      <trkpt lat="42.585654" lon=".880299">
        <ele>3010.553</ele>
        <time>2012-07-08T09:38:53Z</time>
      </trkpt>
      <trkpt lat="42.585696" lon=".880336">
        <ele>3012.442</ele>
        <time>2012-07-08T09:39:05Z</time>
      </trkpt>
      <trkpt lat="42.58569" lon=".880341">
        <ele>3012.422</ele>
        <time>2012-07-08T09:39:19Z</time>
      </trkpt>
      <trkpt lat="42.58571" lon=".880381">
        <ele>3013.414</ele>
        <time>2012-07-08T09:39:31Z</time>
      </trkpt>
      <trkpt lat="42.58571" lon=".880363">
        <ele>3014.407</ele>
        <time>2012-07-08T09:39:44Z</time>
      </trkpt>
      <trkpt lat="42.58571" lon=".880363">
        <ele>3014.417</ele>
        <time>2012-07-08T09:40:09Z</time>
      </trkpt>
      <trkpt lat="42.585714" lon=".880362">
        <ele>3013.915</ele>
        <time>2012-07-08T09:40:46Z</time>
      </trkpt>
      <trkpt lat="42.585715" lon=".880361">
        <ele>3013.918</ele>
        <time>2012-07-08T09:41:34Z</time>
      </trkpt>
      <trkpt lat="42.585715" lon=".880362">
        <ele>3013.938</ele>
        <time>2012-07-08T09:42:26Z</time>
      </trkpt>
      <trkpt lat="42.585714" lon=".880362">
        <ele>3013.474</ele>
        <time>2012-07-08T09:43:10Z</time>
      </trkpt>
      <trkpt lat="42.585715" lon=".88036">
        <ele>3013.487</ele>
        <time>2012-07-08T09:43:54Z</time>
      </trkpt>
      <trkpt lat="42.585714" lon=".880361">
        <ele>3013.414</ele>
        <time>2012-07-08T09:44:41Z</time>
      </trkpt>
      <trkpt lat="42.585713" lon=".880361">
        <ele>3013.492</ele>
        <time>2012-07-08T09:45:19Z</time>
      </trkpt>
      <trkpt lat="42.585722" lon=".880367">
        <ele>3013.973</ele>
        <time>2012-07-08T09:45:37Z</time>
      </trkpt>
      <trkpt lat="42.58572" lon=".880368">
        <ele>3012.920</ele>
        <time>2012-07-08T09:45:56Z</time>
      </trkpt>
      <trkpt lat="42.585719" lon=".880369">
        <ele>3012.907</ele>
        <time>2012-07-08T09:46:29Z</time>
      </trkpt>
      <trkpt lat="42.585717" lon=".880369">
        <ele>3012.432</ele>
        <time>2012-07-08T09:47:06Z</time>
      </trkpt>
      <trkpt lat="42.585717" lon=".880368">
        <ele>3012.430</ele>
        <time>2012-07-08T09:47:51Z</time>
      </trkpt>
      <trkpt lat="42.585722" lon=".880371">
        <ele>3012.463</ele>
        <time>2012-07-08T09:48:15Z</time>
      </trkpt>
      <trkpt lat="42.585725" lon=".880376">
        <ele>3012.053</ele>
        <time>2012-07-08T09:48:33Z</time>
      </trkpt>
      <trkpt lat="42.58573" lon=".880395">
        <ele>3012.499</ele>
        <time>2012-07-08T09:48:51Z</time>
      </trkpt>
      <trkpt lat="42.585739" lon=".880418">
        <ele>3012.412</ele>
        <time>2012-07-08T09:49:01Z</time>
      </trkpt>
      <trkpt lat="42.585743" lon=".88043">
        <ele>3012.469</ele>
        <time>2012-07-08T09:49:04Z</time>
      </trkpt>
      <trkpt lat="42.585771" lon=".880471">
        <ele>3012.074</ele>
        <time>2012-07-08T09:49:16Z</time>
      </trkpt>
      <trkpt lat="42.585789" lon=".880478">
        <ele>3011.556</ele>
        <time>2012-07-08T09:49:38Z</time>
      </trkpt>
      <trkpt lat="42.585802" lon=".880482">
        <ele>3011.021</ele>
        <time>2012-07-08T09:49:49Z</time>
      </trkpt>
      <trkpt lat="42.585808" lon=".880477">
        <ele>3010.507</ele>
        <time>2012-07-08T09:50:03Z</time>
      </trkpt>
      <trkpt lat="42.585808" lon=".880473">
        <ele>3010.590</ele>
        <time>2012-07-08T09:50:19Z</time>
      </trkpt>
      <trkpt lat="42.585812" lon=".880473">
        <ele>3010.558</ele>
        <time>2012-07-08T09:50:36Z</time>
      </trkpt>
      <trkpt lat="42.585814" lon=".880477">
        <ele>3010.591</ele>
        <time>2012-07-08T09:50:57Z</time>
      </trkpt>
      <trkpt lat="42.585814" lon=".880477">
        <ele>3010.511</ele>
        <time>2012-07-08T09:51:15Z</time>
      </trkpt>
      <trkpt lat="42.585819" lon=".880475">
        <ele>3010.537</ele>
        <time>2012-07-08T09:51:28Z</time>
      </trkpt>
      <trkpt lat="42.585819" lon=".880475">
        <ele>3010.560</ele>
        <time>2012-07-08T09:51:45Z</time>
      </trkpt>
      <trkpt lat="42.585819" lon=".880475">
        <ele>3010.577</ele>
        <time>2012-07-08T09:51:59Z</time>
      </trkpt>
      <trkpt lat="42.585821" lon=".880481">
        <ele>3010.035</ele>
        <time>2012-07-08T09:52:11Z</time>
      </trkpt>
      <trkpt lat="42.585819" lon=".880479">
        <ele>3010.086</ele>
        <time>2012-07-08T09:52:26Z</time>
      </trkpt>
      <trkpt lat="42.585826" lon=".880473">
        <ele>3009.114</ele>
        <time>2012-07-08T09:52:40Z</time>
      </trkpt>
      <trkpt lat="42.585832" lon=".880486">
        <ele>3009.107</ele>
        <time>2012-07-08T09:52:55Z</time>
      </trkpt>
      <trkpt lat="42.585839" lon=".880498">
        <ele>3008.656</ele>
        <time>2012-07-08T09:53:08Z</time>
      </trkpt>
      <trkpt lat="42.585859" lon=".880571">
        <ele>3005.784</ele>
        <time>2012-07-08T09:53:14Z</time>
      </trkpt>
      <trkpt lat="42.585865" lon=".880634">
        <ele>3003.347</ele>
        <time>2012-07-08T09:53:20Z</time>
      </trkpt>
      <trkpt lat="42.585879" lon=".880682">
        <ele>3001.977</ele>
        <time>2012-07-08T09:53:35Z</time>
      </trkpt>
      <trkpt lat="42.58588" lon=".880678">
        <ele>3001.973</ele>
        <time>2012-07-08T09:53:50Z</time>
      </trkpt>
      <trkpt lat="42.58588" lon=".880678">
        <ele>3001.916</ele>
        <time>2012-07-08T09:54:02Z</time>
      </trkpt>
      <trkpt lat="42.585899" lon=".880706">
        <ele>2999.963</ele>
        <time>2012-07-08T09:54:06Z</time>
      </trkpt>
      <trkpt lat="42.585899" lon=".880706">
        <ele>2999.963</ele>
        <time>2012-07-08T09:54:26Z</time>
      </trkpt>
      <trkpt lat="42.585899" lon=".880706">
        <ele>2999.944</ele>
        <time>2012-07-08T09:54:39Z</time>
      </trkpt>
      <trkpt lat="42.585903" lon=".880721">
        <ele>2999.518</ele>
        <time>2012-07-08T09:54:52Z</time>
      </trkpt>
      <trkpt lat="42.585905" lon=".880717">
        <ele>2999.507</ele>
        <time>2012-07-08T09:55:06Z</time>
      </trkpt>
      <trkpt lat="42.5859" lon=".880746">
        <ele>2998.079</ele>
        <time>2012-07-08T09:55:26Z</time>
      </trkpt>
      <trkpt lat="42.585903" lon=".880744">
        <ele>2998.097</ele>
        <time>2012-07-08T09:55:41Z</time>
      </trkpt>
      <trkpt lat="42.585903" lon=".880774">
        <ele>2996.660</ele>
        <time>2012-07-08T09:55:46Z</time>
      </trkpt>
      <trkpt lat="42.585905" lon=".880776">
        <ele>2996.680</ele>
        <time>2012-07-08T09:56:02Z</time>
      </trkpt>
      <trkpt lat="42.585902" lon=".880799">
        <ele>2995.166</ele>
        <time>2012-07-08T09:56:11Z</time>
      </trkpt>
      <trkpt lat="42.585902" lon=".880799">
        <ele>2995.169</ele>
        <time>2012-07-08T09:56:32Z</time>
      </trkpt>
      <trkpt lat="42.585906" lon=".880826">
        <ele>2993.796</ele>
        <time>2012-07-08T09:56:49Z</time>
      </trkpt>
      <trkpt lat="42.585946" lon=".880886">
        <ele>2990.838</ele>
        <time>2012-07-08T09:56:58Z</time>
      </trkpt>
      <trkpt lat="42.585963" lon=".880899">
        <ele>2989.870</ele>
        <time>2012-07-08T09:57:00Z</time>
      </trkpt>
      <trkpt lat="42.585962" lon=".880902">
        <ele>2989.817</ele>
        <time>2012-07-08T09:57:19Z</time>
      </trkpt>
      <trkpt lat="42.585983" lon=".880915">
        <ele>2988.907</ele>
        <time>2012-07-08T09:57:35Z</time>
      </trkpt>
      <trkpt lat="42.586006" lon=".880922">
        <ele>2987.026</ele>
        <time>2012-07-08T09:57:42Z</time>
      </trkpt>
      <trkpt lat="42.586027" lon=".880948">
        <ele>2985.544</ele>
        <time>2012-07-08T09:57:55Z</time>
      </trkpt>
      <trkpt lat="42.586047" lon=".880938">
        <ele>2981.797</ele>
        <time>2012-07-08T09:57:58Z</time>
      </trkpt>
      <trkpt lat="42.586064" lon=".880928">
        <ele>2978.327</ele>
        <time>2012-07-08T09:58:04Z</time>
      </trkpt>
      <trkpt lat="42.586062" lon=".880927">
        <ele>2978.383</ele>
        <time>2012-07-08T09:58:05Z</time>
      </trkpt>
      <trkpt lat="42.586075" lon=".880945">
        <ele>2976.916</ele>
        <time>2012-07-08T09:58:23Z</time>
      </trkpt>
      <trkpt lat="42.586087" lon=".880952">
        <ele>2973.533</ele>
        <time>2012-07-08T09:58:36Z</time>
      </trkpt>
      <trkpt lat="42.586087" lon=".880954">
        <ele>2972.545</ele>
        <time>2012-07-08T09:58:38Z</time>
      </trkpt>
      <trkpt lat="42.586098" lon=".880946">
        <ele>2971.147</ele>
        <time>2012-07-08T09:58:42Z</time>
      </trkpt>
      <trkpt lat="42.586117" lon=".880956">
        <ele>2968.211</ele>
        <time>2012-07-08T09:58:57Z</time>
      </trkpt>
      <trkpt lat="42.586128" lon=".880962">
        <ele>2967.307</ele>
        <time>2012-07-08T09:59:09Z</time>
      </trkpt>
      <trkpt lat="42.586133" lon=".880989">
        <ele>2966.327</ele>
        <time>2012-07-08T09:59:20Z</time>
      </trkpt>
      <trkpt lat="42.586147" lon=".880987">
        <ele>2965.315</ele>
        <time>2012-07-08T09:59:34Z</time>
      </trkpt>
      <trkpt lat="42.586159" lon=".880985">
        <ele>2964.858</ele>
        <time>2012-07-08T09:59:51Z</time>
      </trkpt>
      <trkpt lat="42.586165" lon=".880986">
        <ele>2964.458</ele>
        <time>2012-07-08T10:00:11Z</time>
      </trkpt>
      <trkpt lat="42.586188" lon=".880992">
        <ele>2963.914</ele>
        <time>2012-07-08T10:00:28Z</time>
      </trkpt>
      <trkpt lat="42.586188" lon=".880999">
        <ele>2963.447</ele>
        <time>2012-07-08T10:00:50Z</time>
      </trkpt>
      <trkpt lat="42.586209" lon=".881024">
        <ele>2962.954</ele>
        <time>2012-07-08T10:01:10Z</time>
      </trkpt>
      <trkpt lat="42.586244" lon=".881039">
        <ele>2960.597</ele>
        <time>2012-07-08T10:01:23Z</time>
      </trkpt>
      <trkpt lat="42.586249" lon=".881048">
        <ele>2957.223</ele>
        <time>2012-07-08T10:01:32Z</time>
      </trkpt>
      <trkpt lat="42.586252" lon=".881056">
        <ele>2956.225</ele>
        <time>2012-07-08T10:01:47Z</time>
      </trkpt>
      <trkpt lat="42.58625" lon=".881063">
        <ele>2954.807</ele>
        <time>2012-07-08T10:01:51Z</time>
      </trkpt>
      <trkpt lat="42.586252" lon=".881075">
        <ele>2954.342</ele>
        <time>2012-07-08T10:02:07Z</time>
      </trkpt>
      <trkpt lat="42.586292" lon=".881122">
        <ele>2952.820</ele>
        <time>2012-07-08T10:02:20Z</time>
      </trkpt>
      <trkpt lat="42.58632" lon=".881135">
        <ele>2952.473</ele>
        <time>2012-07-08T10:02:38Z</time>
      </trkpt>
      <trkpt lat="42.586346" lon=".88114">
        <ele>2950.413</ele>
        <time>2012-07-08T10:02:56Z</time>
      </trkpt>
      <trkpt lat="42.586349" lon=".881142">
        <ele>2950.499</ele>
        <time>2012-07-08T10:03:09Z</time>
      </trkpt>
      <trkpt lat="42.586349" lon=".881142">
        <ele>2950.452</ele>
        <time>2012-07-08T10:03:23Z</time>
      </trkpt>
      <trkpt lat="42.586342" lon=".881158">
        <ele>2948.029</ele>
        <time>2012-07-08T10:03:32Z</time>
      </trkpt>
      <trkpt lat="42.586342" lon=".881158">
        <ele>2948.018</ele>
        <time>2012-07-08T10:03:52Z</time>
      </trkpt>
      <trkpt lat="42.586355" lon=".881161">
        <ele>2944.798</ele>
        <time>2012-07-08T10:03:58Z</time>
      </trkpt>
      <trkpt lat="42.586362" lon=".881166">
        <ele>2944.717</ele>
        <time>2012-07-08T10:03:59Z</time>
      </trkpt>
      <trkpt lat="42.58637" lon=".881197">
        <ele>2940.807</ele>
        <time>2012-07-08T10:04:06Z</time>
      </trkpt>
      <trkpt lat="42.586399" lon=".881213">
        <ele>2937.014</ele>
        <time>2012-07-08T10:04:15Z</time>
      </trkpt>
      <trkpt lat="42.586416" lon=".881217">
        <ele>2936.552</ele>
        <time>2012-07-08T10:04:17Z</time>
      </trkpt>
      <trkpt lat="42.586432" lon=".88121">
        <ele>2935.045</ele>
        <time>2012-07-08T10:04:28Z</time>
      </trkpt>
      <trkpt lat="42.586444" lon=".881222">
        <ele>2933.685</ele>
        <time>2012-07-08T10:04:35Z</time>
      </trkpt>
      <trkpt lat="42.58646" lon=".88124">
        <ele>2931.721</ele>
        <time>2012-07-08T10:04:48Z</time>
      </trkpt>
      <trkpt lat="42.586474" lon=".881261">
        <ele>2931.744</ele>
        <time>2012-07-08T10:05:02Z</time>
      </trkpt>
      <trkpt lat="42.586512" lon=".881291">
        <ele>2931.231</ele>
        <time>2012-07-08T10:05:17Z</time>
      </trkpt>
      <trkpt lat="42.58653" lon=".881301">
        <ele>2929.362</ele>
        <time>2012-07-08T10:05:31Z</time>
      </trkpt>
      <trkpt lat="42.586538" lon=".881301">
        <ele>2929.383</ele>
        <time>2012-07-08T10:05:49Z</time>
      </trkpt>
      <trkpt lat="42.586562" lon=".881282">
        <ele>2927.811</ele>
        <time>2012-07-08T10:06:01Z</time>
      </trkpt>
      <trkpt lat="42.586566" lon=".881274">
        <ele>2927.407</ele>
        <time>2012-07-08T10:06:17Z</time>
      </trkpt>
      <trkpt lat="42.586579" lon=".881293">
        <ele>2925.969</ele>
        <time>2012-07-08T10:06:34Z</time>
      </trkpt>
      <trkpt lat="42.586619" lon=".881335">
        <ele>2922.527</ele>
        <time>2012-07-08T10:06:48Z</time>
      </trkpt>
      <trkpt lat="42.586636" lon=".881364">
        <ele>2921.680</ele>
        <time>2012-07-08T10:07:03Z</time>
      </trkpt>
      <trkpt lat="42.586658" lon=".881379">
        <ele>2920.640</ele>
        <time>2012-07-08T10:07:17Z</time>
      </trkpt>
      <trkpt lat="42.586675" lon=".881369">
        <ele>2919.756</ele>
        <time>2012-07-08T10:07:33Z</time>
      </trkpt>
      <trkpt lat="42.586718" lon=".881383">
        <ele>2918.719</ele>
        <time>2012-07-08T10:07:49Z</time>
      </trkpt>
      <trkpt lat="42.586736" lon=".881408">
        <ele>2917.746</ele>
        <time>2012-07-08T10:08:04Z</time>
      </trkpt>
      <trkpt lat="42.58673" lon=".881416">
        <ele>2916.888</ele>
        <time>2012-07-08T10:08:22Z</time>
      </trkpt>
      <trkpt lat="42.586729" lon=".881419">
        <ele>2916.824</ele>
        <time>2012-07-08T10:08:55Z</time>
      </trkpt>
      <trkpt lat="42.586731" lon=".881447">
        <ele>2916.826</ele>
        <time>2012-07-08T10:09:10Z</time>
      </trkpt>
      <trkpt lat="42.586765" lon=".881485">
        <ele>2913.407</ele>
        <time>2012-07-08T10:09:20Z</time>
      </trkpt>
      <trkpt lat="42.586792" lon=".881496">
        <ele>2910.541</ele>
        <time>2012-07-08T10:09:33Z</time>
      </trkpt>
      <trkpt lat="42.586793" lon=".881473">
        <ele>2907.229</ele>
        <time>2012-07-08T10:09:47Z</time>
      </trkpt>
      <trkpt lat="42.586789" lon=".881472">
        <ele>2907.292</ele>
        <time>2012-07-08T10:09:48Z</time>
      </trkpt>
      <trkpt lat="42.586823" lon=".881488">
        <ele>2903.812</ele>
        <time>2012-07-08T10:10:03Z</time>
      </trkpt>
      <trkpt lat="42.586839" lon=".881481">
        <ele>2902.888</ele>
        <time>2012-07-08T10:10:14Z</time>
      </trkpt>
      <trkpt lat="42.586851" lon=".881455">
        <ele>2900.021</ele>
        <time>2012-07-08T10:10:26Z</time>
      </trkpt>
      <trkpt lat="42.586853" lon=".881456">
        <ele>2900.028</ele>
        <time>2012-07-08T10:10:40Z</time>
      </trkpt>
      <trkpt lat="42.586854" lon=".881446">
        <ele>2898.036</ele>
        <time>2012-07-08T10:10:54Z</time>
      </trkpt>
      <trkpt lat="42.586872" lon=".881456">
        <ele>2896.617</ele>
        <time>2012-07-08T10:11:08Z</time>
      </trkpt>
      <trkpt lat="42.586895" lon=".881457">
        <ele>2894.218</ele>
        <time>2012-07-08T10:11:20Z</time>
      </trkpt>
      <trkpt lat="42.586901" lon=".881455">
        <ele>2893.707</ele>
        <time>2012-07-08T10:11:34Z</time>
      </trkpt>
      <trkpt lat="42.586905" lon=".881436">
        <ele>2892.756</ele>
        <time>2012-07-08T10:11:47Z</time>
      </trkpt>
      <trkpt lat="42.58693" lon=".881425">
        <ele>2892.344</ele>
        <time>2012-07-08T10:12:00Z</time>
      </trkpt>
      <trkpt lat="42.586958" lon=".881409">
        <ele>2890.337</ele>
        <time>2012-07-08T10:12:04Z</time>
      </trkpt>
      <trkpt lat="42.586976" lon=".881405">
        <ele>2888.947</ele>
        <time>2012-07-08T10:12:16Z</time>
      </trkpt>
      <trkpt lat="42.586984" lon=".8814">
        <ele>2887.913</ele>
        <time>2012-07-08T10:12:28Z</time>
      </trkpt>
      <trkpt lat="42.586997" lon=".881392">
        <ele>2886.546</ele>
        <time>2012-07-08T10:12:41Z</time>
      </trkpt>
      <trkpt lat="42.587005" lon=".88141">
        <ele>2885.173</ele>
        <time>2012-07-08T10:12:59Z</time>
      </trkpt>
      <trkpt lat="42.587078" lon=".881437">
        <ele>2882.279</ele>
        <time>2012-07-08T10:13:09Z</time>
      </trkpt>
      <trkpt lat="42.587102" lon=".881447">
        <ele>2881.705</ele>
        <time>2012-07-08T10:13:25Z</time>
      </trkpt>
      <trkpt lat="42.587102" lon=".881451">
        <ele>2880.325</ele>
        <time>2012-07-08T10:13:28Z</time>
      </trkpt>
      <trkpt lat="42.587119" lon=".881407">
        <ele>2879.307</ele>
        <time>2012-07-08T10:13:40Z</time>
      </trkpt>
      <trkpt lat="42.587131" lon=".881432">
        <ele>2877.820</ele>
        <time>2012-07-08T10:13:53Z</time>
      </trkpt>
      <trkpt lat="42.587154" lon=".881456">
        <ele>2875.948</ele>
        <time>2012-07-08T10:14:08Z</time>
      </trkpt>
      <trkpt lat="42.587172" lon=".881435">
        <ele>2875.431</ele>
        <time>2012-07-08T10:14:22Z</time>
      </trkpt>
      <trkpt lat="42.58719" lon=".881421">
        <ele>2872.181</ele>
        <time>2012-07-08T10:14:32Z</time>
      </trkpt>
      <trkpt lat="42.587196" lon=".881401">
        <ele>2871.117</ele>
        <time>2012-07-08T10:14:45Z</time>
      </trkpt>
      <trkpt lat="42.587219" lon=".8814">
        <ele>2869.250</ele>
        <time>2012-07-08T10:14:57Z</time>
      </trkpt>
      <trkpt lat="42.58724" lon=".881444">
        <ele>2866.867</ele>
        <time>2012-07-08T10:15:12Z</time>
      </trkpt>
      <trkpt lat="42.587243" lon=".881436">
        <ele>2866.319</ele>
        <time>2012-07-08T10:15:26Z</time>
      </trkpt>
      <trkpt lat="42.587255" lon=".881423">
        <ele>2865.409</ele>
        <time>2012-07-08T10:15:41Z</time>
      </trkpt>
      <trkpt lat="42.587263" lon=".881424">
        <ele>2865.419</ele>
        <time>2012-07-08T10:15:56Z</time>
      </trkpt>
      <trkpt lat="42.587281" lon=".881436">
        <ele>2863.407</ele>
        <time>2012-07-08T10:16:10Z</time>
      </trkpt>
      <trkpt lat="42.587289" lon=".881425">
        <ele>2861.054</ele>
        <time>2012-07-08T10:16:19Z</time>
      </trkpt>
      <trkpt lat="42.587307" lon=".881435">
        <ele>2859.662</ele>
        <time>2012-07-08T10:16:31Z</time>
      </trkpt>
      <trkpt lat="42.58732" lon=".881444">
        <ele>2858.685</ele>
        <time>2012-07-08T10:16:43Z</time>
      </trkpt>
      <trkpt lat="42.587348" lon=".881431">
        <ele>2856.285</ele>
        <time>2012-07-08T10:16:57Z</time>
      </trkpt>
      <trkpt lat="42.587389" lon=".881404">
        <ele>2854.341</ele>
        <time>2012-07-08T10:17:12Z</time>
      </trkpt>
      <trkpt lat="42.587397" lon=".881388">
        <ele>2852.944</ele>
        <time>2012-07-08T10:17:15Z</time>
      </trkpt>
      <trkpt lat="42.587405" lon=".881358">
        <ele>2851.931</ele>
        <time>2012-07-08T10:17:30Z</time>
      </trkpt>
      <trkpt lat="42.587415" lon=".88136">
        <ele>2850.919</ele>
        <time>2012-07-08T10:17:45Z</time>
      </trkpt>
      <trkpt lat="42.587428" lon=".881364">
        <ele>2850.009</ele>
        <time>2012-07-08T10:17:58Z</time>
      </trkpt>
      <trkpt lat="42.587441" lon=".881346">
        <ele>2847.619</ele>
        <time>2012-07-08T10:18:10Z</time>
      </trkpt>
      <trkpt lat="42.587477" lon=".881333">
        <ele>2845.207</ele>
        <time>2012-07-08T10:18:23Z</time>
      </trkpt>
      <trkpt lat="42.587495" lon=".881329">
        <ele>2844.794</ele>
        <time>2012-07-08T10:18:36Z</time>
      </trkpt>
      <trkpt lat="42.58749" lon=".881331">
        <ele>2845.282</ele>
        <time>2012-07-08T10:18:59Z</time>
      </trkpt>
      <trkpt lat="42.587517" lon=".881349">
        <ele>2844.765</ele>
        <time>2012-07-08T10:19:07Z</time>
      </trkpt>
      <trkpt lat="42.587532" lon=".881298">
        <ele>2843.215</ele>
        <time>2012-07-08T10:19:18Z</time>
      </trkpt>
      <trkpt lat="42.58756" lon=".881291">
        <ele>2840.811</ele>
        <time>2012-07-08T10:19:32Z</time>
      </trkpt>
      <trkpt lat="42.587578" lon=".881322">
        <ele>2838.924</ele>
        <time>2012-07-08T10:19:47Z</time>
      </trkpt>
      <trkpt lat="42.587578" lon=".881322">
        <ele>2838.991</ele>
        <time>2012-07-08T10:19:59Z</time>
      </trkpt>
      <trkpt lat="42.587617" lon=".881304">
        <ele>2837.023</ele>
        <time>2012-07-08T10:20:12Z</time>
      </trkpt>
      <trkpt lat="42.587638" lon=".881315">
        <ele>2833.683</ele>
        <time>2012-07-08T10:20:24Z</time>
      </trkpt>
      <trkpt lat="42.587654" lon=".881322">
        <ele>2832.711</ele>
        <time>2012-07-08T10:20:35Z</time>
      </trkpt>
      <trkpt lat="42.587678" lon=".881326">
        <ele>2831.207</ele>
        <time>2012-07-08T10:20:46Z</time>
      </trkpt>
      <trkpt lat="42.587718" lon=".881372">
        <ele>2828.395</ele>
        <time>2012-07-08T10:21:00Z</time>
      </trkpt>
      <trkpt lat="42.58775" lon=".881381">
        <ele>2825.923</ele>
        <time>2012-07-08T10:21:11Z</time>
      </trkpt>
      <trkpt lat="42.587744" lon=".881407">
        <ele>2825.046</ele>
        <time>2012-07-08T10:21:25Z</time>
      </trkpt>
      <trkpt lat="42.58775" lon=".881431">
        <ele>2823.146</ele>
        <time>2012-07-08T10:21:35Z</time>
      </trkpt>
      <trkpt lat="42.587758" lon=".881429">
        <ele>2822.172</ele>
        <time>2012-07-08T10:21:47Z</time>
      </trkpt>
      <trkpt lat="42.587774" lon=".881443">
        <ele>2819.765</ele>
        <time>2012-07-08T10:21:58Z</time>
      </trkpt>
      <trkpt lat="42.587815" lon=".881461">
        <ele>2819.262</ele>
        <time>2012-07-08T10:22:09Z</time>
      </trkpt>
      <trkpt lat="42.587866" lon=".881465">
        <ele>2817.874</ele>
        <time>2012-07-08T10:22:21Z</time>
      </trkpt>
      <trkpt lat="42.587875" lon=".881448">
        <ele>2816.856</ele>
        <time>2012-07-08T10:22:26Z</time>
      </trkpt>
      <trkpt lat="42.587891" lon=".88145">
        <ele>2816.821</ele>
        <time>2012-07-08T10:22:43Z</time>
      </trkpt>
      <trkpt lat="42.587908" lon=".881447">
        <ele>2815.807</ele>
        <time>2012-07-08T10:22:59Z</time>
      </trkpt>
      <trkpt lat="42.587915" lon=".881483">
        <ele>2815.470</ele>
        <time>2012-07-08T10:23:13Z</time>
      </trkpt>
      <trkpt lat="42.58791" lon=".881489">
        <ele>2813.048</ele>
        <time>2012-07-08T10:23:26Z</time>
      </trkpt>
      <trkpt lat="42.587943" lon=".881474">
        <ele>2810.171</ele>
        <time>2012-07-08T10:23:36Z</time>
      </trkpt>
      <trkpt lat="42.587969" lon=".881466">
        <ele>2807.711</ele>
        <time>2012-07-08T10:23:47Z</time>
      </trkpt>
      <trkpt lat="42.587951" lon=".881496">
        <ele>2805.857</ele>
        <time>2012-07-08T10:24:02Z</time>
      </trkpt>
      <trkpt lat="42.58795" lon=".881517">
        <ele>2804.840</ele>
        <time>2012-07-08T10:24:18Z</time>
      </trkpt>
      <trkpt lat="42.587954" lon=".881538">
        <ele>2803.837</ele>
        <time>2012-07-08T10:24:30Z</time>
      </trkpt>
      <trkpt lat="42.587949" lon=".881561">
        <ele>2802.921</ele>
        <time>2012-07-08T10:24:44Z</time>
      </trkpt>
      <trkpt lat="42.587931" lon=".881596">
        <ele>2801.441</ele>
        <time>2012-07-08T10:25:03Z</time>
      </trkpt>
      <trkpt lat="42.587937" lon=".881654">
        <ele>2800.005</ele>
        <time>2012-07-08T10:25:16Z</time>
      </trkpt>
      <trkpt lat="42.587947" lon=".881684">
        <ele>2798.507</ele>
        <time>2012-07-08T10:25:27Z</time>
      </trkpt>
      <trkpt lat="42.587945" lon=".881688">
        <ele>2797.645</ele>
        <time>2012-07-08T10:25:41Z</time>
      </trkpt>
      <trkpt lat="42.587953" lon=".881706">
        <ele>2795.763</ele>
        <time>2012-07-08T10:25:55Z</time>
      </trkpt>
      <trkpt lat="42.587961" lon=".881762">
        <ele>2793.396</ele>
        <time>2012-07-08T10:26:08Z</time>
      </trkpt>
      <trkpt lat="42.587989" lon=".881742">
        <ele>2792.396</ele>
        <time>2012-07-08T10:26:20Z</time>
      </trkpt>
      <trkpt lat="42.588021" lon=".881733">
        <ele>2790.892</ele>
        <time>2012-07-08T10:26:32Z</time>
      </trkpt>
      <trkpt lat="42.588014" lon=".881746">
        <ele>2788.925</ele>
        <time>2012-07-08T10:26:44Z</time>
      </trkpt>
      <trkpt lat="42.588028" lon=".881753">
        <ele>2788.482</ele>
        <time>2012-07-08T10:26:57Z</time>
      </trkpt>
      <trkpt lat="42.58806" lon=".881759">
        <ele>2786.597</ele>
        <time>2012-07-08T10:27:11Z</time>
      </trkpt>
      <trkpt lat="42.588074" lon=".881774">
        <ele>2785.623</ele>
        <time>2012-07-08T10:27:24Z</time>
      </trkpt>
      <trkpt lat="42.588103" lon=".881801">
        <ele>2784.625</ele>
        <time>2012-07-08T10:27:37Z</time>
      </trkpt>
      <trkpt lat="42.588131" lon=".881827">
        <ele>2782.207</ele>
        <time>2012-07-08T10:27:50Z</time>
      </trkpt>
      <trkpt lat="42.588135" lon=".881834">
        <ele>2781.292</ele>
        <time>2012-07-08T10:28:01Z</time>
      </trkpt>
      <trkpt lat="42.588155" lon=".881859">
        <ele>2778.840</ele>
        <time>2012-07-08T10:28:14Z</time>
      </trkpt>
      <trkpt lat="42.588169" lon=".881862">
        <ele>2777.413</ele>
        <time>2012-07-08T10:28:28Z</time>
      </trkpt>
      <trkpt lat="42.588197" lon=".881882">
        <ele>2775.013</ele>
        <time>2012-07-08T10:28:40Z</time>
      </trkpt>
      <trkpt lat="42.588222" lon=".881885">
        <ele>2773.179</ele>
        <time>2012-07-08T10:28:52Z</time>
      </trkpt>
      <trkpt lat="42.588249" lon=".881905">
        <ele>2771.692</ele>
        <time>2012-07-08T10:29:04Z</time>
      </trkpt>
      <trkpt lat="42.588296" lon=".881895">
        <ele>2770.789</ele>
        <time>2012-07-08T10:29:18Z</time>
      </trkpt>
      <trkpt lat="42.588323" lon=".881912">
        <ele>2768.775</ele>
        <time>2012-07-08T10:29:29Z</time>
      </trkpt>
      <trkpt lat="42.588319" lon=".881911">
        <ele>2768.728</ele>
        <time>2012-07-08T10:29:54Z</time>
      </trkpt>
      <trkpt lat="42.588339" lon=".881955">
        <ele>2768.320</ele>
        <time>2012-07-08T10:30:12Z</time>
      </trkpt>
      <trkpt lat="42.588344" lon=".881954">
        <ele>2768.707</ele>
        <time>2012-07-08T10:30:26Z</time>
      </trkpt>
      <trkpt lat="42.588348" lon=".881971">
        <ele>2766.340</ele>
        <time>2012-07-08T10:30:42Z</time>
      </trkpt>
      <trkpt lat="42.588355" lon=".882029">
        <ele>2763.578</ele>
        <time>2012-07-08T10:30:53Z</time>
      </trkpt>
      <trkpt lat="42.588373" lon=".882064">
        <ele>2762.021</ele>
        <time>2012-07-08T10:31:02Z</time>
      </trkpt>
      <trkpt lat="42.58839" lon=".882083">
        <ele>2761.031</ele>
        <time>2012-07-08T10:31:14Z</time>
      </trkpt>
      <trkpt lat="42.588417" lon=".882111">
        <ele>2758.627</ele>
        <time>2012-07-08T10:31:25Z</time>
      </trkpt>
      <trkpt lat="42.588447" lon=".882114">
        <ele>2756.260</ele>
        <time>2012-07-08T10:31:39Z</time>
      </trkpt>
      <trkpt lat="42.588456" lon=".882116">
        <ele>2755.817</ele>
        <time>2012-07-08T10:31:51Z</time>
      </trkpt>
      <trkpt lat="42.588456" lon=".882116">
        <ele>2755.879</ele>
        <time>2012-07-08T10:32:12Z</time>
      </trkpt>
      <trkpt lat="42.588457" lon=".882117">
        <ele>2755.805</ele>
        <time>2012-07-08T10:32:34Z</time>
      </trkpt>
      <trkpt lat="42.588458" lon=".882118">
        <ele>2755.825</ele>
        <time>2012-07-08T10:33:10Z</time>
      </trkpt>
      <trkpt lat="42.588458" lon=".882118">
        <ele>2755.807</ele>
        <time>2012-07-08T10:33:38Z</time>
      </trkpt>
      <trkpt lat="42.588458" lon=".88212">
        <ele>2755.390</ele>
        <time>2012-07-08T10:34:10Z</time>
      </trkpt>
      <trkpt lat="42.588458" lon=".88212">
        <ele>2755.318</ele>
        <time>2012-07-08T10:34:43Z</time>
      </trkpt>
      <trkpt lat="42.588454" lon=".882131">
        <ele>2755.891</ele>
        <time>2012-07-08T10:34:56Z</time>
      </trkpt>
      <trkpt lat="42.588454" lon=".882126">
        <ele>2755.851</ele>
        <time>2012-07-08T10:35:11Z</time>
      </trkpt>
      <trkpt lat="42.58846" lon=".882179">
        <ele>2752.497</ele>
        <time>2012-07-08T10:35:20Z</time>
      </trkpt>
      <trkpt lat="42.588494" lon=".882194">
        <ele>2750.570</ele>
        <time>2012-07-08T10:35:34Z</time>
      </trkpt>
      <trkpt lat="42.588524" lon=".882207">
        <ele>2747.177</ele>
        <time>2012-07-08T10:35:43Z</time>
      </trkpt>
      <trkpt lat="42.588551" lon=".882206">
        <ele>2745.297</ele>
        <time>2012-07-08T10:35:55Z</time>
      </trkpt>
      <trkpt lat="42.588562" lon=".882213">
        <ele>2743.323</ele>
        <time>2012-07-08T10:36:08Z</time>
      </trkpt>
      <trkpt lat="42.58862" lon=".882181">
        <ele>2741.825</ele>
        <time>2012-07-08T10:36:20Z</time>
      </trkpt>
      <trkpt lat="42.588621" lon=".882216">
        <ele>2740.407</ele>
        <time>2012-07-08T10:36:33Z</time>
      </trkpt>
      <trkpt lat="42.588641" lon=".882245">
        <ele>2739.932</ele>
        <time>2012-07-08T10:36:46Z</time>
      </trkpt>
      <trkpt lat="42.588654" lon=".882273">
        <ele>2738.960</ele>
        <time>2012-07-08T10:36:59Z</time>
      </trkpt>
      <trkpt lat="42.588681" lon=".88228">
        <ele>2736.513</ele>
        <time>2012-07-08T10:37:11Z</time>
      </trkpt>
      <trkpt lat="42.588707" lon=".882282">
        <ele>2735.193</ele>
        <time>2012-07-08T10:37:22Z</time>
      </trkpt>
      <trkpt lat="42.588766" lon=".882271">
        <ele>2734.169</ele>
        <time>2012-07-08T10:37:37Z</time>
      </trkpt>
      <trkpt lat="42.588799" lon=".882287">
        <ele>2733.242</ele>
        <time>2012-07-08T10:38:00Z</time>
      </trkpt>
      <trkpt lat="42.588828" lon=".882295">
        <ele>2729.839</ele>
        <time>2012-07-08T10:38:12Z</time>
      </trkpt>
      <trkpt lat="42.588857" lon=".88233">
        <ele>2726.995</ele>
        <time>2012-07-08T10:38:23Z</time>
      </trkpt>
      <trkpt lat="42.588892" lon=".882329">
        <ele>2725.049</ele>
        <time>2012-07-08T10:38:35Z</time>
      </trkpt>
      <trkpt lat="42.588915" lon=".882354">
        <ele>2723.123</ele>
        <time>2012-07-08T10:38:48Z</time>
      </trkpt>
      <trkpt lat="42.58893" lon=".882372">
        <ele>2720.707</ele>
        <time>2012-07-08T10:38:54Z</time>
      </trkpt>
      <trkpt lat="42.58894" lon=".88239">
        <ele>2718.832</ele>
        <time>2012-07-08T10:39:08Z</time>
      </trkpt>
      <trkpt lat="42.588968" lon=".882434">
        <ele>2716.840</ele>
        <time>2012-07-08T10:39:21Z</time>
      </trkpt>
      <trkpt lat="42.588995" lon=".882452">
        <ele>2715.473</ele>
        <time>2012-07-08T10:39:34Z</time>
      </trkpt>
      <trkpt lat="42.589013" lon=".882487">
        <ele>2713.953</ele>
        <time>2012-07-08T10:39:46Z</time>
      </trkpt>
      <trkpt lat="42.589024" lon=".882501">
        <ele>2713.919</ele>
        <time>2012-07-08T10:39:56Z</time>
      </trkpt>
      <trkpt lat="42.589045" lon=".882498">
        <ele>2712.542</ele>
        <time>2012-07-08T10:40:13Z</time>
      </trkpt>
      <trkpt lat="42.589081" lon=".882487">
        <ele>2711.129</ele>
        <time>2012-07-08T10:40:28Z</time>
      </trkpt>
      <trkpt lat="42.589113" lon=".882481">
        <ele>2708.749</ele>
        <time>2012-07-08T10:40:41Z</time>
      </trkpt>
      <trkpt lat="42.589141" lon=".882526">
        <ele>2706.702</ele>
        <time>2012-07-08T10:40:56Z</time>
      </trkpt>
      <trkpt lat="42.589157" lon=".882541">
        <ele>2705.322</ele>
        <time>2012-07-08T10:41:09Z</time>
      </trkpt>
      <trkpt lat="42.58917" lon=".882632">
        <ele>2701.907</ele>
        <time>2012-07-08T10:41:18Z</time>
      </trkpt>
      <trkpt lat="42.589193" lon=".882638">
        <ele>2700.587</ele>
        <time>2012-07-08T10:41:21Z</time>
      </trkpt>
      <trkpt lat="42.589206" lon=".882646">
        <ele>2700.065</ele>
        <time>2012-07-08T10:41:23Z</time>
      </trkpt>
      <trkpt lat="42.589251" lon=".882686">
        <ele>2698.138</ele>
        <time>2012-07-08T10:41:37Z</time>
      </trkpt>
      <trkpt lat="42.589289" lon=".882721">
        <ele>2695.788</ele>
        <time>2012-07-08T10:41:44Z</time>
      </trkpt>
      <trkpt lat="42.589297" lon=".882722">
        <ele>2695.244</ele>
        <time>2012-07-08T10:42:04Z</time>
      </trkpt>
      <trkpt lat="42.589319" lon=".88276">
        <ele>2696.247</ele>
        <time>2012-07-08T10:42:26Z</time>
      </trkpt>
      <trkpt lat="42.589334" lon=".882847">
        <ele>2693.324</ele>
        <time>2012-07-08T10:42:40Z</time>
      </trkpt>
      <trkpt lat="42.589341" lon=".882917">
        <ele>2692.367</ele>
        <time>2012-07-08T10:42:53Z</time>
      </trkpt>
      <trkpt lat="42.589377" lon=".883019">
        <ele>2689.481</ele>
        <time>2012-07-08T10:43:07Z</time>
      </trkpt>
      <trkpt lat="42.589426" lon=".883069">
        <ele>2686.519</ele>
        <time>2012-07-08T10:43:19Z</time>
      </trkpt>
      <trkpt lat="42.589417" lon=".883164">
        <ele>2683.707</ele>
        <time>2012-07-08T10:43:32Z</time>
      </trkpt>
      <trkpt lat="42.589402" lon=".883261">
        <ele>2682.269</ele>
        <time>2012-07-08T10:43:45Z</time>
      </trkpt>
      <trkpt lat="42.589438" lon=".883301">
        <ele>2679.367</ele>
        <time>2012-07-08T10:43:58Z</time>
      </trkpt>
      <trkpt lat="42.589469" lon=".88333">
        <ele>2676.540</ele>
        <time>2012-07-08T10:44:10Z</time>
      </trkpt>
      <trkpt lat="42.589531" lon=".883403">
        <ele>2674.570</ele>
        <time>2012-07-08T10:44:24Z</time>
      </trkpt>
      <trkpt lat="42.589574" lon=".883449">
        <ele>2673.686</ele>
        <time>2012-07-08T10:44:38Z</time>
      </trkpt>
      <trkpt lat="42.589595" lon=".883499">
        <ele>2670.269</ele>
        <time>2012-07-08T10:44:50Z</time>
      </trkpt>
      <trkpt lat="42.589655" lon=".8835">
        <ele>2667.826</ele>
        <time>2012-07-08T10:45:02Z</time>
      </trkpt>
      <trkpt lat="42.589671" lon=".88353">
        <ele>2664.926</ele>
        <time>2012-07-08T10:45:15Z</time>
      </trkpt>
      <trkpt lat="42.589677" lon=".883524">
        <ele>2664.447</ele>
        <time>2012-07-08T10:45:17Z</time>
      </trkpt>
      <trkpt lat="42.589702" lon=".883557">
        <ele>2662.011</ele>
        <time>2012-07-08T10:45:30Z</time>
      </trkpt>
      <trkpt lat="42.58969" lon=".883643">
        <ele>2660.607</ele>
        <time>2012-07-08T10:45:44Z</time>
      </trkpt>
      <trkpt lat="42.589722" lon=".883645">
        <ele>2658.775</ele>
        <time>2012-07-08T10:45:59Z</time>
      </trkpt>
      <trkpt lat="42.58975" lon=".883666">
        <ele>2657.243</ele>
        <time>2012-07-08T10:46:12Z</time>
      </trkpt>
      <trkpt lat="42.589764" lon=".883681">
        <ele>2656.756</ele>
        <time>2012-07-08T10:46:20Z</time>
      </trkpt>
      <trkpt lat="42.589778" lon=".88375">
        <ele>2654.896</ele>
        <time>2012-07-08T10:46:32Z</time>
      </trkpt>
      <trkpt lat="42.589789" lon=".883803">
        <ele>2651.922</ele>
        <time>2012-07-08T10:46:44Z</time>
      </trkpt>
      <trkpt lat="42.589805" lon=".88384">
        <ele>2649.145</ele>
        <time>2012-07-08T10:46:55Z</time>
      </trkpt>
      <trkpt lat="42.589801" lon=".88386">
        <ele>2649.192</ele>
        <time>2012-07-08T10:46:59Z</time>
      </trkpt>
      <trkpt lat="42.589795" lon=".883941">
        <ele>2648.144</ele>
        <time>2012-07-08T10:47:10Z</time>
      </trkpt>
      <trkpt lat="42.589844" lon=".883942">
        <ele>2646.205</ele>
        <time>2012-07-08T10:47:21Z</time>
      </trkpt>
      <trkpt lat="42.589837" lon=".883988">
        <ele>2642.815</ele>
        <time>2012-07-08T10:47:31Z</time>
      </trkpt>
      <trkpt lat="42.58988" lon=".884035">
        <ele>2641.407</ele>
        <time>2012-07-08T10:47:42Z</time>
      </trkpt>
      <trkpt lat="42.589949" lon=".884072">
        <ele>2638.587</ele>
        <time>2012-07-08T10:47:55Z</time>
      </trkpt>
      <trkpt lat="42.58996" lon=".884086">
        <ele>2637.595</ele>
        <time>2012-07-08T10:47:58Z</time>
      </trkpt>
      <trkpt lat="42.590021" lon=".884162">
        <ele>2634.298</ele>
        <time>2012-07-08T10:48:11Z</time>
      </trkpt>
      <trkpt lat="42.590064" lon=".884169">
        <ele>2633.218</ele>
        <time>2012-07-08T10:48:20Z</time>
      </trkpt>
      <trkpt lat="42.590094" lon=".884218">
        <ele>2630.824</ele>
        <time>2012-07-08T10:48:31Z</time>
      </trkpt>
      <trkpt lat="42.590125" lon=".884255">
        <ele>2629.817</ele>
        <time>2012-07-08T10:48:41Z</time>
      </trkpt>
      <trkpt lat="42.590132" lon=".884276">
        <ele>2628.914</ele>
        <time>2012-07-08T10:48:51Z</time>
      </trkpt>
      <trkpt lat="42.590139" lon=".884296">
        <ele>2628.986</ele>
        <time>2012-07-08T10:48:53Z</time>
      </trkpt>
      <trkpt lat="42.590147" lon=".884318">
        <ele>2628.960</ele>
        <time>2012-07-08T10:48:56Z</time>
      </trkpt>
      <trkpt lat="42.590171" lon=".884452">
        <ele>2628.926</ele>
        <time>2012-07-08T10:49:11Z</time>
      </trkpt>
      <trkpt lat="42.590183" lon=".88447">
        <ele>2627.407</ele>
        <time>2012-07-08T10:49:24Z</time>
      </trkpt>
      <trkpt lat="42.590178" lon=".884502">
        <ele>2625.011</ele>
        <time>2012-07-08T10:49:35Z</time>
      </trkpt>
      <trkpt lat="42.590188" lon=".884536">
        <ele>2623.689</ele>
        <time>2012-07-08T10:49:47Z</time>
      </trkpt>
      <trkpt lat="42.590219" lon=".884531">
        <ele>2623.192</ele>
        <time>2012-07-08T10:50:01Z</time>
      </trkpt>
      <trkpt lat="42.590167" lon=".884658">
        <ele>2620.762</ele>
        <time>2012-07-08T10:50:13Z</time>
      </trkpt>
      <trkpt lat="42.590156" lon=".884706">
        <ele>2620.728</ele>
        <time>2012-07-08T10:50:25Z</time>
      </trkpt>
      <trkpt lat="42.590166" lon=".884746">
        <ele>2621.211</ele>
        <time>2012-07-08T10:50:28Z</time>
      </trkpt>
      <trkpt lat="42.590231" lon=".884809">
        <ele>2620.218</ele>
        <time>2012-07-08T10:50:41Z</time>
      </trkpt>
      <trkpt lat="42.590245" lon=".884872">
        <ele>2618.315</ele>
        <time>2012-07-08T10:50:53Z</time>
      </trkpt>
      <trkpt lat="42.590309" lon=".884864">
        <ele>2616.965</ele>
        <time>2012-07-08T10:51:04Z</time>
      </trkpt>
      <trkpt lat="42.590316" lon=".884872">
        <ele>2616.411</ele>
        <time>2012-07-08T10:51:26Z</time>
      </trkpt>
      <trkpt lat="42.590328" lon=".884878">
        <ele>2617.807</ele>
        <time>2012-07-08T10:51:36Z</time>
      </trkpt>
      <trkpt lat="42.590353" lon=".884907">
        <ele>2616.974</ele>
        <time>2012-07-08T10:51:42Z</time>
      </trkpt>
      <trkpt lat="42.590367" lon=".884923">
        <ele>2616.932</ele>
        <time>2012-07-08T10:51:44Z</time>
      </trkpt>
      <trkpt lat="42.590394" lon=".885016">
        <ele>2616.965</ele>
        <time>2012-07-08T10:51:53Z</time>
      </trkpt>
      <trkpt lat="42.590403" lon=".885071">
        <ele>2617.385</ele>
        <time>2012-07-08T10:52:04Z</time>
      </trkpt>
      <trkpt lat="42.590429" lon=".885078">
        <ele>2617.881</ele>
        <time>2012-07-08T10:52:07Z</time>
      </trkpt>
      <trkpt lat="42.590444" lon=".885111">
        <ele>2618.324</ele>
        <time>2012-07-08T10:52:18Z</time>
      </trkpt>
      <trkpt lat="42.590434" lon=".885132">
        <ele>2618.351</ele>
        <time>2012-07-08T10:52:21Z</time>
      </trkpt>
      <trkpt lat="42.590417" lon=".885179">
        <ele>2617.377</ele>
        <time>2012-07-08T10:52:30Z</time>
      </trkpt>
      <trkpt lat="42.590414" lon=".885185">
        <ele>2617.361</ele>
        <time>2012-07-08T10:52:31Z</time>
      </trkpt>
      <trkpt lat="42.590445" lon=".885242">
        <ele>2616.427</ele>
        <time>2012-07-08T10:52:41Z</time>
      </trkpt>
      <trkpt lat="42.590487" lon=".88528">
        <ele>2616.407</ele>
        <time>2012-07-08T10:52:53Z</time>
      </trkpt>
      <trkpt lat="42.590522" lon=".885353">
        <ele>2615.440</ele>
        <time>2012-07-08T10:53:04Z</time>
      </trkpt>
      <trkpt lat="42.590532" lon=".885367">
        <ele>2615.488</ele>
        <time>2012-07-08T10:53:10Z</time>
      </trkpt>
      <trkpt lat="42.590543" lon=".885402">
        <ele>2615.431</ele>
        <time>2012-07-08T10:53:13Z</time>
      </trkpt>
      <trkpt lat="42.590598" lon=".885458">
        <ele>2614.481</ele>
        <time>2012-07-08T10:53:27Z</time>
      </trkpt>
      <trkpt lat="42.590607" lon=".885469">
        <ele>2613.027</ele>
        <time>2012-07-08T10:53:40Z</time>
      </trkpt>
      <trkpt lat="42.590624" lon=".885491">
        <ele>2612.030</ele>
        <time>2012-07-08T10:53:54Z</time>
      </trkpt>
      <trkpt lat="42.590643" lon=".885523">
        <ele>2610.687</ele>
        <time>2012-07-08T10:54:07Z</time>
      </trkpt>
      <trkpt lat="42.59067" lon=".885547">
        <ele>2608.737</ele>
        <time>2012-07-08T10:54:18Z</time>
      </trkpt>
      <trkpt lat="42.5907" lon=".885568">
        <ele>2606.849</ele>
        <time>2012-07-08T10:54:31Z</time>
      </trkpt>
      <trkpt lat="42.590703" lon=".885614">
        <ele>2607.213</ele>
        <time>2012-07-08T10:54:43Z</time>
      </trkpt>
      <trkpt lat="42.590707" lon=".885678">
        <ele>2608.207</ele>
        <time>2012-07-08T10:54:53Z</time>
      </trkpt>
      <trkpt lat="42.590709" lon=".885697">
        <ele>2607.756</ele>
        <time>2012-07-08T10:54:55Z</time>
      </trkpt>
      <trkpt lat="42.590737" lon=".885835">
        <ele>2606.894</ele>
        <time>2012-07-08T10:55:05Z</time>
      </trkpt>
      <trkpt lat="42.590786" lon=".885858">
        <ele>2604.887</ele>
        <time>2012-07-08T10:55:18Z</time>
      </trkpt>
      <trkpt lat="42.590824" lon=".885904">
        <ele>2602.017</ele>
        <time>2012-07-08T10:55:32Z</time>
      </trkpt>
      <trkpt lat="42.590856" lon=".885896">
        <ele>2599.543</ele>
        <time>2012-07-08T10:55:44Z</time>
      </trkpt>
      <trkpt lat="42.590856" lon=".885902">
        <ele>2599.126</ele>
        <time>2012-07-08T10:55:45Z</time>
      </trkpt>
      <trkpt lat="42.590873" lon=".886002">
        <ele>2599.533</ele>
        <time>2012-07-08T10:55:56Z</time>
      </trkpt>
      <trkpt lat="42.590924" lon=".886048">
        <ele>2597.176</ele>
        <time>2012-07-08T10:56:07Z</time>
      </trkpt>
      <trkpt lat="42.590972" lon=".886104">
        <ele>2595.290</ele>
        <time>2012-07-08T10:56:20Z</time>
      </trkpt>
      <trkpt lat="42.591007" lon=".886198">
        <ele>2592.319</ele>
        <time>2012-07-08T10:56:32Z</time>
      </trkpt>
      <trkpt lat="42.591047" lon=".886266">
        <ele>2590.907</ele>
        <time>2012-07-08T10:56:44Z</time>
      </trkpt>
      <trkpt lat="42.591069" lon=".886327">
        <ele>2589.540</ele>
        <time>2012-07-08T10:56:54Z</time>
      </trkpt>
      <trkpt lat="42.591096" lon=".886366">
        <ele>2588.558</ele>
        <time>2012-07-08T10:57:08Z</time>
      </trkpt>
      <trkpt lat="42.591108" lon=".886373">
        <ele>2588.031</ele>
        <time>2012-07-08T10:57:22Z</time>
      </trkpt>
      <trkpt lat="42.591123" lon=".886394">
        <ele>2587.561</ele>
        <time>2012-07-08T10:57:33Z</time>
      </trkpt>
      <trkpt lat="42.591177" lon=".886443">
        <ele>2585.127</ele>
        <time>2012-07-08T10:57:47Z</time>
      </trkpt>
      <trkpt lat="42.59119" lon=".886433">
        <ele>2584.610</ele>
        <time>2012-07-08T10:57:58Z</time>
      </trkpt>
      <trkpt lat="42.591192" lon=".886406">
        <ele>2583.297</ele>
        <time>2012-07-08T10:58:08Z</time>
      </trkpt>
      <trkpt lat="42.591192" lon=".886399">
        <ele>2583.253</ele>
        <time>2012-07-08T10:58:24Z</time>
      </trkpt>
      <trkpt lat="42.591192" lon=".886399">
        <ele>2583.204</ele>
        <time>2012-07-08T10:58:46Z</time>
      </trkpt>
      <trkpt lat="42.591195" lon=".886398">
        <ele>2583.714</ele>
        <time>2012-07-08T10:59:09Z</time>
      </trkpt>
      <trkpt lat="42.591195" lon=".886398">
        <ele>2583.707</ele>
        <time>2012-07-08T10:59:32Z</time>
      </trkpt>
      <trkpt lat="42.591197" lon=".88642">
        <ele>2583.288</ele>
        <time>2012-07-08T10:59:45Z</time>
      </trkpt>
      <trkpt lat="42.591223" lon=".886446">
        <ele>2582.296</ele>
        <time>2012-07-08T11:00:00Z</time>
      </trkpt>
      <trkpt lat="42.591251" lon=".886465">
        <ele>2579.849</ele>
        <time>2012-07-08T11:00:12Z</time>
      </trkpt>
      <trkpt lat="42.591275" lon=".886474">
        <ele>2578.479</ele>
        <time>2012-07-08T11:00:24Z</time>
      </trkpt>
      <trkpt lat="42.591297" lon=".886497">
        <ele>2577.035</ele>
        <time>2012-07-08T11:00:36Z</time>
      </trkpt>
      <trkpt lat="42.591315" lon=".88651">
        <ele>2575.528</ele>
        <time>2012-07-08T11:00:49Z</time>
      </trkpt>
      <trkpt lat="42.591329" lon=".886518">
        <ele>2574.635</ele>
        <time>2012-07-08T11:01:01Z</time>
      </trkpt>
      <trkpt lat="42.591336" lon=".886526">
        <ele>2573.689</ele>
        <time>2012-07-08T11:01:14Z</time>
      </trkpt>
      <trkpt lat="42.591339" lon=".886539">
        <ele>2572.606</ele>
        <time>2012-07-08T11:01:28Z</time>
      </trkpt>
      <trkpt lat="42.591356" lon=".886569">
        <ele>2572.126</ele>
        <time>2012-07-08T11:01:38Z</time>
      </trkpt>
      <trkpt lat="42.591385" lon=".886622">
        <ele>2570.207</ele>
        <time>2012-07-08T11:01:51Z</time>
      </trkpt>
      <trkpt lat="42.591377" lon=".886655">
        <ele>2568.331</ele>
        <time>2012-07-08T11:02:03Z</time>
      </trkpt>
      <trkpt lat="42.591393" lon=".886709">
        <ele>2566.949</ele>
        <time>2012-07-08T11:02:16Z</time>
      </trkpt>
      <trkpt lat="42.591397" lon=".88671">
        <ele>2566.912</ele>
        <time>2012-07-08T11:02:17Z</time>
      </trkpt>
      <trkpt lat="42.591425" lon=".88673">
        <ele>2564.922</ele>
        <time>2012-07-08T11:02:30Z</time>
      </trkpt>
      <trkpt lat="42.591431" lon=".886764">
        <ele>2563.518</ele>
        <time>2012-07-08T11:02:45Z</time>
      </trkpt>
      <trkpt lat="42.591454" lon=".886813">
        <ele>2561.181</ele>
        <time>2012-07-08T11:02:58Z</time>
      </trkpt>
      <trkpt lat="42.591465" lon=".886844">
        <ele>2561.148</ele>
        <time>2012-07-08T11:03:13Z</time>
      </trkpt>
      <trkpt lat="42.591498" lon=".886916">
        <ele>2559.726</ele>
        <time>2012-07-08T11:03:25Z</time>
      </trkpt>
      <trkpt lat="42.591522" lon=".886921">
        <ele>2558.247</ele>
        <time>2012-07-08T11:03:38Z</time>
      </trkpt>
      <trkpt lat="42.59154" lon=".886948">
        <ele>2556.311</ele>
        <time>2012-07-08T11:03:48Z</time>
      </trkpt>
      <trkpt lat="42.591579" lon=".886991">
        <ele>2554.807</ele>
        <time>2012-07-08T11:04:03Z</time>
      </trkpt>
      <trkpt lat="42.591626" lon=".887096">
        <ele>2552.095</ele>
        <time>2012-07-08T11:04:15Z</time>
      </trkpt>
      <trkpt lat="42.591651" lon=".887098">
        <ele>2550.563</ele>
        <time>2012-07-08T11:04:30Z</time>
      </trkpt>
      <trkpt lat="42.591657" lon=".887104">
        <ele>2550.056</ele>
        <time>2012-07-08T11:04:42Z</time>
      </trkpt>
      <trkpt lat="42.591668" lon=".887115">
        <ele>2549.116</ele>
        <time>2012-07-08T11:04:55Z</time>
      </trkpt>
      <trkpt lat="42.59167" lon=".887125">
        <ele>2549.172</ele>
        <time>2012-07-08T11:05:14Z</time>
      </trkpt>
      <trkpt lat="42.591712" lon=".887155">
        <ele>2547.655</ele>
        <time>2012-07-08T11:05:27Z</time>
      </trkpt>
      <trkpt lat="42.591735" lon=".887174">
        <ele>2546.792</ele>
        <time>2012-07-08T11:05:43Z</time>
      </trkpt>
      <trkpt lat="42.591765" lon=".8872">
        <ele>2545.296</ele>
        <time>2012-07-08T11:05:57Z</time>
      </trkpt>
      <trkpt lat="42.591767" lon=".887205">
        <ele>2545.231</ele>
        <time>2012-07-08T11:06:11Z</time>
      </trkpt>
      <trkpt lat="42.591767" lon=".887205">
        <ele>2545.224</ele>
        <time>2012-07-08T11:06:15Z</time>
      </trkpt>
      <trkpt lat="42.591812" lon=".887231">
        <ele>2544.307</ele>
        <time>2012-07-08T11:06:27Z</time>
      </trkpt>
      <trkpt lat="42.591829" lon=".887226">
        <ele>2543.812</ele>
        <time>2012-07-08T11:06:38Z</time>
      </trkpt>
      <trkpt lat="42.591852" lon=".887227">
        <ele>2542.890</ele>
        <time>2012-07-08T11:06:54Z</time>
      </trkpt>
      <trkpt lat="42.591909" lon=".887249">
        <ele>2539.573</ele>
        <time>2012-07-08T11:07:08Z</time>
      </trkpt>
      <trkpt lat="42.591962" lon=".887262">
        <ele>2536.173</ele>
        <time>2012-07-08T11:07:20Z</time>
      </trkpt>
      <trkpt lat="42.591981" lon=".887281">
        <ele>2534.239</ele>
        <time>2012-07-08T11:07:35Z</time>
      </trkpt>
      <trkpt lat="42.592019" lon=".887318">
        <ele>2531.822</ele>
        <time>2012-07-08T11:07:48Z</time>
      </trkpt>
      <trkpt lat="42.592025" lon=".887323">
        <ele>2530.829</ele>
        <time>2012-07-08T11:08:03Z</time>
      </trkpt>
      <trkpt lat="42.592024" lon=".887319">
        <ele>2530.816</ele>
        <time>2012-07-08T11:08:16Z</time>
      </trkpt>
      <trkpt lat="42.592074" lon=".887358">
        <ele>2528.976</ele>
        <time>2012-07-08T11:08:29Z</time>
      </trkpt>
      <trkpt lat="42.59212" lon=".887396">
        <ele>2527.013</ele>
        <time>2012-07-08T11:08:41Z</time>
      </trkpt>
      <trkpt lat="42.592157" lon=".887398">
        <ele>2525.507</ele>
        <time>2012-07-08T11:08:57Z</time>
      </trkpt>
      <trkpt lat="42.592183" lon=".887453">
        <ele>2523.144</ele>
        <time>2012-07-08T11:09:11Z</time>
      </trkpt>
      <trkpt lat="42.592182" lon=".887465">
        <ele>2520.742</ele>
        <time>2012-07-08T11:09:24Z</time>
      </trkpt>
      <trkpt lat="42.592208" lon=".887482">
        <ele>2519.825</ele>
        <time>2012-07-08T11:09:32Z</time>
      </trkpt>
      <trkpt lat="42.592263" lon=".887527">
        <ele>2516.495</ele>
        <time>2012-07-08T11:09:43Z</time>
      </trkpt>
      <trkpt lat="42.592261" lon=".887563">
        <ele>2515.431</ele>
        <time>2012-07-08T11:09:56Z</time>
      </trkpt>
      <trkpt lat="42.592263" lon=".88757">
        <ele>2515.024</ele>
        <time>2012-07-08T11:10:07Z</time>
      </trkpt>
      <trkpt lat="42.592226" lon=".887598">
        <ele>2515.081</ele>
        <time>2012-07-08T11:10:23Z</time>
      </trkpt>
      <trkpt lat="42.592259" lon=".887655">
        <ele>2513.542</ele>
        <time>2012-07-08T11:10:36Z</time>
      </trkpt>
      <trkpt lat="42.592267" lon=".887683">
        <ele>2513.022</ele>
        <time>2012-07-08T11:10:47Z</time>
      </trkpt>
      <trkpt lat="42.59227" lon=".887695">
        <ele>2513.514</ele>
        <time>2012-07-08T11:11:01Z</time>
      </trkpt>
      <trkpt lat="42.592306" lon=".887724">
        <ele>2512.107</ele>
        <time>2012-07-08T11:11:13Z</time>
      </trkpt>
      <trkpt lat="42.592296" lon=".887738">
        <ele>2511.177</ele>
        <time>2012-07-08T11:11:25Z</time>
      </trkpt>
      <trkpt lat="42.592334" lon=".88778">
        <ele>2509.725</ele>
        <time>2012-07-08T11:11:32Z</time>
      </trkpt>
      <trkpt lat="42.592336" lon=".887772">
        <ele>2509.748</ele>
        <time>2012-07-08T11:11:50Z</time>
      </trkpt>
      <trkpt lat="42.59233" lon=".887773">
        <ele>2509.258</ele>
        <time>2012-07-08T11:12:02Z</time>
      </trkpt>
      <trkpt lat="42.592335" lon=".887825">
        <ele>2508.764</ele>
        <time>2012-07-08T11:12:14Z</time>
      </trkpt>
      <trkpt lat="42.592322" lon=".887863">
        <ele>2508.797</ele>
        <time>2012-07-08T11:12:28Z</time>
      </trkpt>
      <trkpt lat="42.592386" lon=".887936">
        <ele>2505.884</ele>
        <time>2012-07-08T11:12:41Z</time>
      </trkpt>
      <trkpt lat="42.5924" lon=".887944">
        <ele>2504.489</ele>
        <time>2012-07-08T11:12:54Z</time>
      </trkpt>
      <trkpt lat="42.592394" lon=".88794">
        <ele>2503.906</ele>
        <time>2012-07-08T11:13:11Z</time>
      </trkpt>
      <trkpt lat="42.592414" lon=".887992">
        <ele>2501.026</ele>
        <time>2012-07-08T11:13:26Z</time>
      </trkpt>
      <trkpt lat="42.592423" lon=".888">
        <ele>2499.107</ele>
        <time>2012-07-08T11:13:38Z</time>
      </trkpt>
      <trkpt lat="42.592393" lon=".88804">
        <ele>2497.241</ele>
        <time>2012-07-08T11:13:51Z</time>
      </trkpt>
      <trkpt lat="42.592406" lon=".88805">
        <ele>2495.759</ele>
        <time>2012-07-08T11:14:08Z</time>
      </trkpt>
      <trkpt lat="42.592443" lon=".888075">
        <ele>2493.342</ele>
        <time>2012-07-08T11:14:19Z</time>
      </trkpt>
      <trkpt lat="42.592521" lon=".88808">
        <ele>2491.452</ele>
        <time>2012-07-08T11:14:34Z</time>
      </trkpt>
      <trkpt lat="42.592558" lon=".888116">
        <ele>2489.558</ele>
        <time>2012-07-08T11:14:47Z</time>
      </trkpt>
      <trkpt lat="42.59255" lon=".888121">
        <ele>2488.581</ele>
        <time>2012-07-08T11:14:50Z</time>
      </trkpt>
      <trkpt lat="42.592517" lon=".888132">
        <ele>2487.138</ele>
        <time>2012-07-08T11:15:04Z</time>
      </trkpt>
      <trkpt lat="42.592519" lon=".888126">
        <ele>2487.637</ele>
        <time>2012-07-08T11:15:19Z</time>
      </trkpt>
      <trkpt lat="42.592518" lon=".888161">
        <ele>2486.649</ele>
        <time>2012-07-08T11:15:34Z</time>
      </trkpt>
      <trkpt lat="42.592541" lon=".888188">
        <ele>2485.613</ele>
        <time>2012-07-08T11:15:46Z</time>
      </trkpt>
      <trkpt lat="42.592542" lon=".888198">
        <ele>2484.207</ele>
        <time>2012-07-08T11:15:51Z</time>
      </trkpt>
      <trkpt lat="42.592566" lon=".888224">
        <ele>2482.336</ele>
        <time>2012-07-08T11:16:05Z</time>
      </trkpt>
      <trkpt lat="42.592585" lon=".888255">
        <ele>2481.354</ele>
        <time>2012-07-08T11:16:19Z</time>
      </trkpt>
      <trkpt lat="42.592619" lon=".888292">
        <ele>2478.957</ele>
        <time>2012-07-08T11:16:32Z</time>
      </trkpt>
      <trkpt lat="42.592625" lon=".888298">
        <ele>2478.487</ele>
        <time>2012-07-08T11:16:47Z</time>
      </trkpt>
      <trkpt lat="42.592648" lon=".888322">
        <ele>2477.563</ele>
        <time>2012-07-08T11:16:58Z</time>
      </trkpt>
      <trkpt lat="42.592691" lon=".888358">
        <ele>2475.166</ele>
        <time>2012-07-08T11:17:10Z</time>
      </trkpt>
      <trkpt lat="42.592698" lon=".888387">
        <ele>2473.683</ele>
        <time>2012-07-08T11:17:23Z</time>
      </trkpt>
      <trkpt lat="42.592724" lon=".888396">
        <ele>2472.238</ele>
        <time>2012-07-08T11:17:39Z</time>
      </trkpt>
      <trkpt lat="42.592737" lon=".888413">
        <ele>2471.270</ele>
        <time>2012-07-08T11:17:51Z</time>
      </trkpt>
      <trkpt lat="42.592734" lon=".888427">
        <ele>2469.817</ele>
        <time>2012-07-08T11:18:07Z</time>
      </trkpt>
      <trkpt lat="42.592746" lon=".888436">
        <ele>2469.307</ele>
        <time>2012-07-08T11:18:23Z</time>
      </trkpt>
      <trkpt lat="42.592737" lon=".888429">
        <ele>2468.826</ele>
        <time>2012-07-08T11:18:34Z</time>
      </trkpt>
      <trkpt lat="42.592741" lon=".888435">
        <ele>2468.884</ele>
        <time>2012-07-08T11:18:52Z</time>
      </trkpt>
      <trkpt lat="42.592753" lon=".888444">
        <ele>2467.497</ele>
        <time>2012-07-08T11:19:07Z</time>
      </trkpt>
      <trkpt lat="42.592783" lon=".888479">
        <ele>2465.417</ele>
        <time>2012-07-08T11:19:26Z</time>
      </trkpt>
      <trkpt lat="42.59278" lon=".888482">
        <ele>2465.413</ele>
        <time>2012-07-08T11:19:42Z</time>
      </trkpt>
      <trkpt lat="42.59281" lon=".888541">
        <ele>2463.056</ele>
        <time>2012-07-08T11:20:05Z</time>
      </trkpt>
      <trkpt lat="42.592846" lon=".88862">
        <ele>2460.233</ele>
        <time>2012-07-08T11:20:20Z</time>
      </trkpt>
      <trkpt lat="42.592852" lon=".888624">
        <ele>2458.227</ele>
        <time>2012-07-08T11:20:33Z</time>
      </trkpt>
      <trkpt lat="42.592863" lon=".888572">
        <ele>2454.968</ele>
        <time>2012-07-08T11:20:42Z</time>
      </trkpt>
      <trkpt lat="42.592858" lon=".888583">
        <ele>2452.014</ele>
        <time>2012-07-08T11:21:01Z</time>
      </trkpt>
      <trkpt lat="42.59286" lon=".888602">
        <ele>2448.607</ele>
        <time>2012-07-08T11:21:15Z</time>
      </trkpt>
      <trkpt lat="42.592871" lon=".888651">
        <ele>2445.365</ele>
        <time>2012-07-08T11:21:23Z</time>
      </trkpt>
      <trkpt lat="42.59289" lon=".888674">
        <ele>2441.973</ele>
        <time>2012-07-08T11:21:31Z</time>
      </trkpt>
      <trkpt lat="42.592889" lon=".88868">
        <ele>2441.996</ele>
        <time>2012-07-08T11:21:46Z</time>
      </trkpt>
      <trkpt lat="42.592904" lon=".888688">
        <ele>2440.476</ele>
        <time>2012-07-08T11:21:50Z</time>
      </trkpt>
      <trkpt lat="42.592936" lon=".888704">
        <ele>2438.542</ele>
        <time>2012-07-08T11:22:04Z</time>
      </trkpt>
      <trkpt lat="42.592934" lon=".888734">
        <ele>2436.125</ele>
        <time>2012-07-08T11:22:20Z</time>
      </trkpt>
      <trkpt lat="42.592952" lon=".888768">
        <ele>2435.212</ele>
        <time>2012-07-08T11:22:33Z</time>
      </trkpt>
      <trkpt lat="42.592982" lon=".888778">
        <ele>2432.854</ele>
        <time>2012-07-08T11:22:45Z</time>
      </trkpt>
      <trkpt lat="42.592999" lon=".888798">
        <ele>2431.856</ele>
        <time>2012-07-08T11:22:59Z</time>
      </trkpt>
      <trkpt lat="42.593029" lon=".888827">
        <ele>2428.411</ele>
        <time>2012-07-08T11:23:13Z</time>
      </trkpt>
      <trkpt lat="42.59306" lon=".888833">
        <ele>2425.107</ele>
        <time>2012-07-08T11:23:22Z</time>
      </trkpt>
      <trkpt lat="42.593085" lon=".888829">
        <ele>2423.178</ele>
        <time>2012-07-08T11:23:34Z</time>
      </trkpt>
      <trkpt lat="42.593103" lon=".888844">
        <ele>2421.736</ele>
        <time>2012-07-08T11:23:47Z</time>
      </trkpt>
      <trkpt lat="42.593125" lon=".888847">
        <ele>2420.369</ele>
        <time>2012-07-08T11:24:00Z</time>
      </trkpt>
      <trkpt lat="42.593127" lon=".888848">
        <ele>2419.819</ele>
        <time>2012-07-08T11:24:18Z</time>
      </trkpt>
      <trkpt lat="42.593135" lon=".888854">
        <ele>2419.345</ele>
        <time>2012-07-08T11:24:32Z</time>
      </trkpt>
      <trkpt lat="42.593158" lon=".888876">
        <ele>2417.938</ele>
        <time>2012-07-08T11:24:45Z</time>
      </trkpt>
      <trkpt lat="42.593188" lon=".888892">
        <ele>2415.545</ele>
        <time>2012-07-08T11:24:57Z</time>
      </trkpt>
      <trkpt lat="42.593231" lon=".888914">
        <ele>2413.182</ele>
        <time>2012-07-08T11:25:09Z</time>
      </trkpt>
      <trkpt lat="42.593289" lon=".888952">
        <ele>2411.643</ele>
        <time>2012-07-08T11:25:22Z</time>
      </trkpt>
      <trkpt lat="42.593323" lon=".888969">
        <ele>2411.617</ele>
        <time>2012-07-08T11:25:35Z</time>
      </trkpt>
      <trkpt lat="42.593378" lon=".889018">
        <ele>2408.707</ele>
        <time>2012-07-08T11:25:48Z</time>
      </trkpt>
      <trkpt lat="42.593434" lon=".889022">
        <ele>2407.841</ele>
        <time>2012-07-08T11:25:55Z</time>
      </trkpt>
      <trkpt lat="42.593463" lon=".88899">
        <ele>2406.829</ele>
        <time>2012-07-08T11:26:08Z</time>
      </trkpt>
      <trkpt lat="42.593517" lon=".888979">
        <ele>2406.342</ele>
        <time>2012-07-08T11:26:19Z</time>
      </trkpt>
      <trkpt lat="42.593559" lon=".888941">
        <ele>2406.352</ele>
        <time>2012-07-08T11:26:23Z</time>
      </trkpt>
      <trkpt lat="42.59369" lon=".888906">
        <ele>2404.948</ele>
        <time>2012-07-08T11:26:34Z</time>
      </trkpt>
      <trkpt lat="42.593793" lon=".888892">
        <ele>2401.571</ele>
        <time>2012-07-08T11:26:44Z</time>
      </trkpt>
      <trkpt lat="42.59387" lon=".888875">
        <ele>2399.198</ele>
        <time>2012-07-08T11:26:56Z</time>
      </trkpt>
      <trkpt lat="42.593915" lon=".888896">
        <ele>2398.252</ele>
        <time>2012-07-08T11:27:02Z</time>
      </trkpt>
      <trkpt lat="42.594009" lon=".888899">
        <ele>2396.253</ele>
        <time>2012-07-08T11:27:12Z</time>
      </trkpt>
      <trkpt lat="42.594118" lon=".888885">
        <ele>2395.308</ele>
        <time>2012-07-08T11:27:24Z</time>
      </trkpt>
      <trkpt lat="42.594174" lon=".888929">
        <ele>2394.807</ele>
        <time>2012-07-08T11:27:33Z</time>
      </trkpt>
      <trkpt lat="42.594224" lon=".888998">
        <ele>2393.338</ele>
        <time>2012-07-08T11:27:45Z</time>
      </trkpt>
      <trkpt lat="42.594294" lon=".889016">
        <ele>2390.916</ele>
        <time>2012-07-08T11:27:58Z</time>
      </trkpt>
      <trkpt lat="42.594347" lon=".889034">
        <ele>2389.519</ele>
        <time>2012-07-08T11:28:03Z</time>
      </trkpt>
      <trkpt lat="42.594403" lon=".889046">
        <ele>2389.019</ele>
        <time>2012-07-08T11:28:14Z</time>
      </trkpt>
      <trkpt lat="42.594482" lon=".889058">
        <ele>2389.535</ele>
        <time>2012-07-08T11:28:23Z</time>
      </trkpt>
      <trkpt lat="42.594559" lon=".889066">
        <ele>2389.038</ele>
        <time>2012-07-08T11:28:34Z</time>
      </trkpt>
      <trkpt lat="42.594634" lon=".889135">
        <ele>2389.545</ele>
        <time>2012-07-08T11:28:44Z</time>
      </trkpt>
      <trkpt lat="42.594647" lon=".889155">
        <ele>2390.075</ele>
        <time>2012-07-08T11:28:46Z</time>
      </trkpt>
      <trkpt lat="42.594741" lon=".889259">
        <ele>2389.528</ele>
        <time>2012-07-08T11:28:57Z</time>
      </trkpt>
      <trkpt lat="42.594771" lon=".889299">
        <ele>2389.520</ele>
        <time>2012-07-08T11:29:01Z</time>
      </trkpt>
      <trkpt lat="42.594786" lon=".889371">
        <ele>2389.507</ele>
        <time>2012-07-08T11:29:05Z</time>
      </trkpt>
      <trkpt lat="42.594806" lon=".88946">
        <ele>2390.030</ele>
        <time>2012-07-08T11:29:19Z</time>
      </trkpt>
      <trkpt lat="42.59485" lon=".889444">
        <ele>2390.588</ele>
        <time>2012-07-08T11:29:31Z</time>
      </trkpt>
      <trkpt lat="42.594839" lon=".889445">
        <ele>2390.561</ele>
        <time>2012-07-08T11:29:43Z</time>
      </trkpt>
      <trkpt lat="42.594814" lon=".889512">
        <ele>2390.021</ele>
        <time>2012-07-08T11:29:49Z</time>
      </trkpt>
      <trkpt lat="42.594804" lon=".889623">
        <ele>2388.187</ele>
        <time>2012-07-08T11:30:00Z</time>
      </trkpt>
      <trkpt lat="42.59485" lon=".889753">
        <ele>2387.670</ele>
        <time>2012-07-08T11:30:12Z</time>
      </trkpt>
      <trkpt lat="42.594849" lon=".889755">
        <ele>2387.657</ele>
        <time>2012-07-08T11:30:29Z</time>
      </trkpt>
      <trkpt lat="42.594884" lon=".889718">
        <ele>2387.166</ele>
        <time>2012-07-08T11:30:35Z</time>
      </trkpt>
      <trkpt lat="42.5949" lon=".8897">
        <ele>2387.129</ele>
        <time>2012-07-08T11:30:37Z</time>
      </trkpt>
      <trkpt lat="42.594942" lon=".889658">
        <ele>2387.621</ele>
        <time>2012-07-08T11:30:42Z</time>
      </trkpt>
      <trkpt lat="42.595052" lon=".889543">
        <ele>2387.107</ele>
        <time>2012-07-08T11:30:56Z</time>
      </trkpt>
      <trkpt lat="42.595125" lon=".889477">
        <ele>2387.699</ele>
        <time>2012-07-08T11:31:09Z</time>
      </trkpt>
      <trkpt lat="42.595167" lon=".889425">
        <ele>2387.647</ele>
        <time>2012-07-08T11:31:19Z</time>
      </trkpt>
      <trkpt lat="42.595236" lon=".889339">
        <ele>2387.630</ele>
        <time>2012-07-08T11:31:30Z</time>
      </trkpt>
      <trkpt lat="42.595301" lon=".889262">
        <ele>2386.150</ele>
        <time>2012-07-08T11:31:44Z</time>
      </trkpt>
      <trkpt lat="42.595303" lon=".889253">
        <ele>2385.726</ele>
        <time>2012-07-08T11:31:45Z</time>
      </trkpt>
      <trkpt lat="42.595348" lon=".889188">
        <ele>2383.749</ele>
        <time>2012-07-08T11:31:58Z</time>
      </trkpt>
      <trkpt lat="42.595375" lon=".889168">
        <ele>2382.386</ele>
        <time>2012-07-08T11:32:14Z</time>
      </trkpt>
      <trkpt lat="42.595417" lon=".88916">
        <ele>2381.879</ele>
        <time>2012-07-08T11:32:28Z</time>
      </trkpt>
      <trkpt lat="42.595417" lon=".889158">
        <ele>2381.805</ele>
        <time>2012-07-08T11:32:49Z</time>
      </trkpt>
      <trkpt lat="42.59535" lon=".889169">
        <ele>2382.325</ele>
        <time>2012-07-08T11:33:01Z</time>
      </trkpt>
      <trkpt lat="42.59535" lon=".889164">
        <ele>2382.307</ele>
        <time>2012-07-08T11:33:02Z</time>
      </trkpt>
      <trkpt lat="42.595312" lon=".889182">
        <ele>2382.870</ele>
        <time>2012-07-08T11:33:07Z</time>
      </trkpt>
      <trkpt lat="42.59529" lon=".889239">
        <ele>2384.218</ele>
        <time>2012-07-08T11:33:14Z</time>
      </trkpt>
      <trkpt lat="42.595258" lon=".889285">
        <ele>2385.261</ele>
        <time>2012-07-08T11:33:31Z</time>
      </trkpt>
      <trkpt lat="42.595202" lon=".889327">
        <ele>2386.151</ele>
        <time>2012-07-08T11:33:38Z</time>
      </trkpt>
      <trkpt lat="42.59509" lon=".889387">
        <ele>2389.067</ele>
        <time>2012-07-08T11:33:51Z</time>
      </trkpt>
      <trkpt lat="42.595032" lon=".889433">
        <ele>2390.070</ele>
        <time>2012-07-08T11:33:59Z</time>
      </trkpt>
      <trkpt lat="42.595" lon=".889469">
        <ele>2390.087</ele>
        <time>2012-07-08T11:34:03Z</time>
      </trkpt>
      <trkpt lat="42.594966" lon=".889489">
        <ele>2390.093</ele>
        <time>2012-07-08T11:34:08Z</time>
      </trkpt>
      <trkpt lat="42.594837" lon=".889551">
        <ele>2391.965</ele>
        <time>2012-07-08T11:34:23Z</time>
      </trkpt>
      <trkpt lat="42.594726" lon=".889643">
        <ele>2392.921</ele>
        <time>2012-07-08T11:34:37Z</time>
      </trkpt>
      <trkpt lat="42.594709" lon=".889651">
        <ele>2393.307</ele>
        <time>2012-07-08T11:34:39Z</time>
      </trkpt>
      <trkpt lat="42.594651" lon=".889761">
        <ele>2392.472</ele>
        <time>2012-07-08T11:34:55Z</time>
      </trkpt>
      <trkpt lat="42.594656" lon=".889779">
        <ele>2391.920</ele>
        <time>2012-07-08T11:35:10Z</time>
      </trkpt>
      <trkpt lat="42.594638" lon=".889822">
        <ele>2391.963</ele>
        <time>2012-07-08T11:35:18Z</time>
      </trkpt>
      <trkpt lat="42.594677" lon=".889907">
        <ele>2390.073</ele>
        <time>2012-07-08T11:35:28Z</time>
      </trkpt>
      <trkpt lat="42.594628" lon=".889931">
        <ele>2390.079</ele>
        <time>2012-07-08T11:35:34Z</time>
      </trkpt>
      <trkpt lat="42.594637" lon=".890085">
        <ele>2390.082</ele>
        <time>2012-07-08T11:35:47Z</time>
      </trkpt>
      <trkpt lat="42.594655" lon=".89017">
        <ele>2389.049</ele>
        <time>2012-07-08T11:35:54Z</time>
      </trkpt>
      <trkpt lat="42.594628" lon=".890338">
        <ele>2385.782</ele>
        <time>2012-07-08T11:36:07Z</time>
      </trkpt>
      <trkpt lat="42.594627" lon=".890397">
        <ele>2384.243</ele>
        <time>2012-07-08T11:36:11Z</time>
      </trkpt>
      <trkpt lat="42.594633" lon=".890436">
        <ele>2383.717</ele>
        <time>2012-07-08T11:36:14Z</time>
      </trkpt>
      <trkpt lat="42.594662" lon=".890539">
        <ele>2383.307</ele>
        <time>2012-07-08T11:36:23Z</time>
      </trkpt>
      <trkpt lat="42.594658" lon=".890575">
        <ele>2383.731</ele>
        <time>2012-07-08T11:36:35Z</time>
      </trkpt>
      <trkpt lat="42.594604" lon=".890592">
        <ele>2387.619</ele>
        <time>2012-07-08T11:36:41Z</time>
      </trkpt>
      <trkpt lat="42.594566" lon=".890625">
        <ele>2390.552</ele>
        <time>2012-07-08T11:36:48Z</time>
      </trkpt>
      <trkpt lat="42.594539" lon=".890653">
        <ele>2392.432</ele>
        <time>2012-07-08T11:36:53Z</time>
      </trkpt>
      <trkpt lat="42.594465" lon=".89069">
        <ele>2395.378</ele>
        <time>2012-07-08T11:37:06Z</time>
      </trkpt>
      <trkpt lat="42.594433" lon=".89072">
        <ele>2398.251</ele>
        <time>2012-07-08T11:37:12Z</time>
      </trkpt>
      <trkpt lat="42.594401" lon=".890804">
        <ele>2398.288</ele>
        <time>2012-07-08T11:37:21Z</time>
      </trkpt>
      <trkpt lat="42.594379" lon=".890847">
        <ele>2398.233</ele>
        <time>2012-07-08T11:37:29Z</time>
      </trkpt>
      <trkpt lat="42.594343" lon=".890896">
        <ele>2396.723</ele>
        <time>2012-07-08T11:37:38Z</time>
      </trkpt>
      <trkpt lat="42.594298" lon=".89097">
        <ele>2395.315</ele>
        <time>2012-07-08T11:37:55Z</time>
      </trkpt>
      <trkpt lat="42.594244" lon=".891022">
        <ele>2395.307</ele>
        <time>2012-07-08T11:38:10Z</time>
      </trkpt>
      <trkpt lat="42.594237" lon=".891024">
        <ele>2395.346</ele>
        <time>2012-07-08T11:38:11Z</time>
      </trkpt>
      <trkpt lat="42.594203" lon=".891041">
        <ele>2396.244</ele>
        <time>2012-07-08T11:38:15Z</time>
      </trkpt>
      <trkpt lat="42.594183" lon=".891057">
        <ele>2396.287</ele>
        <time>2012-07-08T11:38:27Z</time>
      </trkpt>
      <trkpt lat="42.594162" lon=".891088">
        <ele>2395.757</ele>
        <time>2012-07-08T11:38:39Z</time>
      </trkpt>
      <trkpt lat="42.594143" lon=".891165">
        <ele>2392.973</ele>
        <time>2012-07-08T11:38:53Z</time>
      </trkpt>
      <trkpt lat="42.594149" lon=".891264">
        <ele>2390.076</ele>
        <time>2012-07-08T11:39:05Z</time>
      </trkpt>
      <trkpt lat="42.594158" lon=".891326">
        <ele>2389.043</ele>
        <time>2012-07-08T11:39:11Z</time>
      </trkpt>
      <trkpt lat="42.594181" lon=".891436">
        <ele>2388.547</ele>
        <time>2012-07-08T11:39:23Z</time>
      </trkpt>
      <trkpt lat="42.594198" lon=".891486">
        <ele>2390.929</ele>
        <time>2012-07-08T11:39:33Z</time>
      </trkpt>
      <trkpt lat="42.5942" lon=".891552">
        <ele>2391.421</ele>
        <time>2012-07-08T11:39:45Z</time>
      </trkpt>
      <trkpt lat="42.594201" lon=".891594">
        <ele>2391.407</ele>
        <time>2012-07-08T11:39:49Z</time>
      </trkpt>
      <trkpt lat="42.594179" lon=".89175">
        <ele>2390.087</ele>
        <time>2012-07-08T11:40:01Z</time>
      </trkpt>
      <trkpt lat="42.594145" lon=".891853">
        <ele>2391.435</ele>
        <time>2012-07-08T11:40:15Z</time>
      </trkpt>
      <trkpt lat="42.594136" lon=".891965">
        <ele>2392.418</ele>
        <time>2012-07-08T11:40:26Z</time>
      </trkpt>
      <trkpt lat="42.594164" lon=".892128">
        <ele>2391.948</ele>
        <time>2012-07-08T11:40:43Z</time>
      </trkpt>
      <trkpt lat="42.594234" lon=".892189">
        <ele>2390.574</ele>
        <time>2012-07-08T11:40:53Z</time>
      </trkpt>
      <trkpt lat="42.594278" lon=".892257">
        <ele>2389.067</ele>
        <time>2012-07-08T11:41:03Z</time>
      </trkpt>
      <trkpt lat="42.59427" lon=".892284">
        <ele>2388.554</ele>
        <time>2012-07-08T11:41:15Z</time>
      </trkpt>
      <trkpt lat="42.594273" lon=".892309">
        <ele>2389.598</ele>
        <time>2012-07-08T11:41:17Z</time>
      </trkpt>
      <trkpt lat="42.594257" lon=".892345">
        <ele>2390.515</ele>
        <time>2012-07-08T11:41:20Z</time>
      </trkpt>
      <trkpt lat="42.59423" lon=".892374">
        <ele>2390.526</ele>
        <time>2012-07-08T11:41:24Z</time>
      </trkpt>
      <trkpt lat="42.594231" lon=".892478">
        <ele>2391.407</ele>
        <time>2012-07-08T11:41:36Z</time>
      </trkpt>
      <trkpt lat="42.594206" lon=".892608">
        <ele>2390.982</ele>
        <time>2012-07-08T11:41:48Z</time>
      </trkpt>
      <trkpt lat="42.594201" lon=".892608">
        <ele>2390.940</ele>
        <time>2012-07-08T11:42:02Z</time>
      </trkpt>
      <trkpt lat="42.594198" lon=".892603">
        <ele>2390.963</ele>
        <time>2012-07-08T11:42:12Z</time>
      </trkpt>
      <trkpt lat="42.594133" lon=".892594">
        <ele>2391.493</ele>
        <time>2012-07-08T11:42:25Z</time>
      </trkpt>
      <trkpt lat="42.594121" lon=".892596">
        <ele>2390.959</ele>
        <time>2012-07-08T11:42:39Z</time>
      </trkpt>
      <trkpt lat="42.594106" lon=".892617">
        <ele>2389.022</ele>
        <time>2012-07-08T11:42:52Z</time>
      </trkpt>
      <trkpt lat="42.594101" lon=".892618">
        <ele>2388.599</ele>
        <time>2012-07-08T11:43:05Z</time>
      </trkpt>
      <trkpt lat="42.594059" lon=".892644">
        <ele>2387.181</ele>
        <time>2012-07-08T11:43:16Z</time>
      </trkpt>
      <trkpt lat="42.594049" lon=".892699">
        <ele>2385.761</ele>
        <time>2012-07-08T11:43:30Z</time>
      </trkpt>
      <trkpt lat="42.594046" lon=".89271">
        <ele>2385.217</ele>
        <time>2012-07-08T11:43:45Z</time>
      </trkpt>
      <trkpt lat="42.59403" lon=".892805">
        <ele>2381.807</ele>
        <time>2012-07-08T11:43:55Z</time>
      </trkpt>
      <trkpt lat="42.594043" lon=".892857">
        <ele>2378.491</ele>
        <time>2012-07-08T11:44:01Z</time>
      </trkpt>
      <trkpt lat="42.594068" lon=".892939">
        <ele>2376.589</ele>
        <time>2012-07-08T11:44:14Z</time>
      </trkpt>
      <trkpt lat="42.594067" lon=".89295">
        <ele>2376.062</ele>
        <time>2012-07-08T11:44:15Z</time>
      </trkpt>
      <trkpt lat="42.594063" lon=".893044">
        <ele>2375.682</ele>
        <time>2012-07-08T11:44:23Z</time>
      </trkpt>
      <trkpt lat="42.594073" lon=".893084">
        <ele>2375.628</ele>
        <time>2012-07-08T11:44:26Z</time>
      </trkpt>
      <trkpt lat="42.594056" lon=".893156">
        <ele>2374.191</ele>
        <time>2012-07-08T11:44:39Z</time>
      </trkpt>
      <trkpt lat="42.594049" lon=".893198">
        <ele>2372.778</ele>
        <time>2012-07-08T11:44:52Z</time>
      </trkpt>
      <trkpt lat="42.594043" lon=".893209">
        <ele>2372.782</ele>
        <time>2012-07-08T11:44:58Z</time>
      </trkpt>
      <trkpt lat="42.594039" lon=".893348">
        <ele>2369.843</ele>
        <time>2012-07-08T11:45:11Z</time>
      </trkpt>
      <trkpt lat="42.594051" lon=".893402">
        <ele>2366.417</ele>
        <time>2012-07-08T11:45:19Z</time>
      </trkpt>
      <trkpt lat="42.594031" lon=".893478">
        <ele>2365.907</ele>
        <time>2012-07-08T11:45:33Z</time>
      </trkpt>
      <trkpt lat="42.59403" lon=".893482">
        <ele>2365.971</ele>
        <time>2012-07-08T11:45:35Z</time>
      </trkpt>
      <trkpt lat="42.594045" lon=".893513">
        <ele>2364.599</ele>
        <time>2012-07-08T11:45:40Z</time>
      </trkpt>
      <trkpt lat="42.59405" lon=".893552">
        <ele>2363.552</ele>
        <time>2012-07-08T11:45:45Z</time>
      </trkpt>
      <trkpt lat="42.594078" lon=".893583">
        <ele>2362.642</ele>
        <time>2012-07-08T11:45:51Z</time>
      </trkpt>
      <trkpt lat="42.594068" lon=".893661">
        <ele>2363.148</ele>
        <time>2012-07-08T11:46:00Z</time>
      </trkpt>
      <trkpt lat="42.594058" lon=".893737">
        <ele>2364.081</ele>
        <time>2012-07-08T11:46:07Z</time>
      </trkpt>
      <trkpt lat="42.594059" lon=".893825">
        <ele>2365.078</ele>
        <time>2012-07-08T11:46:19Z</time>
      </trkpt>
      <trkpt lat="42.594077" lon=".893872">
        <ele>2365.992</ele>
        <time>2012-07-08T11:46:28Z</time>
      </trkpt>
      <trkpt lat="42.594066" lon=".893964">
        <ele>2365.573</ele>
        <time>2012-07-08T11:46:37Z</time>
      </trkpt>
      <trkpt lat="42.594069" lon=".893996">
        <ele>2366.920</ele>
        <time>2012-07-08T11:46:41Z</time>
      </trkpt>
      <trkpt lat="42.594072" lon=".894079">
        <ele>2368.407</ele>
        <time>2012-07-08T11:46:53Z</time>
      </trkpt>
      <trkpt lat="42.594063" lon=".894101">
        <ele>2368.832</ele>
        <time>2012-07-08T11:46:56Z</time>
      </trkpt>
      <trkpt lat="42.594032" lon=".894154">
        <ele>2367.490</ele>
        <time>2012-07-08T11:47:07Z</time>
      </trkpt>
      <trkpt lat="42.594031" lon=".894164">
        <ele>2366.943</ele>
        <time>2012-07-08T11:47:22Z</time>
      </trkpt>
      <trkpt lat="42.594028" lon=".894289">
        <ele>2363.553</ele>
        <time>2012-07-08T11:47:33Z</time>
      </trkpt>
      <trkpt lat="42.594022" lon=".894355">
        <ele>2362.679</ele>
        <time>2012-07-08T11:47:46Z</time>
      </trkpt>
      <trkpt lat="42.594001" lon=".894433">
        <ele>2362.642</ele>
        <time>2012-07-08T11:47:53Z</time>
      </trkpt>
      <trkpt lat="42.593988" lon=".89452">
        <ele>2360.229</ele>
        <time>2012-07-08T11:48:07Z</time>
      </trkpt>
      <trkpt lat="42.593981" lon=".89457">
        <ele>2359.234</ele>
        <time>2012-07-08T11:48:14Z</time>
      </trkpt>
      <trkpt lat="42.59397" lon=".894644">
        <ele>2359.755</ele>
        <time>2012-07-08T11:48:24Z</time>
      </trkpt>
      <trkpt lat="42.59394" lon=".894719">
        <ele>2359.210</ele>
        <time>2012-07-08T11:48:32Z</time>
      </trkpt>
      <trkpt lat="42.593946" lon=".894746">
        <ele>2359.207</ele>
        <time>2012-07-08T11:48:34Z</time>
      </trkpt>
      <trkpt lat="42.593985" lon=".894839">
        <ele>2359.216</ele>
        <time>2012-07-08T11:48:43Z</time>
      </trkpt>
      <trkpt lat="42.593992" lon=".894873">
        <ele>2358.794</ele>
        <time>2012-07-08T11:48:46Z</time>
      </trkpt>
      <trkpt lat="42.594037" lon=".894971">
        <ele>2359.787</ele>
        <time>2012-07-08T11:48:58Z</time>
      </trkpt>
      <trkpt lat="42.59409" lon=".895053">
        <ele>2360.287</ele>
        <time>2012-07-08T11:49:08Z</time>
      </trkpt>
      <trkpt lat="42.594112" lon=".895081">
        <ele>2360.773</ele>
        <time>2012-07-08T11:49:12Z</time>
      </trkpt>
      <trkpt lat="42.594104" lon=".895172">
        <ele>2360.736</ele>
        <time>2012-07-08T11:49:18Z</time>
      </trkpt>
      <trkpt lat="42.594106" lon=".895238">
        <ele>2359.793</ele>
        <time>2012-07-08T11:49:22Z</time>
      </trkpt>
      <trkpt lat="42.594133" lon=".895367">
        <ele>2359.281</ele>
        <time>2012-07-08T11:49:33Z</time>
      </trkpt>
      <trkpt lat="42.594171" lon=".89547">
        <ele>2361.661</ele>
        <time>2012-07-08T11:49:45Z</time>
      </trkpt>
      <trkpt lat="42.594184" lon=".89549">
        <ele>2362.617</ele>
        <time>2012-07-08T11:49:49Z</time>
      </trkpt>
      <trkpt lat="42.59421" lon=".895528">
        <ele>2362.607</ele>
        <time>2012-07-08T11:49:53Z</time>
      </trkpt>
      <trkpt lat="42.594245" lon=".895617">
        <ele>2363.561</ele>
        <time>2012-07-08T11:50:01Z</time>
      </trkpt>
      <trkpt lat="42.594259" lon=".895639">
        <ele>2363.519</ele>
        <time>2012-07-08T11:50:03Z</time>
      </trkpt>
      <trkpt lat="42.594283" lon=".895808">
        <ele>2361.162</ele>
        <time>2012-07-08T11:50:17Z</time>
      </trkpt>
      <trkpt lat="42.594292" lon=".895888">
        <ele>2358.382</ele>
        <time>2012-07-08T11:50:28Z</time>
      </trkpt>
      <trkpt lat="42.594293" lon=".895892">
        <ele>2357.848</ele>
        <time>2012-07-08T11:50:29Z</time>
      </trkpt>
      <trkpt lat="42.594302" lon=".895912">
        <ele>2356.841</ele>
        <time>2012-07-08T11:50:31Z</time>
      </trkpt>
      <trkpt lat="42.594303" lon=".895948">
        <ele>2356.328</ele>
        <time>2012-07-08T11:50:33Z</time>
      </trkpt>
      <trkpt lat="42.594316" lon=".895981">
        <ele>2355.429</ele>
        <time>2012-07-08T11:50:36Z</time>
      </trkpt>
      <trkpt lat="42.594354" lon=".896056">
        <ele>2352.500</ele>
        <time>2012-07-08T11:50:48Z</time>
      </trkpt>
      <trkpt lat="42.594362" lon=".896086">
        <ele>2352.020</ele>
        <time>2012-07-08T11:50:51Z</time>
      </trkpt>
      <trkpt lat="42.594414" lon=".896107">
        <ele>2352.507</ele>
        <time>2012-07-08T11:50:58Z</time>
      </trkpt>
      <trkpt lat="42.594484" lon=".896165">
        <ele>2352.585</ele>
        <time>2012-07-08T11:51:11Z</time>
      </trkpt>
      <trkpt lat="42.59452" lon=".896211">
        <ele>2351.573</ele>
        <time>2012-07-08T11:51:22Z</time>
      </trkpt>
      <trkpt lat="42.594569" lon=".896247">
        <ele>2349.666</ele>
        <time>2012-07-08T11:51:37Z</time>
      </trkpt>
      <trkpt lat="42.594569" lon=".896247">
        <ele>2349.696</ele>
        <time>2012-07-08T11:52:01Z</time>
      </trkpt>
      <trkpt lat="42.594586" lon=".896284">
        <ele>2347.772</ele>
        <time>2012-07-08T11:52:15Z</time>
      </trkpt>
      <trkpt lat="42.594606" lon=".89638">
        <ele>2344.885</ele>
        <time>2012-07-08T11:52:28Z</time>
      </trkpt>
      <trkpt lat="42.594632" lon=".896394">
        <ele>2343.872</ele>
        <time>2012-07-08T11:52:32Z</time>
      </trkpt>
      <trkpt lat="42.594667" lon=".896443">
        <ele>2341.928</ele>
        <time>2012-07-08T11:52:44Z</time>
      </trkpt>
      <trkpt lat="42.594707" lon=".896473">
        <ele>2340.589</ele>
        <time>2012-07-08T11:52:53Z</time>
      </trkpt>
      <trkpt lat="42.594714" lon=".896549">
        <ele>2339.017</ele>
        <time>2012-07-08T11:53:04Z</time>
      </trkpt>
      <trkpt lat="42.59472" lon=".896625">
        <ele>2338.107</ele>
        <time>2012-07-08T11:53:11Z</time>
      </trkpt>
      <trkpt lat="42.594727" lon=".896723">
        <ele>2336.675</ele>
        <time>2012-07-08T11:53:17Z</time>
      </trkpt>
      <trkpt lat="42.594702" lon=".896882">
        <ele>2335.233</ele>
        <time>2012-07-08T11:53:29Z</time>
      </trkpt>
      <trkpt lat="42.594697" lon=".896995">
        <ele>2335.776</ele>
        <time>2012-07-08T11:53:40Z</time>
      </trkpt>
      <trkpt lat="42.594675" lon=".897043">
        <ele>2336.666</ele>
        <time>2012-07-08T11:53:49Z</time>
      </trkpt>
      <trkpt lat="42.594671" lon=".89711">
        <ele>2336.662</ele>
        <time>2012-07-08T11:53:55Z</time>
      </trkpt>
      <trkpt lat="42.594711" lon=".897114">
        <ele>2336.625</ele>
        <time>2012-07-08T11:53:59Z</time>
      </trkpt>
      <trkpt lat="42.594778" lon=".897142">
        <ele>2337.152</ele>
        <time>2012-07-08T11:54:06Z</time>
      </trkpt>
      <trkpt lat="42.594812" lon=".897166">
        <ele>2337.119</ele>
        <time>2012-07-08T11:54:10Z</time>
      </trkpt>
      <trkpt lat="42.594864" lon=".897313">
        <ele>2337.609</ele>
        <time>2012-07-08T11:54:21Z</time>
      </trkpt>
      <trkpt lat="42.59488" lon=".89733">
        <ele>2337.619</ele>
        <time>2012-07-08T11:54:23Z</time>
      </trkpt>
      <trkpt lat="42.594889" lon=".897361">
        <ele>2337.607</ele>
        <time>2012-07-08T11:54:25Z</time>
      </trkpt>
      <trkpt lat="42.594911" lon=".897389">
        <ele>2337.634</ele>
        <time>2012-07-08T11:54:28Z</time>
      </trkpt>
      <trkpt lat="42.594995" lon=".897446">
        <ele>2337.642</ele>
        <time>2012-07-08T11:54:36Z</time>
      </trkpt>
      <trkpt lat="42.595048" lon=".897467">
        <ele>2338.195</ele>
        <time>2012-07-08T11:54:49Z</time>
      </trkpt>
      <trkpt lat="42.595086" lon=".897473">
        <ele>2338.555</ele>
        <time>2012-07-08T11:55:02Z</time>
      </trkpt>
      <trkpt lat="42.595141" lon=".897462">
        <ele>2338.561</ele>
        <time>2012-07-08T11:55:12Z</time>
      </trkpt>
      <trkpt lat="42.59516" lon=".897459">
        <ele>2338.584</ele>
        <time>2012-07-08T11:55:16Z</time>
      </trkpt>
      <trkpt lat="42.595241" lon=".897519">
        <ele>2338.111</ele>
        <time>2012-07-08T11:55:27Z</time>
      </trkpt>
      <trkpt lat="42.595257" lon=".897543">
        <ele>2338.197</ele>
        <time>2012-07-08T11:55:29Z</time>
      </trkpt>
      <trkpt lat="42.59533" lon=".897648">
        <ele>2338.523</ele>
        <time>2012-07-08T11:55:39Z</time>
      </trkpt>
      <trkpt lat="42.595347" lon=".897685">
        <ele>2338.125</ele>
        <time>2012-07-08T11:55:53Z</time>
      </trkpt>
      <trkpt lat="42.595397" lon=".897728">
        <ele>2337.107</ele>
        <time>2012-07-08T11:56:04Z</time>
      </trkpt>
      <trkpt lat="42.595465" lon=".897782">
        <ele>2336.132</ele>
        <time>2012-07-08T11:56:14Z</time>
      </trkpt>
      <trkpt lat="42.595574" lon=".897864">
        <ele>2333.320</ele>
        <time>2012-07-08T11:56:28Z</time>
      </trkpt>
      <trkpt lat="42.595648" lon=".897959">
        <ele>2329.473</ele>
        <time>2012-07-08T11:56:40Z</time>
      </trkpt>
      <trkpt lat="42.595755" lon=".89809">
        <ele>2327.063</ele>
        <time>2012-07-08T11:56:53Z</time>
      </trkpt>
      <trkpt lat="42.595802" lon=".898151">
        <ele>2325.649</ele>
        <time>2012-07-08T11:57:05Z</time>
      </trkpt>
      <trkpt lat="42.595802" lon=".898156">
        <ele>2325.152</ele>
        <time>2012-07-08T11:57:07Z</time>
      </trkpt>
      <trkpt lat="42.595798" lon=".898273">
        <ele>2324.699</ele>
        <time>2012-07-08T11:57:19Z</time>
      </trkpt>
      <trkpt lat="42.595799" lon=".898288">
        <ele>2325.193</ele>
        <time>2012-07-08T11:57:29Z</time>
      </trkpt>
      <trkpt lat="42.595789" lon=".898269">
        <ele>2326.565</ele>
        <time>2012-07-08T11:57:32Z</time>
      </trkpt>
      <trkpt lat="42.595783" lon=".898259">
        <ele>2327.021</ele>
        <time>2012-07-08T11:57:45Z</time>
      </trkpt>
      <trkpt lat="42.595786" lon=".898254">
        <ele>2327.507</ele>
        <time>2012-07-08T11:57:59Z</time>
      </trkpt>
      <trkpt lat="42.595782" lon=".898248">
        <ele>2327.022</ele>
        <time>2012-07-08T11:58:40Z</time>
      </trkpt>
      <trkpt lat="42.595785" lon=".898249">
        <ele>2327.080</ele>
        <time>2012-07-08T11:59:10Z</time>
      </trkpt>
      <trkpt lat="42.595785" lon=".898249">
        <ele>2327.073</ele>
        <time>2012-07-08T11:59:34Z</time>
      </trkpt>
      <trkpt lat="42.595786" lon=".898248">
        <ele>2327.563</ele>
        <time>2012-07-08T12:00:13Z</time>
      </trkpt>
      <trkpt lat="42.595788" lon=".898247">
        <ele>2327.519</ele>
        <time>2012-07-08T12:00:56Z</time>
      </trkpt>
      <trkpt lat="42.595785" lon=".898252">
        <ele>2327.532</ele>
        <time>2012-07-08T12:01:14Z</time>
      </trkpt>
      <trkpt lat="42.59579" lon=".898255">
        <ele>2328.079</ele>
        <time>2012-07-08T12:01:31Z</time>
      </trkpt>
      <trkpt lat="42.595787" lon=".89826">
        <ele>2327.518</ele>
        <time>2012-07-08T12:02:01Z</time>
      </trkpt>
      <trkpt lat="42.595787" lon=".89826">
        <ele>2327.598</ele>
        <time>2012-07-08T12:02:31Z</time>
      </trkpt>
      <trkpt lat="42.595792" lon=".898252">
        <ele>2327.517</ele>
        <time>2012-07-08T12:02:51Z</time>
      </trkpt>
      <trkpt lat="42.595791" lon=".898251">
        <ele>2327.507</ele>
        <time>2012-07-08T12:03:10Z</time>
      </trkpt>
      <trkpt lat="42.595791" lon=".898251">
        <ele>2327.514</ele>
        <time>2012-07-08T12:03:33Z</time>
      </trkpt>
      <trkpt lat="42.595791" lon=".898255">
        <ele>2327.582</ele>
        <time>2012-07-08T12:04:00Z</time>
      </trkpt>
      <trkpt lat="42.595793" lon=".898248">
        <ele>2327.085</ele>
        <time>2012-07-08T12:04:22Z</time>
      </trkpt>
      <trkpt lat="42.595718" lon=".898109">
        <ele>2333.725</ele>
        <time>2012-07-08T12:06:12Z</time>
      </trkpt>
      <trkpt lat="42.595815" lon=".898206">
        <ele>2333.321</ele>
        <time>2012-07-08T12:06:19Z</time>
      </trkpt>
      <trkpt lat="42.595821" lon=".898164">
        <ele>2337.654</ele>
        <time>2012-07-08T12:06:23Z</time>
      </trkpt>
      <trkpt lat="42.595827" lon=".898155">
        <ele>2340.521</ele>
        <time>2012-07-08T12:06:30Z</time>
      </trkpt>
      <trkpt lat="42.595792" lon=".898174">
        <ele>2337.656</ele>
        <time>2012-07-08T12:06:32Z</time>
      </trkpt>
      <trkpt lat="42.595769" lon=".898189">
        <ele>2334.259</ele>
        <time>2012-07-08T12:06:36Z</time>
      </trkpt>
      <trkpt lat="42.59577" lon=".898203">
        <ele>2332.314</ele>
        <time>2012-07-08T12:06:38Z</time>
      </trkpt>
      <trkpt lat="42.59577" lon=".89823">
        <ele>2331.807</ele>
        <time>2012-07-08T12:06:47Z</time>
      </trkpt>
      <trkpt lat="42.595763" lon=".898237">
        <ele>2335.258</ele>
        <time>2012-07-08T12:07:05Z</time>
      </trkpt>
      <trkpt lat="42.595766" lon=".898243">
        <ele>2333.346</ele>
        <time>2012-07-08T12:07:18Z</time>
      </trkpt>
      <trkpt lat="42.595785" lon=".898252">
        <ele>2330.469</ele>
        <time>2012-07-08T12:07:27Z</time>
      </trkpt>
      <trkpt lat="42.595787" lon=".898234">
        <ele>2329.989</ele>
        <time>2012-07-08T12:07:33Z</time>
      </trkpt>
      <trkpt lat="42.595795" lon=".898252">
        <ele>2326.525</ele>
        <time>2012-07-08T12:07:42Z</time>
      </trkpt>
      <trkpt lat="42.595786" lon=".898224">
        <ele>2326.538</ele>
        <time>2012-07-08T12:08:09Z</time>
      </trkpt>
      <trkpt lat="42.595793" lon=".898226">
        <ele>2326.525</ele>
        <time>2012-07-08T12:08:38Z</time>
      </trkpt>
      <trkpt lat="42.595793" lon=".898226">
        <ele>2326.575</ele>
        <time>2012-07-08T12:08:59Z</time>
      </trkpt>
      <trkpt lat="42.59579" lon=".898226">
        <ele>2326.528</ele>
        <time>2012-07-08T12:09:19Z</time>
      </trkpt>
      <trkpt lat="42.595784" lon=".898269">
        <ele>2327.520</ele>
        <time>2012-07-08T12:09:31Z</time>
      </trkpt>
      <trkpt lat="42.595783" lon=".898276">
        <ele>2328.007</ele>
        <time>2012-07-08T12:09:48Z</time>
      </trkpt>
      <trkpt lat="42.595786" lon=".898272">
        <ele>2328.580</ele>
        <time>2012-07-08T12:10:03Z</time>
      </trkpt>
      <trkpt lat="42.595781" lon=".898349">
        <ele>2331.388</ele>
        <time>2012-07-08T12:10:16Z</time>
      </trkpt>
      <trkpt lat="42.595781" lon=".898349">
        <ele>2331.331</ele>
        <time>2012-07-08T12:10:19Z</time>
      </trkpt>
      <trkpt lat="42.595737" lon=".898437">
        <ele>2331.341</ele>
        <time>2012-07-08T12:10:27Z</time>
      </trkpt>
      <trkpt lat="42.595773" lon=".898471">
        <ele>2332.387</ele>
        <time>2012-07-08T12:10:39Z</time>
      </trkpt>
      <trkpt lat="42.595777" lon=".898474">
        <ele>2332.390</ele>
        <time>2012-07-08T12:10:51Z</time>
      </trkpt>
      <trkpt lat="42.595801" lon=".898512">
        <ele>2332.317</ele>
        <time>2012-07-08T12:10:56Z</time>
      </trkpt>
      <trkpt lat="42.595796" lon=".898617">
        <ele>2333.375</ele>
        <time>2012-07-08T12:11:08Z</time>
      </trkpt>
      <trkpt lat="42.595771" lon=".898628">
        <ele>2333.328</ele>
        <time>2012-07-08T12:11:19Z</time>
      </trkpt>
      <trkpt lat="42.595758" lon=".898675">
        <ele>2333.320</ele>
        <time>2012-07-08T12:11:26Z</time>
      </trkpt>
      <trkpt lat="42.595756" lon=".8988">
        <ele>2330.907</ele>
        <time>2012-07-08T12:11:36Z</time>
      </trkpt>
      <trkpt lat="42.595708" lon=".898855">
        <ele>2331.340</ele>
        <time>2012-07-08T12:11:43Z</time>
      </trkpt>
      <trkpt lat="42.595693" lon=".898895">
        <ele>2332.378</ele>
        <time>2012-07-08T12:11:56Z</time>
      </trkpt>
      <trkpt lat="42.595689" lon=".898922">
        <ele>2332.851</ele>
        <time>2012-07-08T12:12:02Z</time>
      </trkpt>
      <trkpt lat="42.595676" lon=".899023">
        <ele>2335.221</ele>
        <time>2012-07-08T12:12:15Z</time>
      </trkpt>
      <trkpt lat="42.595653" lon=".899058">
        <ele>2336.147</ele>
        <time>2012-07-08T12:12:22Z</time>
      </trkpt>
      <trkpt lat="42.595613" lon=".899172">
        <ele>2338.170</ele>
        <time>2012-07-08T12:12:35Z</time>
      </trkpt>
      <trkpt lat="42.595611" lon=".899176">
        <ele>2338.557</ele>
        <time>2012-07-08T12:12:36Z</time>
      </trkpt>
      <trkpt lat="42.595588" lon=".899191">
        <ele>2340.523</ele>
        <time>2012-07-08T12:12:50Z</time>
      </trkpt>
      <trkpt lat="42.595603" lon=".899199">
        <ele>2341.983</ele>
        <time>2012-07-08T12:13:06Z</time>
      </trkpt>
      <trkpt lat="42.595577" lon=".899241">
        <ele>2342.911</ele>
        <time>2012-07-08T12:13:24Z</time>
      </trkpt>
      <trkpt lat="42.595511" lon=".899311">
        <ele>2344.807</ele>
        <time>2012-07-08T12:13:35Z</time>
      </trkpt>
      <trkpt lat="42.595485" lon=".899336">
        <ele>2346.215</ele>
        <time>2012-07-08T12:13:44Z</time>
      </trkpt>
      <trkpt lat="42.595464" lon=".89932">
        <ele>2347.293</ele>
        <time>2012-07-08T12:13:48Z</time>
      </trkpt>
      <trkpt lat="42.595428" lon=".899303">
        <ele>2348.256</ele>
        <time>2012-07-08T12:13:59Z</time>
      </trkpt>
      <trkpt lat="42.595414" lon=".899328">
        <ele>2349.186</ele>
        <time>2012-07-08T12:14:11Z</time>
      </trkpt>
      <trkpt lat="42.595358" lon=".899358">
        <ele>2349.682</ele>
        <time>2012-07-08T12:14:24Z</time>
      </trkpt>
      <trkpt lat="42.59536" lon=".899416">
        <ele>2348.215</ele>
        <time>2012-07-08T12:14:37Z</time>
      </trkpt>
      <trkpt lat="42.595286" lon=".89946">
        <ele>2349.692</ele>
        <time>2012-07-08T12:14:50Z</time>
      </trkpt>
      <trkpt lat="42.595285" lon=".899464">
        <ele>2349.155</ele>
        <time>2012-07-08T12:14:51Z</time>
      </trkpt>
      <trkpt lat="42.595282" lon=".899546">
        <ele>2351.007</ele>
        <time>2012-07-08T12:15:04Z</time>
      </trkpt>
      <trkpt lat="42.595252" lon=".899581">
        <ele>2352.517</ele>
        <time>2012-07-08T12:15:17Z</time>
      </trkpt>
      <trkpt lat="42.595215" lon=".89961">
        <ele>2353.007</ele>
        <time>2012-07-08T12:15:29Z</time>
      </trkpt>
      <trkpt lat="42.595162" lon=".899649">
        <ele>2355.418</ele>
        <time>2012-07-08T12:15:42Z</time>
      </trkpt>
      <trkpt lat="42.595133" lon=".899653">
        <ele>2357.896</ele>
        <time>2012-07-08T12:15:47Z</time>
      </trkpt>
      <trkpt lat="42.595057" lon=".899669">
        <ele>2360.239</ele>
        <time>2012-07-08T12:16:00Z</time>
      </trkpt>
      <trkpt lat="42.594985" lon=".899702">
        <ele>2363.139</ele>
        <time>2012-07-08T12:16:10Z</time>
      </trkpt>
      <trkpt lat="42.594967" lon=".89971">
        <ele>2364.085</ele>
        <time>2012-07-08T12:16:25Z</time>
      </trkpt>
      <trkpt lat="42.594956" lon=".899712">
        <ele>2365.518</ele>
        <time>2012-07-08T12:16:36Z</time>
      </trkpt>
      <trkpt lat="42.594952" lon=".899712">
        <ele>2365.955</ele>
        <time>2012-07-08T12:16:52Z</time>
      </trkpt>
      <trkpt lat="42.594952" lon=".899724">
        <ele>2365.572</ele>
        <time>2012-07-08T12:17:33Z</time>
      </trkpt>
      <trkpt lat="42.594954" lon=".899718">
        <ele>2365.513</ele>
        <time>2012-07-08T12:18:02Z</time>
      </trkpt>
      <trkpt lat="42.594954" lon=".899718">
        <ele>2365.514</ele>
        <time>2012-07-08T12:18:26Z</time>
      </trkpt>
      <trkpt lat="42.594954" lon=".899717">
        <ele>2365.907</ele>
        <time>2012-07-08T12:19:00Z</time>
      </trkpt>
      <trkpt lat="42.594956" lon=".899722">
        <ele>2365.950</ele>
        <time>2012-07-08T12:19:37Z</time>
      </trkpt>
      <trkpt lat="42.594954" lon=".899717">
        <ele>2366.438</ele>
        <time>2012-07-08T12:20:11Z</time>
      </trkpt>
      <trkpt lat="42.59495" lon=".899709">
        <ele>2366.941</ele>
        <time>2012-07-08T12:20:36Z</time>
      </trkpt>
      <trkpt lat="42.594951" lon=".899708">
        <ele>2366.961</ele>
        <time>2012-07-08T12:21:06Z</time>
      </trkpt>
      <trkpt lat="42.594951" lon=".899708">
        <ele>2366.957</ele>
        <time>2012-07-08T12:21:35Z</time>
      </trkpt>
      <trkpt lat="42.59495" lon=".899706">
        <ele>2366.980</ele>
        <time>2012-07-08T12:22:12Z</time>
      </trkpt>
      <trkpt lat="42.59495" lon=".899704">
        <ele>2367.447</ele>
        <time>2012-07-08T12:22:46Z</time>
      </trkpt>
      <trkpt lat="42.594945" lon=".899706">
        <ele>2367.954</ele>
        <time>2012-07-08T12:23:12Z</time>
      </trkpt>
      <trkpt lat="42.594945" lon=".899706">
        <ele>2367.956</ele>
        <time>2012-07-08T12:23:37Z</time>
      </trkpt>
      <trkpt lat="42.594939" lon=".899712">
        <ele>2367.911</ele>
        <time>2012-07-08T12:23:57Z</time>
      </trkpt>
      <trkpt lat="42.594939" lon=".899712">
        <ele>2367.907</ele>
        <time>2012-07-08T12:24:22Z</time>
      </trkpt>
      <trkpt lat="42.594939" lon=".899712">
        <ele>2367.918</ele>
        <time>2012-07-08T12:24:44Z</time>
      </trkpt>
      <trkpt lat="42.594939" lon=".899712">
        <ele>2367.986</ele>
        <time>2012-07-08T12:25:04Z</time>
      </trkpt>
      <trkpt lat="42.594939" lon=".899713">
        <ele>2367.939</ele>
        <time>2012-07-08T12:25:23Z</time>
      </trkpt>
      <trkpt lat="42.594939" lon=".899713">
        <ele>2367.989</ele>
        <time>2012-07-08T12:25:41Z</time>
      </trkpt>
      <trkpt lat="42.594933" lon=".899702">
        <ele>2368.435</ele>
        <time>2012-07-08T12:26:04Z</time>
      </trkpt>
      <trkpt lat="42.594918" lon=".899729">
        <ele>2369.858</ele>
        <time>2012-07-08T12:26:17Z</time>
      </trkpt>
      <trkpt lat="42.59492" lon=".899768">
        <ele>2368.485</ele>
        <time>2012-07-08T12:26:28Z</time>
      </trkpt>
      <trkpt lat="42.594934" lon=".899846">
        <ele>2367.999</ele>
        <time>2012-07-08T12:26:38Z</time>
      </trkpt>
      <trkpt lat="42.594954" lon=".899885">
        <ele>2366.907</ele>
        <time>2012-07-08T12:26:43Z</time>
      </trkpt>
      <trkpt lat="42.59499" lon=".899946">
        <ele>2366.927</ele>
        <time>2012-07-08T12:26:56Z</time>
      </trkpt>
      <trkpt lat="42.594997" lon=".899954">
        <ele>2366.407</ele>
        <time>2012-07-08T12:27:14Z</time>
      </trkpt>
      <trkpt lat="42.594979" lon=".899986">
        <ele>2365.582</ele>
        <time>2012-07-08T12:27:25Z</time>
      </trkpt>
      <trkpt lat="42.594973" lon=".900015">
        <ele>2365.910</ele>
        <time>2012-07-08T12:27:41Z</time>
      </trkpt>
      <trkpt lat="42.594995" lon=".900063">
        <ele>2367.473</ele>
        <time>2012-07-08T12:27:58Z</time>
      </trkpt>
      <trkpt lat="42.594986" lon=".900093">
        <ele>2367.443</ele>
        <time>2012-07-08T12:28:13Z</time>
      </trkpt>
      <trkpt lat="42.595009" lon=".900129">
        <ele>2367.469</ele>
        <time>2012-07-08T12:28:27Z</time>
      </trkpt>
      <trkpt lat="42.594991" lon=".900146">
        <ele>2366.912</ele>
        <time>2012-07-08T12:28:41Z</time>
      </trkpt>
      <trkpt lat="42.594974" lon=".900167">
        <ele>2366.979</ele>
        <time>2012-07-08T12:28:58Z</time>
      </trkpt>
      <trkpt lat="42.594909" lon=".900203">
        <ele>2367.994</ele>
        <time>2012-07-08T12:29:12Z</time>
      </trkpt>
      <trkpt lat="42.594854" lon=".900212">
        <ele>2369.857</ele>
        <time>2012-07-08T12:29:25Z</time>
      </trkpt>
      <trkpt lat="42.594809" lon=".900234">
        <ele>2370.822</ele>
        <time>2012-07-08T12:29:39Z</time>
      </trkpt>
      <trkpt lat="42.594803" lon=".900235">
        <ele>2371.207</ele>
        <time>2012-07-08T12:29:54Z</time>
      </trkpt>
      <trkpt lat="42.594796" lon=".900264">
        <ele>2370.832</ele>
        <time>2012-07-08T12:30:10Z</time>
      </trkpt>
      <trkpt lat="42.594785" lon=".9003">
        <ele>2372.260</ele>
        <time>2012-07-08T12:30:24Z</time>
      </trkpt>
      <trkpt lat="42.594762" lon=".900332">
        <ele>2374.183</ele>
        <time>2012-07-08T12:30:36Z</time>
      </trkpt>
      <trkpt lat="42.594742" lon=".900362">
        <ele>2376.573</ele>
        <time>2012-07-08T12:30:51Z</time>
      </trkpt>
      <trkpt lat="42.594715" lon=".900387">
        <ele>2379.419</ele>
        <time>2012-07-08T12:31:00Z</time>
      </trkpt>
      <trkpt lat="42.594702" lon=".900408">
        <ele>2380.842</ele>
        <time>2012-07-08T12:31:03Z</time>
      </trkpt>
      <trkpt lat="42.594691" lon=".900474">
        <ele>2384.269</ele>
        <time>2012-07-08T12:31:11Z</time>
      </trkpt>
      <trkpt lat="42.59469" lon=".900523">
        <ele>2385.767</ele>
        <time>2012-07-08T12:31:23Z</time>
      </trkpt>
      <trkpt lat="42.594696" lon=".900567">
        <ele>2388.581</ele>
        <time>2012-07-08T12:31:35Z</time>
      </trkpt>
      <trkpt lat="42.594671" lon=".900595">
        <ele>2390.519</ele>
        <time>2012-07-08T12:31:44Z</time>
      </trkpt>
      <trkpt lat="42.594682" lon=".900629">
        <ele>2391.407</ele>
        <time>2012-07-08T12:31:55Z</time>
      </trkpt>
      <trkpt lat="42.594689" lon=".900639">
        <ele>2392.439</ele>
        <time>2012-07-08T12:32:17Z</time>
      </trkpt>
      <trkpt lat="42.594697" lon=".900697">
        <ele>2393.847</ele>
        <time>2012-07-08T12:32:34Z</time>
      </trkpt>
      <trkpt lat="42.594665" lon=".90078">
        <ele>2395.360</ele>
        <time>2012-07-08T12:32:49Z</time>
      </trkpt>
      <trkpt lat="42.59465" lon=".900824">
        <ele>2395.740</ele>
        <time>2012-07-08T12:33:02Z</time>
      </trkpt>
      <trkpt lat="42.594576" lon=".900894">
        <ele>2399.156</ele>
        <time>2012-07-08T12:33:15Z</time>
      </trkpt>
      <trkpt lat="42.594531" lon=".900934">
        <ele>2399.139</ele>
        <time>2012-07-08T12:33:26Z</time>
      </trkpt>
      <trkpt lat="42.594486" lon=".900973">
        <ele>2400.166</ele>
        <time>2012-07-08T12:33:38Z</time>
      </trkpt>
      <trkpt lat="42.594457" lon=".901024">
        <ele>2403.054</ele>
        <time>2012-07-08T12:33:51Z</time>
      </trkpt>
      <trkpt lat="42.594391" lon=".901061">
        <ele>2404.956</ele>
        <time>2012-07-08T12:34:05Z</time>
      </trkpt>
      <trkpt lat="42.594353" lon=".901106">
        <ele>2408.211</ele>
        <time>2012-07-08T12:34:15Z</time>
      </trkpt>
      <trkpt lat="42.594315" lon=".901156">
        <ele>2412.107</ele>
        <time>2012-07-08T12:34:29Z</time>
      </trkpt>
      <trkpt lat="42.594265" lon=".901203">
        <ele>2415.598</ele>
        <time>2012-07-08T12:34:38Z</time>
      </trkpt>
      <trkpt lat="42.594253" lon=".901209">
        <ele>2416.416</ele>
        <time>2012-07-08T12:34:52Z</time>
      </trkpt>
      <trkpt lat="42.59428" lon=".901245">
        <ele>2417.989</ele>
        <time>2012-07-08T12:35:03Z</time>
      </trkpt>
      <trkpt lat="42.59428" lon=".901253">
        <ele>2419.399</ele>
        <time>2012-07-08T12:35:06Z</time>
      </trkpt>
      <trkpt lat="42.594282" lon=".90128">
        <ele>2419.895</ele>
        <time>2012-07-08T12:35:25Z</time>
      </trkpt>
      <trkpt lat="42.594288" lon=".901342">
        <ele>2421.798</ele>
        <time>2012-07-08T12:35:40Z</time>
      </trkpt>
      <trkpt lat="42.594291" lon=".90142">
        <ele>2423.185</ele>
        <time>2012-07-08T12:35:55Z</time>
      </trkpt>
      <trkpt lat="42.594242" lon=".901445">
        <ele>2426.049</ele>
        <time>2012-07-08T12:36:05Z</time>
      </trkpt>
      <trkpt lat="42.594203" lon=".901455">
        <ele>2428.902</ele>
        <time>2012-07-08T12:36:19Z</time>
      </trkpt>
      <trkpt lat="42.594191" lon=".901473">
        <ele>2429.922</ele>
        <time>2012-07-08T12:36:30Z</time>
      </trkpt>
      <trkpt lat="42.594151" lon=".90153">
        <ele>2432.307</ele>
        <time>2012-07-08T12:36:43Z</time>
      </trkpt>
      <trkpt lat="42.594145" lon=".901527">
        <ele>2434.257</ele>
        <time>2012-07-08T12:36:46Z</time>
      </trkpt>
      <trkpt lat="42.594118" lon=".901579">
        <ele>2436.115</ele>
        <time>2012-07-08T12:36:57Z</time>
      </trkpt>
      <trkpt lat="42.594074" lon=".901609">
        <ele>2439.588</ele>
        <time>2012-07-08T12:37:06Z</time>
      </trkpt>
      <trkpt lat="42.594022" lon=".901635">
        <ele>2442.968</ele>
        <time>2012-07-08T12:37:19Z</time>
      </trkpt>
      <trkpt lat="42.594006" lon=".901639">
        <ele>2443.824</ele>
        <time>2012-07-08T12:37:22Z</time>
      </trkpt>
      <trkpt lat="42.593957" lon=".901665">
        <ele>2446.747</ele>
        <time>2012-07-08T12:37:36Z</time>
      </trkpt>
      <trkpt lat="42.593908" lon=".90169">
        <ele>2449.614</ele>
        <time>2012-07-08T12:37:46Z</time>
      </trkpt>
      <trkpt lat="42.59388" lon=".901724">
        <ele>2452.536</ele>
        <time>2012-07-08T12:37:56Z</time>
      </trkpt>
      <trkpt lat="42.593852" lon=".901722">
        <ele>2453.417</ele>
        <time>2012-07-08T12:38:06Z</time>
      </trkpt>
      <trkpt lat="42.593843" lon=".901791">
        <ele>2450.118</ele>
        <time>2012-07-08T12:38:20Z</time>
      </trkpt>
      <trkpt lat="42.593797" lon=".90186">
        <ele>2451.007</ele>
        <time>2012-07-08T12:38:34Z</time>
      </trkpt>
      <trkpt lat="42.593794" lon=".901971">
        <ele>2453.416</ele>
        <time>2012-07-08T12:38:47Z</time>
      </trkpt>
      <trkpt lat="42.593789" lon=".902032">
        <ele>2455.344</ele>
        <time>2012-07-08T12:38:57Z</time>
      </trkpt>
      <trkpt lat="42.593802" lon=".902074">
        <ele>2456.847</ele>
        <time>2012-07-08T12:39:09Z</time>
      </trkpt>
      <trkpt lat="42.593808" lon=".902107">
        <ele>2459.787</ele>
        <time>2012-07-08T12:39:17Z</time>
      </trkpt>
      <trkpt lat="42.59381" lon=".902131">
        <ele>2460.653</ele>
        <time>2012-07-08T12:39:31Z</time>
      </trkpt>
      <trkpt lat="42.593857" lon=".902188">
        <ele>2463.576</ele>
        <time>2012-07-08T12:39:43Z</time>
      </trkpt>
      <trkpt lat="42.593859" lon=".902189">
        <ele>2463.593</ele>
        <time>2012-07-08T12:39:44Z</time>
      </trkpt>
      <trkpt lat="42.593857" lon=".902202">
        <ele>2465.953</ele>
        <time>2012-07-08T12:40:00Z</time>
      </trkpt>
      <trkpt lat="42.59388" lon=".902251">
        <ele>2468.304</ele>
        <time>2012-07-08T12:40:11Z</time>
      </trkpt>
      <trkpt lat="42.593888" lon=".902284">
        <ele>2469.814</ele>
        <time>2012-07-08T12:40:15Z</time>
      </trkpt>
      <trkpt lat="42.593866" lon=".902302">
        <ele>2471.707</ele>
        <time>2012-07-08T12:40:18Z</time>
      </trkpt>
      <trkpt lat="42.593844" lon=".902313">
        <ele>2474.138</ele>
        <time>2012-07-08T12:40:23Z</time>
      </trkpt>
      <trkpt lat="42.593802" lon=".902309">
        <ele>2474.616</ele>
        <time>2012-07-08T12:40:33Z</time>
      </trkpt>
      <trkpt lat="42.593761" lon=".902395">
        <ele>2474.619</ele>
        <time>2012-07-08T12:40:47Z</time>
      </trkpt>
      <trkpt lat="42.593744" lon=".902411">
        <ele>2474.699</ele>
        <time>2012-07-08T12:40:51Z</time>
      </trkpt>
      <trkpt lat="42.593691" lon=".902467">
        <ele>2475.165</ele>
        <time>2012-07-08T12:41:04Z</time>
      </trkpt>
      <trkpt lat="42.593646" lon=".902491">
        <ele>2475.538</ele>
        <time>2012-07-08T12:41:15Z</time>
      </trkpt>
      <trkpt lat="42.593613" lon=".902513">
        <ele>2475.575</ele>
        <time>2012-07-08T12:41:28Z</time>
      </trkpt>
      <trkpt lat="42.593591" lon=".902525">
        <ele>2475.145</ele>
        <time>2012-07-08T12:41:33Z</time>
      </trkpt>
      <trkpt lat="42.593578" lon=".902525">
        <ele>2474.647</ele>
        <time>2012-07-08T12:41:38Z</time>
      </trkpt>
      <trkpt lat="42.593534" lon=".902575">
        <ele>2472.711</ele>
        <time>2012-07-08T12:41:49Z</time>
      </trkpt>
      <trkpt lat="42.593502" lon=".90263">
        <ele>2472.707</ele>
        <time>2012-07-08T12:42:04Z</time>
      </trkpt>
      <trkpt lat="42.593489" lon=".902646">
        <ele>2472.737</ele>
        <time>2012-07-08T12:42:17Z</time>
      </trkpt>
      <trkpt lat="42.593453" lon=".902694">
        <ele>2472.295</ele>
        <time>2012-07-08T12:42:30Z</time>
      </trkpt>
      <trkpt lat="42.593449" lon=".902725">
        <ele>2472.218</ele>
        <time>2012-07-08T12:42:45Z</time>
      </trkpt>
      <trkpt lat="42.593463" lon=".902751">
        <ele>2472.298</ele>
        <time>2012-07-08T12:42:56Z</time>
      </trkpt>
      <trkpt lat="42.593459" lon=".902767">
        <ele>2473.174</ele>
        <time>2012-07-08T12:43:08Z</time>
      </trkpt>
      <trkpt lat="42.593425" lon=".902771">
        <ele>2474.637</ele>
        <time>2012-07-08T12:43:22Z</time>
      </trkpt>
      <trkpt lat="42.593401" lon=".902791">
        <ele>2474.614</ele>
        <time>2012-07-08T12:43:37Z</time>
      </trkpt>
      <trkpt lat="42.593381" lon=".902834">
        <ele>2476.531</ele>
        <time>2012-07-08T12:43:51Z</time>
      </trkpt>
      <trkpt lat="42.593342" lon=".902868">
        <ele>2479.961</ele>
        <time>2012-07-08T12:44:00Z</time>
      </trkpt>
      <trkpt lat="42.593313" lon=".902906">
        <ele>2480.307</ele>
        <time>2012-07-08T12:44:15Z</time>
      </trkpt>
      <trkpt lat="42.593275" lon=".902947">
        <ele>2481.807</ele>
        <time>2012-07-08T12:44:29Z</time>
      </trkpt>
      <trkpt lat="42.593268" lon=".902969">
        <ele>2481.886</ele>
        <time>2012-07-08T12:44:43Z</time>
      </trkpt>
      <trkpt lat="42.593231" lon=".903028">
        <ele>2482.774</ele>
        <time>2012-07-08T12:45:02Z</time>
      </trkpt>
      <trkpt lat="42.593219" lon=".903048">
        <ele>2483.247</ele>
        <time>2012-07-08T12:45:15Z</time>
      </trkpt>
      <trkpt lat="42.593219" lon=".903048">
        <ele>2483.267</ele>
        <time>2012-07-08T12:45:21Z</time>
      </trkpt>
      <trkpt lat="42.59316" lon=".903109">
        <ele>2484.213</ele>
        <time>2012-07-08T12:45:33Z</time>
      </trkpt>
      <trkpt lat="42.593127" lon=".903182">
        <ele>2483.286</ele>
        <time>2012-07-08T12:45:46Z</time>
      </trkpt>
      <trkpt lat="42.593121" lon=".903212">
        <ele>2486.613</ele>
        <time>2012-07-08T12:46:01Z</time>
      </trkpt>
      <trkpt lat="42.593121" lon=".903212">
        <ele>2486.635</ele>
        <time>2012-07-08T12:46:02Z</time>
      </trkpt>
      <trkpt lat="42.593118" lon=".903231">
        <ele>2488.086</ele>
        <time>2012-07-08T12:46:05Z</time>
      </trkpt>
      <trkpt lat="42.593103" lon=".903282">
        <ele>2489.014</ele>
        <time>2012-07-08T12:46:25Z</time>
      </trkpt>
      <trkpt lat="42.593089" lon=".903312">
        <ele>2488.507</ele>
        <time>2012-07-08T12:46:38Z</time>
      </trkpt>
      <trkpt lat="42.593095" lon=".903346">
        <ele>2487.126</ele>
        <time>2012-07-08T12:46:52Z</time>
      </trkpt>
      <trkpt lat="42.59308" lon=".903379">
        <ele>2487.134</ele>
        <time>2012-07-08T12:47:04Z</time>
      </trkpt>
      <trkpt lat="42.593076" lon=".903423">
        <ele>2488.527</ele>
        <time>2012-07-08T12:47:19Z</time>
      </trkpt>
      <trkpt lat="42.593079" lon=".903454">
        <ele>2489.537</ele>
        <time>2012-07-08T12:47:34Z</time>
      </trkpt>
      <trkpt lat="42.593054" lon=".903486">
        <ele>2491.913</ele>
        <time>2012-07-08T12:47:50Z</time>
      </trkpt>
      <trkpt lat="42.593045" lon=".903518">
        <ele>2492.866</ele>
        <time>2012-07-08T12:48:07Z</time>
      </trkpt>
      <trkpt lat="42.593042" lon=".903529">
        <ele>2493.863</ele>
        <time>2012-07-08T12:48:22Z</time>
      </trkpt>
      <trkpt lat="42.593023" lon=".903552">
        <ele>2496.254</ele>
        <time>2012-07-08T12:48:26Z</time>
      </trkpt>
      <trkpt lat="42.59299" lon=".903583">
        <ele>2498.156</ele>
        <time>2012-07-08T12:48:41Z</time>
      </trkpt>
      <trkpt lat="42.592967" lon=".903618">
        <ele>2500.111</ele>
        <time>2012-07-08T12:48:55Z</time>
      </trkpt>
      <trkpt lat="42.592959" lon=".903631">
        <ele>2501.007</ele>
        <time>2012-07-08T12:49:09Z</time>
      </trkpt>
      <trkpt lat="42.592961" lon=".903631">
        <ele>2501.048</ele>
        <time>2012-07-08T12:49:33Z</time>
      </trkpt>
      <trkpt lat="42.592981" lon=".90367">
        <ele>2500.526</ele>
        <time>2012-07-08T12:49:44Z</time>
      </trkpt>
      <trkpt lat="42.593016" lon=".903717">
        <ele>2500.589</ele>
        <time>2012-07-08T12:49:50Z</time>
      </trkpt>
      <trkpt lat="42.593048" lon=".903762">
        <ele>2500.589</ele>
        <time>2012-07-08T12:50:01Z</time>
      </trkpt>
      <trkpt lat="42.593038" lon=".903796">
        <ele>2502.945</ele>
        <time>2012-07-08T12:50:11Z</time>
      </trkpt>
      <trkpt lat="42.593038" lon=".903829">
        <ele>2506.828</ele>
        <time>2012-07-08T12:50:21Z</time>
      </trkpt>
      <trkpt lat="42.593029" lon=".903823">
        <ele>2506.825</ele>
        <time>2012-07-08T12:50:22Z</time>
      </trkpt>
      <trkpt lat="42.592967" lon=".903827">
        <ele>2509.292</ele>
        <time>2012-07-08T12:50:35Z</time>
      </trkpt>
      <trkpt lat="42.59291" lon=".903813">
        <ele>2512.173</ele>
        <time>2012-07-08T12:50:47Z</time>
      </trkpt>
      <trkpt lat="42.592869" lon=".903824">
        <ele>2515.420</ele>
        <time>2012-07-08T12:50:59Z</time>
      </trkpt>
      <trkpt lat="42.592881" lon=".903859">
        <ele>2517.807</ele>
        <time>2012-07-08T12:51:10Z</time>
      </trkpt>
      <trkpt lat="42.592874" lon=".903889">
        <ele>2518.822</ele>
        <time>2012-07-08T12:51:21Z</time>
      </trkpt>
      <trkpt lat="42.592852" lon=".903914">
        <ele>2521.290</ele>
        <time>2012-07-08T12:51:31Z</time>
      </trkpt>
      <trkpt lat="42.592839" lon=".90394">
        <ele>2523.133</ele>
        <time>2012-07-08T12:51:43Z</time>
      </trkpt>
      <trkpt lat="42.59284" lon=".903954">
        <ele>2526.023</ele>
        <time>2012-07-08T12:52:00Z</time>
      </trkpt>
      <trkpt lat="42.592845" lon=".903968">
        <ele>2526.019</ele>
        <time>2012-07-08T12:52:16Z</time>
      </trkpt>
      <trkpt lat="42.592861" lon=".904">
        <ele>2526.532</ele>
        <time>2012-07-08T12:52:26Z</time>
      </trkpt>
      <trkpt lat="42.59286" lon=".904051">
        <ele>2526.059</ele>
        <time>2012-07-08T12:52:39Z</time>
      </trkpt>
      <trkpt lat="42.592891" lon=".904101">
        <ele>2526.074</ele>
        <time>2012-07-08T12:52:51Z</time>
      </trkpt>
      <trkpt lat="42.592895" lon=".904142">
        <ele>2526.556</ele>
        <time>2012-07-08T12:53:02Z</time>
      </trkpt>
      <trkpt lat="42.592883" lon=".904183">
        <ele>2526.521</ele>
        <time>2012-07-08T12:53:24Z</time>
      </trkpt>
      <trkpt lat="42.592851" lon=".904239">
        <ele>2526.007</ele>
        <time>2012-07-08T12:53:36Z</time>
      </trkpt>
      <trkpt lat="42.592848" lon=".904302">
        <ele>2527.040</ele>
        <time>2012-07-08T12:53:47Z</time>
      </trkpt>
      <trkpt lat="42.592852" lon=".904318">
        <ele>2526.518</ele>
        <time>2012-07-08T12:53:51Z</time>
      </trkpt>
      <trkpt lat="42.592843" lon=".904351">
        <ele>2527.071</ele>
        <time>2012-07-08T12:54:03Z</time>
      </trkpt>
      <trkpt lat="42.592811" lon=".90435">
        <ele>2527.981</ele>
        <time>2012-07-08T12:54:20Z</time>
      </trkpt>
      <trkpt lat="42.592804" lon=".904324">
        <ele>2527.467</ele>
        <time>2012-07-08T12:54:33Z</time>
      </trkpt>
      <trkpt lat="42.592756" lon=".904285">
        <ele>2527.960</ele>
        <time>2012-07-08T12:54:46Z</time>
      </trkpt>
      <trkpt lat="42.592722" lon=".904282">
        <ele>2527.457</ele>
        <time>2012-07-08T12:55:01Z</time>
      </trkpt>
      <trkpt lat="42.592666" lon=".904332">
        <ele>2527.028</ele>
        <time>2012-07-08T12:55:15Z</time>
      </trkpt>
      <trkpt lat="42.592623" lon=".904294">
        <ele>2527.489</ele>
        <time>2012-07-08T12:55:29Z</time>
      </trkpt>
      <trkpt lat="42.592591" lon=".904371">
        <ele>2527.417</ele>
        <time>2012-07-08T12:55:39Z</time>
      </trkpt>
      <trkpt lat="42.59259" lon=".904395">
        <ele>2527.407</ele>
        <time>2012-07-08T12:55:42Z</time>
      </trkpt>
      <trkpt lat="42.592567" lon=".904447">
        <ele>2528.975</ele>
        <time>2012-07-08T12:55:51Z</time>
      </trkpt>
      <trkpt lat="42.592552" lon=".904495">
        <ele>2530.383</ele>
        <time>2012-07-08T12:56:02Z</time>
      </trkpt>
      <trkpt lat="42.592537" lon=".904502">
        <ele>2530.846</ele>
        <time>2012-07-08T12:56:21Z</time>
      </trkpt>
      <trkpt lat="42.59252" lon=".90449">
        <ele>2531.326</ele>
        <time>2012-07-08T12:56:35Z</time>
      </trkpt>
      <trkpt lat="42.592511" lon=".904499">
        <ele>2531.362</ele>
        <time>2012-07-08T12:56:47Z</time>
      </trkpt>
      <trkpt lat="42.592509" lon=".904508">
        <ele>2532.345</ele>
        <time>2012-07-08T12:57:01Z</time>
      </trkpt>
      <trkpt lat="42.59251" lon=".904546">
        <ele>2532.322</ele>
        <time>2012-07-08T12:57:06Z</time>
      </trkpt>
      <trkpt lat="42.592492" lon=".904601">
        <ele>2532.721</ele>
        <time>2012-07-08T12:57:19Z</time>
      </trkpt>
      <trkpt lat="42.592458" lon=".904641">
        <ele>2535.141</ele>
        <time>2012-07-08T12:57:34Z</time>
      </trkpt>
      <trkpt lat="42.592457" lon=".904668">
        <ele>2535.105</ele>
        <time>2012-07-08T12:57:45Z</time>
      </trkpt>
      <trkpt lat="42.592441" lon=".904699">
        <ele>2534.707</ele>
        <time>2012-07-08T12:57:57Z</time>
      </trkpt>
      <trkpt lat="42.592424" lon=".90475">
        <ele>2535.125</ele>
        <time>2012-07-08T12:58:07Z</time>
      </trkpt>
      <trkpt lat="42.592446" lon=".904767">
        <ele>2535.143</ele>
        <time>2012-07-08T12:58:19Z</time>
      </trkpt>
      <trkpt lat="42.592481" lon=".904804">
        <ele>2536.196</ele>
        <time>2012-07-08T12:58:33Z</time>
      </trkpt>
      <trkpt lat="42.59246" lon=".904802">
        <ele>2536.676</ele>
        <time>2012-07-08T12:58:52Z</time>
      </trkpt>
      <trkpt lat="42.592456" lon=".904811">
        <ele>2535.652</ele>
        <time>2012-07-08T12:59:05Z</time>
      </trkpt>
      <trkpt lat="42.59245" lon=".904865">
        <ele>2535.685</ele>
        <time>2012-07-08T12:59:21Z</time>
      </trkpt>
      <trkpt lat="42.592434" lon=".904884">
        <ele>2534.732</ele>
        <time>2012-07-08T12:59:33Z</time>
      </trkpt>
      <trkpt lat="42.592474" lon=".904903">
        <ele>2534.256</ele>
        <time>2012-07-08T12:59:47Z</time>
      </trkpt>
      <trkpt lat="42.592493" lon=".904914">
        <ele>2533.759</ele>
        <time>2012-07-08T12:59:59Z</time>
      </trkpt>
      <trkpt lat="42.59245" lon=".904902">
        <ele>2535.614</ele>
        <time>2012-07-08T13:00:12Z</time>
      </trkpt>
      <trkpt lat="42.592449" lon=".904924">
        <ele>2534.207</ele>
        <time>2012-07-08T13:00:29Z</time>
      </trkpt>
      <trkpt lat="42.592459" lon=".904943">
        <ele>2533.248</ele>
        <time>2012-07-08T13:00:43Z</time>
      </trkpt>
      <trkpt lat="42.592467" lon=".905002">
        <ele>2534.216</ele>
        <time>2012-07-08T13:00:53Z</time>
      </trkpt>
      <trkpt lat="42.592449" lon=".905043">
        <ele>2535.699</ele>
        <time>2012-07-08T13:01:08Z</time>
      </trkpt>
      <trkpt lat="42.592428" lon=".905102">
        <ele>2537.559</ele>
        <time>2012-07-08T13:01:20Z</time>
      </trkpt>
      <trkpt lat="42.592411" lon=".905135">
        <ele>2539.535</ele>
        <time>2012-07-08T13:01:30Z</time>
      </trkpt>
      <trkpt lat="42.592382" lon=".905141">
        <ele>2539.578</ele>
        <time>2012-07-08T13:01:42Z</time>
      </trkpt>
      <trkpt lat="42.592372" lon=".905148">
        <ele>2538.585</ele>
        <time>2012-07-08T13:01:55Z</time>
      </trkpt>
      <trkpt lat="42.592321" lon=".905195">
        <ele>2536.678</ele>
        <time>2012-07-08T13:02:07Z</time>
      </trkpt>
      <trkpt lat="42.592278" lon=".905223">
        <ele>2536.133</ele>
        <time>2012-07-08T13:02:19Z</time>
      </trkpt>
      <trkpt lat="42.592276" lon=".905225">
        <ele>2536.126</ele>
        <time>2012-07-08T13:02:20Z</time>
      </trkpt>
      <trkpt lat="42.592164" lon=".905303">
        <ele>2537.507</ele>
        <time>2012-07-08T13:02:34Z</time>
      </trkpt>
      <trkpt lat="42.592116" lon=".905416">
        <ele>2540.950</ele>
        <time>2012-07-08T13:02:43Z</time>
      </trkpt>
      <trkpt lat="42.592101" lon=".905468">
        <ele>2542.828</ele>
        <time>2012-07-08T13:02:57Z</time>
      </trkpt>
      <trkpt lat="42.592092" lon=".905492">
        <ele>2542.361</ele>
        <time>2012-07-08T13:03:20Z</time>
      </trkpt>
      <trkpt lat="42.592082" lon=".905538">
        <ele>2539.041</ele>
        <time>2012-07-08T13:03:31Z</time>
      </trkpt>
      <trkpt lat="42.592065" lon=".90556">
        <ele>2537.597</ele>
        <time>2012-07-08T13:03:39Z</time>
      </trkpt>
      <trkpt lat="42.592031" lon=".905576">
        <ele>2536.640</ele>
        <time>2012-07-08T13:03:50Z</time>
      </trkpt>
      <trkpt lat="42.592002" lon=".905597">
        <ele>2537.177</ele>
        <time>2012-07-08T13:04:02Z</time>
      </trkpt>
      <trkpt lat="42.59201" lon=".905642">
        <ele>2537.142</ele>
        <time>2012-07-08T13:04:17Z</time>
      </trkpt>
      <trkpt lat="42.591987" lon=".905708">
        <ele>2537.522</ele>
        <time>2012-07-08T13:04:27Z</time>
      </trkpt>
      <trkpt lat="42.59201" lon=".905771">
        <ele>2538.014</ele>
        <time>2012-07-08T13:04:41Z</time>
      </trkpt>
      <trkpt lat="42.592" lon=".905775">
        <ele>2538.507</ele>
        <time>2012-07-08T13:04:52Z</time>
      </trkpt>
      <trkpt lat="42.591986" lon=".90582">
        <ele>2538.577</ele>
        <time>2012-07-08T13:05:06Z</time>
      </trkpt>
      <trkpt lat="42.591978" lon=".905852">
        <ele>2538.585</ele>
        <time>2012-07-08T13:05:18Z</time>
      </trkpt>
      <trkpt lat="42.591973" lon=".905855">
        <ele>2538.538</ele>
        <time>2012-07-08T13:05:33Z</time>
      </trkpt>
      <trkpt lat="42.59195" lon=".905894">
        <ele>2540.418</ele>
        <time>2012-07-08T13:05:40Z</time>
      </trkpt>
      <trkpt lat="42.591925" lon=".905924">
        <ele>2540.444</ele>
        <time>2012-07-08T13:05:52Z</time>
      </trkpt>
      <trkpt lat="42.591896" lon=".905988">
        <ele>2541.417</ele>
        <time>2012-07-08T13:06:03Z</time>
      </trkpt>
      <trkpt lat="42.591877" lon=".906071">
        <ele>2539.924</ele>
        <time>2012-07-08T13:06:17Z</time>
      </trkpt>
      <trkpt lat="42.591828" lon=".906092">
        <ele>2539.962</ele>
        <time>2012-07-08T13:06:29Z</time>
      </trkpt>
      <trkpt lat="42.591834" lon=".906105">
        <ele>2540.983</ele>
        <time>2012-07-08T13:06:40Z</time>
      </trkpt>
      <trkpt lat="42.59182" lon=".906122">
        <ele>2540.911</ele>
        <time>2012-07-08T13:06:55Z</time>
      </trkpt>
      <trkpt lat="42.5918" lon=".906163">
        <ele>2542.807</ele>
        <time>2012-07-08T13:07:11Z</time>
      </trkpt>
      <trkpt lat="42.59181" lon=".906179">
        <ele>2543.379</ele>
        <time>2012-07-08T13:07:33Z</time>
      </trkpt>
      <trkpt lat="42.591755" lon=".906212">
        <ele>2543.877</ele>
        <time>2012-07-08T13:07:52Z</time>
      </trkpt>
      <trkpt lat="42.591695" lon=".906275">
        <ele>2543.860</ele>
        <time>2012-07-08T13:08:05Z</time>
      </trkpt>
      <trkpt lat="42.591715" lon=".906323">
        <ele>2543.330</ele>
        <time>2012-07-08T13:08:17Z</time>
      </trkpt>
      <trkpt lat="42.591698" lon=".906353">
        <ele>2544.326</ele>
        <time>2012-07-08T13:08:30Z</time>
      </trkpt>
      <trkpt lat="42.591658" lon=".906421">
        <ele>2545.229</ele>
        <time>2012-07-08T13:08:42Z</time>
      </trkpt>
      <trkpt lat="42.591649" lon=".906474">
        <ele>2544.846</ele>
        <time>2012-07-08T13:08:55Z</time>
      </trkpt>
      <trkpt lat="42.591649" lon=".906525">
        <ele>2545.216</ele>
        <time>2012-07-08T13:09:09Z</time>
      </trkpt>
      <trkpt lat="42.591639" lon=".906578">
        <ele>2547.276</ele>
        <time>2012-07-08T13:09:22Z</time>
      </trkpt>
      <trkpt lat="42.591638" lon=".906579">
        <ele>2547.213</ele>
        <time>2012-07-08T13:09:32Z</time>
      </trkpt>
      <trkpt lat="42.591685" lon=".906656">
        <ele>2545.707</ele>
        <time>2012-07-08T13:09:45Z</time>
      </trkpt>
      <trkpt lat="42.591679" lon=".906651">
        <ele>2546.264</ele>
        <time>2012-07-08T13:09:49Z</time>
      </trkpt>
      <trkpt lat="42.591637" lon=".906685">
        <ele>2546.772</ele>
        <time>2012-07-08T13:09:59Z</time>
      </trkpt>
      <trkpt lat="42.591628" lon=".906725">
        <ele>2547.635</ele>
        <time>2012-07-08T13:10:05Z</time>
      </trkpt>
      <trkpt lat="42.591631" lon=".906781">
        <ele>2548.645</ele>
        <time>2012-07-08T13:10:15Z</time>
      </trkpt>
      <trkpt lat="42.59161" lon=".906814">
        <ele>2548.651</ele>
        <time>2012-07-08T13:10:25Z</time>
      </trkpt>
      <trkpt lat="42.591597" lon=".906827">
        <ele>2549.114</ele>
        <time>2012-07-08T13:10:28Z</time>
      </trkpt>
      <trkpt lat="42.591554" lon=".906851">
        <ele>2548.671</ele>
        <time>2012-07-08T13:10:40Z</time>
      </trkpt>
      <trkpt lat="42.591528" lon=".906853">
        <ele>2548.622</ele>
        <time>2012-07-08T13:10:46Z</time>
      </trkpt>
      <trkpt lat="42.591501" lon=".90686">
        <ele>2549.162</ele>
        <time>2012-07-08T13:10:58Z</time>
      </trkpt>
      <trkpt lat="42.591477" lon=".906865">
        <ele>2549.108</ele>
        <time>2012-07-08T13:11:08Z</time>
      </trkpt>
      <trkpt lat="42.591405" lon=".906896">
        <ele>2549.607</ele>
        <time>2012-07-08T13:11:21Z</time>
      </trkpt>
      <trkpt lat="42.591363" lon=".906927">
        <ele>2550.575</ele>
        <time>2012-07-08T13:11:34Z</time>
      </trkpt>
      <trkpt lat="42.591309" lon=".906994">
        <ele>2552.483</ele>
        <time>2012-07-08T13:11:46Z</time>
      </trkpt>
      <trkpt lat="42.591278" lon=".907053">
        <ele>2553.936</ele>
        <time>2012-07-08T13:12:01Z</time>
      </trkpt>
      <trkpt lat="42.591241" lon=".907103">
        <ele>2556.396</ele>
        <time>2012-07-08T13:12:17Z</time>
      </trkpt>
      <trkpt lat="42.591238" lon=".90712">
        <ele>2556.862</ele>
        <time>2012-07-08T13:12:35Z</time>
      </trkpt>
      <trkpt lat="42.591236" lon=".907198">
        <ele>2556.865</ele>
        <time>2012-07-08T13:12:48Z</time>
      </trkpt>
      <trkpt lat="42.591241" lon=".907239">
        <ele>2556.352</ele>
        <time>2012-07-08T13:12:59Z</time>
      </trkpt>
      <trkpt lat="42.591242" lon=".90725">
        <ele>2557.292</ele>
        <time>2012-07-08T13:13:14Z</time>
      </trkpt>
      <trkpt lat="42.591201" lon=".907249">
        <ele>2560.673</ele>
        <time>2012-07-08T13:13:27Z</time>
      </trkpt>
      <trkpt lat="42.591171" lon=".907262">
        <ele>2561.620</ele>
        <time>2012-07-08T13:13:37Z</time>
      </trkpt>
      <trkpt lat="42.591157" lon=".90727">
        <ele>2562.107</ele>
        <time>2012-07-08T13:13:51Z</time>
      </trkpt>
      <trkpt lat="42.591145" lon=".907263">
        <ele>2564.032</ele>
        <time>2012-07-08T13:14:03Z</time>
      </trkpt>
      <trkpt lat="42.591113" lon=".907232">
        <ele>2564.560</ele>
        <time>2012-07-08T13:14:13Z</time>
      </trkpt>
      <trkpt lat="42.591083" lon=".907233">
        <ele>2565.473</ele>
        <time>2012-07-08T13:14:24Z</time>
      </trkpt>
      <trkpt lat="42.591063" lon=".907228">
        <ele>2566.433</ele>
        <time>2012-07-08T13:14:35Z</time>
      </trkpt>
      <trkpt lat="42.591007" lon=".907252">
        <ele>2567.899</ele>
        <time>2012-07-08T13:14:48Z</time>
      </trkpt>
      <trkpt lat="42.590954" lon=".907279">
        <ele>2569.312</ele>
        <time>2012-07-08T13:15:00Z</time>
      </trkpt>
      <trkpt lat="42.590914" lon=".90733">
        <ele>2569.339</ele>
        <time>2012-07-08T13:15:14Z</time>
      </trkpt>
      <trkpt lat="42.590864" lon=".907372">
        <ele>2570.791</ele>
        <time>2012-07-08T13:15:28Z</time>
      </trkpt>
      <trkpt lat="42.590822" lon=".907411">
        <ele>2572.181</ele>
        <time>2012-07-08T13:15:41Z</time>
      </trkpt>
      <trkpt lat="42.59079" lon=".90744">
        <ele>2573.119</ele>
        <time>2012-07-08T13:15:53Z</time>
      </trkpt>
      <trkpt lat="42.590755" lon=".907468">
        <ele>2573.607</ele>
        <time>2012-07-08T13:16:05Z</time>
      </trkpt>
      <trkpt lat="42.590683" lon=".907521">
        <ele>2574.642</ele>
        <time>2012-07-08T13:16:20Z</time>
      </trkpt>
      <trkpt lat="42.590649" lon=".907565">
        <ele>2576.540</ele>
        <time>2012-07-08T13:16:32Z</time>
      </trkpt>
      <trkpt lat="42.590591" lon=".907632">
        <ele>2577.923</ele>
        <time>2012-07-08T13:16:47Z</time>
      </trkpt>
      <trkpt lat="42.590569" lon=".90767">
        <ele>2578.913</ele>
        <time>2012-07-08T13:17:02Z</time>
      </trkpt>
      <trkpt lat="42.590558" lon=".907696">
        <ele>2579.429</ele>
        <time>2012-07-08T13:17:17Z</time>
      </trkpt>
      <trkpt lat="42.590545" lon=".907702">
        <ele>2580.892</ele>
        <time>2012-07-08T13:17:34Z</time>
      </trkpt>
      <trkpt lat="42.590507" lon=".907732">
        <ele>2582.279</ele>
        <time>2012-07-08T13:17:47Z</time>
      </trkpt>
      <trkpt lat="42.590502" lon=".907733">
        <ele>2582.232</ele>
        <time>2012-07-08T13:18:00Z</time>
      </trkpt>
      <trkpt lat="42.590525" lon=".90776">
        <ele>2582.292</ele>
        <time>2012-07-08T13:18:14Z</time>
      </trkpt>
      <trkpt lat="42.590542" lon=".907792">
        <ele>2582.211</ele>
        <time>2012-07-08T13:18:29Z</time>
      </trkpt>
      <trkpt lat="42.590557" lon=".907813">
        <ele>2582.207</ele>
        <time>2012-07-08T13:18:43Z</time>
      </trkpt>
      <trkpt lat="42.590557" lon=".90786">
        <ele>2582.726</ele>
        <time>2012-07-08T13:18:53Z</time>
      </trkpt>
      <trkpt lat="42.590558" lon=".907866">
        <ele>2583.734</ele>
        <time>2012-07-08T13:19:04Z</time>
      </trkpt>
      <trkpt lat="42.590546" lon=".907876">
        <ele>2584.267</ele>
        <time>2012-07-08T13:19:12Z</time>
      </trkpt>
      <trkpt lat="42.590533" lon=".907914">
        <ele>2585.697</ele>
        <time>2012-07-08T13:19:23Z</time>
      </trkpt>
      <trkpt lat="42.590512" lon=".90791">
        <ele>2586.623</ele>
        <time>2012-07-08T13:19:41Z</time>
      </trkpt>
      <trkpt lat="42.59051" lon=".907932">
        <ele>2587.026</ele>
        <time>2012-07-08T13:19:54Z</time>
      </trkpt>
      <trkpt lat="42.590502" lon=".90794">
        <ele>2587.563</ele>
        <time>2012-07-08T13:20:08Z</time>
      </trkpt>
      <trkpt lat="42.590469" lon=".907953">
        <ele>2588.527</ele>
        <time>2012-07-08T13:20:18Z</time>
      </trkpt>
      <trkpt lat="42.590469" lon=".907974">
        <ele>2589.068</ele>
        <time>2012-07-08T13:20:33Z</time>
      </trkpt>
      <trkpt lat="42.590439" lon=".907992">
        <ele>2589.914</ele>
        <time>2012-07-08T13:20:48Z</time>
      </trkpt>
      <trkpt lat="42.590438" lon=".908031">
        <ele>2589.907</ele>
        <time>2012-07-08T13:20:58Z</time>
      </trkpt>
      <trkpt lat="42.59043" lon=".908046">
        <ele>2590.495</ele>
        <time>2012-07-08T13:21:11Z</time>
      </trkpt>
      <trkpt lat="42.590418" lon=".90806">
        <ele>2590.423</ele>
        <time>2012-07-08T13:21:24Z</time>
      </trkpt>
      <trkpt lat="42.590396" lon=".90811">
        <ele>2591.936</ele>
        <time>2012-07-08T13:21:37Z</time>
      </trkpt>
      <trkpt lat="42.590396" lon=".90811">
        <ele>2591.956</ele>
        <time>2012-07-08T13:21:58Z</time>
      </trkpt>
      <trkpt lat="42.590388" lon=".908119">
        <ele>2592.812</ele>
        <time>2012-07-08T13:22:22Z</time>
      </trkpt>
      <trkpt lat="42.590388" lon=".908119">
        <ele>2592.875</ele>
        <time>2012-07-08T13:22:44Z</time>
      </trkpt>
      <trkpt lat="42.590373" lon=".908126">
        <ele>2593.872</ele>
        <time>2012-07-08T13:23:05Z</time>
      </trkpt>
      <trkpt lat="42.590358" lon=".908139">
        <ele>2594.351</ele>
        <time>2012-07-08T13:23:19Z</time>
      </trkpt>
      <trkpt lat="42.590352" lon=".908173">
        <ele>2595.201</ele>
        <time>2012-07-08T13:23:34Z</time>
      </trkpt>
      <trkpt lat="42.590339" lon=".908191">
        <ele>2595.711</ele>
        <time>2012-07-08T13:23:49Z</time>
      </trkpt>
      <trkpt lat="42.590323" lon=".90821">
        <ele>2596.707</ele>
        <time>2012-07-08T13:24:03Z</time>
      </trkpt>
      <trkpt lat="42.590298" lon=".908245">
        <ele>2598.158</ele>
        <time>2012-07-08T13:24:16Z</time>
      </trkpt>
      <trkpt lat="42.590302" lon=".90829">
        <ele>2599.176</ele>
        <time>2012-07-08T13:24:34Z</time>
      </trkpt>
      <trkpt lat="42.590291" lon=".908311">
        <ele>2600.099</ele>
        <time>2012-07-08T13:24:47Z</time>
      </trkpt>
      <trkpt lat="42.590257" lon=".908414">
        <ele>2602.059</ele>
        <time>2012-07-08T13:25:01Z</time>
      </trkpt>
      <trkpt lat="42.590234" lon=".908454">
        <ele>2602.995</ele>
        <time>2012-07-08T13:25:15Z</time>
      </trkpt>
      <trkpt lat="42.590231" lon=".908461">
        <ele>2603.448</ele>
        <time>2012-07-08T13:25:29Z</time>
      </trkpt>
      <trkpt lat="42.590225" lon=".90847">
        <ele>2603.975</ele>
        <time>2012-07-08T13:25:48Z</time>
      </trkpt>
      <trkpt lat="42.590215" lon=".908472">
        <ele>2604.493</ele>
        <time>2012-07-08T13:26:03Z</time>
      </trkpt>
      <trkpt lat="42.590215" lon=".908472">
        <ele>2604.465</ele>
        <time>2012-07-08T13:26:25Z</time>
      </trkpt>
      <trkpt lat="42.590218" lon=".908476">
        <ele>2604.421</ele>
        <time>2012-07-08T13:26:43Z</time>
      </trkpt>
      <trkpt lat="42.59022" lon=".908492">
        <ele>2604.807</ele>
        <time>2012-07-08T13:26:59Z</time>
      </trkpt>
      <trkpt lat="42.590234" lon=".908539">
        <ele>2604.812</ele>
        <time>2012-07-08T13:27:13Z</time>
      </trkpt>
      <trkpt lat="42.590228" lon=".908596">
        <ele>2606.320</ele>
        <time>2012-07-08T13:27:36Z</time>
      </trkpt>
      <trkpt lat="42.590221" lon=".908611">
        <ele>2609.213</ele>
        <time>2012-07-08T13:27:42Z</time>
      </trkpt>
      <trkpt lat="42.590226" lon=".908623">
        <ele>2609.273</ele>
        <time>2012-07-08T13:27:57Z</time>
      </trkpt>
      <trkpt lat="42.59022" lon=".908636">
        <ele>2611.629</ele>
        <time>2012-07-08T13:28:17Z</time>
      </trkpt>
      <trkpt lat="42.590213" lon=".908651">
        <ele>2611.622</ele>
        <time>2012-07-08T13:28:28Z</time>
      </trkpt>
      <trkpt lat="42.5902" lon=".908672">
        <ele>2612.079</ele>
        <time>2012-07-08T13:28:40Z</time>
      </trkpt>
      <trkpt lat="42.590192" lon=".908679">
        <ele>2612.548</ele>
        <time>2012-07-08T13:28:53Z</time>
      </trkpt>
      <trkpt lat="42.590154" lon=".908694">
        <ele>2614.061</ele>
        <time>2012-07-08T13:29:07Z</time>
      </trkpt>
      <trkpt lat="42.590138" lon=".908708">
        <ele>2614.417</ele>
        <time>2012-07-08T13:29:22Z</time>
      </trkpt>
      <trkpt lat="42.59013" lon=".908703">
        <ele>2615.407</ele>
        <time>2012-07-08T13:29:36Z</time>
      </trkpt>
      <trkpt lat="42.59011" lon=".908707">
        <ele>2616.497</ele>
        <time>2012-07-08T13:29:53Z</time>
      </trkpt>
      <trkpt lat="42.590101" lon=".90874">
        <ele>2616.915</ele>
        <time>2012-07-08T13:30:19Z</time>
      </trkpt>
      <trkpt lat="42.590044" lon=".908793">
        <ele>2619.728</ele>
        <time>2012-07-08T13:30:30Z</time>
      </trkpt>
      <trkpt lat="42.590026" lon=".908852">
        <ele>2621.238</ele>
        <time>2012-07-08T13:30:43Z</time>
      </trkpt>
      <trkpt lat="42.590007" lon=".908864">
        <ele>2622.164</ele>
        <time>2012-07-08T13:30:55Z</time>
      </trkpt>
      <trkpt lat="42.589992" lon=".90888">
        <ele>2623.167</ele>
        <time>2012-07-08T13:31:10Z</time>
      </trkpt>
      <trkpt lat="42.589968" lon=".908923">
        <ele>2624.554</ele>
        <time>2012-07-08T13:31:27Z</time>
      </trkpt>
      <trkpt lat="42.589965" lon=".908998">
        <ele>2625.036</ele>
        <time>2012-07-08T13:31:39Z</time>
      </trkpt>
      <trkpt lat="42.589939" lon=".909004">
        <ele>2627.417</ele>
        <time>2012-07-08T13:31:47Z</time>
      </trkpt>
      <trkpt lat="42.589932" lon=".909071">
        <ele>2628.918</ele>
        <time>2012-07-08T13:31:58Z</time>
      </trkpt>
      <trkpt lat="42.589903" lon=".909093">
        <ele>2629.807</ele>
        <time>2012-07-08T13:32:14Z</time>
      </trkpt>
      <trkpt lat="42.589894" lon=".909102">
        <ele>2630.396</ele>
        <time>2012-07-08T13:32:29Z</time>
      </trkpt>
      <trkpt lat="42.58988" lon=".909111">
        <ele>2631.814</ele>
        <time>2012-07-08T13:32:47Z</time>
      </trkpt>
      <trkpt lat="42.589889" lon=".909116">
        <ele>2632.257</ele>
        <time>2012-07-08T13:33:09Z</time>
      </trkpt>
      <trkpt lat="42.589879" lon=".909147">
        <ele>2633.287</ele>
        <time>2012-07-08T13:33:21Z</time>
      </trkpt>
      <trkpt lat="42.589866" lon=".909155">
        <ele>2634.623</ele>
        <time>2012-07-08T13:33:38Z</time>
      </trkpt>
      <trkpt lat="42.589863" lon=".909177">
        <ele>2635.616</ele>
        <time>2012-07-08T13:33:53Z</time>
      </trkpt>
      <trkpt lat="42.589836" lon=".909198">
        <ele>2637.523</ele>
        <time>2012-07-08T13:34:05Z</time>
      </trkpt>
      <trkpt lat="42.589833" lon=".909215">
        <ele>2637.561</ele>
        <time>2012-07-08T13:34:19Z</time>
      </trkpt>
      <trkpt lat="42.589806" lon=".909257">
        <ele>2638.521</ele>
        <time>2012-07-08T13:34:34Z</time>
      </trkpt>
      <trkpt lat="42.589799" lon=".909321">
        <ele>2640.413</ele>
        <time>2012-07-08T13:34:45Z</time>
      </trkpt>
      <trkpt lat="42.589785" lon=".909375">
        <ele>2643.307</ele>
        <time>2012-07-08T13:34:57Z</time>
      </trkpt>
      <trkpt lat="42.58977" lon=".909389">
        <ele>2646.259</ele>
        <time>2012-07-08T13:35:05Z</time>
      </trkpt>
      <trkpt lat="42.589766" lon=".909407">
        <ele>2647.147</ele>
        <time>2012-07-08T13:35:18Z</time>
      </trkpt>
      <trkpt lat="42.589745" lon=".909428">
        <ele>2650.030</ele>
        <time>2012-07-08T13:35:29Z</time>
      </trkpt>
      <trkpt lat="42.589743" lon=".909444">
        <ele>2651.580</ele>
        <time>2012-07-08T13:35:39Z</time>
      </trkpt>
      <trkpt lat="42.589736" lon=".909471">
        <ele>2652.996</ele>
        <time>2012-07-08T13:35:51Z</time>
      </trkpt>
      <trkpt lat="42.589746" lon=".909498">
        <ele>2653.489</ele>
        <time>2012-07-08T13:36:07Z</time>
      </trkpt>
      <trkpt lat="42.589708" lon=".909534">
        <ele>2655.836</ele>
        <time>2012-07-08T13:36:20Z</time>
      </trkpt>
      <trkpt lat="42.589703" lon=".909569">
        <ele>2655.872</ele>
        <time>2012-07-08T13:36:35Z</time>
      </trkpt>
      <trkpt lat="42.5897" lon=".909618">
        <ele>2655.313</ele>
        <time>2012-07-08T13:36:49Z</time>
      </trkpt>
      <trkpt lat="42.589709" lon=".909637">
        <ele>2654.814</ele>
        <time>2012-07-08T13:37:04Z</time>
      </trkpt>
      <trkpt lat="42.589684" lon=".909647">
        <ele>2657.707</ele>
        <time>2012-07-08T13:37:17Z</time>
      </trkpt>
      <trkpt lat="42.589688" lon=".909668">
        <ele>2658.280</ele>
        <time>2012-07-08T13:37:31Z</time>
      </trkpt>
      <trkpt lat="42.5897" lon=".909746">
        <ele>2658.218</ele>
        <time>2012-07-08T13:37:44Z</time>
      </trkpt>
      <trkpt lat="42.589699" lon=".909756">
        <ele>2657.781</ele>
        <time>2012-07-08T13:37:59Z</time>
      </trkpt>
      <trkpt lat="42.589697" lon=".909777">
        <ele>2658.251</ele>
        <time>2012-07-08T13:38:13Z</time>
      </trkpt>
      <trkpt lat="42.589687" lon=".909781">
        <ele>2660.147</ele>
        <time>2012-07-08T13:38:36Z</time>
      </trkpt>
      <trkpt lat="42.589666" lon=".909833">
        <ele>2660.690</ele>
        <time>2012-07-08T13:38:48Z</time>
      </trkpt>
      <trkpt lat="42.589652" lon=".909852">
        <ele>2661.667</ele>
        <time>2012-07-08T13:39:01Z</time>
      </trkpt>
      <trkpt lat="42.589652" lon=".909864">
        <ele>2662.565</ele>
        <time>2012-07-08T13:39:11Z</time>
      </trkpt>
      <trkpt lat="42.589646" lon=".909894">
        <ele>2663.568</ele>
        <time>2012-07-08T13:39:24Z</time>
      </trkpt>
      <trkpt lat="42.589637" lon=".90989">
        <ele>2664.914</ele>
        <time>2012-07-08T13:39:27Z</time>
      </trkpt>
      <trkpt lat="42.589631" lon=".909921">
        <ele>2664.007</ele>
        <time>2012-07-08T13:39:43Z</time>
      </trkpt>
      <trkpt lat="42.589629" lon=".909928">
        <ele>2664.499</ele>
        <time>2012-07-08T13:40:00Z</time>
      </trkpt>
      <trkpt lat="42.589609" lon=".909925">
        <ele>2666.877</ele>
        <time>2012-07-08T13:40:16Z</time>
      </trkpt>
      <trkpt lat="42.58959" lon=".909915">
        <ele>2670.730</ele>
        <time>2012-07-08T13:40:22Z</time>
      </trkpt>
      <trkpt lat="42.58958" lon=".909908">
        <ele>2671.240</ele>
        <time>2012-07-08T13:40:24Z</time>
      </trkpt>
      <trkpt lat="42.589559" lon=".909913">
        <ele>2672.186</ele>
        <time>2012-07-08T13:40:34Z</time>
      </trkpt>
      <trkpt lat="42.589543" lon=".909919">
        <ele>2673.149</ele>
        <time>2012-07-08T13:40:47Z</time>
      </trkpt>
      <trkpt lat="42.589543" lon=".909919">
        <ele>2673.126</ele>
        <time>2012-07-08T13:41:12Z</time>
      </trkpt>
      <trkpt lat="42.589542" lon=".909927">
        <ele>2673.618</ele>
        <time>2012-07-08T13:41:37Z</time>
      </trkpt>
      <trkpt lat="42.589527" lon=".909951">
        <ele>2674.098</ele>
        <time>2012-07-08T13:41:52Z</time>
      </trkpt>
      <trkpt lat="42.589512" lon=".909978">
        <ele>2676.017</ele>
        <time>2012-07-08T13:42:02Z</time>
      </trkpt>
      <trkpt lat="42.589506" lon=".910002">
        <ele>2677.907</ele>
        <time>2012-07-08T13:42:13Z</time>
      </trkpt>
      <trkpt lat="42.589504" lon=".910038">
        <ele>2680.394</ele>
        <time>2012-07-08T13:42:32Z</time>
      </trkpt>
      <trkpt lat="42.589495" lon=".910079">
        <ele>2683.252</ele>
        <time>2012-07-08T13:42:43Z</time>
      </trkpt>
      <trkpt lat="42.58949" lon=".910091">
        <ele>2685.115</ele>
        <time>2012-07-08T13:43:00Z</time>
      </trkpt>
      <trkpt lat="42.589499" lon=".910107">
        <ele>2685.655</ele>
        <time>2012-07-08T13:43:12Z</time>
      </trkpt>
      <trkpt lat="42.589498" lon=".910133">
        <ele>2685.641</ele>
        <time>2012-07-08T13:43:24Z</time>
      </trkpt>
      <trkpt lat="42.589497" lon=".910146">
        <ele>2686.114</ele>
        <time>2012-07-08T13:43:36Z</time>
      </trkpt>
      <trkpt lat="42.589484" lon=".910167">
        <ele>2687.591</ele>
        <time>2012-07-08T13:43:50Z</time>
      </trkpt>
      <trkpt lat="42.589466" lon=".910169">
        <ele>2688.969</ele>
        <time>2012-07-08T13:44:05Z</time>
      </trkpt>
      <trkpt lat="42.589447" lon=".910183">
        <ele>2689.404</ele>
        <time>2012-07-08T13:44:18Z</time>
      </trkpt>
      <trkpt lat="42.589448" lon=".910188">
        <ele>2689.424</ele>
        <time>2012-07-08T13:44:41Z</time>
      </trkpt>
      <trkpt lat="42.589438" lon=".910208">
        <ele>2689.907</ele>
        <time>2012-07-08T13:44:57Z</time>
      </trkpt>
      <trkpt lat="42.589414" lon=".910237">
        <ele>2690.919</ele>
        <time>2012-07-08T13:45:15Z</time>
      </trkpt>
      <trkpt lat="42.589402" lon=".910264">
        <ele>2692.327</ele>
        <time>2012-07-08T13:45:29Z</time>
      </trkpt>
      <trkpt lat="42.589378" lon=".910304">
        <ele>2694.270</ele>
        <time>2012-07-08T13:45:43Z</time>
      </trkpt>
      <trkpt lat="42.589363" lon=".910317">
        <ele>2695.250</ele>
        <time>2012-07-08T13:45:45Z</time>
      </trkpt>
      <trkpt lat="42.589374" lon=".910323">
        <ele>2695.736</ele>
        <time>2012-07-08T13:45:58Z</time>
      </trkpt>
      <trkpt lat="42.589381" lon=".910329">
        <ele>2696.629</ele>
        <time>2012-07-08T13:46:16Z</time>
      </trkpt>
      <trkpt lat="42.589384" lon=".910327">
        <ele>2697.136</ele>
        <time>2012-07-08T13:46:30Z</time>
      </trkpt>
      <trkpt lat="42.589366" lon=".910368">
        <ele>2698.196</ele>
        <time>2012-07-08T13:46:44Z</time>
      </trkpt>
      <trkpt lat="42.589364" lon=".910367">
        <ele>2698.131</ele>
        <time>2012-07-08T13:47:01Z</time>
      </trkpt>
      <trkpt lat="42.589355" lon=".910396">
        <ele>2701.424</ele>
        <time>2012-07-08T13:47:07Z</time>
      </trkpt>
      <trkpt lat="42.589326" lon=".910458">
        <ele>2701.907</ele>
        <time>2012-07-08T13:47:26Z</time>
      </trkpt>
      <trkpt lat="42.589308" lon=".910463">
        <ele>2701.932</ele>
        <time>2012-07-08T13:47:45Z</time>
      </trkpt>
      <trkpt lat="42.589307" lon=".910457">
        <ele>2703.960</ele>
        <time>2012-07-08T13:48:01Z</time>
      </trkpt>
      <trkpt lat="42.589306" lon=".910468">
        <ele>2705.383</ele>
        <time>2012-07-08T13:48:12Z</time>
      </trkpt>
      <trkpt lat="42.589299" lon=".910469">
        <ele>2708.723</ele>
        <time>2012-07-08T13:48:21Z</time>
      </trkpt>
      <trkpt lat="42.589292" lon=".910484">
        <ele>2710.629</ele>
        <time>2012-07-08T13:48:36Z</time>
      </trkpt>
      <trkpt lat="42.589265" lon=".910485">
        <ele>2713.972</ele>
        <time>2012-07-08T13:48:47Z</time>
      </trkpt>
      <trkpt lat="42.589241" lon=".910492">
        <ele>2717.339</ele>
        <time>2012-07-08T13:48:57Z</time>
      </trkpt>
      <trkpt lat="42.589241" lon=".910509">
        <ele>2720.218</ele>
        <time>2012-07-08T13:49:09Z</time>
      </trkpt>
      <trkpt lat="42.589233" lon=".910518">
        <ele>2724.098</ele>
        <time>2012-07-08T13:49:26Z</time>
      </trkpt>
      <trkpt lat="42.58924" lon=".910516">
        <ele>2725.017</ele>
        <time>2012-07-08T13:49:28Z</time>
      </trkpt>
      <trkpt lat="42.589289" lon=".910522">
        <ele>2727.907</ele>
        <time>2012-07-08T13:49:44Z</time>
      </trkpt>
      <trkpt lat="42.589284" lon=".910529">
        <ele>2730.844</ele>
        <time>2012-07-08T13:49:47Z</time>
      </trkpt>
      <trkpt lat="42.589278" lon=".91053">
        <ele>2732.272</ele>
        <time>2012-07-08T13:49:49Z</time>
      </trkpt>
      <trkpt lat="42.58928" lon=".910553">
        <ele>2735.695</ele>
        <time>2012-07-08T13:49:51Z</time>
      </trkpt>
      <trkpt lat="42.589279" lon=".910558">
        <ele>2736.535</ele>
        <time>2012-07-08T13:49:53Z</time>
      </trkpt>
      <trkpt lat="42.589277" lon=".910571">
        <ele>2739.461</ele>
        <time>2012-07-08T13:49:57Z</time>
      </trkpt>
      <trkpt lat="42.589281" lon=".910577">
        <ele>2740.454</ele>
        <time>2012-07-08T13:50:10Z</time>
      </trkpt>
      <trkpt lat="42.589281" lon=".910577">
        <ele>2740.441</ele>
        <time>2012-07-08T13:50:34Z</time>
      </trkpt>
      <trkpt lat="42.589284" lon=".910583">
        <ele>2740.476</ele>
        <time>2012-07-08T13:51:05Z</time>
      </trkpt>
      <trkpt lat="42.589257" lon=".910602">
        <ele>2743.790</ele>
        <time>2012-07-08T13:51:12Z</time>
      </trkpt>
      <trkpt lat="42.589251" lon=".910606">
        <ele>2744.719</ele>
        <time>2012-07-08T13:51:14Z</time>
      </trkpt>
      <trkpt lat="42.589244" lon=".910647">
        <ele>2744.707</ele>
        <time>2012-07-08T13:51:32Z</time>
      </trkpt>
      <trkpt lat="42.589212" lon=".910684">
        <ele>2743.320</ele>
        <time>2012-07-08T13:51:46Z</time>
      </trkpt>
      <trkpt lat="42.589198" lon=".910687">
        <ele>2742.888</ele>
        <time>2012-07-08T13:52:01Z</time>
      </trkpt>
      <trkpt lat="42.589177" lon=".910704">
        <ele>2740.931</ele>
        <time>2012-07-08T13:52:17Z</time>
      </trkpt>
      <trkpt lat="42.589152" lon=".910741">
        <ele>2739.951</ele>
        <time>2012-07-08T13:52:31Z</time>
      </trkpt>
      <trkpt lat="42.589145" lon=".910781">
        <ele>2739.487</ele>
        <time>2012-07-08T13:52:45Z</time>
      </trkpt>
      <trkpt lat="42.589149" lon=".910842">
        <ele>2738.940</ele>
        <time>2012-07-08T13:52:58Z</time>
      </trkpt>
      <trkpt lat="42.589142" lon=".910875">
        <ele>2738.947</ele>
        <time>2012-07-08T13:53:09Z</time>
      </trkpt>
      <trkpt lat="42.589139" lon=".910923">
        <ele>2738.069</ele>
        <time>2012-07-08T13:53:25Z</time>
      </trkpt>
      <trkpt lat="42.589128" lon=".91095">
        <ele>2737.504</ele>
        <time>2012-07-08T13:53:38Z</time>
      </trkpt>
      <trkpt lat="42.589133" lon=".911">
        <ele>2737.024</ele>
        <time>2012-07-08T13:53:52Z</time>
      </trkpt>
      <trkpt lat="42.58915" lon=".911043">
        <ele>2734.607</ele>
        <time>2012-07-08T13:54:08Z</time>
      </trkpt>
      <trkpt lat="42.589151" lon=".911044">
        <ele>2734.139</ele>
        <time>2012-07-08T13:54:23Z</time>
      </trkpt>
      <trkpt lat="42.589151" lon=".911044">
        <ele>2734.197</ele>
        <time>2012-07-08T13:54:45Z</time>
      </trkpt>
      <trkpt lat="42.589146" lon=".911039">
        <ele>2733.750</ele>
        <time>2012-07-08T13:55:12Z</time>
      </trkpt>
      <trkpt lat="42.589123" lon=".911063">
        <ele>2732.730</ele>
        <time>2012-07-08T13:55:26Z</time>
      </trkpt>
      <trkpt lat="42.589089" lon=".911101">
        <ele>2731.756</ele>
        <time>2012-07-08T13:55:42Z</time>
      </trkpt>
      <trkpt lat="42.589071" lon=".911119">
        <ele>2730.869</ele>
        <time>2012-07-08T13:55:58Z</time>
      </trkpt>
      <trkpt lat="42.589078" lon=".911135">
        <ele>2729.846</ele>
        <time>2012-07-08T13:56:12Z</time>
      </trkpt>
      <trkpt lat="42.589076" lon=".911136">
        <ele>2729.871</ele>
        <time>2012-07-08T13:56:30Z</time>
      </trkpt>
      <trkpt lat="42.58906" lon=".911151">
        <ele>2727.441</ele>
        <time>2012-07-08T13:56:46Z</time>
      </trkpt>
      <trkpt lat="42.589029" lon=".91117">
        <ele>2725.015</ele>
        <time>2012-07-08T13:56:58Z</time>
      </trkpt>
      <trkpt lat="42.589016" lon=".911182">
        <ele>2722.607</ele>
        <time>2012-07-08T13:57:12Z</time>
      </trkpt>
      <trkpt lat="42.589033" lon=".911212">
        <ele>2720.290</ele>
        <time>2012-07-08T13:57:23Z</time>
      </trkpt>
      <trkpt lat="42.589017" lon=".911217">
        <ele>2718.898</ele>
        <time>2012-07-08T13:57:38Z</time>
      </trkpt>
      <trkpt lat="42.589014" lon=".911228">
        <ele>2718.391</ele>
        <time>2012-07-08T13:58:03Z</time>
      </trkpt>
      <trkpt lat="42.588979" lon=".911239">
        <ele>2714.971</ele>
        <time>2012-07-08T13:58:18Z</time>
      </trkpt>
      <trkpt lat="42.588974" lon=".911232">
        <ele>2713.917</ele>
        <time>2012-07-08T13:58:20Z</time>
      </trkpt>
      <trkpt lat="42.588961" lon=".911235">
        <ele>2711.520</ele>
        <time>2012-07-08T13:58:36Z</time>
      </trkpt>
      <trkpt lat="42.588957" lon=".911269">
        <ele>2708.257</ele>
        <time>2012-07-08T13:58:48Z</time>
      </trkpt>
      <trkpt lat="42.588957" lon=".911269">
        <ele>2708.245</ele>
        <time>2012-07-08T13:58:49Z</time>
      </trkpt>
      <trkpt lat="42.588981" lon=".911304">
        <ele>2706.347</ele>
        <time>2012-07-08T13:59:04Z</time>
      </trkpt>
      <trkpt lat="42.588986" lon=".911329">
        <ele>2704.311</ele>
        <time>2012-07-08T13:59:19Z</time>
      </trkpt>
      <trkpt lat="42.588994" lon=".911357">
        <ele>2703.407</ele>
        <time>2012-07-08T13:59:33Z</time>
      </trkpt>
      <trkpt lat="42.588995" lon=".911378">
        <ele>2702.947</ele>
        <time>2012-07-08T13:59:48Z</time>
      </trkpt>
      <trkpt lat="42.588999" lon=".911399">
        <ele>2702.495</ele>
        <time>2012-07-08T14:00:14Z</time>
      </trkpt>
      <trkpt lat="42.58898" lon=".911418">
        <ele>2701.958</ele>
        <time>2012-07-08T14:00:33Z</time>
      </trkpt>
      <trkpt lat="42.588993" lon=".911448">
        <ele>2700.558</ele>
        <time>2012-07-08T14:00:38Z</time>
      </trkpt>
      <trkpt lat="42.588991" lon=".911466">
        <ele>2698.184</ele>
        <time>2012-07-08T14:00:50Z</time>
      </trkpt>
      <trkpt lat="42.588974" lon=".911453">
        <ele>2697.177</ele>
        <time>2012-07-08T14:01:06Z</time>
      </trkpt>
      <trkpt lat="42.588954" lon=".911455">
        <ele>2695.744</ele>
        <time>2012-07-08T14:01:20Z</time>
      </trkpt>
      <trkpt lat="42.588929" lon=".911493">
        <ele>2693.371</ele>
        <time>2012-07-08T14:01:35Z</time>
      </trkpt>
      <trkpt lat="42.588937" lon=".911511">
        <ele>2691.841</ele>
        <time>2012-07-08T14:01:38Z</time>
      </trkpt>
      <trkpt lat="42.588896" lon=".911533">
        <ele>2689.915</ele>
        <time>2012-07-08T14:01:52Z</time>
      </trkpt>
      <trkpt lat="42.588887" lon=".911535">
        <ele>2688.507</ele>
        <time>2012-07-08T14:02:06Z</time>
      </trkpt>
      <trkpt lat="42.588839" lon=".911569">
        <ele>2685.140</ele>
        <time>2012-07-08T14:02:18Z</time>
      </trkpt>
      <trkpt lat="42.588844" lon=".911601">
        <ele>2684.648</ele>
        <time>2012-07-08T14:02:32Z</time>
      </trkpt>
      <trkpt lat="42.588843" lon=".911624">
        <ele>2683.731</ele>
        <time>2012-07-08T14:02:50Z</time>
      </trkpt>
      <trkpt lat="42.588822" lon=".911638">
        <ele>2682.271</ele>
        <time>2012-07-08T14:03:04Z</time>
      </trkpt>
      <trkpt lat="42.588794" lon=".911632">
        <ele>2682.247</ele>
        <time>2012-07-08T14:03:18Z</time>
      </trkpt>
      <trkpt lat="42.588779" lon=".911655">
        <ele>2679.870</ele>
        <time>2012-07-08T14:03:33Z</time>
      </trkpt>
      <trkpt lat="42.58877" lon=".911657">
        <ele>2678.947</ele>
        <time>2012-07-08T14:03:47Z</time>
      </trkpt>
      <trkpt lat="42.588765" lon=".911658">
        <ele>2678.493</ele>
        <time>2012-07-08T14:04:03Z</time>
      </trkpt>
      <trkpt lat="42.588747" lon=".911664">
        <ele>2676.965</ele>
        <time>2012-07-08T14:04:21Z</time>
      </trkpt>
      <trkpt lat="42.588698" lon=".911719">
        <ele>2673.621</ele>
        <time>2012-07-08T14:04:32Z</time>
      </trkpt>
      <trkpt lat="42.588661" lon=".911801">
        <ele>2670.707</ele>
        <time>2012-07-08T14:04:44Z</time>
      </trkpt>
      <trkpt lat="42.588619" lon=".911898">
        <ele>2668.392</ele>
        <time>2012-07-08T14:04:59Z</time>
      </trkpt>
      <trkpt lat="42.588595" lon=".911924">
        <ele>2666.840</ele>
        <time>2012-07-08T14:05:15Z</time>
      </trkpt>
      <trkpt lat="42.58857" lon=".911965">
        <ele>2664.493</ele>
        <time>2012-07-08T14:05:37Z</time>
      </trkpt>
      <trkpt lat="42.58854" lon=".912055">
        <ele>2662.543</ele>
        <time>2012-07-08T14:05:48Z</time>
      </trkpt>
      <trkpt lat="42.588506" lon=".912125">
        <ele>2660.199</ele>
        <time>2012-07-08T14:06:01Z</time>
      </trkpt>
      <trkpt lat="42.588506" lon=".912125">
        <ele>2660.132</ele>
        <time>2012-07-08T14:06:07Z</time>
      </trkpt>
      <trkpt lat="42.588509" lon=".912129">
        <ele>2659.629</ele>
        <time>2012-07-08T14:06:24Z</time>
      </trkpt>
      <trkpt lat="42.588503" lon=".912164">
        <ele>2658.739</ele>
        <time>2012-07-08T14:06:36Z</time>
      </trkpt>
      <trkpt lat="42.588467" lon=".912247">
        <ele>2655.801</ele>
        <time>2012-07-08T14:06:49Z</time>
      </trkpt>
      <trkpt lat="42.588441" lon=".912301">
        <ele>2653.921</ele>
        <time>2012-07-08T14:07:01Z</time>
      </trkpt>
      <trkpt lat="42.588425" lon=".912366">
        <ele>2652.407</ele>
        <time>2012-07-08T14:07:13Z</time>
      </trkpt>
      <trkpt lat="42.588377" lon=".912373">
        <ele>2651.526</ele>
        <time>2012-07-08T14:07:25Z</time>
      </trkpt>
      <trkpt lat="42.588338" lon=".912355">
        <ele>2649.574</ele>
        <time>2012-07-08T14:07:35Z</time>
      </trkpt>
      <trkpt lat="42.588324" lon=".91241">
        <ele>2647.627</ele>
        <time>2012-07-08T14:07:45Z</time>
      </trkpt>
      <trkpt lat="42.588298" lon=".91241">
        <ele>2647.617</ele>
        <time>2012-07-08T14:07:59Z</time>
      </trkpt>
      <trkpt lat="42.588269" lon=".912419">
        <ele>2646.753</ele>
        <time>2012-07-08T14:08:16Z</time>
      </trkpt>
      <trkpt lat="42.588276" lon=".912474">
        <ele>2644.766</ele>
        <time>2012-07-08T14:08:27Z</time>
      </trkpt>
      <trkpt lat="42.588264" lon=".912487">
        <ele>2643.863</ele>
        <time>2012-07-08T14:08:41Z</time>
      </trkpt>
      <trkpt lat="42.588276" lon=".912559">
        <ele>2643.375</ele>
        <time>2012-07-08T14:08:53Z</time>
      </trkpt>
      <trkpt lat="42.588289" lon=".912605">
        <ele>2643.328</ele>
        <time>2012-07-08T14:09:12Z</time>
      </trkpt>
      <trkpt lat="42.588296" lon=".912635">
        <ele>2642.320</ele>
        <time>2012-07-08T14:09:28Z</time>
      </trkpt>
      <trkpt lat="42.588257" lon=".912651">
        <ele>2639.907</ele>
        <time>2012-07-08T14:09:43Z</time>
      </trkpt>
      <trkpt lat="42.588093" lon=".91278">
        <ele>2634.230</ele>
        <time>2012-07-08T14:11:13Z</time>
      </trkpt>
      <trkpt lat="42.588085" lon=".912782">
        <ele>2634.228</ele>
        <time>2012-07-08T14:11:14Z</time>
      </trkpt>
      <trkpt lat="42.588046" lon=".912797">
        <ele>2632.741</ele>
        <time>2012-07-08T14:11:27Z</time>
      </trkpt>
      <trkpt lat="42.588014" lon=".912799">
        <ele>2632.211</ele>
        <time>2012-07-08T14:11:40Z</time>
      </trkpt>
      <trkpt lat="42.587982" lon=".912799">
        <ele>2631.827</ele>
        <time>2012-07-08T14:11:53Z</time>
      </trkpt>
      <trkpt lat="42.587962" lon=".9128">
        <ele>2631.360</ele>
        <time>2012-07-08T14:12:09Z</time>
      </trkpt>
      <trkpt lat="42.587932" lon=".912816">
        <ele>2629.837</ele>
        <time>2012-07-08T14:12:23Z</time>
      </trkpt>
      <trkpt lat="42.587912" lon=".912818">
        <ele>2629.392</ele>
        <time>2012-07-08T14:12:39Z</time>
      </trkpt>
      <trkpt lat="42.58791" lon=".912855">
        <ele>2628.973</ele>
        <time>2012-07-08T14:12:51Z</time>
      </trkpt>
      <trkpt lat="42.587914" lon=".912875">
        <ele>2628.920</ele>
        <time>2012-07-08T14:13:06Z</time>
      </trkpt>
      <trkpt lat="42.587893" lon=".9129">
        <ele>2628.907</ele>
        <time>2012-07-08T14:13:17Z</time>
      </trkpt>
      <trkpt lat="42.587897" lon=".912912">
        <ele>2629.352</ele>
        <time>2012-07-08T14:13:34Z</time>
      </trkpt>
      <trkpt lat="42.587897" lon=".912912">
        <ele>2629.310</ele>
        <time>2012-07-08T14:13:36Z</time>
      </trkpt>
      <trkpt lat="42.587892" lon=".91291">
        <ele>2628.953</ele>
        <time>2012-07-08T14:13:51Z</time>
      </trkpt>
      <trkpt lat="42.587875" lon=".91294">
        <ele>2628.433</ele>
        <time>2012-07-08T14:14:04Z</time>
      </trkpt>
      <trkpt lat="42.58787" lon=".912991">
        <ele>2628.469</ele>
        <time>2012-07-08T14:14:13Z</time>
      </trkpt>
      <trkpt lat="42.587857" lon=".913013">
        <ele>2626.982</ele>
        <time>2012-07-08T14:14:26Z</time>
      </trkpt>
      <trkpt lat="42.587857" lon=".913071">
        <ele>2625.589</ele>
        <time>2012-07-08T14:14:39Z</time>
      </trkpt>
      <trkpt lat="42.587851" lon=".913154">
        <ele>2624.152</ele>
        <time>2012-07-08T14:14:52Z</time>
      </trkpt>
      <trkpt lat="42.587834" lon=".913168">
        <ele>2623.653</ele>
        <time>2012-07-08T14:15:07Z</time>
      </trkpt>
      <trkpt lat="42.587833" lon=".913181">
        <ele>2623.108</ele>
        <time>2012-07-08T14:15:19Z</time>
      </trkpt>
      <trkpt lat="42.587825" lon=".913177">
        <ele>2622.607</ele>
        <time>2012-07-08T14:15:34Z</time>
      </trkpt>
      <trkpt lat="42.587794" lon=".913175">
        <ele>2622.188</ele>
        <time>2012-07-08T14:15:45Z</time>
      </trkpt>
      <trkpt lat="42.587769" lon=".913217">
        <ele>2620.776</ele>
        <time>2012-07-08T14:15:58Z</time>
      </trkpt>
      <trkpt lat="42.587761" lon=".913227">
        <ele>2620.229</ele>
        <time>2012-07-08T14:16:13Z</time>
      </trkpt>
      <trkpt lat="42.587755" lon=".913254">
        <ele>2620.279</ele>
        <time>2012-07-08T14:16:26Z</time>
      </trkpt>
      <trkpt lat="42.587743" lon=".913307">
        <ele>2617.865</ele>
        <time>2012-07-08T14:16:41Z</time>
      </trkpt>
      <trkpt lat="42.587763" lon=".913371">
        <ele>2615.468</ele>
        <time>2012-07-08T14:16:53Z</time>
      </trkpt>
      <trkpt lat="42.587737" lon=".913422">
        <ele>2612.585</ele>
        <time>2012-07-08T14:17:06Z</time>
      </trkpt>
      <trkpt lat="42.587693" lon=".913409">
        <ele>2609.247</ele>
        <time>2012-07-08T14:17:18Z</time>
      </trkpt>
      <trkpt lat="42.587649" lon=".913431">
        <ele>2608.229</ele>
        <time>2012-07-08T14:17:29Z</time>
      </trkpt>
      <trkpt lat="42.587608" lon=".913448">
        <ele>2608.221</ele>
        <time>2012-07-08T14:17:41Z</time>
      </trkpt>
      <trkpt lat="42.58756" lon=".913497">
        <ele>2606.307</ele>
        <time>2012-07-08T14:17:53Z</time>
      </trkpt>
      <trkpt lat="42.587551" lon=".913544">
        <ele>2604.457</ele>
        <time>2012-07-08T14:18:04Z</time>
      </trkpt>
      <trkpt lat="42.587551" lon=".913547">
        <ele>2604.445</ele>
        <time>2012-07-08T14:18:24Z</time>
      </trkpt>
      <trkpt lat="42.587543" lon=".913614">
        <ele>2604.488</ele>
        <time>2012-07-08T14:18:38Z</time>
      </trkpt>
      <trkpt lat="42.587504" lon=".91365">
        <ele>2602.948</ele>
        <time>2012-07-08T14:18:50Z</time>
      </trkpt>
      <trkpt lat="42.587489" lon=".913651">
        <ele>2602.444</ele>
        <time>2012-07-08T14:18:56Z</time>
      </trkpt>
      <trkpt lat="42.587454" lon=".913677">
        <ele>2602.027</ele>
        <time>2012-07-08T14:19:09Z</time>
      </trkpt>
      <trkpt lat="42.587448" lon=".913722">
        <ele>2601.074</ele>
        <time>2012-07-08T14:19:22Z</time>
      </trkpt>
      <trkpt lat="42.587406" lon=".913765">
        <ele>2600.077</ele>
        <time>2012-07-08T14:19:36Z</time>
      </trkpt>
      <trkpt lat="42.587345" lon=".913804">
        <ele>2599.161</ele>
        <time>2012-07-08T14:19:49Z</time>
      </trkpt>
      <trkpt lat="42.5873" lon=".913829">
        <ele>2598.627</ele>
        <time>2012-07-08T14:20:03Z</time>
      </trkpt>
      <trkpt lat="42.587285" lon=".913874">
        <ele>2599.107</ele>
        <time>2012-07-08T14:20:14Z</time>
      </trkpt>
      <trkpt lat="42.587244" lon=".913883">
        <ele>2598.650</ele>
        <time>2012-07-08T14:20:27Z</time>
      </trkpt>
      <trkpt lat="42.587242" lon=".913894">
        <ele>2599.178</ele>
        <time>2012-07-08T14:20:30Z</time>
      </trkpt>
      <trkpt lat="42.58723" lon=".913946">
        <ele>2598.111</ele>
        <time>2012-07-08T14:20:43Z</time>
      </trkpt>
      <trkpt lat="42.587216" lon=".913995">
        <ele>2598.111</ele>
        <time>2012-07-08T14:20:56Z</time>
      </trkpt>
      <trkpt lat="42.587205" lon=".914009">
        <ele>2597.697</ele>
        <time>2012-07-08T14:21:05Z</time>
      </trkpt>
      <trkpt lat="42.587188" lon=".91407">
        <ele>2596.740</ele>
        <time>2012-07-08T14:21:15Z</time>
      </trkpt>
      <trkpt lat="42.587185" lon=".914074">
        <ele>2596.277</ele>
        <time>2012-07-08T14:21:31Z</time>
      </trkpt>
      <trkpt lat="42.587183" lon=".914077">
        <ele>2596.767</ele>
        <time>2012-07-08T14:21:58Z</time>
      </trkpt>
      <trkpt lat="42.587139" lon=".914093">
        <ele>2596.781</ele>
        <time>2012-07-08T14:22:11Z</time>
      </trkpt>
      <trkpt lat="42.587142" lon=".91418">
        <ele>2593.819</ele>
        <time>2012-07-08T14:22:23Z</time>
      </trkpt>
      <trkpt lat="42.587156" lon=".91421">
        <ele>2593.307</ele>
        <time>2012-07-08T14:22:35Z</time>
      </trkpt>
      <trkpt lat="42.587175" lon=".91424">
        <ele>2593.349</ele>
        <time>2012-07-08T14:22:39Z</time>
      </trkpt>
      <trkpt lat="42.587229" lon=".914297">
        <ele>2593.817</ele>
        <time>2012-07-08T14:22:47Z</time>
      </trkpt>
      <trkpt lat="42.587245" lon=".914369">
        <ele>2593.890</ele>
        <time>2012-07-08T14:23:00Z</time>
      </trkpt>
      <trkpt lat="42.587182" lon=".914388">
        <ele>2590.950</ele>
        <time>2012-07-08T14:23:12Z</time>
      </trkpt>
      <trkpt lat="42.587117" lon=".914385">
        <ele>2589.936</ele>
        <time>2012-07-08T14:23:25Z</time>
      </trkpt>
      <trkpt lat="42.587105" lon=".9144">
        <ele>2589.549</ele>
        <time>2012-07-08T14:23:28Z</time>
      </trkpt>
      <trkpt lat="42.587063" lon=".914429">
        <ele>2588.576</ele>
        <time>2012-07-08T14:23:34Z</time>
      </trkpt>
      <trkpt lat="42.587025" lon=".914502">
        <ele>2589.554</ele>
        <time>2012-07-08T14:23:48Z</time>
      </trkpt>
      <trkpt lat="42.58702" lon=".914506">
        <ele>2589.556</ele>
        <time>2012-07-08T14:23:58Z</time>
      </trkpt>
      <trkpt lat="42.587009" lon=".914549">
        <ele>2589.011</ele>
        <time>2012-07-08T14:24:10Z</time>
      </trkpt>
      <trkpt lat="42.587005" lon=".91458">
        <ele>2589.007</ele>
        <time>2012-07-08T14:24:22Z</time>
      </trkpt>
      <trkpt lat="42.586998" lon=".914607">
        <ele>2588.068</ele>
        <time>2012-07-08T14:24:34Z</time>
      </trkpt>
      <trkpt lat="42.587006" lon=".914645">
        <ele>2587.526</ele>
        <time>2012-07-08T14:24:46Z</time>
      </trkpt>
      <trkpt lat="42.587023" lon=".91467">
        <ele>2586.659</ele>
        <time>2012-07-08T14:24:56Z</time>
      </trkpt>
      <trkpt lat="42.587008" lon=".914703">
        <ele>2586.639</ele>
        <time>2012-07-08T14:25:09Z</time>
      </trkpt>
      <trkpt lat="42.586987" lon=".914746">
        <ele>2585.195</ele>
        <time>2012-07-08T14:25:21Z</time>
      </trkpt>
      <trkpt lat="42.586949" lon=".914795">
        <ele>2583.768</ele>
        <time>2012-07-08T14:25:32Z</time>
      </trkpt>
      <trkpt lat="42.586925" lon=".914853">
        <ele>2582.255</ele>
        <time>2012-07-08T14:25:42Z</time>
      </trkpt>
      <trkpt lat="42.586861" lon=".914945">
        <ele>2580.854</ele>
        <time>2012-07-08T14:25:55Z</time>
      </trkpt>
      <trkpt lat="42.586813" lon=".91498">
        <ele>2580.856</ele>
        <time>2012-07-08T14:26:09Z</time>
      </trkpt>
      <trkpt lat="42.5868" lon=".915036">
        <ele>2580.811</ele>
        <time>2012-07-08T14:26:22Z</time>
      </trkpt>
      <trkpt lat="42.586765" lon=".915073">
        <ele>2580.807</ele>
        <time>2012-07-08T14:26:36Z</time>
      </trkpt>
      <trkpt lat="42.586721" lon=".915106">
        <ele>2580.358</ele>
        <time>2012-07-08T14:26:49Z</time>
      </trkpt>
      <trkpt lat="42.586675" lon=".915161">
        <ele>2580.866</ele>
        <time>2012-07-08T14:27:02Z</time>
      </trkpt>
      <trkpt lat="42.586626" lon=".915254">
        <ele>2580.849</ele>
        <time>2012-07-08T14:27:15Z</time>
      </trkpt>
      <trkpt lat="42.586612" lon=".915348">
        <ele>2582.779</ele>
        <time>2012-07-08T14:27:28Z</time>
      </trkpt>
      <trkpt lat="42.586575" lon=".915384">
        <ele>2583.725</ele>
        <time>2012-07-08T14:27:42Z</time>
      </trkpt>
      <trkpt lat="42.58652" lon=".915456">
        <ele>2582.788</ele>
        <time>2012-07-08T14:27:56Z</time>
      </trkpt>
      <trkpt lat="42.586484" lon=".915502">
        <ele>2580.835</ele>
        <time>2012-07-08T14:28:10Z</time>
      </trkpt>
      <trkpt lat="42.586481" lon=".915531">
        <ele>2580.364</ele>
        <time>2012-07-08T14:28:23Z</time>
      </trkpt>
      <trkpt lat="42.586475" lon=".915573">
        <ele>2578.406</ele>
        <time>2012-07-08T14:28:36Z</time>
      </trkpt>
      <trkpt lat="42.586427" lon=".915642">
        <ele>2577.916</ele>
        <time>2012-07-08T14:28:47Z</time>
      </trkpt>
      <trkpt lat="42.586376" lon=".915762">
        <ele>2576.507</ele>
        <time>2012-07-08T14:29:01Z</time>
      </trkpt>
      <trkpt lat="42.586368" lon=".91577">
        <ele>2576.529</ele>
        <time>2012-07-08T14:29:03Z</time>
      </trkpt>
      <trkpt lat="42.58635" lon=".915807">
        <ele>2576.567</ele>
        <time>2012-07-08T14:29:07Z</time>
      </trkpt>
      <trkpt lat="42.586353" lon=".915902">
        <ele>2577.410</ele>
        <time>2012-07-08T14:29:19Z</time>
      </trkpt>
      <trkpt lat="42.586307" lon=".915951">
        <ele>2577.920</ele>
        <time>2012-07-08T14:29:33Z</time>
      </trkpt>
      <trkpt lat="42.586306" lon=".915959">
        <ele>2577.976</ele>
        <time>2012-07-08T14:29:49Z</time>
      </trkpt>
      <trkpt lat="42.58624" lon=".916059">
        <ele>2574.129</ele>
        <time>2012-07-08T14:30:55Z</time>
      </trkpt>
      <trkpt lat="42.586081" lon=".916538">
        <ele>2568.826</ele>
        <time>2012-07-08T14:32:55Z</time>
      </trkpt>
      <trkpt lat="42.586079" lon=".916548">
        <ele>2569.395</ele>
        <time>2012-07-08T14:32:56Z</time>
      </trkpt>
      <trkpt lat="42.586106" lon=".916578">
        <ele>2568.849</ele>
        <time>2012-07-08T14:33:09Z</time>
      </trkpt>
      <trkpt lat="42.586092" lon=".916639">
        <ele>2568.823</ele>
        <time>2012-07-08T14:33:20Z</time>
      </trkpt>
      <trkpt lat="42.586049" lon=".916711">
        <ele>2570.207</ele>
        <time>2012-07-08T14:33:32Z</time>
      </trkpt>
      <trkpt lat="42.585996" lon=".916752">
        <ele>2571.772</ele>
        <time>2012-07-08T14:33:45Z</time>
      </trkpt>
      <trkpt lat="42.585962" lon=".916758">
        <ele>2572.130</ele>
        <time>2012-07-08T14:34:00Z</time>
      </trkpt>
      <trkpt lat="42.585924" lon=".916786">
        <ele>2572.633</ele>
        <time>2012-07-08T14:34:16Z</time>
      </trkpt>
      <trkpt lat="42.585919" lon=".916815">
        <ele>2572.173</ele>
        <time>2012-07-08T14:34:28Z</time>
      </trkpt>
      <trkpt lat="42.585872" lon=".916841">
        <ele>2571.729</ele>
        <time>2012-07-08T14:34:41Z</time>
      </trkpt>
      <trkpt lat="42.585806" lon=".916878">
        <ele>2572.162</ele>
        <time>2012-07-08T14:34:53Z</time>
      </trkpt>
      <trkpt lat="42.585809" lon=".916929">
        <ele>2572.139</ele>
        <time>2012-07-08T14:35:05Z</time>
      </trkpt>
      <trkpt lat="42.585791" lon=".916974">
        <ele>2572.159</ele>
        <time>2012-07-08T14:35:16Z</time>
      </trkpt>
      <trkpt lat="42.585765" lon=".917019">
        <ele>2572.103</ele>
        <time>2012-07-08T14:35:35Z</time>
      </trkpt>
      <trkpt lat="42.585771" lon=".917069">
        <ele>2569.723</ele>
        <time>2012-07-08T14:35:51Z</time>
      </trkpt>
      <trkpt lat="42.585764" lon=".917111">
        <ele>2569.307</ele>
        <time>2012-07-08T14:36:01Z</time>
      </trkpt>
      <trkpt lat="42.585735" lon=".917189">
        <ele>2567.868</ele>
        <time>2012-07-08T14:36:15Z</time>
      </trkpt>
      <trkpt lat="42.585733" lon=".917264">
        <ele>2566.436</ele>
        <time>2012-07-08T14:36:27Z</time>
      </trkpt>
      <trkpt lat="42.58571" lon=".917342">
        <ele>2566.479</ele>
        <time>2012-07-08T14:36:40Z</time>
      </trkpt>
      <trkpt lat="42.585704" lon=".917351">
        <ele>2566.439</ele>
        <time>2012-07-08T14:36:42Z</time>
      </trkpt>
      <trkpt lat="42.585693" lon=".917398">
        <ele>2566.985</ele>
        <time>2012-07-08T14:36:53Z</time>
      </trkpt>
      <trkpt lat="42.585701" lon=".917464">
        <ele>2567.898</ele>
        <time>2012-07-08T14:37:06Z</time>
      </trkpt>
      <trkpt lat="42.585701" lon=".917563">
        <ele>2570.745</ele>
        <time>2012-07-08T14:37:20Z</time>
      </trkpt>
      <trkpt lat="42.5857" lon=".917634">
        <ele>2573.158</ele>
        <time>2012-07-08T14:37:35Z</time>
      </trkpt>
      <trkpt lat="42.585694" lon=".917706">
        <ele>2574.652</ele>
        <time>2012-07-08T14:37:45Z</time>
      </trkpt>
      <trkpt lat="42.585689" lon=".917794">
        <ele>2576.017</ele>
        <time>2012-07-08T14:37:56Z</time>
      </trkpt>
      <trkpt lat="42.585703" lon=".917814">
        <ele>2576.007</ele>
        <time>2012-07-08T14:38:07Z</time>
      </trkpt>
      <trkpt lat="42.585705" lon=".917833">
        <ele>2575.048</ele>
        <time>2012-07-08T14:38:11Z</time>
      </trkpt>
      <trkpt lat="42.585708" lon=".917892">
        <ele>2575.066</ele>
        <time>2012-07-08T14:38:22Z</time>
      </trkpt>
      <trkpt lat="42.585705" lon=".91799">
        <ele>2576.099</ele>
        <time>2012-07-08T14:38:35Z</time>
      </trkpt>
      <trkpt lat="42.585653" lon=".918033">
        <ele>2577.969</ele>
        <time>2012-07-08T14:38:46Z</time>
      </trkpt>
      <trkpt lat="42.585628" lon=".91811">
        <ele>2578.445</ele>
        <time>2012-07-08T14:38:57Z</time>
      </trkpt>
      <trkpt lat="42.58563" lon=".918118">
        <ele>2578.998</ele>
        <time>2012-07-08T14:39:18Z</time>
      </trkpt>
      <trkpt lat="42.585675" lon=".918211">
        <ele>2579.445</ele>
        <time>2012-07-08T14:39:32Z</time>
      </trkpt>
      <trkpt lat="42.585687" lon=".918217">
        <ele>2579.873</ele>
        <time>2012-07-08T14:39:35Z</time>
      </trkpt>
      <trkpt lat="42.585713" lon=".918274">
        <ele>2580.385</ele>
        <time>2012-07-08T14:39:43Z</time>
      </trkpt>
      <trkpt lat="42.585728" lon=".918306">
        <ele>2579.813</ele>
        <time>2012-07-08T14:39:57Z</time>
      </trkpt>
      <trkpt lat="42.585738" lon=".91835">
        <ele>2580.307</ele>
        <time>2012-07-08T14:40:08Z</time>
      </trkpt>
      <trkpt lat="42.585762" lon=".918382">
        <ele>2579.460</ele>
        <time>2012-07-08T14:40:19Z</time>
      </trkpt>
      <trkpt lat="42.585803" lon=".918443">
        <ele>2578.938</ele>
        <time>2012-07-08T14:40:32Z</time>
      </trkpt>
      <trkpt lat="42.585835" lon=".918537">
        <ele>2580.331</ele>
        <time>2012-07-08T14:40:44Z</time>
      </trkpt>
      <trkpt lat="42.58583" lon=".918556">
        <ele>2579.811</ele>
        <time>2012-07-08T14:40:47Z</time>
      </trkpt>
      <trkpt lat="42.585844" lon=".918593">
        <ele>2579.417</ele>
        <time>2012-07-08T14:40:58Z</time>
      </trkpt>
      <trkpt lat="42.585842" lon=".918601">
        <ele>2578.930</ele>
        <time>2012-07-08T14:41:04Z</time>
      </trkpt>
      <trkpt lat="42.585831" lon=".918654">
        <ele>2578.977</ele>
        <time>2012-07-08T14:41:15Z</time>
      </trkpt>
      <trkpt lat="42.585806" lon=".918708">
        <ele>2579.816</ele>
        <time>2012-07-08T14:41:27Z</time>
      </trkpt>
      <trkpt lat="42.585803" lon=".918785">
        <ele>2579.476</ele>
        <time>2012-07-08T14:41:39Z</time>
      </trkpt>
      <trkpt lat="42.585852" lon=".918804">
        <ele>2579.813</ele>
        <time>2012-07-08T14:41:51Z</time>
      </trkpt>
      <trkpt lat="42.585914" lon=".918875">
        <ele>2580.807</ele>
        <time>2012-07-08T14:42:03Z</time>
      </trkpt>
      <trkpt lat="42.585918" lon=".91887">
        <ele>2581.334</ele>
        <time>2012-07-08T14:42:24Z</time>
      </trkpt>
      <trkpt lat="42.585999" lon=".918862">
        <ele>2578.982</ele>
        <time>2012-07-08T14:42:37Z</time>
      </trkpt>
      <trkpt lat="42.586017" lon=".918932">
        <ele>2577.995</ele>
        <time>2012-07-08T14:42:51Z</time>
      </trkpt>
      <trkpt lat="42.58604" lon=".918982">
        <ele>2577.065</ele>
        <time>2012-07-08T14:43:02Z</time>
      </trkpt>
      <trkpt lat="42.586049" lon=".919013">
        <ele>2576.071</ele>
        <time>2012-07-08T14:43:15Z</time>
      </trkpt>
      <trkpt lat="42.586064" lon=".919084">
        <ele>2573.684</ele>
        <time>2012-07-08T14:43:30Z</time>
      </trkpt>
      <trkpt lat="42.586064" lon=".919102">
        <ele>2573.121</ele>
        <time>2012-07-08T14:43:46Z</time>
      </trkpt>
      <trkpt lat="42.586088" lon=".9192">
        <ele>2570.768</ele>
        <time>2012-07-08T14:44:00Z</time>
      </trkpt>
      <trkpt lat="42.586104" lon=".919272">
        <ele>2569.742</ele>
        <time>2012-07-08T14:44:12Z</time>
      </trkpt>
      <trkpt lat="42.586144" lon=".919295">
        <ele>2568.826</ele>
        <time>2012-07-08T14:44:25Z</time>
      </trkpt>
      <trkpt lat="42.586162" lon=".919337">
        <ele>2569.307</ele>
        <time>2012-07-08T14:44:36Z</time>
      </trkpt>
      <trkpt lat="42.586162" lon=".919337">
        <ele>2569.349</ele>
        <time>2012-07-08T14:44:40Z</time>
      </trkpt>
      <trkpt lat="42.586193" lon=".919364">
        <ele>2570.227</ele>
        <time>2012-07-08T14:44:50Z</time>
      </trkpt>
      <trkpt lat="42.586202" lon=".919374">
        <ele>2570.790</ele>
        <time>2012-07-08T14:45:02Z</time>
      </trkpt>
      <trkpt lat="42.586225" lon=".919488">
        <ele>2573.120</ele>
        <time>2012-07-08T14:45:15Z</time>
      </trkpt>
      <trkpt lat="42.586238" lon=".919537">
        <ele>2574.116</ele>
        <time>2012-07-08T14:45:27Z</time>
      </trkpt>
      <trkpt lat="42.586284" lon=".919596">
        <ele>2573.679</ele>
        <time>2012-07-08T14:45:38Z</time>
      </trkpt>
      <trkpt lat="42.586333" lon=".919664">
        <ele>2575.076</ele>
        <time>2012-07-08T14:45:50Z</time>
      </trkpt>
      <trkpt lat="42.58635" lon=".919742">
        <ele>2577.029</ele>
        <time>2012-07-08T14:46:04Z</time>
      </trkpt>
      <trkpt lat="42.586374" lon=".919818">
        <ele>2579.400</ele>
        <time>2012-07-08T14:46:18Z</time>
      </trkpt>
      <trkpt lat="42.586383" lon=".919865">
        <ele>2581.320</ele>
        <time>2012-07-08T14:46:35Z</time>
      </trkpt>
      <trkpt lat="42.586384" lon=".919874">
        <ele>2581.307</ele>
        <time>2012-07-08T14:46:44Z</time>
      </trkpt>
      <trkpt lat="42.586405" lon=".919919">
        <ele>2581.815</ele>
        <time>2012-07-08T14:46:49Z</time>
      </trkpt>
      <trkpt lat="42.586419" lon=".919992">
        <ele>2582.213</ele>
        <time>2012-07-08T14:46:58Z</time>
      </trkpt>
      <trkpt lat="42.586421" lon=".920061">
        <ele>2584.696</ele>
        <time>2012-07-08T14:47:08Z</time>
      </trkpt>
      <trkpt lat="42.586419" lon=".920154">
        <ele>2586.146</ele>
        <time>2012-07-08T14:47:17Z</time>
      </trkpt>
      <trkpt lat="42.586403" lon=".9202">
        <ele>2586.642</ele>
        <time>2012-07-08T14:47:23Z</time>
      </trkpt>
      <trkpt lat="42.586377" lon=".920228">
        <ele>2587.065</ele>
        <time>2012-07-08T14:47:27Z</time>
      </trkpt>
      <trkpt lat="42.586356" lon=".920236">
        <ele>2587.032</ele>
        <time>2012-07-08T14:47:30Z</time>
      </trkpt>
      <trkpt lat="42.586263" lon=".920272">
        <ele>2588.015</ele>
        <time>2012-07-08T14:47:44Z</time>
      </trkpt>
      <trkpt lat="42.586239" lon=".920276">
        <ele>2588.065</ele>
        <time>2012-07-08T14:47:47Z</time>
      </trkpt>
      <trkpt lat="42.586218" lon=".92028">
        <ele>2588.011</ele>
        <time>2012-07-08T14:47:49Z</time>
      </trkpt>
      <trkpt lat="42.586182" lon=".920416">
        <ele>2589.507</ele>
        <time>2012-07-08T14:48:03Z</time>
      </trkpt>
      <trkpt lat="42.586148" lon=".920515">
        <ele>2591.444</ele>
        <time>2012-07-08T14:48:15Z</time>
      </trkpt>
      <trkpt lat="42.586127" lon=".920553">
        <ele>2591.482</ele>
        <time>2012-07-08T14:48:19Z</time>
      </trkpt>
      <trkpt lat="42.586104" lon=".920588">
        <ele>2591.435</ele>
        <time>2012-07-08T14:48:25Z</time>
      </trkpt>
      <trkpt lat="42.586013" lon=".920659">
        <ele>2592.345</ele>
        <time>2012-07-08T14:48:38Z</time>
      </trkpt>
      <trkpt lat="42.585935" lon=".920727">
        <ele>2591.421</ele>
        <time>2012-07-08T14:48:53Z</time>
      </trkpt>
      <trkpt lat="42.585919" lon=".920739">
        <ele>2590.954</ele>
        <time>2012-07-08T14:49:13Z</time>
      </trkpt>
      <trkpt lat="42.585907" lon=".920782">
        <ele>2590.461</ele>
        <time>2012-07-08T14:49:18Z</time>
      </trkpt>
      <trkpt lat="42.585928" lon=".920828">
        <ele>2589.996</ele>
        <time>2012-07-08T14:49:23Z</time>
      </trkpt>
      <trkpt lat="42.585906" lon=".920915">
        <ele>2588.531</ele>
        <time>2012-07-08T14:49:38Z</time>
      </trkpt>
      <trkpt lat="42.585878" lon=".920962">
        <ele>2587.024</ele>
        <time>2012-07-08T14:49:54Z</time>
      </trkpt>
      <trkpt lat="42.585845" lon=".92097">
        <ele>2585.607</ele>
        <time>2012-07-08T14:50:07Z</time>
      </trkpt>
      <trkpt lat="42.585847" lon=".920993">
        <ele>2584.632</ele>
        <time>2012-07-08T14:50:18Z</time>
      </trkpt>
      <trkpt lat="42.58584" lon=".921093">
        <ele>2581.820</ele>
        <time>2012-07-08T14:50:33Z</time>
      </trkpt>
      <trkpt lat="42.585816" lon=".921125">
        <ele>2580.353</ele>
        <time>2012-07-08T14:50:47Z</time>
      </trkpt>
      <trkpt lat="42.585796" lon=".921169">
        <ele>2578.913</ele>
        <time>2012-07-08T14:51:05Z</time>
      </trkpt>
      <trkpt lat="42.585783" lon=".921211">
        <ele>2577.419</ele>
        <time>2012-07-08T14:51:19Z</time>
      </trkpt>
      <trkpt lat="42.585767" lon=".921263">
        <ele>2575.512</ele>
        <time>2012-07-08T14:51:33Z</time>
      </trkpt>
      <trkpt lat="42.585771" lon=".921312">
        <ele>2573.179</ele>
        <time>2012-07-08T14:51:49Z</time>
      </trkpt>
      <trkpt lat="42.585764" lon=".921384">
        <ele>2570.266</ele>
        <time>2012-07-08T14:52:03Z</time>
      </trkpt>
      <trkpt lat="42.585747" lon=".921427">
        <ele>2568.329</ele>
        <time>2012-07-08T14:52:17Z</time>
      </trkpt>
      <trkpt lat="42.585663" lon=".921523">
        <ele>2567.321</ele>
        <time>2012-07-08T14:52:34Z</time>
      </trkpt>
      <trkpt lat="42.585644" lon=".92154">
        <ele>2566.907</ele>
        <time>2012-07-08T14:52:46Z</time>
      </trkpt>
      <trkpt lat="42.585648" lon=".921569">
        <ele>2566.489</ele>
        <time>2012-07-08T14:53:11Z</time>
      </trkpt>
      <trkpt lat="42.585634" lon=".921621">
        <ele>2564.927</ele>
        <time>2012-07-08T14:53:23Z</time>
      </trkpt>
      <trkpt lat="42.585619" lon=".921685">
        <ele>2562.510</ele>
        <time>2012-07-08T14:53:36Z</time>
      </trkpt>
      <trkpt lat="42.585587" lon=".921717">
        <ele>2561.120</ele>
        <time>2012-07-08T14:53:49Z</time>
      </trkpt>
      <trkpt lat="42.585604" lon=".921776">
        <ele>2559.716</ele>
        <time>2012-07-08T14:53:53Z</time>
      </trkpt>
      <trkpt lat="42.585616" lon=".921836">
        <ele>2557.729</ele>
        <time>2012-07-08T14:53:57Z</time>
      </trkpt>
      <trkpt lat="42.585635" lon=".92187">
        <ele>2557.236</ele>
        <time>2012-07-08T14:54:01Z</time>
      </trkpt>
      <trkpt lat="42.585627" lon=".921904">
        <ele>2556.896</ele>
        <time>2012-07-08T14:54:04Z</time>
      </trkpt>
      <trkpt lat="42.585651" lon=".922027">
        <ele>2554.431</ele>
        <time>2012-07-08T14:54:17Z</time>
      </trkpt>
      <trkpt lat="42.585655" lon=".922036">
        <ele>2554.424</ele>
        <time>2012-07-08T14:54:18Z</time>
      </trkpt>
      <trkpt lat="42.585657" lon=".922077">
        <ele>2554.407</ele>
        <time>2012-07-08T14:54:21Z</time>
      </trkpt>
      <trkpt lat="42.585666" lon=".922106">
        <ele>2554.822</ele>
        <time>2012-07-08T14:54:34Z</time>
      </trkpt>
      <trkpt lat="42.585665" lon=".922119">
        <ele>2554.850</ele>
        <time>2012-07-08T14:54:48Z</time>
      </trkpt>
      <trkpt lat="42.585667" lon=".922133">
        <ele>2554.453</ele>
        <time>2012-07-08T14:55:00Z</time>
      </trkpt>
      <trkpt lat="42.585663" lon=".922136">
        <ele>2554.873</ele>
        <time>2012-07-08T14:55:20Z</time>
      </trkpt>
      <trkpt lat="42.585678" lon=".922166">
        <ele>2554.859</ele>
        <time>2012-07-08T14:55:28Z</time>
      </trkpt>
      <trkpt lat="42.585709" lon=".92222">
        <ele>2554.842</ele>
        <time>2012-07-08T14:55:34Z</time>
      </trkpt>
      <trkpt lat="42.585718" lon=".922314">
        <ele>2555.859</ele>
        <time>2012-07-08T14:55:47Z</time>
      </trkpt>
      <trkpt lat="42.585742" lon=".922384">
        <ele>2553.942</ele>
        <time>2012-07-08T14:56:00Z</time>
      </trkpt>
      <trkpt lat="42.585786" lon=".922464">
        <ele>2551.522</ele>
        <time>2012-07-08T14:56:12Z</time>
      </trkpt>
      <trkpt lat="42.585798" lon=".922511">
        <ele>2550.014</ele>
        <time>2012-07-08T14:56:16Z</time>
      </trkpt>
      <trkpt lat="42.585886" lon=".922678">
        <ele>2547.607</ele>
        <time>2012-07-08T14:56:31Z</time>
      </trkpt>
      <trkpt lat="42.585897" lon=".922721">
        <ele>2546.777</ele>
        <time>2012-07-08T14:56:36Z</time>
      </trkpt>
      <trkpt lat="42.585912" lon=".922788">
        <ele>2545.715</ele>
        <time>2012-07-08T14:56:41Z</time>
      </trkpt>
      <trkpt lat="42.585924" lon=".922832">
        <ele>2546.258</ele>
        <time>2012-07-08T14:56:46Z</time>
      </trkpt>
      <trkpt lat="42.585935" lon=".922866">
        <ele>2545.758</ele>
        <time>2012-07-08T14:56:49Z</time>
      </trkpt>
      <trkpt lat="42.586006" lon=".923023">
        <ele>2544.854</ele>
        <time>2012-07-08T14:57:03Z</time>
      </trkpt>
      <trkpt lat="42.586034" lon=".923092">
        <ele>2543.817</ele>
        <time>2012-07-08T14:57:16Z</time>
      </trkpt>
      <trkpt lat="42.586047" lon=".923137">
        <ele>2542.384</ele>
        <time>2012-07-08T14:57:33Z</time>
      </trkpt>
      <trkpt lat="42.586073" lon=".923185">
        <ele>2542.322</ele>
        <time>2012-07-08T14:57:46Z</time>
      </trkpt>
      <trkpt lat="42.586073" lon=".923203">
        <ele>2542.362</ele>
        <time>2012-07-08T14:58:07Z</time>
      </trkpt>
      <trkpt lat="42.586079" lon=".923286">
        <ele>2543.808</ele>
        <time>2012-07-08T14:58:18Z</time>
      </trkpt>
      <trkpt lat="42.586072" lon=".923336">
        <ele>2543.307</ele>
        <time>2012-07-08T14:58:32Z</time>
      </trkpt>
      <trkpt lat="42.586072" lon=".923425">
        <ele>2541.925</ele>
        <time>2012-07-08T14:58:46Z</time>
      </trkpt>
      <trkpt lat="42.586066" lon=".923457">
        <ele>2540.943</ele>
        <time>2012-07-08T14:58:58Z</time>
      </trkpt>
      <trkpt lat="42.586034" lon=".923507">
        <ele>2540.436</ele>
        <time>2012-07-08T14:59:13Z</time>
      </trkpt>
      <trkpt lat="42.586015" lon=".923541">
        <ele>2539.916</ele>
        <time>2012-07-08T14:59:27Z</time>
      </trkpt>
      <trkpt lat="42.586001" lon=".923622">
        <ele>2538.582</ele>
        <time>2012-07-08T14:59:40Z</time>
      </trkpt>
      <trkpt lat="42.585992" lon=".923671">
        <ele>2537.535</ele>
        <time>2012-07-08T14:59:53Z</time>
      </trkpt>
      <trkpt lat="42.58599" lon=".923717">
        <ele>2535.162</ele>
        <time>2012-07-08T15:00:07Z</time>
      </trkpt>
      <trkpt lat="42.585989" lon=".923728">
        <ele>2534.774</ele>
        <time>2012-07-08T15:00:23Z</time>
      </trkpt>
      <trkpt lat="42.585983" lon=".923732">
        <ele>2534.256</ele>
        <time>2012-07-08T15:00:45Z</time>
      </trkpt>
      <trkpt lat="42.585953" lon=".923758">
        <ele>2532.721</ele>
        <time>2012-07-08T15:00:59Z</time>
      </trkpt>
      <trkpt lat="42.585948" lon=".9238">
        <ele>2531.307</ele>
        <time>2012-07-08T15:01:14Z</time>
      </trkpt>
      <trkpt lat="42.585932" lon=".923828">
        <ele>2530.820</ele>
        <time>2012-07-08T15:01:29Z</time>
      </trkpt>
      <trkpt lat="42.585929" lon=".923871">
        <ele>2529.968</ele>
        <time>2012-07-08T15:01:44Z</time>
      </trkpt>
      <trkpt lat="42.585931" lon=".923873">
        <ele>2529.491</ele>
        <time>2012-07-08T15:01:58Z</time>
      </trkpt>
      <trkpt lat="42.585928" lon=".923877">
        <ele>2528.911</ele>
        <time>2012-07-08T15:02:21Z</time>
      </trkpt>
      <trkpt lat="42.585912" lon=".923905">
        <ele>2527.977</ele>
        <time>2012-07-08T15:02:33Z</time>
      </trkpt>
      <trkpt lat="42.585898" lon=".923935">
        <ele>2526.080</ele>
        <time>2012-07-08T15:02:47Z</time>
      </trkpt>
      <trkpt lat="42.585892" lon=".923989">
        <ele>2524.197</ele>
        <time>2012-07-08T15:03:01Z</time>
      </trkpt>
      <trkpt lat="42.585902" lon=".924051">
        <ele>2521.724</ele>
        <time>2012-07-08T15:03:14Z</time>
      </trkpt>
      <trkpt lat="42.585889" lon=".924111">
        <ele>2520.204</ele>
        <time>2012-07-08T15:03:28Z</time>
      </trkpt>
      <trkpt lat="42.585862" lon=".924145">
        <ele>2519.814</ele>
        <time>2012-07-08T15:03:40Z</time>
      </trkpt>
      <trkpt lat="42.58586" lon=".924146">
        <ele>2519.807</ele>
        <time>2012-07-08T15:03:53Z</time>
      </trkpt>
      <trkpt lat="42.585849" lon=".92414">
        <ele>2518.835</ele>
        <time>2012-07-08T15:04:06Z</time>
      </trkpt>
      <trkpt lat="42.585823" lon=".924099">
        <ele>2517.433</ele>
        <time>2012-07-08T15:04:18Z</time>
      </trkpt>
      <trkpt lat="42.585795" lon=".924078">
        <ele>2516.496</ele>
        <time>2012-07-08T15:04:31Z</time>
      </trkpt>
      <trkpt lat="42.585774" lon=".924075">
        <ele>2514.546</ele>
        <time>2012-07-08T15:04:41Z</time>
      </trkpt>
      <trkpt lat="42.585767" lon=".924135">
        <ele>2512.532</ele>
        <time>2012-07-08T15:04:53Z</time>
      </trkpt>
      <trkpt lat="42.585747" lon=".924192">
        <ele>2511.195</ele>
        <time>2012-07-08T15:05:06Z</time>
      </trkpt>
      <trkpt lat="42.585737" lon=".924197">
        <ele>2511.192</ele>
        <time>2012-07-08T15:05:22Z</time>
      </trkpt>
      <trkpt lat="42.585728" lon=".924179">
        <ele>2511.183</ele>
        <time>2012-07-08T15:05:39Z</time>
      </trkpt>
      <trkpt lat="42.585721" lon=".924167">
        <ele>2509.725</ele>
        <time>2012-07-08T15:05:55Z</time>
      </trkpt>
      <trkpt lat="42.585702" lon=".924167">
        <ele>2507.717</ele>
        <time>2012-07-08T15:06:10Z</time>
      </trkpt>
      <trkpt lat="42.585699" lon=".924169">
        <ele>2507.707</ele>
        <time>2012-07-08T15:06:28Z</time>
      </trkpt>
      <trkpt lat="42.585647" lon=".924121">
        <ele>2504.991</ele>
        <time>2012-07-08T15:06:43Z</time>
      </trkpt>
      <trkpt lat="42.585642" lon=".924105">
        <ele>2503.499</ele>
        <time>2012-07-08T15:06:58Z</time>
      </trkpt>
      <trkpt lat="42.585613" lon=".924103">
        <ele>2501.552</ele>
        <time>2012-07-08T15:07:11Z</time>
      </trkpt>
      <trkpt lat="42.585597" lon=".924071">
        <ele>2501.532</ele>
        <time>2012-07-08T15:07:23Z</time>
      </trkpt>
      <trkpt lat="42.585574" lon=".924093">
        <ele>2500.178</ele>
        <time>2012-07-08T15:07:38Z</time>
      </trkpt>
      <trkpt lat="42.585563" lon=".924105">
        <ele>2498.641</ele>
        <time>2012-07-08T15:07:52Z</time>
      </trkpt>
      <trkpt lat="42.585545" lon=".924082">
        <ele>2497.288</ele>
        <time>2012-07-08T15:08:08Z</time>
      </trkpt>
      <trkpt lat="42.585521" lon=".924054">
        <ele>2495.296</ele>
        <time>2012-07-08T15:08:19Z</time>
      </trkpt>
      <trkpt lat="42.585498" lon=".924037">
        <ele>2494.331</ele>
        <time>2012-07-08T15:08:32Z</time>
      </trkpt>
      <trkpt lat="42.585488" lon=".924029">
        <ele>2493.824</ele>
        <time>2012-07-08T15:08:43Z</time>
      </trkpt>
      <trkpt lat="42.58547" lon=".924016">
        <ele>2492.807</ele>
        <time>2012-07-08T15:08:57Z</time>
      </trkpt>
      <trkpt lat="42.58546" lon=".923992">
        <ele>2491.962</ele>
        <time>2012-07-08T15:09:12Z</time>
      </trkpt>
      <trkpt lat="42.585442" lon=".92398">
        <ele>2490.460</ele>
        <time>2012-07-08T15:09:25Z</time>
      </trkpt>
      <trkpt lat="42.585427" lon=".923973">
        <ele>2490.023</ele>
        <time>2012-07-08T15:09:42Z</time>
      </trkpt>
      <trkpt lat="42.585406" lon=".923961">
        <ele>2489.593</ele>
        <time>2012-07-08T15:09:57Z</time>
      </trkpt>
      <trkpt lat="42.585392" lon=".923965">
        <ele>2489.069</ele>
        <time>2012-07-08T15:10:13Z</time>
      </trkpt>
      <trkpt lat="42.585375" lon=".923962">
        <ele>2487.182</ele>
        <time>2012-07-08T15:10:26Z</time>
      </trkpt>
      <trkpt lat="42.585338" lon=".923938">
        <ele>2486.149</ele>
        <time>2012-07-08T15:10:42Z</time>
      </trkpt>
      <trkpt lat="42.585324" lon=".923941">
        <ele>2485.284</ele>
        <time>2012-07-08T15:10:54Z</time>
      </trkpt>
      <trkpt lat="42.585303" lon=".923958">
        <ele>2482.707</ele>
        <time>2012-07-08T15:11:06Z</time>
      </trkpt>
      <trkpt lat="42.585286" lon=".923964">
        <ele>2481.817</ele>
        <time>2012-07-08T15:11:20Z</time>
      </trkpt>
      <trkpt lat="42.585265" lon=".923977">
        <ele>2479.407</ele>
        <time>2012-07-08T15:11:32Z</time>
      </trkpt>
      <trkpt lat="42.585265" lon=".923975">
        <ele>2478.941</ele>
        <time>2012-07-08T15:11:50Z</time>
      </trkpt>
      <trkpt lat="42.58525" lon=".923974">
        <ele>2477.969</ele>
        <time>2012-07-08T15:12:06Z</time>
      </trkpt>
      <trkpt lat="42.58525" lon=".923974">
        <ele>2477.932</ele>
        <time>2012-07-08T15:12:30Z</time>
      </trkpt>
      <trkpt lat="42.585237" lon=".923973">
        <ele>2477.562</ele>
        <time>2012-07-08T15:13:00Z</time>
      </trkpt>
      <trkpt lat="42.585222" lon=".924001">
        <ele>2475.518</ele>
        <time>2012-07-08T15:13:12Z</time>
      </trkpt>
      <trkpt lat="42.585193" lon=".924023">
        <ele>2473.641</ele>
        <time>2012-07-08T15:13:31Z</time>
      </trkpt>
      <trkpt lat="42.585172" lon=".92404">
        <ele>2472.278</ele>
        <time>2012-07-08T15:13:43Z</time>
      </trkpt>
      <trkpt lat="42.585138" lon=".924081">
        <ele>2469.896</ele>
        <time>2012-07-08T15:13:54Z</time>
      </trkpt>
      <trkpt lat="42.585098" lon=".924086">
        <ele>2466.431</ele>
        <time>2012-07-08T15:14:08Z</time>
      </trkpt>
      <trkpt lat="42.585045" lon=".924077">
        <ele>2465.024</ele>
        <time>2012-07-08T15:14:20Z</time>
      </trkpt>
      <trkpt lat="42.585008" lon=".924062">
        <ele>2464.507</ele>
        <time>2012-07-08T15:14:31Z</time>
      </trkpt>
      <trkpt lat="42.584988" lon=".924068">
        <ele>2463.542</ele>
        <time>2012-07-08T15:14:52Z</time>
      </trkpt>
      <trkpt lat="42.584975" lon=".924077">
        <ele>2461.650</ele>
        <time>2012-07-08T15:15:03Z</time>
      </trkpt>
      <trkpt lat="42.584954" lon=".924086">
        <ele>2460.243</ele>
        <time>2012-07-08T15:15:15Z</time>
      </trkpt>
      <trkpt lat="42.584918" lon=".924098">
        <ele>2458.723</ele>
        <time>2012-07-08T15:15:29Z</time>
      </trkpt>
      <trkpt lat="42.584903" lon=".924101">
        <ele>2457.339</ele>
        <time>2012-07-08T15:15:39Z</time>
      </trkpt>
      <trkpt lat="42.584889" lon=".924092">
        <ele>2455.862</ele>
        <time>2012-07-08T15:15:54Z</time>
      </trkpt>
      <trkpt lat="42.584868" lon=".924094">
        <ele>2454.429</ele>
        <time>2012-07-08T15:16:07Z</time>
      </trkpt>
      <trkpt lat="42.58484" lon=".924093">
        <ele>2452.931</ele>
        <time>2012-07-08T15:16:17Z</time>
      </trkpt>
      <trkpt lat="42.58481" lon=".924068">
        <ele>2451.561</ele>
        <time>2012-07-08T15:16:31Z</time>
      </trkpt>
      <trkpt lat="42.584792" lon=".924033">
        <ele>2449.107</ele>
        <time>2012-07-08T15:16:44Z</time>
      </trkpt>
      <trkpt lat="42.584768" lon=".924037">
        <ele>2447.707</ele>
        <time>2012-07-08T15:17:00Z</time>
      </trkpt>
      <trkpt lat="42.584738" lon=".92407">
        <ele>2444.886</ele>
        <time>2012-07-08T15:17:12Z</time>
      </trkpt>
      <trkpt lat="42.584703" lon=".924094">
        <ele>2442.454</ele>
        <time>2012-07-08T15:17:25Z</time>
      </trkpt>
      <trkpt lat="42.584669" lon=".924105">
        <ele>2440.047</ele>
        <time>2012-07-08T15:17:39Z</time>
      </trkpt>
      <trkpt lat="42.584644" lon=".924094">
        <ele>2438.517</ele>
        <time>2012-07-08T15:17:55Z</time>
      </trkpt>
      <trkpt lat="42.584587" lon=".924105">
        <ele>2435.633</ele>
        <time>2012-07-08T15:18:10Z</time>
      </trkpt>
      <trkpt lat="42.58457" lon=".924117">
        <ele>2434.726</ele>
        <time>2012-07-08T15:18:13Z</time>
      </trkpt>
      <trkpt lat="42.584547" lon=".924133">
        <ele>2432.383</ele>
        <time>2012-07-08T15:18:24Z</time>
      </trkpt>
      <trkpt lat="42.584545" lon=".924105">
        <ele>2430.854</ele>
        <time>2012-07-08T15:18:37Z</time>
      </trkpt>
      <trkpt lat="42.584544" lon=".924082">
        <ele>2428.956</ele>
        <time>2012-07-08T15:18:51Z</time>
      </trkpt>
      <trkpt lat="42.584533" lon=".92408">
        <ele>2428.011</ele>
        <time>2012-07-08T15:19:05Z</time>
      </trkpt>
      <trkpt lat="42.584517" lon=".92407">
        <ele>2427.007</ele>
        <time>2012-07-08T15:19:18Z</time>
      </trkpt>
      <trkpt lat="42.584467" lon=".924071">
        <ele>2425.558</ele>
        <time>2012-07-08T15:19:33Z</time>
      </trkpt>
      <trkpt lat="42.58443" lon=".92406">
        <ele>2424.156</ele>
        <time>2012-07-08T15:19:46Z</time>
      </trkpt>
      <trkpt lat="42.584402" lon=".924035">
        <ele>2423.189</ele>
        <time>2012-07-08T15:19:56Z</time>
      </trkpt>
      <trkpt lat="42.58439" lon=".924036">
        <ele>2422.249</ele>
        <time>2012-07-08T15:20:08Z</time>
      </trkpt>
      <trkpt lat="42.58438" lon=".924001">
        <ele>2420.395</ele>
        <time>2012-07-08T15:20:25Z</time>
      </trkpt>
      <trkpt lat="42.584376" lon=".923963">
        <ele>2418.338</ele>
        <time>2012-07-08T15:20:39Z</time>
      </trkpt>
      <trkpt lat="42.58436" lon=".923949">
        <ele>2416.445</ele>
        <time>2012-07-08T15:20:53Z</time>
      </trkpt>
      <trkpt lat="42.584332" lon=".923943">
        <ele>2414.516</ele>
        <time>2012-07-08T15:21:04Z</time>
      </trkpt>
      <trkpt lat="42.584323" lon=".923945">
        <ele>2413.576</ele>
        <time>2012-07-08T15:21:20Z</time>
      </trkpt>
      <trkpt lat="42.584303" lon=".923957">
        <ele>2411.113</ele>
        <time>2012-07-08T15:21:34Z</time>
      </trkpt>
      <trkpt lat="42.584291" lon=".92395">
        <ele>2409.207</ele>
        <time>2012-07-08T15:21:47Z</time>
      </trkpt>
      <trkpt lat="42.58426" lon=".923922">
        <ele>2407.834</ele>
        <time>2012-07-08T15:21:57Z</time>
      </trkpt>
      <trkpt lat="42.584258" lon=".923871">
        <ele>2406.352</ele>
        <time>2012-07-08T15:22:09Z</time>
      </trkpt>
      <trkpt lat="42.584257" lon=".92385">
        <ele>2405.825</ele>
        <time>2012-07-08T15:22:21Z</time>
      </trkpt>
      <trkpt lat="42.584222" lon=".923861">
        <ele>2403.955</ele>
        <time>2012-07-08T15:22:34Z</time>
      </trkpt>
      <trkpt lat="42.584212" lon=".923844">
        <ele>2402.551</ele>
        <time>2012-07-08T15:22:50Z</time>
      </trkpt>
      <trkpt lat="42.58417" lon=".923851">
        <ele>2402.544</ele>
        <time>2012-07-08T15:23:06Z</time>
      </trkpt>
      <trkpt lat="42.584157" lon=".923835">
        <ele>2402.061</ele>
        <time>2012-07-08T15:23:19Z</time>
      </trkpt>
      <trkpt lat="42.584154" lon=".92379">
        <ele>2402.021</ele>
        <time>2012-07-08T15:23:35Z</time>
      </trkpt>
      <trkpt lat="42.584132" lon=".923782">
        <ele>2402.041</ele>
        <time>2012-07-08T15:23:48Z</time>
      </trkpt>
      <trkpt lat="42.58413" lon=".923784">
        <ele>2402.005</ele>
        <time>2012-07-08T15:24:06Z</time>
      </trkpt>
      <trkpt lat="42.584071" lon=".923787">
        <ele>2402.507</ele>
        <time>2012-07-08T15:24:20Z</time>
      </trkpt>
      <trkpt lat="42.58404" lon=".923789">
        <ele>2402.035</ele>
        <time>2012-07-08T15:24:35Z</time>
      </trkpt>
      <trkpt lat="42.58401" lon=".923774">
        <ele>2403.083</ele>
        <time>2012-07-08T15:24:48Z</time>
      </trkpt>
      <trkpt lat="42.583996" lon=".923771">
        <ele>2403.046</ele>
        <time>2012-07-08T15:25:04Z</time>
      </trkpt>
      <trkpt lat="42.583942" lon=".923791">
        <ele>2403.436</ele>
        <time>2012-07-08T15:25:15Z</time>
      </trkpt>
      <trkpt lat="42.583942" lon=".923791">
        <ele>2403.452</ele>
        <time>2012-07-08T15:25:30Z</time>
      </trkpt>
      <trkpt lat="42.583942" lon=".923791">
        <ele>2403.425</ele>
        <time>2012-07-08T15:25:48Z</time>
      </trkpt>
      <trkpt lat="42.583941" lon=".923789">
        <ele>2403.462</ele>
        <time>2012-07-08T15:26:03Z</time>
      </trkpt>
      <trkpt lat="42.583941" lon=".923789">
        <ele>2403.439</ele>
        <time>2012-07-08T15:26:28Z</time>
      </trkpt>
      <trkpt lat="42.58394" lon=".923789">
        <ele>2403.401</ele>
        <time>2012-07-08T15:26:46Z</time>
      </trkpt>
      <trkpt lat="42.58394" lon=".923789">
        <ele>2403.421</ele>
        <time>2012-07-08T15:27:00Z</time>
      </trkpt>
      <trkpt lat="42.58394" lon=".923789">
        <ele>2403.407</ele>
        <time>2012-07-08T15:27:14Z</time>
      </trkpt>
      <trkpt lat="42.583936" lon=".92379">
        <ele>2403.486</ele>
        <time>2012-07-08T15:27:39Z</time>
      </trkpt>
      <trkpt lat="42.583936" lon=".92379">
        <ele>2403.424</ele>
        <time>2012-07-08T15:27:57Z</time>
      </trkpt>
      <trkpt lat="42.583932" lon=".923787">
        <ele>2403.447</ele>
        <time>2012-07-08T15:28:11Z</time>
      </trkpt>
      <trkpt lat="42.583932" lon=".923787">
        <ele>2403.477</ele>
        <time>2012-07-08T15:28:27Z</time>
      </trkpt>
      <trkpt lat="42.583928" lon=".923786">
        <ele>2403.073</ele>
        <time>2012-07-08T15:28:39Z</time>
      </trkpt>
      <trkpt lat="42.583928" lon=".923786">
        <ele>2403.036</ele>
        <time>2012-07-08T15:28:54Z</time>
      </trkpt>
      <trkpt lat="42.583928" lon=".923786">
        <ele>2403.093</ele>
        <time>2012-07-08T15:29:07Z</time>
      </trkpt>
      <trkpt lat="42.583896" lon=".923793">
        <ele>2403.025</ele>
        <time>2012-07-08T15:29:20Z</time>
      </trkpt>
      <trkpt lat="42.583896" lon=".923793">
        <ele>2403.026</ele>
        <time>2012-07-08T15:29:35Z</time>
      </trkpt>
      <trkpt lat="42.583896" lon=".923793">
        <ele>2403.008</ele>
        <time>2012-07-08T15:29:54Z</time>
      </trkpt>
      <trkpt lat="42.583891" lon=".923793">
        <ele>2403.007</ele>
        <time>2012-07-08T15:30:10Z</time>
      </trkpt>
      <trkpt lat="42.583885" lon=".923793">
        <ele>2403.025</ele>
        <time>2012-07-08T15:30:27Z</time>
      </trkpt>
      <trkpt lat="42.583877" lon=".923794">
        <ele>2403.063</ele>
        <time>2012-07-08T15:30:43Z</time>
      </trkpt>
      <trkpt lat="42.583881" lon=".923789">
        <ele>2403.016</ele>
        <time>2012-07-08T15:31:01Z</time>
      </trkpt>
      <trkpt lat="42.583881" lon=".923789">
        <ele>2403.076</ele>
        <time>2012-07-08T15:31:14Z</time>
      </trkpt>
      <trkpt lat="42.583872" lon=".923786">
        <ele>2403.482</ele>
        <time>2012-07-08T15:31:26Z</time>
      </trkpt>
      <trkpt lat="42.583872" lon=".923786">
        <ele>2403.475</ele>
        <time>2012-07-08T15:31:43Z</time>
      </trkpt>
      <trkpt lat="42.583858" lon=".923781">
        <ele>2403.462</ele>
        <time>2012-07-08T15:31:59Z</time>
      </trkpt>
      <trkpt lat="42.583858" lon=".923781">
        <ele>2403.498</ele>
        <time>2012-07-08T15:32:12Z</time>
      </trkpt>
      <trkpt lat="42.583858" lon=".923781">
        <ele>2403.415</ele>
        <time>2012-07-08T15:32:30Z</time>
      </trkpt>
      <trkpt lat="42.583848" lon=".92377">
        <ele>2403.026</ele>
        <time>2012-07-08T15:32:45Z</time>
      </trkpt>
      <trkpt lat="42.583848" lon=".92377">
        <ele>2403.007</ele>
        <time>2012-07-08T15:33:09Z</time>
      </trkpt>
      <trkpt lat="42.583832" lon=".923766">
        <ele>2403.062</ele>
        <time>2012-07-08T15:33:39Z</time>
      </trkpt>
      <trkpt lat="42.583814" lon=".923759">
        <ele>2403.070</ele>
        <time>2012-07-08T15:34:16Z</time>
      </trkpt>
      <trkpt lat="42.583797" lon=".923754">
        <ele>2403.023</ele>
        <time>2012-07-08T15:34:50Z</time>
      </trkpt>
      <trkpt lat="42.58378" lon=".923747">
        <ele>2403.083</ele>
        <time>2012-07-08T15:35:24Z</time>
      </trkpt>
      <trkpt lat="42.583752" lon=".923723">
        <ele>2403.059</ele>
        <time>2012-07-08T15:36:00Z</time>
      </trkpt>
      <trkpt lat="42.583752" lon=".923723">
        <ele>2403.042</ele>
        <time>2012-07-08T15:36:24Z</time>
      </trkpt>
      <trkpt lat="42.58374" lon=".923715">
        <ele>2403.059</ele>
        <time>2012-07-08T15:36:38Z</time>
      </trkpt>
      <trkpt lat="42.58374" lon=".923715">
        <ele>2403.077</ele>
        <time>2012-07-08T15:36:52Z</time>
      </trkpt>
      <trkpt lat="42.58372" lon=".923703">
        <ele>2403.461</ele>
        <time>2012-07-08T15:37:11Z</time>
      </trkpt>
      <trkpt lat="42.583644" lon=".923677">
        <ele>2403.427</ele>
        <time>2012-07-08T15:37:23Z</time>
      </trkpt>
      <trkpt lat="42.583644" lon=".923677">
        <ele>2403.407</ele>
        <time>2012-07-08T15:37:37Z</time>
      </trkpt>
      <trkpt lat="42.583644" lon=".923677">
        <ele>2403.460</ele>
        <time>2012-07-08T15:37:49Z</time>
      </trkpt>
      <trkpt lat="42.583644" lon=".923677">
        <ele>2403.438</ele>
        <time>2012-07-08T15:38:00Z</time>
      </trkpt>
      <trkpt lat="42.583586" lon=".92363">
        <ele>2404.491</ele>
        <time>2012-07-08T15:38:11Z</time>
      </trkpt>
      <trkpt lat="42.583586" lon=".92363">
        <ele>2404.421</ele>
        <time>2012-07-08T15:38:26Z</time>
      </trkpt>
      <trkpt lat="42.583586" lon=".92363">
        <ele>2404.447</ele>
        <time>2012-07-08T15:38:41Z</time>
      </trkpt>
      <trkpt lat="42.583558" lon=".923615">
        <ele>2404.450</ele>
        <time>2012-07-08T15:38:58Z</time>
      </trkpt>
      <trkpt lat="42.583559" lon=".923618">
        <ele>2404.437</ele>
        <time>2012-07-08T15:39:15Z</time>
      </trkpt>
      <trkpt lat="42.583522" lon=".9236">
        <ele>2404.468</ele>
        <time>2012-07-08T15:39:27Z</time>
      </trkpt>
      <trkpt lat="42.583525" lon=".923596">
        <ele>2404.442</ele>
        <time>2012-07-08T15:39:41Z</time>
      </trkpt>
      <trkpt lat="42.583525" lon=".923596">
        <ele>2404.426</ele>
        <time>2012-07-08T15:39:57Z</time>
      </trkpt>
      <trkpt lat="42.583363" lon=".923519">
        <ele>2404.907</ele>
        <time>2012-07-08T15:40:14Z</time>
      </trkpt>
      <trkpt lat="42.583348" lon=".923516">
        <ele>2404.919</ele>
        <time>2012-07-08T15:40:29Z</time>
      </trkpt>
      <trkpt lat="42.583158" lon=".92352">
        <ele>2404.947</ele>
        <time>2012-07-08T15:40:43Z</time>
      </trkpt>
      <trkpt lat="42.583109" lon=".923525">
        <ele>2404.930</ele>
        <time>2012-07-08T15:41:06Z</time>
      </trkpt>
      <trkpt lat="42.58307" lon=".92353">
        <ele>2404.990</ele>
        <time>2012-07-08T15:41:18Z</time>
      </trkpt>
      <trkpt lat="42.58307" lon=".92353">
        <ele>2404.996</ele>
        <time>2012-07-08T15:41:35Z</time>
      </trkpt>
      <trkpt lat="42.58242" lon=".923295">
        <ele>2527.079</ele>
        <time>2012-07-08T15:41:37Z</time>
      </trkpt>
      <trkpt lat="42.582098" lon=".923503">
        <ele>2623.116</ele>
        <time>2012-07-08T15:41:38Z</time>
      </trkpt>
      <trkpt lat="42.582059" lon=".923605">
        <ele>2623.152</ele>
        <time>2012-07-08T15:41:39Z</time>
      </trkpt>
      <trkpt lat="42.581994" lon=".923735">
        <ele>2623.153</ele>
        <time>2012-07-08T15:41:52Z</time>
      </trkpt>
      <trkpt lat="42.581957" lon=".923804">
        <ele>2623.108</ele>
        <time>2012-07-08T15:42:06Z</time>
      </trkpt>
      <trkpt lat="42.581928" lon=".92381">
        <ele>2623.107</ele>
        <time>2012-07-08T15:42:22Z</time>
      </trkpt>
      <trkpt lat="42.581911" lon=".923775">
        <ele>2623.178</ele>
        <time>2012-07-08T15:42:43Z</time>
      </trkpt>
      <trkpt lat="42.581892" lon=".923781">
        <ele>2623.156</ele>
        <time>2012-07-08T15:42:59Z</time>
      </trkpt>
      <trkpt lat="42.581884" lon=".923846">
        <ele>2622.699</ele>
        <time>2012-07-08T15:43:11Z</time>
      </trkpt>
      <trkpt lat="42.581887" lon=".923855">
        <ele>2622.649</ele>
        <time>2012-07-08T15:43:26Z</time>
      </trkpt>
      <trkpt lat="42.581887" lon=".923855">
        <ele>2622.665</ele>
        <time>2012-07-08T15:43:39Z</time>
      </trkpt>
      <trkpt lat="42.581856" lon=".92385">
        <ele>2622.688</ele>
        <time>2012-07-08T15:43:52Z</time>
      </trkpt>
      <trkpt lat="42.581849" lon=".923823">
        <ele>2622.665</ele>
        <time>2012-07-08T15:44:04Z</time>
      </trkpt>
      <trkpt lat="42.581838" lon=".923815">
        <ele>2622.656</ele>
        <time>2012-07-08T15:44:17Z</time>
      </trkpt>
      <trkpt lat="42.581792" lon=".923776">
        <ele>2624.159</ele>
        <time>2012-07-08T15:44:22Z</time>
      </trkpt>
      <trkpt lat="42.581768" lon=".923819">
        <ele>2624.114</ele>
        <time>2012-07-08T15:44:34Z</time>
      </trkpt>
      <trkpt lat="42.581744" lon=".923825">
        <ele>2624.107</ele>
        <time>2012-07-08T15:44:49Z</time>
      </trkpt>
      <trkpt lat="42.581711" lon=".923797">
        <ele>2624.138</ele>
        <time>2012-07-08T15:45:04Z</time>
      </trkpt>
      <trkpt lat="42.581678" lon=".923761">
        <ele>2624.176</ele>
        <time>2012-07-08T15:45:19Z</time>
      </trkpt>
      <trkpt lat="42.581665" lon=".923784">
        <ele>2624.139</ele>
        <time>2012-07-08T15:45:34Z</time>
      </trkpt>
      <trkpt lat="42.581651" lon=".923808">
        <ele>2624.119</ele>
        <time>2012-07-08T15:45:45Z</time>
      </trkpt>
      <trkpt lat="42.581644" lon=".923841">
        <ele>2624.145</ele>
        <time>2012-07-08T15:45:57Z</time>
      </trkpt>
      <trkpt lat="42.581625" lon=".923845">
        <ele>2624.198</ele>
        <time>2012-07-08T15:46:09Z</time>
      </trkpt>
      <trkpt lat="42.581622" lon=".923846">
        <ele>2624.125</ele>
        <time>2012-07-08T15:46:25Z</time>
      </trkpt>
      <trkpt lat="42.581614" lon=".923855">
        <ele>2624.183</ele>
        <time>2012-07-08T15:46:42Z</time>
      </trkpt>
      <trkpt lat="42.58161" lon=".923868">
        <ele>2624.125</ele>
        <time>2012-07-08T15:46:57Z</time>
      </trkpt>
      <trkpt lat="42.58161" lon=".923868">
        <ele>2624.117</ele>
        <time>2012-07-08T15:47:13Z</time>
      </trkpt>
      <trkpt lat="42.581407" lon=".924034">
        <ele>2672.607</ele>
        <time>2012-07-08T15:47:21Z</time>
      </trkpt>
      <trkpt lat="42.581281" lon=".924137">
        <ele>2721.231</ele>
        <time>2012-07-08T15:47:22Z</time>
      </trkpt>
      <trkpt lat="42.58116" lon=".924218">
        <ele>2766.329</ele>
        <time>2012-07-08T15:47:23Z</time>
      </trkpt>
      <trkpt lat="42.581165" lon=".924221">
        <ele>2766.372</ele>
        <time>2012-07-08T15:47:24Z</time>
      </trkpt>
      <trkpt lat="42.581158" lon=".924155">
        <ele>2766.352</ele>
        <time>2012-07-08T15:47:36Z</time>
      </trkpt>
      <trkpt lat="42.581153" lon=".92419">
        <ele>2766.358</ele>
        <time>2012-07-08T15:47:50Z</time>
      </trkpt>
      <trkpt lat="42.581157" lon=".924149">
        <ele>2766.361</ele>
        <time>2012-07-08T15:48:07Z</time>
      </trkpt>
      <trkpt lat="42.581136" lon=".924111">
        <ele>2766.348</ele>
        <time>2012-07-08T15:48:19Z</time>
      </trkpt>
      <trkpt lat="42.581117" lon=".924084">
        <ele>2766.357</ele>
        <time>2012-07-08T15:48:31Z</time>
      </trkpt>
      <trkpt lat="42.58109" lon=".924093">
        <ele>2766.300</ele>
        <time>2012-07-08T15:48:43Z</time>
      </trkpt>
      <trkpt lat="42.581045" lon=".924034">
        <ele>2766.320</ele>
        <time>2012-07-08T15:48:55Z</time>
      </trkpt>
      <trkpt lat="42.580989" lon=".924177">
        <ele>2289.007</ele>
        <time>2012-07-08T15:52:29Z</time>
      </trkpt>
      <trkpt lat="42.580913" lon=".924345">
        <ele>2289.038</ele>
        <time>2012-07-08T15:52:42Z</time>
      </trkpt>
      <trkpt lat="42.580819" lon=".924447">
        <ele>2289.596</ele>
        <time>2012-07-08T15:52:55Z</time>
      </trkpt>
      <trkpt lat="42.580758" lon=".92454">
        <ele>2289.029</ele>
        <time>2012-07-08T15:53:07Z</time>
      </trkpt>
      <trkpt lat="42.580736" lon=".924596">
        <ele>2288.639</ele>
        <time>2012-07-08T15:53:14Z</time>
      </trkpt>
      <trkpt lat="42.580713" lon=".924615">
        <ele>2289.525</ele>
        <time>2012-07-08T15:53:17Z</time>
      </trkpt>
      <trkpt lat="42.580655" lon=".924719">
        <ele>2291.098</ele>
        <time>2012-07-08T15:53:29Z</time>
      </trkpt>
      <trkpt lat="42.58064" lon=".924762">
        <ele>2290.015</ele>
        <time>2012-07-08T15:53:36Z</time>
      </trkpt>
      <trkpt lat="42.580602" lon=".924845">
        <ele>2288.612</ele>
        <time>2012-07-08T15:53:49Z</time>
      </trkpt>
      <trkpt lat="42.580589" lon=".924922">
        <ele>2287.632</ele>
        <time>2012-07-08T15:53:59Z</time>
      </trkpt>
      <trkpt lat="42.580556" lon=".924991">
        <ele>2284.205</ele>
        <time>2012-07-08T15:54:12Z</time>
      </trkpt>
      <trkpt lat="42.58055" lon=".925067">
        <ele>2282.307</ele>
        <time>2012-07-08T15:54:24Z</time>
      </trkpt>
      <trkpt lat="42.580568" lon=".92511">
        <ele>2280.934</ele>
        <time>2012-07-08T15:54:37Z</time>
      </trkpt>
      <trkpt lat="42.580554" lon=".92513">
        <ele>2280.412</ele>
        <time>2012-07-08T15:54:42Z</time>
      </trkpt>
      <trkpt lat="42.580538" lon=".925182">
        <ele>2279.935</ele>
        <time>2012-07-08T15:54:52Z</time>
      </trkpt>
      <trkpt lat="42.580541" lon=".925232">
        <ele>2279.975</ele>
        <time>2012-07-08T15:55:06Z</time>
      </trkpt>
      <trkpt lat="42.580534" lon=".92529">
        <ele>2279.421</ele>
        <time>2012-07-08T15:55:18Z</time>
      </trkpt>
      <trkpt lat="42.58051" lon=".925363">
        <ele>2278.574</ele>
        <time>2012-07-08T15:55:26Z</time>
      </trkpt>
      <trkpt lat="42.580484" lon=".925547">
        <ele>2279.441</ele>
        <time>2012-07-08T15:55:40Z</time>
      </trkpt>
      <trkpt lat="42.580451" lon=".925638">
        <ele>2277.548</ele>
        <time>2012-07-08T15:55:52Z</time>
      </trkpt>
      <trkpt lat="42.580374" lon=".925754">
        <ele>2278.061</ele>
        <time>2012-07-08T15:56:04Z</time>
      </trkpt>
      <trkpt lat="42.580368" lon=".925775">
        <ele>2278.017</ele>
        <time>2012-07-08T15:56:06Z</time>
      </trkpt>
      <trkpt lat="42.580324" lon=".925846">
        <ele>2276.507</ele>
        <time>2012-07-08T15:56:18Z</time>
      </trkpt>
      <trkpt lat="42.580307" lon=".925895">
        <ele>2276.517</ele>
        <time>2012-07-08T15:56:23Z</time>
      </trkpt>
      <trkpt lat="42.580272" lon=".925968">
        <ele>2276.545</ele>
        <time>2012-07-08T15:56:29Z</time>
      </trkpt>
      <trkpt lat="42.580199" lon=".926058">
        <ele>2275.668</ele>
        <time>2012-07-08T15:56:40Z</time>
      </trkpt>
      <trkpt lat="42.580137" lon=".926111">
        <ele>2274.148</ele>
        <time>2012-07-08T15:56:48Z</time>
      </trkpt>
      <trkpt lat="42.580076" lon=".926202">
        <ele>2271.714</ele>
        <time>2012-07-08T15:57:02Z</time>
      </trkpt>
      <trkpt lat="42.580005" lon=".926183">
        <ele>2272.757</ele>
        <time>2012-07-08T15:57:14Z</time>
      </trkpt>
      <trkpt lat="42.579951" lon=".92621">
        <ele>2276.184</ele>
        <time>2012-07-08T15:57:24Z</time>
      </trkpt>
      <trkpt lat="42.579946" lon=".926248">
        <ele>2277.561</ele>
        <time>2012-07-08T15:57:30Z</time>
      </trkpt>
      <trkpt lat="42.579922" lon=".926257">
        <ele>2278.021</ele>
        <time>2012-07-08T15:57:34Z</time>
      </trkpt>
      <trkpt lat="42.579875" lon=".926262">
        <ele>2280.413</ele>
        <time>2012-07-08T15:57:48Z</time>
      </trkpt>
      <trkpt lat="42.579853" lon=".92627">
        <ele>2281.407</ele>
        <time>2012-07-08T15:58:03Z</time>
      </trkpt>
      <trkpt lat="42.57984" lon=".926262">
        <ele>2281.469</ele>
        <time>2012-07-08T15:58:15Z</time>
      </trkpt>
      <trkpt lat="42.579827" lon=".926215">
        <ele>2282.347</ele>
        <time>2012-07-08T15:58:27Z</time>
      </trkpt>
      <trkpt lat="42.579798" lon=".926144">
        <ele>2281.430</ele>
        <time>2012-07-08T15:58:40Z</time>
      </trkpt>
      <trkpt lat="42.579767" lon=".926142">
        <ele>2280.450</ele>
        <time>2012-07-08T15:58:51Z</time>
      </trkpt>
      <trkpt lat="42.579736" lon=".926125">
        <ele>2279.456</ele>
        <time>2012-07-08T15:58:58Z</time>
      </trkpt>
      <trkpt lat="42.57966" lon=".926126">
        <ele>2278.549</ele>
        <time>2012-07-08T15:59:10Z</time>
      </trkpt>
      <trkpt lat="42.579647" lon=".926196">
        <ele>2276.116</ele>
        <time>2012-07-08T15:59:15Z</time>
      </trkpt>
      <trkpt lat="42.579644" lon=".926241">
        <ele>2275.681</ele>
        <time>2012-07-08T15:59:28Z</time>
      </trkpt>
      <trkpt lat="42.579653" lon=".926255">
        <ele>2275.661</ele>
        <time>2012-07-08T15:59:51Z</time>
      </trkpt>
      <trkpt lat="42.579661" lon=".926282">
        <ele>2275.617</ele>
        <time>2012-07-08T16:00:11Z</time>
      </trkpt>
      <trkpt lat="42.579679" lon=".926294">
        <ele>2275.107</ele>
        <time>2012-07-08T16:00:28Z</time>
      </trkpt>
      <trkpt lat="42.579665" lon=".92634">
        <ele>2275.131</ele>
        <time>2012-07-08T16:00:36Z</time>
      </trkpt>
      <trkpt lat="42.579629" lon=".926482">
        <ele>2274.689</ele>
        <time>2012-07-08T16:00:51Z</time>
      </trkpt>
      <trkpt lat="42.579591" lon=".926501">
        <ele>2272.212</ele>
        <time>2012-07-08T16:01:02Z</time>
      </trkpt>
      <trkpt lat="42.579553" lon=".926555">
        <ele>2269.832</ele>
        <time>2012-07-08T16:01:16Z</time>
      </trkpt>
      <trkpt lat="42.579517" lon=".926581">
        <ele>2269.398</ele>
        <time>2012-07-08T16:01:31Z</time>
      </trkpt>
      <trkpt lat="42.579508" lon=".926592">
        <ele>2268.951</ele>
        <time>2012-07-08T16:01:47Z</time>
      </trkpt>
      <trkpt lat="42.579496" lon=".926631">
        <ele>2268.468</ele>
        <time>2012-07-08T16:01:58Z</time>
      </trkpt>
      <trkpt lat="42.57946" lon=".926675">
        <ele>2266.597</ele>
        <time>2012-07-08T16:02:11Z</time>
      </trkpt>
      <trkpt lat="42.579439" lon=".926688">
        <ele>2265.023</ele>
        <time>2012-07-08T16:02:26Z</time>
      </trkpt>
      <trkpt lat="42.579413" lon=".926713">
        <ele>2264.525</ele>
        <time>2012-07-08T16:02:39Z</time>
      </trkpt>
      <trkpt lat="42.579402" lon=".926782">
        <ele>2264.507</ele>
        <time>2012-07-08T16:02:53Z</time>
      </trkpt>
      <trkpt lat="42.579381" lon=".926814">
        <ele>2263.182</ele>
        <time>2012-07-08T16:03:03Z</time>
      </trkpt>
      <trkpt lat="42.579362" lon=".926815">
        <ele>2262.660</ele>
        <time>2012-07-08T16:03:06Z</time>
      </trkpt>
      <trkpt lat="42.579298" lon=".926747">
        <ele>2261.633</ele>
        <time>2012-07-08T16:03:18Z</time>
      </trkpt>
      <trkpt lat="42.57926" lon=".926757">
        <ele>2261.263</ele>
        <time>2012-07-08T16:03:33Z</time>
      </trkpt>
      <trkpt lat="42.579257" lon=".926744">
        <ele>2260.739</ele>
        <time>2012-07-08T16:03:38Z</time>
      </trkpt>
      <trkpt lat="42.579242" lon=".926702">
        <ele>2260.272</ele>
        <time>2012-07-08T16:03:51Z</time>
      </trkpt>
      <trkpt lat="42.579228" lon=".926678">
        <ele>2259.789</ele>
        <time>2012-07-08T16:04:06Z</time>
      </trkpt>
      <trkpt lat="42.579214" lon=".926645">
        <ele>2258.877</ele>
        <time>2012-07-08T16:04:21Z</time>
      </trkpt>
      <trkpt lat="42.579189" lon=".926671">
        <ele>2257.361</ele>
        <time>2012-07-08T16:04:35Z</time>
      </trkpt>
      <trkpt lat="42.57915" lon=".926651">
        <ele>2256.827</ele>
        <time>2012-07-08T16:04:48Z</time>
      </trkpt>
      <trkpt lat="42.579133" lon=".926625">
        <ele>2256.407</ele>
        <time>2012-07-08T16:05:02Z</time>
      </trkpt>
      <trkpt lat="42.579133" lon=".926625">
        <ele>2256.440</ele>
        <time>2012-07-08T16:05:27Z</time>
      </trkpt>
      <trkpt lat="42.579127" lon=".926612">
        <ele>2256.828</ele>
        <time>2012-07-08T16:05:46Z</time>
      </trkpt>
      <trkpt lat="42.579124" lon=".926615">
        <ele>2256.811</ele>
        <time>2012-07-08T16:05:59Z</time>
      </trkpt>
      <trkpt lat="42.579104" lon=".926635">
        <ele>2255.961</ele>
        <time>2012-07-08T16:06:07Z</time>
      </trkpt>
      <trkpt lat="42.579103" lon=".92663">
        <ele>2255.937</ele>
        <time>2012-07-08T16:06:23Z</time>
      </trkpt>
      <trkpt lat="42.579099" lon=".926604">
        <ele>2255.480</ele>
        <time>2012-07-08T16:06:37Z</time>
      </trkpt>
      <trkpt lat="42.579055" lon=".926551">
        <ele>2254.937</ele>
        <time>2012-07-08T16:06:49Z</time>
      </trkpt>
      <trkpt lat="42.579047" lon=".926545">
        <ele>2254.991</ele>
        <time>2012-07-08T16:07:03Z</time>
      </trkpt>
      <trkpt lat="42.579041" lon=".926545">
        <ele>2254.981</ele>
        <time>2012-07-08T16:07:20Z</time>
      </trkpt>
      <trkpt lat="42.57899" lon=".926558">
        <ele>2253.519</ele>
        <time>2012-07-08T16:07:40Z</time>
      </trkpt>
      <trkpt lat="42.578945" lon=".926553">
        <ele>2250.607</ele>
        <time>2012-07-08T16:07:48Z</time>
      </trkpt>
      <trkpt lat="42.578916" lon=".926568">
        <ele>2249.142</ele>
        <time>2012-07-08T16:08:01Z</time>
      </trkpt>
      <trkpt lat="42.578901" lon=".926581">
        <ele>2247.790</ele>
        <time>2012-07-08T16:08:14Z</time>
      </trkpt>
      <trkpt lat="42.578854" lon=".926567">
        <ele>2245.313</ele>
        <time>2012-07-08T16:08:27Z</time>
      </trkpt>
      <trkpt lat="42.578788" lon=".926557">
        <ele>2244.873</ele>
        <time>2012-07-08T16:08:42Z</time>
      </trkpt>
      <trkpt lat="42.578771" lon=".926537">
        <ele>2244.849</ele>
        <time>2012-07-08T16:08:45Z</time>
      </trkpt>
      <trkpt lat="42.578689" lon=".926557">
        <ele>2245.882</ele>
        <time>2012-07-08T16:08:58Z</time>
      </trkpt>
      <trkpt lat="42.57866" lon=".926557">
        <ele>2245.829</ele>
        <time>2012-07-08T16:09:09Z</time>
      </trkpt>
      <trkpt lat="42.57862" lon=".926582">
        <ele>2245.855</ele>
        <time>2012-07-08T16:09:21Z</time>
      </trkpt>
      <trkpt lat="42.57859" lon=".926591">
        <ele>2244.307</ele>
        <time>2012-07-08T16:09:35Z</time>
      </trkpt>
      <trkpt lat="42.578537" lon=".926568">
        <ele>2243.917</ele>
        <time>2012-07-08T16:09:49Z</time>
      </trkpt>
      <trkpt lat="42.578528" lon=".926556">
        <ele>2242.907</ele>
        <time>2012-07-08T16:10:10Z</time>
      </trkpt>
      <trkpt lat="42.57853" lon=".92655">
        <ele>2242.968</ele>
        <time>2012-07-08T16:10:44Z</time>
      </trkpt>
      <trkpt lat="42.57853" lon=".92655">
        <ele>2242.986</ele>
        <time>2012-07-08T16:11:08Z</time>
      </trkpt>
      <trkpt lat="42.578525" lon=".926548">
        <ele>2243.989</ele>
        <time>2012-07-08T16:11:31Z</time>
      </trkpt>
      <trkpt lat="42.57851" lon=".926533">
        <ele>2243.979</ele>
        <time>2012-07-08T16:11:50Z</time>
      </trkpt>
      <trkpt lat="42.578474" lon=".926535">
        <ele>2242.965</ele>
        <time>2012-07-08T16:12:04Z</time>
      </trkpt>
      <trkpt lat="42.578421" lon=".926477">
        <ele>2243.468</ele>
        <time>2012-07-08T16:12:18Z</time>
      </trkpt>
      <trkpt lat="42.578392" lon=".92649">
        <ele>2243.455</ele>
        <time>2012-07-08T16:12:31Z</time>
      </trkpt>
      <trkpt lat="42.578357" lon=".926509">
        <ele>2242.965</ele>
        <time>2012-07-08T16:12:45Z</time>
      </trkpt>
      <trkpt lat="42.578298" lon=".926473">
        <ele>2240.568</ele>
        <time>2012-07-08T16:12:58Z</time>
      </trkpt>
      <trkpt lat="42.578243" lon=".926475">
        <ele>2238.114</ele>
        <time>2012-07-08T16:13:11Z</time>
      </trkpt>
      <trkpt lat="42.57821" lon=".926478">
        <ele>2237.607</ele>
        <time>2012-07-08T16:13:23Z</time>
      </trkpt>
      <trkpt lat="42.578138" lon=".926462">
        <ele>2237.169</ele>
        <time>2012-07-08T16:13:36Z</time>
      </trkpt>
      <trkpt lat="42.578101" lon=".926434">
        <ele>2237.177</ele>
        <time>2012-07-08T16:13:48Z</time>
      </trkpt>
      <trkpt lat="42.578082" lon=".926399">
        <ele>2236.670</ele>
        <time>2012-07-08T16:14:00Z</time>
      </trkpt>
      <trkpt lat="42.578082" lon=".926399">
        <ele>2236.610</ele>
        <time>2012-07-08T16:14:25Z</time>
      </trkpt>
      <trkpt lat="42.578045" lon=".926429">
        <ele>2237.136</ele>
        <time>2012-07-08T16:14:39Z</time>
      </trkpt>
      <trkpt lat="42.577972" lon=".926504">
        <ele>2236.259</ele>
        <time>2012-07-08T16:14:52Z</time>
      </trkpt>
      <trkpt lat="42.577911" lon=".926531">
        <ele>2234.236</ele>
        <time>2012-07-08T16:15:09Z</time>
      </trkpt>
      <trkpt lat="42.577869" lon=".926586">
        <ele>2231.422</ele>
        <time>2012-07-08T16:15:24Z</time>
      </trkpt>
      <trkpt lat="42.577836" lon=".926591">
        <ele>2230.962</ele>
        <time>2012-07-08T16:15:38Z</time>
      </trkpt>
      <trkpt lat="42.577781" lon=".926647">
        <ele>2229.408</ele>
        <time>2012-07-08T16:15:54Z</time>
      </trkpt>
      <trkpt lat="42.577748" lon=".926687">
        <ele>2227.507</ele>
        <time>2012-07-08T16:16:11Z</time>
      </trkpt>
      <trkpt lat="42.577717" lon=".926732">
        <ele>2224.645</ele>
        <time>2012-07-08T16:16:23Z</time>
      </trkpt>
      <trkpt lat="42.577677" lon=".926803">
        <ele>2222.713</ele>
        <time>2012-07-08T16:16:36Z</time>
      </trkpt>
      <trkpt lat="42.577638" lon=".926862">
        <ele>2219.856</ele>
        <time>2012-07-08T16:16:49Z</time>
      </trkpt>
      <trkpt lat="42.577566" lon=".926859">
        <ele>2217.466</ele>
        <time>2012-07-08T16:17:00Z</time>
      </trkpt>
      <trkpt lat="42.577505" lon=".926883">
        <ele>2217.972</ele>
        <time>2012-07-08T16:17:13Z</time>
      </trkpt>
      <trkpt lat="42.577475" lon=".92692">
        <ele>2217.975</ele>
        <time>2012-07-08T16:17:25Z</time>
      </trkpt>
      <trkpt lat="42.57744" lon=".926967">
        <ele>2217.462</ele>
        <time>2012-07-08T16:17:38Z</time>
      </trkpt>
      <trkpt lat="42.577401" lon=".927028">
        <ele>2216.096</ele>
        <time>2012-07-08T16:17:48Z</time>
      </trkpt>
      <trkpt lat="42.577389" lon=".927015">
        <ele>2215.031</ele>
        <time>2012-07-08T16:17:54Z</time>
      </trkpt>
      <trkpt lat="42.577362" lon=".926999">
        <ele>2215.024</ele>
        <time>2012-07-08T16:18:07Z</time>
      </trkpt>
      <trkpt lat="42.577353" lon=".927022">
        <ele>2214.107</ele>
        <time>2012-07-08T16:18:24Z</time>
      </trkpt>
      <trkpt lat="42.577323" lon=".927038">
        <ele>2213.692</ele>
        <time>2012-07-08T16:18:36Z</time>
      </trkpt>
      <trkpt lat="42.577301" lon=".927037">
        <ele>2213.660</ele>
        <time>2012-07-08T16:18:48Z</time>
      </trkpt>
      <trkpt lat="42.577274" lon=".927061">
        <ele>2213.183</ele>
        <time>2012-07-08T16:19:02Z</time>
      </trkpt>
      <trkpt lat="42.577256" lon=".927089">
        <ele>2212.123</ele>
        <time>2012-07-08T16:19:17Z</time>
      </trkpt>
      <trkpt lat="42.577187" lon=".927131">
        <ele>2209.759</ele>
        <time>2012-07-08T16:19:30Z</time>
      </trkpt>
      <trkpt lat="42.577147" lon=".927209">
        <ele>2206.822</ele>
        <time>2012-07-08T16:19:41Z</time>
      </trkpt>
      <trkpt lat="42.577099" lon=".927253">
        <ele>2203.529</ele>
        <time>2012-07-08T16:19:52Z</time>
      </trkpt>
      <trkpt lat="42.577089" lon=".927282">
        <ele>2199.697</ele>
        <time>2012-07-08T16:19:58Z</time>
      </trkpt>
      <trkpt lat="42.577086" lon=".927339">
        <ele>2196.823</ele>
        <time>2012-07-08T16:20:04Z</time>
      </trkpt>
      <trkpt lat="42.577063" lon=".927397">
        <ele>2194.825</ele>
        <time>2012-07-08T16:20:10Z</time>
      </trkpt>
      <trkpt lat="42.577028" lon=".927476">
        <ele>2190.507</ele>
        <time>2012-07-08T16:20:17Z</time>
      </trkpt>
      <trkpt lat="42.576966" lon=".927564">
        <ele>2188.612</ele>
        <time>2012-07-08T16:20:29Z</time>
      </trkpt>
      <trkpt lat="42.57691" lon=".927652">
        <ele>2187.640</ele>
        <time>2012-07-08T16:20:41Z</time>
      </trkpt>
      <trkpt lat="42.576842" lon=".927753">
        <ele>2186.243</ele>
        <time>2012-07-08T16:20:54Z</time>
      </trkpt>
      <trkpt lat="42.576813" lon=".927767">
        <ele>2185.773</ele>
        <time>2012-07-08T16:21:01Z</time>
      </trkpt>
      <trkpt lat="42.576743" lon=".927823">
        <ele>2185.749</ele>
        <time>2012-07-08T16:21:14Z</time>
      </trkpt>
      <trkpt lat="42.576664" lon=".927832">
        <ele>2184.722</ele>
        <time>2012-07-08T16:21:26Z</time>
      </trkpt>
      <trkpt lat="42.576662" lon=".927836">
        <ele>2184.769</ele>
        <time>2012-07-08T16:21:41Z</time>
      </trkpt>
      <trkpt lat="42.576662" lon=".927836">
        <ele>2184.719</ele>
        <time>2012-07-08T16:22:08Z</time>
      </trkpt>
      <trkpt lat="42.57666" lon=".927837">
        <ele>2184.309</ele>
        <time>2012-07-08T16:22:41Z</time>
      </trkpt>
      <trkpt lat="42.576661" lon=".927842">
        <ele>2183.319</ele>
        <time>2012-07-08T16:23:02Z</time>
      </trkpt>
      <trkpt lat="42.576664" lon=".927842">
        <ele>2183.307</ele>
        <time>2012-07-08T16:23:23Z</time>
      </trkpt>
      <trkpt lat="42.576665" lon=".927845">
        <ele>2183.374</ele>
        <time>2012-07-08T16:23:41Z</time>
      </trkpt>
      <trkpt lat="42.576621" lon=".927895">
        <ele>2182.822</ele>
        <time>2012-07-08T16:23:57Z</time>
      </trkpt>
      <trkpt lat="42.576601" lon=".927897">
        <ele>2182.315</ele>
        <time>2012-07-08T16:24:00Z</time>
      </trkpt>
      <trkpt lat="42.576522" lon=".927906">
        <ele>2181.985</ele>
        <time>2012-07-08T16:24:11Z</time>
      </trkpt>
      <trkpt lat="42.576474" lon=".92793">
        <ele>2184.371</ele>
        <time>2012-07-08T16:24:24Z</time>
      </trkpt>
      <trkpt lat="42.576417" lon=".927974">
        <ele>2184.344</ele>
        <time>2012-07-08T16:24:36Z</time>
      </trkpt>
      <trkpt lat="42.576363" lon=".928016">
        <ele>2184.321</ele>
        <time>2012-07-08T16:24:48Z</time>
      </trkpt>
      <trkpt lat="42.576346" lon=".928105">
        <ele>2181.936</ele>
        <time>2012-07-08T16:24:58Z</time>
      </trkpt>
      <trkpt lat="42.576338" lon=".928194">
        <ele>2178.517</ele>
        <time>2012-07-08T16:25:08Z</time>
      </trkpt>
      <trkpt lat="42.576307" lon=".928314">
        <ele>2176.118</ele>
        <time>2012-07-08T16:25:23Z</time>
      </trkpt>
      <trkpt lat="42.57626" lon=".928335">
        <ele>2173.207</ele>
        <time>2012-07-08T16:25:33Z</time>
      </trkpt>
      <trkpt lat="42.576242" lon=".928397">
        <ele>2170.326</ele>
        <time>2012-07-08T16:25:43Z</time>
      </trkpt>
      <trkpt lat="42.576186" lon=".9284">
        <ele>2167.494</ele>
        <time>2012-07-08T16:25:58Z</time>
      </trkpt>
      <trkpt lat="42.576139" lon=".928467">
        <ele>2164.647</ele>
        <time>2012-07-08T16:26:10Z</time>
      </trkpt>
      <trkpt lat="42.576134" lon=".928478">
        <ele>2164.157</ele>
        <time>2012-07-08T16:26:15Z</time>
      </trkpt>
      <trkpt lat="42.576096" lon=".928502">
        <ele>2161.253</ele>
        <time>2012-07-08T16:26:25Z</time>
      </trkpt>
      <trkpt lat="42.57609" lon=".928531">
        <ele>2159.336</ele>
        <time>2012-07-08T16:26:36Z</time>
      </trkpt>
      <trkpt lat="42.576087" lon=".928537">
        <ele>2158.893</ele>
        <time>2012-07-08T16:26:49Z</time>
      </trkpt>
      <trkpt lat="42.576062" lon=".928545">
        <ele>2156.926</ele>
        <time>2012-07-08T16:27:05Z</time>
      </trkpt>
      <trkpt lat="42.576017" lon=".928586">
        <ele>2154.047</ele>
        <time>2012-07-08T16:27:15Z</time>
      </trkpt>
      <trkpt lat="42.575983" lon=".928649">
        <ele>2150.111</ele>
        <time>2012-07-08T16:27:26Z</time>
      </trkpt>
      <trkpt lat="42.575979" lon=".92873">
        <ele>2147.207</ele>
        <time>2012-07-08T16:27:39Z</time>
      </trkpt>
      <trkpt lat="42.575981" lon=".928753">
        <ele>2146.815</ele>
        <time>2012-07-08T16:27:41Z</time>
      </trkpt>
      <trkpt lat="42.575907" lon=".928836">
        <ele>2144.413</ele>
        <time>2012-07-08T16:27:54Z</time>
      </trkpt>
      <trkpt lat="42.575919" lon=".928916">
        <ele>2144.866</ele>
        <time>2012-07-08T16:28:03Z</time>
      </trkpt>
      <trkpt lat="42.575891" lon=".929071">
        <ele>2144.486</ele>
        <time>2012-07-08T16:28:17Z</time>
      </trkpt>
      <trkpt lat="42.575836" lon=".929109">
        <ele>2143.982</ele>
        <time>2012-07-08T16:28:34Z</time>
      </trkpt>
      <trkpt lat="42.575799" lon=".929199">
        <ele>2143.435</ele>
        <time>2012-07-08T16:28:48Z</time>
      </trkpt>
      <trkpt lat="42.57577" lon=".929277">
        <ele>2142.012</ele>
        <time>2012-07-08T16:29:00Z</time>
      </trkpt>
      <trkpt lat="42.575763" lon=".929306">
        <ele>2140.519</ele>
        <time>2012-07-08T16:29:13Z</time>
      </trkpt>
      <trkpt lat="42.575756" lon=".92936">
        <ele>2139.109</ele>
        <time>2012-07-08T16:29:27Z</time>
      </trkpt>
      <trkpt lat="42.575757" lon=".929433">
        <ele>2139.119</ele>
        <time>2012-07-08T16:29:41Z</time>
      </trkpt>
      <trkpt lat="42.575695" lon=".929588">
        <ele>2138.607</ele>
        <time>2012-07-08T16:29:56Z</time>
      </trkpt>
      <trkpt lat="42.575635" lon=".929721">
        <ele>2137.614</ele>
        <time>2012-07-08T16:30:08Z</time>
      </trkpt>
      <trkpt lat="42.575596" lon=".929768">
        <ele>2138.162</ele>
        <time>2012-07-08T16:30:14Z</time>
      </trkpt>
      <trkpt lat="42.575482" lon=".929866">
        <ele>2138.185</ele>
        <time>2012-07-08T16:30:30Z</time>
      </trkpt>
      <trkpt lat="42.575442" lon=".929927">
        <ele>2137.615</ele>
        <time>2012-07-08T16:30:40Z</time>
      </trkpt>
      <trkpt lat="42.575418" lon=".930027">
        <ele>2136.781</ele>
        <time>2012-07-08T16:30:55Z</time>
      </trkpt>
      <trkpt lat="42.575409" lon=".930055">
        <ele>2136.294</ele>
        <time>2012-07-08T16:30:58Z</time>
      </trkpt>
      <trkpt lat="42.575328" lon=".930186">
        <ele>2133.361</ele>
        <time>2012-07-08T16:31:12Z</time>
      </trkpt>
      <trkpt lat="42.575261" lon=".930285">
        <ele>2130.997</ele>
        <time>2012-07-08T16:31:26Z</time>
      </trkpt>
      <trkpt lat="42.575255" lon=".930347">
        <ele>2130.423</ele>
        <time>2012-07-08T16:31:31Z</time>
      </trkpt>
      <trkpt lat="42.575259" lon=".930452">
        <ele>2129.025</ele>
        <time>2012-07-08T16:31:39Z</time>
      </trkpt>
      <trkpt lat="42.575239" lon=".930632">
        <ele>2126.107</ele>
        <time>2012-07-08T16:31:54Z</time>
      </trkpt>
      <trkpt lat="42.575214" lon=".93077">
        <ele>2127.562</ele>
        <time>2012-07-08T16:32:07Z</time>
      </trkpt>
      <trkpt lat="42.575165" lon=".930897">
        <ele>2126.690</ele>
        <time>2012-07-08T16:32:20Z</time>
      </trkpt>
      <trkpt lat="42.575161" lon=".930906">
        <ele>2126.623</ele>
        <time>2012-07-08T16:32:21Z</time>
      </trkpt>
      <trkpt lat="42.575148" lon=".931099">
        <ele>2125.183</ele>
        <time>2012-07-08T16:32:37Z</time>
      </trkpt>
      <trkpt lat="42.575151" lon=".931258">
        <ele>2123.719</ele>
        <time>2012-07-08T16:32:53Z</time>
      </trkpt>
      <trkpt lat="42.57514" lon=".931326">
        <ele>2122.312</ele>
        <time>2012-07-08T16:33:06Z</time>
      </trkpt>
      <trkpt lat="42.575134" lon=".931347">
        <ele>2121.889</ele>
        <time>2012-07-08T16:33:08Z</time>
      </trkpt>
      <trkpt lat="42.5751" lon=".931401">
        <ele>2118.412</ele>
        <time>2012-07-08T16:33:21Z</time>
      </trkpt>
      <trkpt lat="42.575077" lon=".931461">
        <ele>2115.532</ele>
        <time>2012-07-08T16:33:44Z</time>
      </trkpt>
      <trkpt lat="42.575042" lon=".931568">
        <ele>2114.105</ele>
        <time>2012-07-08T16:34:00Z</time>
      </trkpt>
      <trkpt lat="42.575042" lon=".931626">
        <ele>2114.607</ele>
        <time>2012-07-08T16:34:13Z</time>
      </trkpt>
      <trkpt lat="42.575038" lon=".931699">
        <ele>2114.654</ele>
        <time>2012-07-08T16:34:26Z</time>
      </trkpt>
      <trkpt lat="42.575064" lon=".931808">
        <ele>2114.182</ele>
        <time>2012-07-08T16:34:40Z</time>
      </trkpt>
      <trkpt lat="42.575035" lon=".931896">
        <ele>2114.655</ele>
        <time>2012-07-08T16:34:48Z</time>
      </trkpt>
      <trkpt lat="42.575069" lon=".932036">
        <ele>2113.625</ele>
        <time>2012-07-08T16:35:05Z</time>
      </trkpt>
      <trkpt lat="42.575062" lon=".932141">
        <ele>2112.661</ele>
        <time>2012-07-08T16:35:19Z</time>
      </trkpt>
      <trkpt lat="42.574993" lon=".93228">
        <ele>2110.214</ele>
        <time>2012-07-08T16:35:35Z</time>
      </trkpt>
      <trkpt lat="42.574951" lon=".932378">
        <ele>2109.871</ele>
        <time>2012-07-08T16:35:48Z</time>
      </trkpt>
      <trkpt lat="42.57496" lon=".932449">
        <ele>2110.254</ele>
        <time>2012-07-08T16:36:00Z</time>
      </trkpt>
      <trkpt lat="42.574962" lon=".932526">
        <ele>2110.256</ele>
        <time>2012-07-08T16:36:07Z</time>
      </trkpt>
      <trkpt lat="42.574951" lon=".932658">
        <ele>2109.311</ele>
        <time>2012-07-08T16:36:22Z</time>
      </trkpt>
      <trkpt lat="42.574957" lon=".932742">
        <ele>2108.807</ele>
        <time>2012-07-08T16:36:36Z</time>
      </trkpt>
      <trkpt lat="42.574942" lon=".932828">
        <ele>2107.488</ele>
        <time>2012-07-08T16:36:49Z</time>
      </trkpt>
      <trkpt lat="42.574875" lon=".93289">
        <ele>2106.996</ele>
        <time>2012-07-08T16:36:59Z</time>
      </trkpt>
      <trkpt lat="42.574827" lon=".933002">
        <ele>2107.479</ele>
        <time>2012-07-08T16:37:13Z</time>
      </trkpt>
      <trkpt lat="42.574801" lon=".933086">
        <ele>2107.829</ele>
        <time>2012-07-08T16:37:24Z</time>
      </trkpt>
      <trkpt lat="42.574796" lon=".933104">
        <ele>2108.825</ele>
        <time>2012-07-08T16:37:27Z</time>
      </trkpt>
      <trkpt lat="42.574753" lon=".933215">
        <ele>2108.868</ele>
        <time>2012-07-08T16:37:40Z</time>
      </trkpt>
      <trkpt lat="42.574746" lon=".933226">
        <ele>2108.895</ele>
        <time>2012-07-08T16:37:43Z</time>
      </trkpt>
      <trkpt lat="42.574734" lon=".933269">
        <ele>2108.313</ele>
        <time>2012-07-08T16:37:56Z</time>
      </trkpt>
      <trkpt lat="42.574742" lon=".933305">
        <ele>2106.943</ele>
        <time>2012-07-08T16:38:08Z</time>
      </trkpt>
      <trkpt lat="42.574744" lon=".933345">
        <ele>2104.507</ele>
        <time>2012-07-08T16:38:21Z</time>
      </trkpt>
      <trkpt lat="42.574718" lon=".933407">
        <ele>2102.507</ele>
        <time>2012-07-08T16:38:36Z</time>
      </trkpt>
      <trkpt lat="42.574709" lon=".933463">
        <ele>2101.164</ele>
        <time>2012-07-08T16:38:49Z</time>
      </trkpt>
      <trkpt lat="42.574707" lon=".933478">
        <ele>2100.662</ele>
        <time>2012-07-08T16:39:03Z</time>
      </trkpt>
      <trkpt lat="42.574694" lon=".933545">
        <ele>2099.295</ele>
        <time>2012-07-08T16:39:24Z</time>
      </trkpt>
      <trkpt lat="42.574687" lon=".933561">
        <ele>2098.735</ele>
        <time>2012-07-08T16:39:40Z</time>
      </trkpt>
      <trkpt lat="42.574679" lon=".933596">
        <ele>2097.741</ele>
        <time>2012-07-08T16:39:54Z</time>
      </trkpt>
      <trkpt lat="42.574681" lon=".933632">
        <ele>2097.314</ele>
        <time>2012-07-08T16:40:09Z</time>
      </trkpt>
      <trkpt lat="42.574669" lon=".933688">
        <ele>2095.831</ele>
        <time>2012-07-08T16:40:24Z</time>
      </trkpt>
      <trkpt lat="42.574662" lon=".933737">
        <ele>2093.915</ele>
        <time>2012-07-08T16:40:36Z</time>
      </trkpt>
      <trkpt lat="42.574648" lon=".933764">
        <ele>2093.465</ele>
        <time>2012-07-08T16:40:53Z</time>
      </trkpt>
      <trkpt lat="42.574615" lon=".933809">
        <ele>2091.011</ele>
        <time>2012-07-08T16:41:09Z</time>
      </trkpt>
      <trkpt lat="42.574607" lon=".933832">
        <ele>2090.507</ele>
        <time>2012-07-08T16:41:24Z</time>
      </trkpt>
      <trkpt lat="42.57461" lon=".933858">
        <ele>2089.624</ele>
        <time>2012-07-08T16:41:41Z</time>
      </trkpt>
      <trkpt lat="42.574602" lon=".933903">
        <ele>2089.122</ele>
        <time>2012-07-08T16:41:59Z</time>
      </trkpt>
      <trkpt lat="42.57456" lon=".933936">
        <ele>2087.285</ele>
        <time>2012-07-08T16:42:12Z</time>
      </trkpt>
      <trkpt lat="42.574505" lon=".934014">
        <ele>2085.225</ele>
        <time>2012-07-08T16:42:27Z</time>
      </trkpt>
      <trkpt lat="42.574462" lon=".93405">
        <ele>2082.431</ele>
        <time>2012-07-08T16:42:41Z</time>
      </trkpt>
      <trkpt lat="42.57443" lon=".934092">
        <ele>2081.944</ele>
        <time>2012-07-08T16:42:54Z</time>
      </trkpt>
      <trkpt lat="42.574427" lon=".934116">
        <ele>2080.911</ele>
        <time>2012-07-08T16:43:09Z</time>
      </trkpt>
      <trkpt lat="42.574401" lon=".934188">
        <ele>2078.584</ele>
        <time>2012-07-08T16:43:25Z</time>
      </trkpt>
      <trkpt lat="42.574374" lon=".934226">
        <ele>2077.107</ele>
        <time>2012-07-08T16:43:39Z</time>
      </trkpt>
      <trkpt lat="42.574347" lon=".934268">
        <ele>2075.617</ele>
        <time>2012-07-08T16:43:54Z</time>
      </trkpt>
      <trkpt lat="42.574344" lon=".934307">
        <ele>2073.207</ele>
        <time>2012-07-08T16:44:09Z</time>
      </trkpt>
      <trkpt lat="42.574326" lon=".934364">
        <ele>2071.351</ele>
        <time>2012-07-08T16:44:27Z</time>
      </trkpt>
      <trkpt lat="42.574323" lon=".93438">
        <ele>2070.869</ele>
        <time>2012-07-08T16:44:45Z</time>
      </trkpt>
      <trkpt lat="42.574322" lon=".934384">
        <ele>2070.862</ele>
        <time>2012-07-08T16:45:12Z</time>
      </trkpt>
      <trkpt lat="42.574321" lon=".934384">
        <ele>2070.842</ele>
        <time>2012-07-08T16:45:35Z</time>
      </trkpt>
      <trkpt lat="42.574321" lon=".934384">
        <ele>2070.898</ele>
        <time>2012-07-08T16:46:00Z</time>
      </trkpt>
      <trkpt lat="42.57432" lon=".934383">
        <ele>2070.851</ele>
        <time>2012-07-08T16:46:22Z</time>
      </trkpt>
      <trkpt lat="42.574291" lon=".93443">
        <ele>2070.858</ele>
        <time>2012-07-08T16:46:37Z</time>
      </trkpt>
      <trkpt lat="42.574282" lon=".934467">
        <ele>2070.875</ele>
        <time>2012-07-08T16:46:51Z</time>
      </trkpt>
      <trkpt lat="42.574278" lon=".934511">
        <ele>2070.328</ele>
        <time>2012-07-08T16:47:16Z</time>
      </trkpt>
      <trkpt lat="42.574271" lon=".934523">
        <ele>2069.420</ele>
        <time>2012-07-08T16:47:32Z</time>
      </trkpt>
      <trkpt lat="42.57427" lon=".934563">
        <ele>2067.507</ele>
        <time>2012-07-08T16:47:44Z</time>
      </trkpt>
      <trkpt lat="42.574267" lon=".934564">
        <ele>2067.520</ele>
        <time>2012-07-08T16:48:06Z</time>
      </trkpt>
      <trkpt lat="42.574249" lon=".934577">
        <ele>2067.098</ele>
        <time>2012-07-08T16:48:20Z</time>
      </trkpt>
      <trkpt lat="42.574266" lon=".934651">
        <ele>2067.071</ele>
        <time>2012-07-08T16:48:33Z</time>
      </trkpt>
      <trkpt lat="42.574272" lon=".934653">
        <ele>2067.091</ele>
        <time>2012-07-08T16:48:34Z</time>
      </trkpt>
      <trkpt lat="42.574293" lon=".934686">
        <ele>2066.597</ele>
        <time>2012-07-08T16:48:47Z</time>
      </trkpt>
      <trkpt lat="42.574296" lon=".934689">
        <ele>2066.510</ele>
        <time>2012-07-08T16:49:15Z</time>
      </trkpt>
      <trkpt lat="42.574244" lon=".934682">
        <ele>2064.197</ele>
        <time>2012-07-08T16:49:27Z</time>
      </trkpt>
      <trkpt lat="42.574214" lon=".934675">
        <ele>2061.743</ele>
        <time>2012-07-08T16:49:42Z</time>
      </trkpt>
      <trkpt lat="42.574201" lon=".934686">
        <ele>2059.864</ele>
        <time>2012-07-08T16:49:56Z</time>
      </trkpt>
      <trkpt lat="42.57419" lon=".934702">
        <ele>2058.310</ele>
        <time>2012-07-08T16:50:11Z</time>
      </trkpt>
      <trkpt lat="42.574176" lon=".934704">
        <ele>2056.407</ele>
        <time>2012-07-08T16:50:22Z</time>
      </trkpt>
      <trkpt lat="42.574143" lon=".934728">
        <ele>2054.557</ele>
        <time>2012-07-08T16:50:33Z</time>
      </trkpt>
      <trkpt lat="42.574146" lon=".934728">
        <ele>2054.535</ele>
        <time>2012-07-08T16:50:52Z</time>
      </trkpt>
      <trkpt lat="42.574124" lon=".934781">
        <ele>2052.158</ele>
        <time>2012-07-08T16:51:04Z</time>
      </trkpt>
      <trkpt lat="42.574128" lon=".934813">
        <ele>2051.128</ele>
        <time>2012-07-08T16:51:17Z</time>
      </trkpt>
      <trkpt lat="42.574129" lon=".934824">
        <ele>2050.614</ele>
        <time>2012-07-08T16:51:35Z</time>
      </trkpt>
      <trkpt lat="42.574129" lon=".934824">
        <ele>2050.677</ele>
        <time>2012-07-08T16:52:04Z</time>
      </trkpt>
      <trkpt lat="42.574118" lon=".934852">
        <ele>2052.154</ele>
        <time>2012-07-08T16:52:08Z</time>
      </trkpt>
      <trkpt lat="42.574083" lon=".934899">
        <ele>2054.091</ele>
        <time>2012-07-08T16:52:18Z</time>
      </trkpt>
      <trkpt lat="42.574059" lon=".934936">
        <ele>2054.081</ele>
        <time>2012-07-08T16:52:31Z</time>
      </trkpt>
      <trkpt lat="42.574052" lon=".934945">
        <ele>2054.019</ele>
        <time>2012-07-08T16:52:45Z</time>
      </trkpt>
      <trkpt lat="42.574036" lon=".934974">
        <ele>2052.607</ele>
        <time>2012-07-08T16:52:58Z</time>
      </trkpt>
      <trkpt lat="42.574006" lon=".934988">
        <ele>2052.652</ele>
        <time>2012-07-08T16:53:13Z</time>
      </trkpt>
      <trkpt lat="42.574004" lon=".935004">
        <ele>2052.110</ele>
        <time>2012-07-08T16:53:24Z</time>
      </trkpt>
      <trkpt lat="42.573994" lon=".935049">
        <ele>2050.293</ele>
        <time>2012-07-08T16:53:38Z</time>
      </trkpt>
      <trkpt lat="42.573974" lon=".93507">
        <ele>2049.773</ele>
        <time>2012-07-08T16:53:55Z</time>
      </trkpt>
      <trkpt lat="42.573972" lon=".935077">
        <ele>2049.249</ele>
        <time>2012-07-08T16:54:20Z</time>
      </trkpt>
      <trkpt lat="42.573962" lon=".935113">
        <ele>2047.852</ele>
        <time>2012-07-08T16:54:37Z</time>
      </trkpt>
      <trkpt lat="42.573934" lon=".935134">
        <ele>2045.829</ele>
        <time>2012-07-08T16:54:51Z</time>
      </trkpt>
      <trkpt lat="42.573901" lon=".935152">
        <ele>2044.432</ele>
        <time>2012-07-08T16:55:03Z</time>
      </trkpt>
      <trkpt lat="42.573849" lon=".935138">
        <ele>2041.092</ele>
        <time>2012-07-08T16:55:13Z</time>
      </trkpt>
      <trkpt lat="42.573819" lon=".935188">
        <ele>2037.711</ele>
        <time>2012-07-08T16:55:25Z</time>
      </trkpt>
      <trkpt lat="42.573806" lon=".935199">
        <ele>2035.307</ele>
        <time>2012-07-08T16:55:38Z</time>
      </trkpt>
      <trkpt lat="42.57379" lon=".935245">
        <ele>2034.336</ele>
        <time>2012-07-08T16:55:54Z</time>
      </trkpt>
      <trkpt lat="42.573777" lon=".935271">
        <ele>2031.974</ele>
        <time>2012-07-08T16:56:00Z</time>
      </trkpt>
      <trkpt lat="42.573703" lon=".935283">
        <ele>2031.487</ele>
        <time>2012-07-08T16:56:15Z</time>
      </trkpt>
      <trkpt lat="42.573674" lon=".935285">
        <ele>2030.047</ele>
        <time>2012-07-08T16:56:29Z</time>
      </trkpt>
      <trkpt lat="42.573633" lon=".935269">
        <ele>2029.543</ele>
        <time>2012-07-08T16:56:41Z</time>
      </trkpt>
      <trkpt lat="42.573618" lon=".935285">
        <ele>2028.086</ele>
        <time>2012-07-08T16:56:58Z</time>
      </trkpt>
      <trkpt lat="42.573586" lon=".935279">
        <ele>2027.113</ele>
        <time>2012-07-08T16:57:10Z</time>
      </trkpt>
      <trkpt lat="42.573571" lon=".935292">
        <ele>2026.623</ele>
        <time>2012-07-08T16:57:35Z</time>
      </trkpt>
      <trkpt lat="42.573561" lon=".9353">
        <ele>2026.683</ele>
        <time>2012-07-08T16:57:49Z</time>
      </trkpt>
      <trkpt lat="42.573544" lon=".935294">
        <ele>2026.611</ele>
        <time>2012-07-08T16:58:03Z</time>
      </trkpt>
      <trkpt lat="42.57353" lon=".9353">
        <ele>2025.607</ele>
        <time>2012-07-08T16:58:24Z</time>
      </trkpt>
      <trkpt lat="42.573498" lon=".935319">
        <ele>2025.235</ele>
        <time>2012-07-08T16:58:40Z</time>
      </trkpt>
      <trkpt lat="42.573498" lon=".935385">
        <ele>2023.263</ele>
        <time>2012-07-08T16:58:53Z</time>
      </trkpt>
      <trkpt lat="42.573492" lon=".935418">
        <ele>2021.846</ele>
        <time>2012-07-08T16:59:10Z</time>
      </trkpt>
      <trkpt lat="42.573469" lon=".935409">
        <ele>2021.336</ele>
        <time>2012-07-08T16:59:32Z</time>
      </trkpt>
      <trkpt lat="42.573458" lon=".935402">
        <ele>2020.862</ele>
        <time>2012-07-08T16:59:54Z</time>
      </trkpt>
      <trkpt lat="42.57342" lon=".935375">
        <ele>2019.995</ele>
        <time>2012-07-08T17:00:07Z</time>
      </trkpt>
      <trkpt lat="42.573369" lon=".935372">
        <ele>2018.432</ele>
        <time>2012-07-08T17:00:23Z</time>
      </trkpt>
      <trkpt lat="42.573355" lon=".935385">
        <ele>2016.515</ele>
        <time>2012-07-08T17:00:34Z</time>
      </trkpt>
      <trkpt lat="42.573349" lon=".935377">
        <ele>2016.065</ele>
        <time>2012-07-08T17:00:55Z</time>
      </trkpt>
      <trkpt lat="42.573315" lon=".935368">
        <ele>2015.111</ele>
        <time>2012-07-08T17:01:13Z</time>
      </trkpt>
      <trkpt lat="42.573273" lon=".935373">
        <ele>2013.107</ele>
        <time>2012-07-08T17:01:26Z</time>
      </trkpt>
      <trkpt lat="42.573197" lon=".935347">
        <ele>2010.734</ele>
        <time>2012-07-08T17:01:41Z</time>
      </trkpt>
      <trkpt lat="42.573164" lon=".935333">
        <ele>2009.382</ele>
        <time>2012-07-08T17:01:54Z</time>
      </trkpt>
      <trkpt lat="42.573132" lon=".935318">
        <ele>2008.855</ele>
        <time>2012-07-08T17:02:15Z</time>
      </trkpt>
      <trkpt lat="42.573061" lon=".935319">
        <ele>2006.965</ele>
        <time>2012-07-08T17:02:30Z</time>
      </trkpt>
      <trkpt lat="42.573041" lon=".935345">
        <ele>2005.061</ele>
        <time>2012-07-08T17:02:46Z</time>
      </trkpt>
      <trkpt lat="42.573041" lon=".935345">
        <ele>2005.024</ele>
        <time>2012-07-08T17:03:13Z</time>
      </trkpt>
      <trkpt lat="42.573025" lon=".935367">
        <ele>2003.041</ele>
        <time>2012-07-08T17:03:41Z</time>
      </trkpt>
      <trkpt lat="42.572997" lon=".935392">
        <ele>2001.686</ele>
        <time>2012-07-08T17:03:55Z</time>
      </trkpt>
      <trkpt lat="42.572974" lon=".935434">
        <ele>2000.260</ele>
        <time>2012-07-08T17:04:09Z</time>
      </trkpt>
      <trkpt lat="42.572956" lon=".935491">
        <ele>1998.726</ele>
        <time>2012-07-08T17:04:29Z</time>
      </trkpt>
      <trkpt lat="42.572926" lon=".935501">
        <ele>1996.807</ele>
        <time>2012-07-08T17:04:44Z</time>
      </trkpt>
      <trkpt lat="42.572899" lon=".935509">
        <ele>1995.441</ele>
        <time>2012-07-08T17:05:00Z</time>
      </trkpt>
      <trkpt lat="42.572875" lon=".935515">
        <ele>1994.929</ele>
        <time>2012-07-08T17:05:14Z</time>
      </trkpt>
      <trkpt lat="42.572831" lon=".935505">
        <ele>1993.922</ele>
        <time>2012-07-08T17:05:30Z</time>
      </trkpt>
      <trkpt lat="42.572824" lon=".93551">
        <ele>1993.472</ele>
        <time>2012-07-08T17:05:46Z</time>
      </trkpt>
      <trkpt lat="42.572809" lon=".935513">
        <ele>1993.468</ele>
        <time>2012-07-08T17:06:02Z</time>
      </trkpt>
      <trkpt lat="42.572796" lon=".935525">
        <ele>1993.011</ele>
        <time>2012-07-08T17:06:17Z</time>
      </trkpt>
      <trkpt lat="42.572767" lon=".935534">
        <ele>1991.538</ele>
        <time>2012-07-08T17:06:29Z</time>
      </trkpt>
      <trkpt lat="42.572746" lon=".935546">
        <ele>1990.619</ele>
        <time>2012-07-08T17:06:42Z</time>
      </trkpt>
      <trkpt lat="42.572723" lon=".93555">
        <ele>1989.609</ele>
        <time>2012-07-08T17:06:57Z</time>
      </trkpt>
      <trkpt lat="42.572714" lon=".935563">
        <ele>1988.119</ele>
        <time>2012-07-08T17:07:09Z</time>
      </trkpt>
      <trkpt lat="42.572672" lon=".935595">
        <ele>1985.307</ele>
        <time>2012-07-08T17:07:25Z</time>
      </trkpt>
      <trkpt lat="42.572637" lon=".93562">
        <ele>1982.964</ele>
        <time>2012-07-08T17:07:39Z</time>
      </trkpt>
      <trkpt lat="42.572612" lon=".935638">
        <ele>1981.942</ele>
        <time>2012-07-08T17:07:56Z</time>
      </trkpt>
      <trkpt lat="42.572571" lon=".935663">
        <ele>1980.985</ele>
        <time>2012-07-08T17:08:10Z</time>
      </trkpt>
      <trkpt lat="42.572521" lon=".935664">
        <ele>1978.565</ele>
        <time>2012-07-08T17:08:26Z</time>
      </trkpt>
      <trkpt lat="42.572485" lon=".935666">
        <ele>1978.131</ele>
        <time>2012-07-08T17:08:40Z</time>
      </trkpt>
      <trkpt lat="42.572474" lon=".935671">
        <ele>1977.694</ele>
        <time>2012-07-08T17:08:55Z</time>
      </trkpt>
      <trkpt lat="42.572455" lon=".935689">
        <ele>1976.111</ele>
        <time>2012-07-08T17:09:06Z</time>
      </trkpt>
      <trkpt lat="42.572433" lon=".935727">
        <ele>1975.285</ele>
        <time>2012-07-08T17:09:18Z</time>
      </trkpt>
      <trkpt lat="42.572416" lon=".935734">
        <ele>1974.289</ele>
        <time>2012-07-08T17:09:32Z</time>
      </trkpt>
      <trkpt lat="42.572398" lon=".935735">
        <ele>1974.217</ele>
        <time>2012-07-08T17:09:43Z</time>
      </trkpt>
      <trkpt lat="42.572376" lon=".935746">
        <ele>1972.307</ele>
        <time>2012-07-08T17:09:57Z</time>
      </trkpt>
      <trkpt lat="42.572356" lon=".935774">
        <ele>1970.481</ele>
        <time>2012-07-08T17:10:12Z</time>
      </trkpt>
      <trkpt lat="42.572328" lon=".935772">
        <ele>1968.979</ele>
        <time>2012-07-08T17:10:29Z</time>
      </trkpt>
      <trkpt lat="42.572317" lon=".935821">
        <ele>1967.052</ele>
        <time>2012-07-08T17:10:43Z</time>
      </trkpt>
      <trkpt lat="42.572314" lon=".935854">
        <ele>1966.042</ele>
        <time>2012-07-08T17:10:56Z</time>
      </trkpt>
      <trkpt lat="42.57231" lon=".935871">
        <ele>1965.118</ele>
        <time>2012-07-08T17:11:13Z</time>
      </trkpt>
      <trkpt lat="42.5723" lon=".935885">
        <ele>1964.661</ele>
        <time>2012-07-08T17:11:39Z</time>
      </trkpt>
      <trkpt lat="42.572262" lon=".935874">
        <ele>1962.758</ele>
        <time>2012-07-08T17:11:53Z</time>
      </trkpt>
      <trkpt lat="42.572257" lon=".935912">
        <ele>1960.827</ele>
        <time>2012-07-08T17:12:06Z</time>
      </trkpt>
      <trkpt lat="42.572257" lon=".935912">
        <ele>1960.868</ele>
        <time>2012-07-08T17:12:21Z</time>
      </trkpt>
      <trkpt lat="42.572271" lon=".93595">
        <ele>1958.314</ele>
        <time>2012-07-08T17:12:40Z</time>
      </trkpt>
      <trkpt lat="42.57228" lon=".935987">
        <ele>1956.407</ele>
        <time>2012-07-08T17:12:56Z</time>
      </trkpt>
      <trkpt lat="42.572277" lon=".936044">
        <ele>1954.535</ele>
        <time>2012-07-08T17:13:11Z</time>
      </trkpt>
      <trkpt lat="42.572271" lon=".936066">
        <ele>1953.113</ele>
        <time>2012-07-08T17:13:24Z</time>
      </trkpt>
      <trkpt lat="42.572267" lon=".936085">
        <ele>1952.666</ele>
        <time>2012-07-08T17:13:46Z</time>
      </trkpt>
      <trkpt lat="42.572257" lon=".936122">
        <ele>1953.166</ele>
        <time>2012-07-08T17:13:58Z</time>
      </trkpt>
      <trkpt lat="42.57224" lon=".936156">
        <ele>1952.122</ele>
        <time>2012-07-08T17:14:10Z</time>
      </trkpt>
      <trkpt lat="42.572218" lon=".93618">
        <ele>1952.155</ele>
        <time>2012-07-08T17:14:26Z</time>
      </trkpt>
      <trkpt lat="42.572197" lon=".936155">
        <ele>1951.622</ele>
        <time>2012-07-08T17:14:47Z</time>
      </trkpt>
      <trkpt lat="42.572141" lon=".936153">
        <ele>1949.211</ele>
        <time>2012-07-08T17:15:01Z</time>
      </trkpt>
      <trkpt lat="42.572106" lon=".93616">
        <ele>1947.821</ele>
        <time>2012-07-08T17:15:17Z</time>
      </trkpt>
      <trkpt lat="42.57205" lon=".936125">
        <ele>1945.403</ele>
        <time>2012-07-08T17:15:35Z</time>
      </trkpt>
      <trkpt lat="42.572012" lon=".936125">
        <ele>1944.407</ele>
        <time>2012-07-08T17:15:48Z</time>
      </trkpt>
      <trkpt lat="42.571984" lon=".936114">
        <ele>1943.444</ele>
        <time>2012-07-08T17:16:01Z</time>
      </trkpt>
      <trkpt lat="42.571919" lon=".936076">
        <ele>1940.692</ele>
        <time>2012-07-08T17:16:18Z</time>
      </trkpt>
      <trkpt lat="42.571856" lon=".936025">
        <ele>1938.265</ele>
        <time>2012-07-08T17:16:33Z</time>
      </trkpt>
      <trkpt lat="42.571792" lon=".936029">
        <ele>1936.785</ele>
        <time>2012-07-08T17:16:50Z</time>
      </trkpt>
      <trkpt lat="42.571706" lon=".936014">
        <ele>1934.811</ele>
        <time>2012-07-08T17:17:07Z</time>
      </trkpt>
      <trkpt lat="42.571623" lon=".936002">
        <ele>1932.494</ele>
        <time>2012-07-08T17:17:23Z</time>
      </trkpt>
      <trkpt lat="42.571591" lon=".93598">
        <ele>1931.931</ele>
        <time>2012-07-08T17:17:35Z</time>
      </trkpt>
      <trkpt lat="42.571552" lon=".935995">
        <ele>1931.066</ele>
        <time>2012-07-08T17:17:44Z</time>
      </trkpt>
      <trkpt lat="42.57149" lon=".936065">
        <ele>1928.529</ele>
        <time>2012-07-08T17:17:59Z</time>
      </trkpt>
      <trkpt lat="42.571442" lon=".936046">
        <ele>1926.121</ele>
        <time>2012-07-08T17:18:13Z</time>
      </trkpt>
      <trkpt lat="42.571399" lon=".936035">
        <ele>1925.207</ele>
        <time>2012-07-08T17:18:26Z</time>
      </trkpt>
      <trkpt lat="42.571366" lon=".936078">
        <ele>1923.389</ele>
        <time>2012-07-08T17:18:39Z</time>
      </trkpt>
      <trkpt lat="42.571319" lon=".936033">
        <ele>1919.927</ele>
        <time>2012-07-08T17:18:53Z</time>
      </trkpt>
      <trkpt lat="42.571236" lon=".936044">
        <ele>1918.570</ele>
        <time>2012-07-08T17:19:06Z</time>
      </trkpt>
      <trkpt lat="42.571169" lon=".936029">
        <ele>1916.570</ele>
        <time>2012-07-08T17:19:17Z</time>
      </trkpt>
      <trkpt lat="42.571127" lon=".936018">
        <ele>1917.066</ele>
        <time>2012-07-08T17:19:22Z</time>
      </trkpt>
      <trkpt lat="42.571049" lon=".936022">
        <ele>1914.119</ele>
        <time>2012-07-08T17:19:34Z</time>
      </trkpt>
      <trkpt lat="42.570995" lon=".936019">
        <ele>1912.216</ele>
        <time>2012-07-08T17:19:45Z</time>
      </trkpt>
      <trkpt lat="42.570925" lon=".935952">
        <ele>1909.342</ele>
        <time>2012-07-08T17:19:59Z</time>
      </trkpt>
      <trkpt lat="42.570883" lon=".935901">
        <ele>1906.022</ele>
        <time>2012-07-08T17:20:10Z</time>
      </trkpt>
      <trkpt lat="42.570842" lon=".9359">
        <ele>1902.614</ele>
        <time>2012-07-08T17:20:16Z</time>
      </trkpt>
      <trkpt lat="42.570764" lon=".935858">
        <ele>1900.207</ele>
        <time>2012-07-08T17:20:29Z</time>
      </trkpt>
      <trkpt lat="42.570732" lon=".935802">
        <ele>1899.767</ele>
        <time>2012-07-08T17:20:36Z</time>
      </trkpt>
      <trkpt lat="42.570654" lon=".935669">
        <ele>1899.735</ele>
        <time>2012-07-08T17:20:51Z</time>
      </trkpt>
      <trkpt lat="42.570646" lon=".935654">
        <ele>1900.238</ele>
        <time>2012-07-08T17:20:53Z</time>
      </trkpt>
      <trkpt lat="42.570603" lon=".935622">
        <ele>1901.138</ele>
        <time>2012-07-08T17:20:57Z</time>
      </trkpt>
      <trkpt lat="42.57058" lon=".935622">
        <ele>1900.784</ele>
        <time>2012-07-08T17:20:59Z</time>
      </trkpt>
      <trkpt lat="42.570517" lon=".935607">
        <ele>1905.047</ele>
        <time>2012-07-08T17:21:04Z</time>
      </trkpt>
      <trkpt lat="42.570416" lon=".935592">
        <ele>1907.974</ele>
        <time>2012-07-08T17:21:17Z</time>
      </trkpt>
      <trkpt lat="42.570359" lon=".935684">
        <ele>1906.046</ele>
        <time>2012-07-08T17:21:30Z</time>
      </trkpt>
      <trkpt lat="42.570358" lon=".935802">
        <ele>1905.088</ele>
        <time>2012-07-08T17:21:45Z</time>
      </trkpt>
      <trkpt lat="42.570362" lon=".935877">
        <ele>1902.616</ele>
        <time>2012-07-08T17:21:51Z</time>
      </trkpt>
      <trkpt lat="42.570376" lon=".936056">
        <ele>1901.607</ele>
        <time>2012-07-08T17:22:04Z</time>
      </trkpt>
      <trkpt lat="42.570397" lon=".936214">
        <ele>1904.047</ele>
        <time>2012-07-08T17:22:18Z</time>
      </trkpt>
      <trkpt lat="42.570426" lon=".936229">
        <ele>1904.545</ele>
        <time>2012-07-08T17:22:32Z</time>
      </trkpt>
      <trkpt lat="42.57043" lon=".936225">
        <ele>1904.528</ele>
        <time>2012-07-08T17:22:49Z</time>
      </trkpt>
      <trkpt lat="42.570432" lon=".936281">
        <ele>1904.568</ele>
        <time>2012-07-08T17:23:07Z</time>
      </trkpt>
      <trkpt lat="42.570437" lon=".936309">
        <ele>1903.664</ele>
        <time>2012-07-08T17:23:23Z</time>
      </trkpt>
      <trkpt lat="42.570415" lon=".93633">
        <ele>1903.627</ele>
        <time>2012-07-08T17:23:38Z</time>
      </trkpt>
      <trkpt lat="42.570423" lon=".936342">
        <ele>1905.074</ele>
        <time>2012-07-08T17:23:50Z</time>
      </trkpt>
      <trkpt lat="42.570425" lon=".936346">
        <ele>1905.022</ele>
        <time>2012-07-08T17:24:07Z</time>
      </trkpt>
      <trkpt lat="42.570406" lon=".936409">
        <ele>1906.062</ele>
        <time>2012-07-08T17:24:22Z</time>
      </trkpt>
      <trkpt lat="42.570373" lon=".936425">
        <ele>1906.908</ele>
        <time>2012-07-08T17:24:38Z</time>
      </trkpt>
      <trkpt lat="42.570373" lon=".936425">
        <ele>1906.907</ele>
        <time>2012-07-08T17:25:05Z</time>
      </trkpt>
      <trkpt lat="42.570384" lon=".936476">
        <ele>1910.385</ele>
        <time>2012-07-08T17:25:20Z</time>
      </trkpt>
      <trkpt lat="42.570355" lon=".936499">
        <ele>1914.113</ele>
        <time>2012-07-08T17:25:29Z</time>
      </trkpt>
      <trkpt lat="42.570356" lon=".936501">
        <ele>1915.136</ele>
        <time>2012-07-08T17:25:31Z</time>
      </trkpt>
      <trkpt lat="42.570357" lon=".9365">
        <ele>1916.046</ele>
        <time>2012-07-08T17:25:48Z</time>
      </trkpt>
      <trkpt lat="42.570359" lon=".936545">
        <ele>1918.542</ele>
        <time>2012-07-08T17:26:04Z</time>
      </trkpt>
      <trkpt lat="42.570337" lon=".936632">
        <ele>1920.925</ele>
        <time>2012-07-08T17:26:20Z</time>
      </trkpt>
      <trkpt lat="42.570318" lon=".936678">
        <ele>1922.322</ele>
        <time>2012-07-08T17:26:29Z</time>
      </trkpt>
      <trkpt lat="42.57031" lon=".936698">
        <ele>1923.757</ele>
        <time>2012-07-08T17:26:33Z</time>
      </trkpt>
      <trkpt lat="42.570282" lon=".936726">
        <ele>1926.600</ele>
        <time>2012-07-08T17:26:52Z</time>
      </trkpt>
      <trkpt lat="42.570265" lon=".936717">
        <ele>1928.520</ele>
        <time>2012-07-08T17:26:56Z</time>
      </trkpt>
      <trkpt lat="42.570254" lon=".936722">
        <ele>1928.107</ele>
        <time>2012-07-08T17:27:10Z</time>
      </trkpt>
      <trkpt lat="42.570254" lon=".936722">
        <ele>1928.198</ele>
        <time>2012-07-08T17:27:33Z</time>
      </trkpt>
      <trkpt lat="42.570268" lon=".93674">
        <ele>1928.196</ele>
        <time>2012-07-08T17:27:37Z</time>
      </trkpt>
      <trkpt lat="42.570397" lon=".937045">
        <ele>1928.199</ele>
        <time>2012-07-08T17:27:57Z</time>
      </trkpt>
      <trkpt lat="42.570383" lon=".937041">
        <ele>1927.669</ele>
        <time>2012-07-08T17:28:17Z</time>
      </trkpt>
      <trkpt lat="42.570301" lon=".936933">
        <ele>1928.145</ele>
        <time>2012-07-08T17:28:43Z</time>
      </trkpt>
      <trkpt lat="42.570294" lon=".936911">
        <ele>1928.178</ele>
        <time>2012-07-08T17:29:09Z</time>
      </trkpt>
      <trkpt lat="42.570314" lon=".936853">
        <ele>1931.035</ele>
        <time>2012-07-08T17:29:15Z</time>
      </trkpt>
      <trkpt lat="42.570293" lon=".936797">
        <ele>1932.448</ele>
        <time>2012-07-08T17:29:34Z</time>
      </trkpt>
      <trkpt lat="42.570241" lon=".936697">
        <ele>1934.361</ele>
        <time>2012-07-08T17:29:54Z</time>
      </trkpt>
      <trkpt lat="42.572607" lon="0.942250">
        <ele>1988.077</ele>
        <time>2018-06-28T05:23:08Z</time>
      </trkpt>
      <trkpt lat="42.572400" lon="0.942717">
        <ele>1995.061</ele>
        <time>2018-06-28T05:24:50Z</time>
      </trkpt>
      <trkpt lat="42.572132" lon="0.942363">
        <ele>1997.027</ele>
        <time>2018-06-28T05:25:35Z</time>
      </trkpt>
      <trkpt lat="42.571808" lon="0.942208">
        <ele>2004.008</ele>
        <time>2018-06-28T05:27:24Z</time>
      </trkpt>
      <trkpt lat="42.572060" lon="0.942690">
        <ele>2010.079</ele>
        <time>2018-06-28T05:28:19Z</time>
      </trkpt>
      <trkpt lat="42.571703" lon="0.942758">
        <ele>2018.093</ele>
        <time>2018-06-28T05:29:09Z</time>
      </trkpt>
      <trkpt lat="42.571872" lon="0.943143">
        <ele>2024.019</ele>
        <time>2018-06-28T05:29:55Z</time>
      </trkpt>
      <trkpt lat="42.571737" lon="0.943260">
        <ele>2025.033</ele>
        <time>2018-06-28T05:30:21Z</time>
      </trkpt>
      <trkpt lat="42.571950" lon="0.943487">
        <ele>2029.058</ele>
        <time>2018-06-28T05:30:48Z</time>
      </trkpt>
      <trkpt lat="42.571807" lon="0.943997">
        <ele>2036.010</ele>
        <time>2018-06-28T05:31:30Z</time>
      </trkpt>
      <trkpt lat="42.571310" lon="0.943598">
        <ele>2044.084</ele>
        <time>2018-06-28T05:32:42Z</time>
      </trkpt>
      <trkpt lat="42.571248" lon="0.944098">
        <ele>2047.058</ele>
        <time>2018-06-28T05:33:27Z</time>
      </trkpt>
      <trkpt lat="42.570378" lon="0.944890">
        <ele>2053.097</ele>
        <time>2018-06-28T05:35:10Z</time>
      </trkpt>
      <trkpt lat="42.570090" lon="0.944582">
        <ele>2058.023</ele>
        <time>2018-06-28T05:35:50Z</time>
      </trkpt>
      <trkpt lat="42.569703" lon="0.944848">
        <ele>2062.025</ele>
        <time>2018-06-28T05:36:37Z</time>
      </trkpt>
      <trkpt lat="42.569843" lon="0.945168">
        <ele>2068.008</ele>
        <time>2018-06-28T05:37:10Z</time>
      </trkpt>
      <trkpt lat="42.569663" lon="0.945207">
        <ele>2072.011</ele>
        <time>2018-06-28T05:37:32Z</time>
      </trkpt>
      <trkpt lat="42.569657" lon="0.945367">
        <ele>2075.015</ele>
        <time>2018-06-28T05:37:50Z</time>
      </trkpt>
      <trkpt lat="42.569342" lon="0.945178">
        <ele>2082.071</ele>
        <time>2018-06-28T05:38:35Z</time>
      </trkpt>
      <trkpt lat="42.568718" lon="0.945420">
        <ele>2092.025</ele>
        <time>2018-06-28T05:39:49Z</time>
      </trkpt>
      <trkpt lat="42.569085" lon="0.945652">
        <ele>2102.050</ele>
        <time>2018-06-28T05:40:40Z</time>
      </trkpt>
      <trkpt lat="42.568652" lon="0.945753">
        <ele>2109.022</ele>
        <time>2018-06-28T05:41:33Z</time>
      </trkpt>
      <trkpt lat="42.568717" lon="0.945912">
        <ele>2113.096</ele>
        <time>2018-06-28T05:41:53Z</time>
      </trkpt>
      <trkpt lat="42.568987" lon="0.945953">
        <ele>2117.090</ele>
        <time>2018-06-28T05:42:26Z</time>
      </trkpt>
      <trkpt lat="42.568967" lon="0.946060">
        <ele>2123.058</ele>
        <time>2018-06-28T05:44:35Z</time>
      </trkpt>
      <trkpt lat="42.567885" lon="0.946513">
        <ele>2135.052</ele>
        <time>2018-06-28T05:46:50Z</time>
      </trkpt>
      <trkpt lat="42.567535" lon="0.946868">
        <ele>2140.017</ele>
        <time>2018-06-28T05:47:36Z</time>
      </trkpt>
      <trkpt lat="42.566557" lon="0.947367">
        <ele>2149.008</ele>
        <time>2018-06-28T05:49:18Z</time>
      </trkpt>
      <trkpt lat="42.565995" lon="0.947828">
        <ele>2156.097</ele>
        <time>2018-06-28T05:50:22Z</time>
      </trkpt>
      <trkpt lat="42.565510" lon="0.947820">
        <ele>2161.061</ele>
        <time>2018-06-28T05:51:07Z</time>
      </trkpt>
      <trkpt lat="42.564913" lon="0.947370">
        <ele>2169.047</ele>
        <time>2018-06-28T05:52:33Z</time>
      </trkpt>
      <trkpt lat="42.564342" lon="0.946290">
        <ele>2182.011</ele>
        <time>2018-06-28T05:55:56Z</time>
      </trkpt>
      <trkpt lat="42.564018" lon="0.945983">
        <ele>2185.026</ele>
        <time>2018-06-28T05:56:35Z</time>
      </trkpt>
      <trkpt lat="42.563658" lon="0.944697">
        <ele>2196.048</ele>
        <time>2018-06-28T05:59:13Z</time>
      </trkpt>
      <trkpt lat="42.563455" lon="0.944512">
        <ele>2204.042</ele>
        <time>2018-06-28T06:00:09Z</time>
      </trkpt>
      <trkpt lat="42.563402" lon="0.944003">
        <ele>2215.016</ele>
        <time>2018-06-28T06:01:05Z</time>
      </trkpt>
      <trkpt lat="42.562967" lon="0.943773">
        <ele>2224.022</ele>
        <time>2018-06-28T06:02:14Z</time>
      </trkpt>
      <trkpt lat="42.562478" lon="0.943083">
        <ele>2230.062</ele>
        <time>2018-06-28T06:03:51Z</time>
      </trkpt>
      <trkpt lat="42.562413" lon="0.942563">
        <ele>2231.008</ele>
        <time>2018-06-28T06:04:33Z</time>
      </trkpt>
      <trkpt lat="42.562215" lon="0.942370">
        <ele>2232.008</ele>
        <time>2018-06-28T06:05:00Z</time>
      </trkpt>
      <trkpt lat="42.562102" lon="0.942663">
        <ele>2236.064</ele>
        <time>2018-06-28T06:05:33Z</time>
      </trkpt>
      <trkpt lat="42.561710" lon="0.941873">
        <ele>2254.068</ele>
        <time>2018-06-28T06:07:12Z</time>
      </trkpt>
      <trkpt lat="42.561358" lon="0.941585">
        <ele>2261.034</ele>
        <time>2018-06-28T06:08:06Z</time>
      </trkpt>
      <trkpt lat="42.561558" lon="0.941442">
        <ele>2266.048</ele>
        <time>2018-06-28T06:08:39Z</time>
      </trkpt>
      <trkpt lat="42.561507" lon="0.941305">
        <ele>2269.023</ele>
        <time>2018-06-28T06:08:55Z</time>
      </trkpt>
      <trkpt lat="42.561627" lon="0.941323">
        <ele>2272.045</ele>
        <time>2018-06-28T06:09:13Z</time>
      </trkpt>
      <trkpt lat="42.561498" lon="0.940412">
        <ele>2285.059</ele>
        <time>2018-06-28T06:10:51Z</time>
      </trkpt>
      <trkpt lat="42.560927" lon="0.938963">
        <ele>2302.033</ele>
        <time>2018-06-28T06:13:09Z</time>
      </trkpt>
      <trkpt lat="42.559575" lon="0.937598">
        <ele>2293.038</ele>
        <time>2018-06-28T06:16:56Z</time>
      </trkpt>
      <trkpt lat="42.558705" lon="0.937283">
        <ele>2290.070</ele>
        <time>2018-06-28T06:18:41Z</time>
      </trkpt>
      <trkpt lat="42.558232" lon="0.937577">
        <ele>2300.017</ele>
        <time>2018-06-28T06:19:52Z</time>
      </trkpt>
      <trkpt lat="42.557393" lon="0.938777">
        <ele>2311.008</ele>
        <time>2018-06-28T06:22:33Z</time>
      </trkpt>
      <trkpt lat="42.557015" lon="0.940157">
        <ele>2323.025</ele>
        <time>2018-06-28T06:24:39Z</time>
      </trkpt>
      <trkpt lat="42.555402" lon="0.943665">
        <ele>2343.089</ele>
        <time>2018-06-28T06:33:07Z</time>
      </trkpt>
      <trkpt lat="42.554672" lon="0.944305">
        <ele>2340.055</ele>
        <time>2018-06-28T06:34:48Z</time>
      </trkpt>
      <trkpt lat="42.554172" lon="0.944398">
        <ele>2345.069</ele>
        <time>2018-06-28T06:35:52Z</time>
      </trkpt>
      <trkpt lat="42.553570" lon="0.945523">
        <ele>2345.034</ele>
        <time>2018-06-28T06:38:02Z</time>
      </trkpt>
      <trkpt lat="42.553147" lon="0.945653">
        <ele>2349.066</ele>
        <time>2018-06-28T06:38:45Z</time>
      </trkpt>
      <trkpt lat="42.551870" lon="0.946883">
        <ele>2351.070</ele>
        <time>2018-06-28T06:41:03Z</time>
      </trkpt>
      <trkpt lat="42.551567" lon="0.947440">
        <ele>2350.064</ele>
        <time>2018-06-28T06:41:52Z</time>
      </trkpt>
      <trkpt lat="42.551193" lon="0.947770">
        <ele>2351.088</ele>
        <time>2018-06-28T06:42:56Z</time>
      </trkpt>
      <trkpt lat="42.550947" lon="0.948320">
        <ele>2360.024</ele>
        <time>2018-06-28T06:45:16Z</time>
      </trkpt>
      <trkpt lat="42.550043" lon="0.949183">
        <ele>2366.026</ele>
        <time>2018-06-28T06:49:33Z</time>
      </trkpt>
      <trkpt lat="42.549782" lon="0.949302">
        <ele>2365.008</ele>
        <time>2018-06-28T06:50:43Z</time>
      </trkpt>
      <trkpt lat="42.549468" lon="0.948960">
        <ele>2358.080</ele>
        <time>2018-06-28T06:52:40Z</time>
      </trkpt>
      <trkpt lat="42.548473" lon="0.949338">
        <ele>2354.044</ele>
        <time>2018-06-28T06:54:46Z</time>
      </trkpt>
      <trkpt lat="42.547317" lon="0.950628">
        <ele>2374.090</ele>
        <time>2018-06-28T06:57:24Z</time>
      </trkpt>
      <trkpt lat="42.546875" lon="0.950865">
        <ele>2382.074</ele>
        <time>2018-06-28T06:58:18Z</time>
      </trkpt>
      <trkpt lat="42.546522" lon="0.951565">
        <ele>2392.099</ele>
        <time>2018-06-28T06:59:27Z</time>
      </trkpt>
      <trkpt lat="42.546230" lon="0.951805">
        <ele>2395.031</ele>
        <time>2018-06-28T07:00:46Z</time>
      </trkpt>
      <trkpt lat="42.545320" lon="0.953318">
        <ele>2418.075</ele>
        <time>2018-06-28T07:03:30Z</time>
      </trkpt>
      <trkpt lat="42.544970" lon="0.953648">
        <ele>2423.019</ele>
        <time>2018-06-28T07:04:35Z</time>
      </trkpt>
      <trkpt lat="42.544502" lon="0.954612">
        <ele>2426.053</ele>
        <time>2018-06-28T07:07:30Z</time>
      </trkpt>
      <trkpt lat="42.544157" lon="0.954865">
        <ele>2427.004</ele>
        <time>2018-06-28T07:08:31Z</time>
      </trkpt>
      <trkpt lat="42.544003" lon="0.954762">
        <ele>2435.014</ele>
        <time>2018-06-28T07:09:27Z</time>
      </trkpt>
      <trkpt lat="42.543835" lon="0.954850">
        <ele>2434.008</ele>
        <time>2018-06-28T07:10:09Z</time>
      </trkpt>
      <trkpt lat="42.543355" lon="0.955378">
        <ele>2447.057</ele>
        <time>2018-06-28T07:11:32Z</time>
      </trkpt>
      <trkpt lat="42.542972" lon="0.956438">
        <ele>2463.031</ele>
        <time>2018-06-28T07:13:31Z</time>
      </trkpt>
      <trkpt lat="42.542725" lon="0.956555">
        <ele>2465.057</ele>
        <time>2018-06-28T07:14:45Z</time>
      </trkpt>
      <trkpt lat="42.542585" lon="0.957135">
        <ele>2480.021</ele>
        <time>2018-06-28T07:16:22Z</time>
      </trkpt>
      <trkpt lat="42.542182" lon="0.957678">
        <ele>2492.036</ele>
        <time>2018-06-28T07:17:46Z</time>
      </trkpt>
      <trkpt lat="42.541672" lon="0.957945">
        <ele>2513.038</ele>
        <time>2018-06-28T07:19:39Z</time>
      </trkpt>
      <trkpt lat="42.541278" lon="0.959207">
        <ele>2554.012</ele>
        <time>2018-06-28T07:24:38Z</time>
      </trkpt>
      <trkpt lat="42.541412" lon="0.959627">
        <ele>2563.016</ele>
        <time>2018-06-28T07:25:46Z</time>
      </trkpt>
      <trkpt lat="42.541067" lon="0.960058">
        <ele>2581.073</ele>
        <time>2018-06-28T07:27:58Z</time>
      </trkpt>
      <trkpt lat="42.541132" lon="0.960485">
        <ele>2568.085</ele>
        <time>2018-06-28T07:51:09Z</time>
      </trkpt>
      <trkpt lat="42.540858" lon="0.960475">
        <ele>2553.013</ele>
        <time>2018-06-28T07:52:30Z</time>
      </trkpt>
      <trkpt lat="42.540780" lon="0.960905">
        <ele>2532.008</ele>
        <time>2018-06-28T07:54:24Z</time>
      </trkpt>
      <trkpt lat="42.539932" lon="0.961553">
        <ele>2503.059</ele>
        <time>2018-06-28T07:57:17Z</time>
      </trkpt>
      <trkpt lat="42.540370" lon="0.963110">
        <ele>2464.033</ele>
        <time>2018-06-28T08:00:42Z</time>
      </trkpt>
      <trkpt lat="42.540052" lon="0.963390">
        <ele>2452.049</ele>
        <time>2018-06-28T08:01:34Z</time>
      </trkpt>
      <trkpt lat="42.539753" lon="0.963292">
        <ele>2446.093</ele>
        <time>2018-06-28T08:02:39Z</time>
      </trkpt>
      <trkpt lat="42.539597" lon="0.964028">
        <ele>2430.038</ele>
        <time>2018-06-28T08:05:10Z</time>
      </trkpt>
      <trkpt lat="42.539188" lon="0.964587">
        <ele>2428.080</ele>
        <time>2018-06-28T08:08:12Z</time>
      </trkpt>
      <trkpt lat="42.539188" lon="0.965273">
        <ele>2407.064</ele>
        <time>2018-06-28T08:09:36Z</time>
      </trkpt>
      <trkpt lat="42.539472" lon="0.965278">
        <ele>2390.018</ele>
        <time>2018-06-28T08:11:50Z</time>
      </trkpt>
      <trkpt lat="42.539507" lon="0.965435">
        <ele>2385.025</ele>
        <time>2018-06-28T08:12:25Z</time>
      </trkpt>
      <trkpt lat="42.539230" lon="0.966283">
        <ele>2367.026</ele>
        <time>2018-06-28T08:14:12Z</time>
      </trkpt>
      <trkpt lat="42.537692" lon="0.968268">
        <ele>2364.008</ele>
        <time>2018-06-28T08:18:48Z</time>
      </trkpt>
      <trkpt lat="42.536812" lon="0.969023">
        <ele>2358.008</ele>
        <time>2018-06-28T08:20:30Z</time>
      </trkpt>
      <trkpt lat="42.536658" lon="0.968963">
        <ele>2357.074</ele>
        <time>2018-06-28T08:20:44Z</time>
      </trkpt>
      <trkpt lat="42.536553" lon="0.969192">
        <ele>2357.028</ele>
        <time>2018-06-28T08:21:01Z</time>
      </trkpt>
      <trkpt lat="42.536503" lon="0.969040">
        <ele>2353.064</ele>
        <time>2018-06-28T08:22:59Z</time>
      </trkpt>
      <trkpt lat="42.536570" lon="0.969170">
        <ele>2355.098</ele>
        <time>2018-06-28T08:26:00Z</time>
      </trkpt>
      <trkpt lat="42.536097" lon="0.969245">
        <ele>2353.073</ele>
        <time>2018-06-28T08:27:32Z</time>
      </trkpt>
      <trkpt lat="42.535698" lon="0.969528">
        <ele>2355.015</ele>
        <time>2018-06-28T08:28:28Z</time>
      </trkpt>
      <trkpt lat="42.535663" lon="0.970453">
        <ele>2348.049</ele>
        <time>2018-06-28T08:29:38Z</time>
      </trkpt>
      <trkpt lat="42.535433" lon="0.970568">
        <ele>2346.023</ele>
        <time>2018-06-28T08:29:59Z</time>
      </trkpt>
      <trkpt lat="42.535155" lon="0.971203">
        <ele>2342.028</ele>
        <time>2018-06-28T08:30:41Z</time>
      </trkpt>
      <trkpt lat="42.534407" lon="0.971665">
        <ele>2343.089</ele>
        <time>2018-06-28T08:33:24Z</time>
      </trkpt>
      <trkpt lat="42.534168" lon="0.972330">
        <ele>2346.017</ele>
        <time>2018-06-28T08:34:15Z</time>
      </trkpt>
      <trkpt lat="42.533983" lon="0.972278">
        <ele>2338.008</ele>
        <time>2018-06-28T08:35:24Z</time>
      </trkpt>
      <trkpt lat="42.533832" lon="0.972782">
        <ele>2330.024</ele>
        <time>2018-06-28T08:36:03Z</time>
      </trkpt>
      <trkpt lat="42.533440" lon="0.973165">
        <ele>2323.098</ele>
        <time>2018-06-28T08:36:49Z</time>
      </trkpt>
      <trkpt lat="42.533117" lon="0.973810">
        <ele>2321.014</ele>
        <time>2018-06-28T08:37:37Z</time>
      </trkpt>
      <trkpt lat="42.532595" lon="0.974030">
        <ele>2323.068</ele>
        <time>2018-06-28T08:38:28Z</time>
      </trkpt>
      <trkpt lat="42.532005" lon="0.974680">
        <ele>2322.093</ele>
        <time>2018-06-28T08:39:37Z</time>
      </trkpt>
      <trkpt lat="42.531132" lon="0.975125">
        <ele>2313.025</ele>
        <time>2018-06-28T08:41:09Z</time>
      </trkpt>
      <trkpt lat="42.530423" lon="0.974802">
        <ele>2305.099</ele>
        <time>2018-06-28T08:43:04Z</time>
      </trkpt>
      <trkpt lat="42.530225" lon="0.974195">
        <ele>2296.043</ele>
        <time>2018-06-28T08:44:28Z</time>
      </trkpt>
      <trkpt lat="42.530003" lon="0.974392">
        <ele>2295.027</ele>
        <time>2018-06-28T08:45:03Z</time>
      </trkpt>
      <trkpt lat="42.529563" lon="0.974470">
        <ele>2301.068</ele>
        <time>2018-06-28T08:46:22Z</time>
      </trkpt>
      <trkpt lat="42.529492" lon="0.974172">
        <ele>2303.014</ele>
        <time>2018-06-28T08:46:59Z</time>
      </trkpt>
      <trkpt lat="42.529438" lon="0.974348">
        <ele>2303.008</ele>
        <time>2018-06-28T08:47:35Z</time>
      </trkpt>
      <trkpt lat="42.529280" lon="0.974243">
        <ele>2310.064</ele>
        <time>2018-06-28T08:48:25Z</time>
      </trkpt>
      <trkpt lat="42.528817" lon="0.974737">
        <ele>2322.058</ele>
        <time>2018-06-28T08:49:40Z</time>
      </trkpt>
      <trkpt lat="42.528595" lon="0.974495">
        <ele>2333.014</ele>
        <time>2018-06-28T08:50:30Z</time>
      </trkpt>
      <trkpt lat="42.528408" lon="0.974923">
        <ele>2338.048</ele>
        <time>2018-06-28T08:51:30Z</time>
      </trkpt>
      <trkpt lat="42.528375" lon="0.974713">
        <ele>2341.063</ele>
        <time>2018-06-28T08:51:53Z</time>
      </trkpt>
      <trkpt lat="42.528232" lon="0.974950">
        <ele>2345.085</ele>
        <time>2018-06-28T08:52:22Z</time>
      </trkpt>
      <trkpt lat="42.527567" lon="0.975053">
        <ele>2353.099</ele>
        <time>2018-06-28T08:53:50Z</time>
      </trkpt>
      <trkpt lat="42.527168" lon="0.974942">
        <ele>2352.063</ele>
        <time>2018-06-28T08:55:20Z</time>
      </trkpt>
      <trkpt lat="42.526773" lon="0.975267">
        <ele>2340.055</ele>
        <time>2018-06-28T08:56:33Z</time>
      </trkpt>
      <trkpt lat="42.525778" lon="0.976632">
        <ele>2311.007</ele>
        <time>2018-06-28T08:59:16Z</time>
      </trkpt>
      <trkpt lat="42.523832" lon="0.977788">
        <ele>2314.017</ele>
        <time>2018-06-28T09:02:29Z</time>
      </trkpt>
      <trkpt lat="42.523137" lon="0.978508">
        <ele>2326.008</ele>
        <time>2018-06-28T09:04:05Z</time>
      </trkpt>
      <trkpt lat="42.522310" lon="0.979862">
        <ele>2309.047</ele>
        <time>2018-06-28T09:08:12Z</time>
      </trkpt>
      <trkpt lat="42.522292" lon="0.980835">
        <ele>2303.081</ele>
        <time>2018-06-28T09:09:35Z</time>
      </trkpt>
      <trkpt lat="42.522098" lon="0.980960">
        <ele>2298.077</ele>
        <time>2018-06-28T09:10:39Z</time>
      </trkpt>
      <trkpt lat="42.521842" lon="0.981948">
        <ele>2297.021</ele>
        <time>2018-06-28T09:11:47Z</time>
      </trkpt>
      <trkpt lat="42.521572" lon="0.982337">
        <ele>2297.066</ele>
        <time>2018-06-28T09:12:21Z</time>
      </trkpt>
      <trkpt lat="42.521093" lon="0.982362">
        <ele>2302.058</ele>
        <time>2018-06-28T09:13:16Z</time>
      </trkpt>
      <trkpt lat="42.520513" lon="0.983163">
        <ele>2297.032</ele>
        <time>2018-06-28T09:15:20Z</time>
      </trkpt>
      <trkpt lat="42.520165" lon="0.984355">
        <ele>2291.056</ele>
        <time>2018-06-28T09:17:05Z</time>
      </trkpt>
      <trkpt lat="42.519872" lon="0.984740">
        <ele>2295.049</ele>
        <time>2018-06-28T09:17:46Z</time>
      </trkpt>
      <trkpt lat="42.519823" lon="0.985525">
        <ele>2299.002</ele>
        <time>2018-06-28T09:18:56Z</time>
      </trkpt>
      <trkpt lat="42.519795" lon="0.985162">
        <ele>2299.022</ele>
        <time>2018-06-28T09:19:34Z</time>
      </trkpt>
      <trkpt lat="42.519400" lon="0.985895">
        <ele>2303.008</ele>
        <time>2018-06-28T09:20:57Z</time>
      </trkpt>
      <trkpt lat="42.518613" lon="0.986775">
        <ele>2297.026</ele>
        <time>2018-06-28T09:22:38Z</time>
      </trkpt>
      <trkpt lat="42.518730" lon="0.987255">
        <ele>2300.060</ele>
        <time>2018-06-28T09:24:04Z</time>
      </trkpt>
      <trkpt lat="42.518083" lon="0.988028">
        <ele>2300.026</ele>
        <time>2018-06-28T09:25:27Z</time>
      </trkpt>
      <trkpt lat="42.517797" lon="0.988930">
        <ele>2299.050</ele>
        <time>2018-06-28T09:26:21Z</time>
      </trkpt>
      <trkpt lat="42.517815" lon="0.989405">
        <ele>2298.015</ele>
        <time>2018-06-28T09:26:51Z</time>
      </trkpt>
      <trkpt lat="42.517450" lon="0.990413">
        <ele>2299.027</ele>
        <time>2018-06-28T09:28:03Z</time>
      </trkpt>
      <trkpt lat="42.516760" lon="0.991287">
        <ele>2304.031</ele>
        <time>2018-06-28T09:29:33Z</time>
      </trkpt>
      <trkpt lat="42.516805" lon="0.992252">
        <ele>2306.095</ele>
        <time>2018-06-28T09:30:58Z</time>
      </trkpt>
      <trkpt lat="42.516630" lon="0.993082">
        <ele>2314.077</ele>
        <time>2018-06-28T09:32:05Z</time>
      </trkpt>
      <trkpt lat="42.516763" lon="0.993882">
        <ele>2325.061</ele>
        <time>2018-06-28T09:33:25Z</time>
      </trkpt>
      <trkpt lat="42.516993" lon="0.994035">
        <ele>2327.027</ele>
        <time>2018-06-28T09:34:04Z</time>
      </trkpt>
      <trkpt lat="42.517275" lon="0.994552">
        <ele>2330.008</ele>
        <time>2018-06-28T09:34:59Z</time>
      </trkpt>
      <trkpt lat="42.517258" lon="0.994942">
        <ele>2336.049</ele>
        <time>2018-06-28T09:35:35Z</time>
      </trkpt>
      <trkpt lat="42.516907" lon="0.995665">
        <ele>2342.013</ele>
        <time>2018-06-28T09:36:37Z</time>
      </trkpt>
      <trkpt lat="42.516972" lon="0.995753">
        <ele>2344.049</ele>
        <time>2018-06-28T09:36:51Z</time>
      </trkpt>
      <trkpt lat="42.517097" lon="0.995562">
        <ele>2349.073</ele>
        <time>2018-06-28T09:37:18Z</time>
      </trkpt>
      <trkpt lat="42.517313" lon="0.995798">
        <ele>2353.038</ele>
        <time>2018-06-28T09:37:55Z</time>
      </trkpt>
      <trkpt lat="42.517470" lon="0.997107">
        <ele>2360.050</ele>
        <time>2018-06-28T09:39:35Z</time>
      </trkpt>
      <trkpt lat="42.517398" lon="0.997597">
        <ele>2369.044</ele>
        <time>2018-06-28T09:40:23Z</time>
      </trkpt>
      <trkpt lat="42.517645" lon="0.997562">
        <ele>2378.058</ele>
        <time>2018-06-28T09:41:03Z</time>
      </trkpt>
      <trkpt lat="42.517705" lon="0.997787">
        <ele>2381.017</ele>
        <time>2018-06-28T09:41:27Z</time>
      </trkpt>
      <trkpt lat="42.517970" lon="0.997850">
        <ele>2383.087</ele>
        <time>2018-06-28T09:41:59Z</time>
      </trkpt>
      <trkpt lat="42.518390" lon="0.999057">
        <ele>2393.015</ele>
        <time>2018-06-28T09:44:12Z</time>
      </trkpt>
      <trkpt lat="42.518967" lon="0.999412">
        <ele>2402.008</ele>
        <time>2018-06-28T09:45:29Z</time>
      </trkpt>
      <trkpt lat="42.519198" lon="0.999730">
        <ele>2404.073</ele>
        <time>2018-06-28T09:46:08Z</time>
      </trkpt>
      <trkpt lat="42.519277" lon="0.999613">
        <ele>2408.067</ele>
        <time>2018-06-28T09:46:33Z</time>
      </trkpt>
      <trkpt lat="42.519543" lon="0.999987">
        <ele>2411.073</ele>
        <time>2018-06-28T09:47:40Z</time>
      </trkpt>
      <trkpt lat="42.519470" lon="1.001153">
        <ele>2423.077</ele>
        <time>2018-06-28T09:53:46Z</time>
      </trkpt>
      <trkpt lat="42.519575" lon="1.000112">
        <ele>2415.082</ele>
        <time>2018-06-28T10:23:56Z</time>
      </trkpt>
      <trkpt lat="42.519298" lon="0.999657">
        <ele>2414.044</ele>
        <time>2018-06-28T10:24:45Z</time>
      </trkpt>
      <trkpt lat="42.519452" lon="0.999517">
        <ele>2417.048</ele>
        <time>2018-06-28T10:25:17Z</time>
      </trkpt>
      <trkpt lat="42.519357" lon="0.999285">
        <ele>2421.032</ele>
        <time>2018-06-28T10:25:43Z</time>
      </trkpt>
      <trkpt lat="42.520097" lon="0.997863">
        <ele>2421.092</ele>
        <time>2018-06-28T10:27:45Z</time>
      </trkpt>
      <trkpt lat="42.520357" lon="0.997630">
        <ele>2422.073</ele>
        <time>2018-06-28T10:28:15Z</time>
      </trkpt>
      <trkpt lat="42.520682" lon="0.997895">
        <ele>2421.020</ele>
        <time>2018-06-28T10:28:57Z</time>
      </trkpt>
      <trkpt lat="42.520965" lon="0.998538">
        <ele>2423.008</ele>
        <time>2018-06-28T10:30:01Z</time>
      </trkpt>
      <trkpt lat="42.521430" lon="0.998870">
        <ele>2423.061</ele>
        <time>2018-06-28T10:30:51Z</time>
      </trkpt>
      <trkpt lat="42.522450" lon="1.000193">
        <ele>2424.015</ele>
        <time>2018-06-28T10:34:01Z</time>
      </trkpt>
      <trkpt lat="42.523482" lon="1.002432">
        <ele>2436.091</ele>
        <time>2018-06-28T10:37:36Z</time>
      </trkpt>
      <trkpt lat="42.523552" lon="1.003037">
        <ele>2442.015</ele>
        <time>2018-06-28T10:38:30Z</time>
      </trkpt>
      <trkpt lat="42.523407" lon="1.003390">
        <ele>2443.070</ele>
        <time>2018-06-28T10:39:10Z</time>
      </trkpt>
      <trkpt lat="42.523597" lon="1.003962">
        <ele>2442.082</ele>
        <time>2018-06-28T10:40:11Z</time>
      </trkpt>
      <trkpt lat="42.524242" lon="1.004248">
        <ele>2443.036</ele>
        <time>2018-06-28T10:41:35Z</time>
      </trkpt>
      <trkpt lat="42.524817" lon="1.005150">
        <ele>2442.020</ele>
        <time>2018-06-28T10:43:08Z</time>
      </trkpt>
      <trkpt lat="42.525742" lon="1.005140">
        <ele>2446.083</ele>
        <time>2018-06-28T10:44:32Z</time>
      </trkpt>
      <trkpt lat="42.526123" lon="1.004915">
        <ele>2449.025</ele>
        <time>2018-06-28T10:45:10Z</time>
      </trkpt>
      <trkpt lat="42.526530" lon="1.006202">
        <ele>2454.017</ele>
        <time>2018-06-28T10:47:35Z</time>
      </trkpt>
      <trkpt lat="42.527090" lon="1.006600">
        <ele>2456.008</ele>
        <time>2018-06-28T10:48:38Z</time>
      </trkpt>
      <trkpt lat="42.527247" lon="1.007210">
        <ele>2456.050</ele>
        <time>2018-06-28T10:49:23Z</time>
      </trkpt>
      <trkpt lat="42.527238" lon="1.008300">
        <ele>2457.024</ele>
        <time>2018-06-28T10:53:03Z</time>
      </trkpt>
      <trkpt lat="42.527018" lon="1.009880">
        <ele>2467.020</ele>
        <time>2018-06-28T10:55:57Z</time>
      </trkpt>
      <trkpt lat="42.527357" lon="1.009417">
        <ele>2481.094</ele>
        <time>2018-06-28T10:57:05Z</time>
      </trkpt>
      <trkpt lat="42.527815" lon="1.011853">
        <ele>2541.039</ele>
        <time>2018-06-28T11:05:46Z</time>
      </trkpt>
      <trkpt lat="42.527538" lon="1.012540">
        <ele>2538.031</ele>
        <time>2018-06-28T11:07:00Z</time>
      </trkpt>
      <trkpt lat="42.527485" lon="1.013292">
        <ele>2544.075</ele>
        <time>2018-06-28T11:08:21Z</time>
      </trkpt>
      <trkpt lat="42.527633" lon="1.013470">
        <ele>2544.079</ele>
        <time>2018-06-28T11:10:03Z</time>
      </trkpt>
      <trkpt lat="42.527690" lon="1.014113">
        <ele>2538.074</ele>
        <time>2018-06-28T11:11:04Z</time>
      </trkpt>
      <trkpt lat="42.527457" lon="1.014398">
        <ele>2537.056</ele>
        <time>2018-06-28T11:12:05Z</time>
      </trkpt>
      <trkpt lat="42.527208" lon="1.015243">
        <ele>2537.021</ele>
        <time>2018-06-28T11:13:54Z</time>
      </trkpt>
      <trkpt lat="42.527277" lon="1.016530">
        <ele>2534.008</ele>
        <time>2018-06-28T11:16:13Z</time>
      </trkpt>
      <trkpt lat="42.527523" lon="1.017220">
        <ele>2537.039</ele>
        <time>2018-06-28T11:17:59Z</time>
      </trkpt>
      <trkpt lat="42.528722" lon="1.018435">
        <ele>2565.013</ele>
        <time>2018-06-28T11:26:09Z</time>
      </trkpt>
      <trkpt lat="42.528877" lon="1.018840">
        <ele>2581.069</ele>
        <time>2018-06-28T11:27:53Z</time>
      </trkpt>
      <trkpt lat="42.528838" lon="1.019673">
        <ele>2620.053</ele>
        <time>2018-06-28T11:32:59Z</time>
      </trkpt>
      <trkpt lat="42.529010" lon="1.019633">
        <ele>2628.048</ele>
        <time>2018-06-28T11:33:51Z</time>
      </trkpt>
      <trkpt lat="42.529798" lon="1.021047">
        <ele>2669.070</ele>
        <time>2018-06-28T11:40:00Z</time>
      </trkpt>
      <trkpt lat="42.529830" lon="1.021335">
        <ele>2670.014</ele>
        <time>2018-06-28T11:40:51Z</time>
      </trkpt>
      <trkpt lat="42.530032" lon="1.021275">
        <ele>2671.018</ele>
        <time>2018-06-28T11:45:18Z</time>
      </trkpt>
      <trkpt lat="42.530003" lon="1.021580">
        <ele>2659.016</ele>
        <time>2018-06-28T11:46:37Z</time>
      </trkpt>
      <trkpt lat="42.530613" lon="1.022253">
        <ele>2626.076</ele>
        <time>2018-06-28T11:49:37Z</time>
      </trkpt>
      <trkpt lat="42.530715" lon="1.022618">
        <ele>2613.013</ele>
        <time>2018-06-28T11:51:08Z</time>
      </trkpt>
      <trkpt lat="42.531490" lon="1.023695">
        <ele>2578.008</ele>
        <time>2018-06-28T11:55:00Z</time>
      </trkpt>
      <trkpt lat="42.531877" lon="1.023842">
        <ele>2570.073</ele>
        <time>2018-06-28T11:56:18Z</time>
      </trkpt>
      <trkpt lat="42.532457" lon="1.024808">
        <ele>2546.067</ele>
        <time>2018-06-28T11:59:54Z</time>
      </trkpt>
      <trkpt lat="42.532878" lon="1.025043">
        <ele>2546.033</ele>
        <time>2018-06-28T12:01:06Z</time>
      </trkpt>
      <trkpt lat="42.533352" lon="1.025720">
        <ele>2545.027</ele>
        <time>2018-06-28T12:03:11Z</time>
      </trkpt>
      <trkpt lat="42.534267" lon="1.025480">
        <ele>2528.072</ele>
        <time>2018-06-28T12:07:06Z</time>
      </trkpt>
      <trkpt lat="42.534527" lon="1.025580">
        <ele>2532.064</ele>
        <time>2018-06-28T12:07:58Z</time>
      </trkpt>
      <trkpt lat="42.534737" lon="1.025383">
        <ele>2547.038</ele>
        <time>2018-06-28T12:09:52Z</time>
      </trkpt>
      <trkpt lat="42.535048" lon="1.025717">
        <ele>2555.022</ele>
        <time>2018-06-28T12:11:12Z</time>
      </trkpt>
      <trkpt lat="42.535610" lon="1.025648">
        <ele>2535.097</ele>
        <time>2018-06-28T12:14:05Z</time>
      </trkpt>
      <trkpt lat="42.536037" lon="1.026063">
        <ele>2536.023</ele>
        <time>2018-06-28T12:15:41Z</time>
      </trkpt>
      <trkpt lat="42.536287" lon="1.026587">
        <ele>2535.025</ele>
        <time>2018-06-28T12:17:03Z</time>
      </trkpt>
      <trkpt lat="42.537370" lon="1.026892">
        <ele>2523.008</ele>
        <time>2018-06-28T12:19:32Z</time>
      </trkpt>
      <trkpt lat="42.538077" lon="1.027743">
        <ele>2524.041</ele>
        <time>2018-06-28T12:21:25Z</time>
      </trkpt>
      <trkpt lat="42.538520" lon="1.027788">
        <ele>2518.095</ele>
        <time>2018-06-28T12:22:27Z</time>
      </trkpt>
      <trkpt lat="42.539148" lon="1.028165">
        <ele>2511.051</ele>
        <time>2018-06-28T12:24:06Z</time>
      </trkpt>
      <trkpt lat="42.539573" lon="1.028922">
        <ele>2503.055</ele>
        <time>2018-06-28T12:25:38Z</time>
      </trkpt>
      <trkpt lat="42.540267" lon="1.029672">
        <ele>2478.050</ele>
        <time>2018-06-28T12:27:40Z</time>
      </trkpt>
      <trkpt lat="42.540480" lon="1.030023">
        <ele>2466.072</ele>
        <time>2018-06-28T12:28:39Z</time>
      </trkpt>
      <trkpt lat="42.540533" lon="1.030560">
        <ele>2447.066</ele>
        <time>2018-06-28T12:31:02Z</time>
      </trkpt>
      <trkpt lat="42.539893" lon="1.031405">
        <ele>2446.090</ele>
        <time>2018-06-28T12:33:01Z</time>
      </trkpt>
      <trkpt lat="42.539372" lon="1.031720">
        <ele>2441.044</ele>
        <time>2018-06-28T12:34:18Z</time>
      </trkpt>
      <trkpt lat="42.538965" lon="1.032322">
        <ele>2441.005</ele>
        <time>2018-06-28T12:35:40Z</time>
      </trkpt>
      <trkpt lat="42.539307" lon="1.033042">
        <ele>2440.015</ele>
        <time>2018-06-28T12:36:46Z</time>
      </trkpt>
      <trkpt lat="42.539278" lon="1.033267">
        <ele>2441.008</ele>
        <time>2018-06-28T12:37:03Z</time>
      </trkpt>
      <trkpt lat="42.539702" lon="1.033760">
        <ele>2442.086</ele>
        <time>2018-06-28T12:38:08Z</time>
      </trkpt>
      <trkpt lat="42.539785" lon="1.034087">
        <ele>2443.040</ele>
        <time>2018-06-28T12:38:40Z</time>
      </trkpt>
      <trkpt lat="42.539518" lon="1.034353">
        <ele>2442.026</ele>
        <time>2018-06-28T12:39:13Z</time>
      </trkpt>
      <trkpt lat="42.539543" lon="1.034517">
        <ele>2442.050</ele>
        <time>2018-06-28T12:39:27Z</time>
      </trkpt>
      <trkpt lat="42.539928" lon="1.034977">
        <ele>2445.015</ele>
        <time>2018-06-28T12:40:10Z</time>
      </trkpt>
      <trkpt lat="42.540613" lon="1.034607">
        <ele>2445.077</ele>
        <time>2018-06-28T12:41:34Z</time>
      </trkpt>
      <trkpt lat="42.541032" lon="1.034605">
        <ele>2446.051</ele>
        <time>2018-06-28T12:42:15Z</time>
      </trkpt>
      <trkpt lat="42.541400" lon="1.035243">
        <ele>2449.055</ele>
        <time>2018-06-28T12:43:19Z</time>
      </trkpt>
      <trkpt lat="42.541288" lon="1.035227">
        <ele>2450.073</ele>
        <time>2018-06-28T12:43:35Z</time>
      </trkpt>
      <trkpt lat="42.541213" lon="1.035428">
        <ele>2451.085</ele>
        <time>2018-06-28T12:43:52Z</time>
      </trkpt>
      <trkpt lat="42.541230" lon="1.035973">
        <ele>2446.013</ele>
        <time>2018-06-28T12:44:43Z</time>
      </trkpt>
      <trkpt lat="42.542237" lon="1.036402">
        <ele>2424.008</ele>
        <time>2018-06-28T12:47:15Z</time>
      </trkpt>
      <trkpt lat="42.541952" lon="1.038523">
        <ele>2412.079</ele>
        <time>2018-06-28T12:49:55Z</time>
      </trkpt>
      <trkpt lat="42.542445" lon="1.039262">
        <ele>2402.043</ele>
        <time>2018-06-28T12:53:05Z</time>
      </trkpt>
      <trkpt lat="42.542927" lon="1.039367">
        <ele>2382.039</ele>
        <time>2018-06-28T12:56:22Z</time>
      </trkpt>
      <trkpt lat="42.542723" lon="1.039795">
        <ele>2365.063</ele>
        <time>2018-06-28T12:57:53Z</time>
      </trkpt>
      <trkpt lat="42.542288" lon="1.040108">
        <ele>2356.018</ele>
        <time>2018-06-28T12:59:14Z</time>
      </trkpt>
      <trkpt lat="42.542255" lon="1.040403">
        <ele>2348.070</ele>
        <time>2018-06-28T13:00:17Z</time>
      </trkpt>
      <trkpt lat="42.542395" lon="1.041045">
        <ele>2344.034</ele>
        <time>2018-06-28T13:01:57Z</time>
      </trkpt>
      <trkpt lat="42.542602" lon="1.041040">
        <ele>2344.068</ele>
        <time>2018-06-28T13:02:40Z</time>
      </trkpt>
      <trkpt lat="42.542432" lon="1.041542">
        <ele>2345.053</ele>
        <time>2018-06-28T13:03:51Z</time>
      </trkpt>
      <trkpt lat="42.542928" lon="1.042010">
        <ele>2348.004</ele>
        <time>2018-06-28T13:05:28Z</time>
      </trkpt>
      <trkpt lat="42.543020" lon="1.043445">
        <ele>2347.014</ele>
        <time>2018-06-28T13:10:05Z</time>
      </trkpt>
      <trkpt lat="42.543798" lon="1.043717">
        <ele>2337.008</ele>
        <time>2018-06-28T13:11:52Z</time>
      </trkpt>
      <trkpt lat="42.544220" lon="1.044202">
        <ele>2328.047</ele>
        <time>2018-06-28T13:12:56Z</time>
      </trkpt>
      <trkpt lat="42.545547" lon="1.044068">
        <ele>2322.071</ele>
        <time>2018-06-28T13:16:03Z</time>
      </trkpt>
      <trkpt lat="42.545635" lon="1.044111">
        <ele>2317.361</ele>
        <time>2008-06-23T00:00:00Z</time>
      </trkpt>
      <trkpt lat="42.545286" lon="1.044237">
        <ele>2318.921</ele>
        <time>2008-06-23T00:00:00Z</time>
      </trkpt>
      <trkpt lat="42.545225" lon="1.044648">
        <ele>2320.113</ele>
        <time>2008-06-23T00:00:00Z</time>
      </trkpt>
      <trkpt lat="42.545700" lon="1.045833">
        <ele>2316.807</ele>
        <time>2008-06-23T00:00:00Z</time>
      </trkpt>
      <trkpt lat="42.546307" lon="1.046532">
        <ele>2312.652</ele>
        <time>2008-06-23T00:00:00Z</time>
      </trkpt>
      <trkpt lat="42.547090" lon="1.046507">
        <ele>2312.623</ele>
        <time>2008-06-23T00:00:00Z</time>
      </trkpt>
      <trkpt lat="42.547509" lon="1.044454">
        <ele>2325.926</ele>
        <time>2008-06-23T00:00:00Z</time>
      </trkpt>
      <trkpt lat="42.547991" lon="1.043891">
        <ele>2315.996</ele>
        <time>2008-06-23T00:00:00Z</time>
      </trkpt>
      <trkpt lat="42.548605" lon="1.040328">
        <ele>2388.116</ele>
        <time>2008-06-23T00:00:00Z</time>
      </trkpt>
      <trkpt lat="42.548166" lon="1.039958">
        <ele>2382.651</ele>
        <time>2008-06-23T00:00:00Z</time>
      </trkpt>
      <trkpt lat="42.547618" lon="1.040000">
        <ele>2389.432</ele>
        <time>2008-06-23T00:00:00Z</time>
      </trkpt>
      <trkpt lat="42.547395" lon="1.039623">
        <ele>2383.512</ele>
        <time>2008-06-23T00:00:00Z</time>
      </trkpt>
      <trkpt lat="42.547120" lon="1.039595">
        <ele>2389.632</ele>
        <time>2008-06-23T00:00:00Z</time>
      </trkpt>
      <trkpt lat="42.546083" lon="1.038209">
        <ele>2401.705</ele>
        <time>2008-06-23T00:00:00Z</time>
      </trkpt>
      <trkpt lat="42.545643" lon="1.038302">
        <ele>2409.307</ele>
        <time>2008-06-23T00:00:00Z</time>
      </trkpt>
      <trkpt lat="42.545196" lon="1.037731">
        <ele>2418.937</ele>
        <time>2008-06-23T00:00:00Z</time>
      </trkpt>
      <trkpt lat="42.545992" lon="1.036586">
        <ele>2443.988</ele>
        <time>2008-06-23T00:00:00Z</time>
      </trkpt>
      <trkpt lat="42.547334" lon="1.035759">
        <ele>2447.991</ele>
        <time>2008-06-23T00:00:00Z</time>
      </trkpt>
      <trkpt lat="42.547729" lon="1.032635">
        <ele>2521.211</ele>
        <time>2008-06-23T00:00:00Z</time>
      </trkpt>
      <trkpt lat="42.548089" lon="1.031814">
        <ele>2532.991</ele>
        <time>2008-06-23T00:00:00Z</time>
      </trkpt>
      <trkpt lat="42.548380" lon="1.031482">
        <ele>2547.036</ele>
        <time>2008-06-23T00:00:00Z</time>
      </trkpt>
      <trkpt lat="42.548712" lon="1.031386">
        <ele>2558.687</ele>
        <time>2008-06-23T00:00:00Z</time>
      </trkpt>
      <trkpt lat="42.549208" lon="1.030122">
        <ele>2572.081</ele>
        <time>2008-06-23T00:00:00Z</time>
      </trkpt>
      <trkpt lat="42.549594" lon="1.029794">
        <ele>2579.161</ele>
        <time>2008-06-23T00:00:00Z</time>
      </trkpt>
      <trkpt lat="42.550385" lon="1.028368">
        <ele>2585.817</ele>
        <time>2008-06-23T00:00:00Z</time>
      </trkpt>
      <trkpt lat="42.550857" lon="1.026496">
        <ele>2607.607</ele>
        <time>2008-06-23T00:00:00Z</time>
      </trkpt>
      <trkpt lat="42.550945" lon="1.025604">
        <ele>2615.854</ele>
        <time>2008-06-23T00:00:00Z</time>
      </trkpt>
      <trkpt lat="42.550709" lon="1.023950">
        <ele>2629.025</ele>
        <time>2008-06-23T00:00:00Z</time>
      </trkpt>
      <trkpt lat="42.550251" lon="1.022442">
        <ele>2656.378</ele>
        <time>2008-06-23T00:00:00Z</time>
      </trkpt>
      <trkpt lat="42.550258" lon="1.021309">
        <ele>2688.338</ele>
        <time>2008-06-23T00:00:00Z</time>
      </trkpt>
      <trkpt lat="42.550457" lon="1.021053">
        <ele>2699.158</ele>
        <time>2008-06-23T00:00:00Z</time>
      </trkpt>
      <trkpt lat="42.550475" lon="1.020577">
        <ele>2714.213</ele>
        <time>2008-06-23T00:00:00Z</time>
      </trkpt>
      <trkpt lat="42.550987" lon="1.020994">
        <ele>2726.464</ele>
        <time>2008-06-23T00:00:00Z</time>
      </trkpt>
      <trkpt lat="42.551226" lon="1.021029">
        <ele>2732.722</ele>
        <time>2008-06-23T00:00:00Z</time>
      </trkpt>
      <trkpt lat="42.551653" lon="1.022282">
        <ele>2728.162</ele>
        <time>2008-06-23T00:00:00Z</time>
      </trkpt>
      <trkpt lat="42.552278" lon="1.021690">
        <ele>2666.708</ele>
        <time>2008-06-23T00:00:00Z</time>
      </trkpt>
      <trkpt lat="42.553683" lon="1.021700">
        <ele>2626.107</ele>
        <time>2008-06-23T00:00:00Z</time>
      </trkpt>
      <trkpt lat="42.553958" lon="1.021204">
        <ele>2584.368</ele>
        <time>2008-06-23T00:00:00Z</time>
      </trkpt>
      <trkpt lat="42.554344" lon="1.019638">
        <ele>2518.049</ele>
        <time>2008-06-23T00:00:00Z</time>
      </trkpt>
      <trkpt lat="42.554651" lon="1.019141">
        <ele>2504.212</ele>
        <time>2008-06-23T00:00:00Z</time>
      </trkpt>
      <trkpt lat="42.554625" lon="1.018716">
        <ele>2497.932</ele>
        <time>2008-06-23T00:00:00Z</time>
      </trkpt>
      <trkpt lat="42.555040" lon="1.017692">
        <ele>2456.292</ele>
        <time>2008-06-23T00:00:00Z</time>
      </trkpt>
      <trkpt lat="42.555501" lon="1.017263">
        <ele>2419.987</ele>
        <time>2008-06-23T00:00:00Z</time>
      </trkpt>
      <trkpt lat="42.556044" lon="1.016411">
        <ele>2402.678</ele>
        <time>2008-06-23T00:00:00Z</time>
      </trkpt>
      <trkpt lat="42.556331" lon="1.016323">
        <ele>2398.946</ele>
        <time>2008-06-23T00:00:00Z</time>
      </trkpt>
      <trkpt lat="42.557023" lon="1.016478">
        <ele>2383.088</ele>
        <time>2008-06-23T00:00:00Z</time>
      </trkpt>
      <trkpt lat="42.557644" lon="1.016160">
        <ele>2382.016</ele>
        <time>2008-06-23T00:00:00Z</time>
      </trkpt>
      <trkpt lat="42.559174" lon="1.015880">
        <ele>2370.807</ele>
        <time>2008-06-23T00:00:00Z</time>
      </trkpt>
      <trkpt lat="42.560053" lon="1.014914">
        <ele>2381.520</ele>
        <time>2008-06-23T00:00:00Z</time>
      </trkpt>
      <trkpt lat="42.560406" lon="1.014744">
        <ele>2384.941</ele>
        <time>2008-06-23T00:00:00Z</time>
      </trkpt>
      <trkpt lat="42.561229" lon="1.013677">
        <ele>2381.084</ele>
        <time>2008-06-23T00:00:00Z</time>
      </trkpt>
      <trkpt lat="42.561477" lon="1.013675">
        <ele>2372.164</ele>
        <time>2008-06-23T00:00:00Z</time>
      </trkpt>
      <trkpt lat="42.562731" lon="1.013020">
        <ele>2340.684</ele>
        <time>2008-06-23T00:00:00Z</time>
      </trkpt>
      <trkpt lat="42.563223" lon="1.013095">
        <ele>2314.329</ele>
        <time>2008-06-23T00:00:00Z</time>
      </trkpt>
      <trkpt lat="42.563329" lon="1.012879">
        <ele>2311.090</ele>
        <time>2008-06-23T00:00:00Z</time>
      </trkpt>
      <trkpt lat="42.564487" lon="1.012113">
        <ele>2299.865</ele>
        <time>2008-06-23T00:00:00Z</time>
      </trkpt>
      <trkpt lat="42.564896" lon="1.012106">
        <ele>2303.068</ele>
        <time>2008-06-23T00:00:00Z</time>
      </trkpt>
      <trkpt lat="42.565692" lon="1.011763">
        <ele>2294.214</ele>
        <time>2008-06-23T00:00:00Z</time>
      </trkpt>
      <trkpt lat="42.566245" lon="1.010704">
        <ele>2278.507</ele>
        <time>2008-06-23T00:00:00Z</time>
      </trkpt>
      <trkpt lat="42.568071" lon="1.009263">
        <ele>2238.872</ele>
        <time>2008-06-23T00:00:00Z</time>
      </trkpt>
      <trkpt lat="42.568091" lon="1.008623">
        <ele>2215.763</ele>
        <time>2008-06-23T00:00:00Z</time>
      </trkpt>
      <trkpt lat="42.568373" lon="1.007749">
        <ele>2183.296</ele>
        <time>2008-06-23T00:00:00Z</time>
      </trkpt>
      <trkpt lat="42.568675" lon="1.007264">
        <ele>2160.276</ele>
        <time>2008-06-23T00:00:00Z</time>
      </trkpt>
      <trkpt lat="42.569103" lon="1.007037">
        <ele>2148.896</ele>
        <time>2008-06-23T00:00:00Z</time>
      </trkpt>
      <trkpt lat="42.569781" lon="1.006876">
        <ele>2134.811</ele>
        <time>2008-06-23T00:00:00Z</time>
      </trkpt>
      <trkpt lat="42.570635" lon="1.007092">
        <ele>2131.812</ele>
        <time>2008-06-23T00:00:00Z</time>
      </trkpt>
      <trkpt lat="42.571106" lon="1.007522">
        <ele>2128.419</ele>
        <time>2008-06-23T00:00:00Z</time>
      </trkpt>
      <trkpt lat="42.572340" lon="1.007501">
        <ele>2086.909</ele>
        <time>2008-06-23T00:00:00Z</time>
      </trkpt>
      <trkpt lat="42.573175" lon="1.008144">
        <ele>2070.419</ele>
        <time>2008-06-23T00:00:00Z</time>
      </trkpt>
      <trkpt lat="42.573748" lon="1.008760">
        <ele>2051.407</ele>
        <time>2008-06-23T00:00:00Z</time>
      </trkpt>
      <trkpt lat="42.573931" lon="1.009162">
        <ele>2040.197</ele>
        <time>2008-06-23T00:00:00Z</time>
      </trkpt>
      <trkpt lat="42.574277" lon="1.009157">
        <ele>2023.428</ele>
        <time>2008-06-23T00:00:00Z</time>
      </trkpt>
      <trkpt lat="42.574474" lon="1.009315">
        <ele>2017.781</ele>
        <time>2008-06-23T00:00:00Z</time>
      </trkpt>
      <trkpt lat="42.574785" lon="1.009848">
        <ele>2008.161</ele>
        <time>2008-06-23T00:00:00Z</time>
      </trkpt>
      <trkpt lat="42.575227" lon="1.010144">
        <ele>2002.391</ele>
        <time>2008-06-23T00:00:00Z</time>
      </trkpt>
      <trkpt lat="42.575733" lon="1.011298">
        <ele>1994.876</ele>
        <time>2008-06-23T00:00:00Z</time>
      </trkpt>
      <trkpt lat="42.576001" lon="1.011429">
        <ele>1982.867</ele>
        <time>2008-06-23T00:00:00Z</time>
      </trkpt>
      <trkpt lat="42.576856" lon="1.010897">
        <ele>1949.265</ele>
        <time>2008-06-23T00:00:00Z</time>
      </trkpt>
      <trkpt lat="42.577418" lon="1.009794">
        <ele>1918.268</ele>
        <time>2008-06-23T00:00:00Z</time>
      </trkpt>
      <trkpt lat="42.577644" lon="1.009854">
        <ele>1915.014</ele>
        <time>2008-06-23T00:00:00Z</time>
      </trkpt>
      <trkpt lat="42.577977" lon="1.009600">
        <ele>1902.007</ele>
        <time>2008-06-23T00:00:00Z</time>
      </trkpt>
      <trkpt lat="42.578014" lon="1.009410">
        <ele>1897.662</ele>
        <time>2008-06-23T00:00:00Z</time>
      </trkpt>
      <trkpt lat="42.578234" lon="1.009366">
        <ele>1896.733</ele>
        <time>2008-06-23T00:00:00Z</time>
      </trkpt>
      <trkpt lat="42.578453" lon="1.008756">
        <ele>1889.066</ele>
        <time>2008-06-23T00:00:00Z</time>
      </trkpt>
      <trkpt lat="42.578824" lon="1.009104">
        <ele>1892.726</ele>
        <time>2008-06-23T00:00:00Z</time>
      </trkpt>
      <trkpt lat="42.579323" lon="1.008564">
        <ele>1887.226</ele>
        <time>2008-06-23T00:00:00Z</time>
      </trkpt>
      <trkpt lat="42.579818" lon="1.008536">
        <ele>1882.191</ele>
        <time>2008-06-23T00:00:00Z</time>
      </trkpt>
      <trkpt lat="42.580196" lon="1.008287">
        <ele>1875.972</ele>
        <time>2008-06-23T00:00:00Z</time>
      </trkpt>
      <trkpt lat="42.580376" lon="1.008494">
        <ele>1874.039</ele>
        <time>2008-06-23T00:00:00Z</time>
      </trkpt>
      <trkpt lat="42.580276" lon="1.009521">
        <ele>1867.201</ele>
        <time>2008-06-23T00:00:00Z</time>
      </trkpt>
      <trkpt lat="42.580657" lon="1.011476">
        <ele>1876.721</ele>
        <time>2008-06-23T00:00:00Z</time>
      </trkpt>
      <trkpt lat="42.580896" lon="1.011493">
        <ele>1880.207</ele>
        <time>2008-06-23T00:00:00Z</time>
      </trkpt>
      <trkpt lat="42.581092" lon="1.010579">
        <ele>1895.139</ele>
        <time>2008-06-23T00:00:00Z</time>
      </trkpt>
      <trkpt lat="42.580836" lon="1.009868">
        <ele>1904.230</ele>
        <time>2008-06-23T00:00:00Z</time>
      </trkpt>
      <trkpt lat="42.581288" lon="1.009945">
        <ele>1907.343</ele>
        <time>2008-06-23T00:00:00Z</time>
      </trkpt>
      <trkpt lat="42.581679" lon="1.010451">
        <ele>1912.783</ele>
        <time>2008-06-23T00:00:00Z</time>
      </trkpt>
      <trkpt lat="42.582257" lon="1.010298">
        <ele>1922.293</ele>
        <time>2008-06-23T00:00:00Z</time>
      </trkpt>
      <trkpt lat="42.582807" lon="1.011335">
        <ele>1929.568</ele>
        <time>2008-06-23T00:00:00Z</time>
      </trkpt>
      <trkpt lat="42.583060" lon="1.012460">
        <ele>1938.879</ele>
        <time>2008-06-23T00:00:00Z</time>
      </trkpt>
      <trkpt lat="42.583153" lon="1.011038">
        <ele>1947.569</ele>
        <time>2008-06-23T00:00:00Z</time>
      </trkpt>
      <trkpt lat="42.582916" lon="1.009839">
        <ele>1959.104</ele>
        <time>2008-06-23T00:00:00Z</time>
      </trkpt>
      <trkpt lat="42.583100" lon="1.009327">
        <ele>1963.124</ele>
        <time>2008-06-23T00:00:00Z</time>
      </trkpt>
      <trkpt lat="42.583438" lon="1.008829">
        <ele>1970.407</ele>
        <time>2008-06-23T00:00:00Z</time>
      </trkpt>
      <trkpt lat="42.583839" lon="1.007769">
        <ele>1982.772</ele>
        <time>2008-06-23T00:00:00Z</time>
      </trkpt>
      <trkpt lat="42.584474" lon="1.006863">
        <ele>1995.673</ele>
        <time>2008-06-23T00:00:00Z</time>
      </trkpt>
      <trkpt lat="42.584769" lon="1.005964">
        <ele>2004.636</ele>
        <time>2008-06-23T00:00:00Z</time>
      </trkpt>
      <trkpt lat="42.585211" lon="1.005249">
        <ele>2013.956</ele>
        <time>2008-06-23T00:00:00Z</time>
      </trkpt>
      <trkpt lat="42.585448" lon="1.004382">
        <ele>2025.956</ele>
        <time>2008-06-23T00:00:00Z</time>
      </trkpt>
      <trkpt lat="42.585959" lon="1.003738">
        <ele>2037.541</ele>
        <time>2008-06-23T00:00:00Z</time>
      </trkpt>
      <trkpt lat="42.586493" lon="1.003355">
        <ele>2042.692</ele>
        <time>2008-06-23T00:00:00Z</time>
      </trkpt>
      <trkpt lat="42.586898" lon="1.002587">
        <ele>2053.163</ele>
        <time>2008-06-23T00:00:00Z</time>
      </trkpt>
      <trkpt lat="42.587218" lon="1.002333">
        <ele>2059.244</ele>
        <time>2008-06-23T00:00:00Z</time>
      </trkpt>
      <trkpt lat="42.587634" lon="1.001174">
        <ele>2071.718</ele>
        <time>2008-06-23T00:00:00Z</time>
      </trkpt>
      <trkpt lat="42.587963" lon="1.000676">
        <ele>2074.707</ele>
        <time>2008-06-23T00:00:00Z</time>
      </trkpt>
      <trkpt lat="42.587627" lon="0.999486">
        <ele>2090.542</ele>
        <time>2008-06-23T00:00:00Z</time>
      </trkpt>
      <trkpt lat="42.587845" lon="0.998541">
        <ele>2106.883</ele>
        <time>2008-06-23T00:00:00Z</time>
      </trkpt>
      <trkpt lat="42.587481" lon="0.997809">
        <ele>2111.856</ele>
        <time>2008-06-23T00:00:00Z</time>
      </trkpt>
      <trkpt lat="42.588772" lon="0.994123">
        <ele>2131.136</ele>
        <time>2008-06-23T00:00:00Z</time>
      </trkpt>
      <trkpt lat="42.588900" lon="0.992188">
        <ele>2135.636</ele>
        <time>2008-06-23T00:00:00Z</time>
      </trkpt>
      <trkpt lat="42.589548" lon="0.990131">
        <ele>2149.681</ele>
        <time>2008-06-23T00:00:00Z</time>
      </trkpt>
      <trkpt lat="42.590222" lon="0.989519">
        <ele>2151.512</ele>
        <time>2008-06-23T00:00:00Z</time>
      </trkpt>
      <trkpt lat="42.590396" lon="0.989153">
        <ele>2152.694</ele>
        <time>2008-06-23T00:00:00Z</time>
      </trkpt>
      <trkpt lat="42.590606" lon="0.989342">
        <ele>2158.857</ele>
        <time>2008-06-23T00:00:00Z</time>
      </trkpt>
      <trkpt lat="42.591068" lon="0.988705">
        <ele>2167.422</ele>
        <time>2008-06-23T00:00:00Z</time>
      </trkpt>
      <trkpt lat="42.591742" lon="0.988659">
        <ele>2182.707</ele>
        <time>2008-06-23T00:00:00Z</time>
      </trkpt>
      <trkpt lat="42.592128" lon="0.987806">
        <ele>2184.695</ele>
        <time>2008-06-23T00:00:00Z</time>
      </trkpt>
      <trkpt lat="42.592750" lon="0.984805">
        <ele>2192.446</ele>
        <time>2008-06-23T00:00:00Z</time>
      </trkpt>
      <trkpt lat="42.593176" lon="0.984956">
        <ele>2199.429</ele>
        <time>2008-06-23T00:00:00Z</time>
      </trkpt>
      <trkpt lat="42.593350" lon="0.984840">
        <ele>2199.869</ele>
        <time>2008-06-23T00:00:00Z</time>
      </trkpt>
      <trkpt lat="42.594000" lon="0.982156">
        <ele>2229.569</ele>
        <time>2008-06-23T00:00:00Z</time>
      </trkpt>
      <trkpt lat="42.594246" lon="0.982270">
        <ele>2233.064</ele>
        <time>2008-06-23T00:00:00Z</time>
      </trkpt>
      <trkpt lat="42.594717" lon="0.982968">
        <ele>2248.335</ele>
        <time>2008-06-23T00:00:00Z</time>
      </trkpt>
      <trkpt lat="42.594889" lon="0.983523">
        <ele>2255.446</ele>
        <time>2008-06-23T00:00:00Z</time>
      </trkpt>
      <trkpt lat="42.595768" lon="0.982794">
        <ele>2286.088</ele>
        <time>2008-06-23T00:00:00Z</time>
      </trkpt>
      <trkpt lat="42.596388" lon="0.981463">
        <ele>2315.316</ele>
        <time>2008-06-23T00:00:00Z</time>
      </trkpt>
      <trkpt lat="42.596588" lon="0.983590">
        <ele>2345.707</ele>
        <time>2008-06-23T00:00:00Z</time>
      </trkpt>
      <trkpt lat="42.596295" lon="0.984617">
        <ele>2360.220</ele>
        <time>2008-06-23T00:00:00Z</time>
      </trkpt>
      <trkpt lat="42.596480" lon="0.984886">
        <ele>2362.781</ele>
        <time>2008-06-23T00:00:00Z</time>
      </trkpt>
      <trkpt lat="42.596712" lon="0.984769">
        <ele>2365.994</ele>
        <time>2008-06-23T00:00:00Z</time>
      </trkpt>
      <trkpt lat="42.596917" lon="0.984430">
        <ele>2380.451</ele>
        <time>2013-09-19T06:03:27Z</time>
      </trkpt>
      <trkpt lat="42.597013" lon="0.985628">
        <ele>2425.501</ele>
        <time>2013-09-19T06:03:44Z</time>
      </trkpt>
      <trkpt lat="42.596692" lon="0.984736">
        <ele>2371.211</ele>
        <time>2013-09-19T06:05:26Z</time>
      </trkpt>
      <trkpt lat="42.597550" lon="0.983691">
        <ele>2376.507</ele>
        <time>2013-09-19T06:08:14Z</time>
      </trkpt>
      <trkpt lat="42.598315" lon="0.982283">
        <ele>2382.340</ele>
        <time>2013-09-19T06:10:28Z</time>
      </trkpt>
      <trkpt lat="42.599080" lon="0.981720">
        <ele>2378.947</ele>
        <time>2013-09-19T06:11:54Z</time>
      </trkpt>
      <trkpt lat="42.599590" lon="0.981642">
        <ele>2378.054</ele>
        <time>2013-09-19T06:12:54Z</time>
      </trkpt>
      <trkpt lat="42.599819" lon="0.980961">
        <ele>2374.147</ele>
        <time>2013-09-19T06:13:54Z</time>
      </trkpt>
      <trkpt lat="42.599986" lon="0.980827">
        <ele>2373.222</ele>
        <time>2013-09-19T06:14:18Z</time>
      </trkpt>
      <trkpt lat="42.600092" lon="0.980946">
        <ele>2371.244</ele>
        <time>2013-09-19T06:14:35Z</time>
      </trkpt>
      <trkpt lat="42.600203" lon="0.980742">
        <ele>2363.536</ele>
        <time>2013-09-19T06:15:02Z</time>
      </trkpt>
      <trkpt lat="42.600124" lon="0.980408">
        <ele>2370.855</ele>
        <time>2013-09-19T06:15:45Z</time>
      </trkpt>
      <trkpt lat="42.600423" lon="0.979942">
        <ele>2378.007</ele>
        <time>2013-09-19T06:16:38Z</time>
      </trkpt>
      <trkpt lat="42.600558" lon="0.979180">
        <ele>2378.417</ele>
        <time>2013-09-19T06:17:44Z</time>
      </trkpt>
      <trkpt lat="42.600915" lon="0.978452">
        <ele>2381.807</ele>
        <time>2013-09-19T06:18:49Z</time>
      </trkpt>
      <trkpt lat="42.600902" lon="0.977996">
        <ele>2389.050</ele>
        <time>2013-09-19T06:19:29Z</time>
      </trkpt>
      <trkpt lat="42.601219" lon="0.976969">
        <ele>2416.957</ele>
        <time>2013-09-19T06:24:57Z</time>
      </trkpt>
      <trkpt lat="42.601472" lon="0.976804">
        <ele>2420.774</ele>
        <time>2013-09-19T06:25:46Z</time>
      </trkpt>
      <trkpt lat="42.601684" lon="0.975558">
        <ele>2453.497</ele>
        <time>2013-09-19T06:29:51Z</time>
      </trkpt>
      <trkpt lat="42.601397" lon="0.974903">
        <ele>2476.032</ele>
        <time>2013-09-19T06:32:49Z</time>
      </trkpt>
      <trkpt lat="42.601507" lon="0.974859">
        <ele>2475.134</ele>
        <time>2013-09-19T06:33:15Z</time>
      </trkpt>
      <trkpt lat="42.601612" lon="0.974141">
        <ele>2504.466</ele>
        <time>2013-09-19T06:38:04Z</time>
      </trkpt>
      <trkpt lat="42.601516" lon="0.973744">
        <ele>2502.522</ele>
        <time>2013-09-19T06:38:52Z</time>
      </trkpt>
      <trkpt lat="42.601675" lon="0.973191">
        <ele>2494.362</ele>
        <time>2013-09-19T06:39:49Z</time>
      </trkpt>
      <trkpt lat="42.602371" lon="0.972711">
        <ele>2483.208</ele>
        <time>2013-09-19T06:41:54Z</time>
      </trkpt>
      <trkpt lat="42.602677" lon="0.971818">
        <ele>2490.007</ele>
        <time>2013-09-19T06:44:02Z</time>
      </trkpt>
      <trkpt lat="42.602574" lon="0.971162">
        <ele>2491.947</ele>
        <time>2013-09-19T06:45:23Z</time>
      </trkpt>
      <trkpt lat="42.602669" lon="0.970011">
        <ele>2475.594</ele>
        <time>2013-09-19T06:47:01Z</time>
      </trkpt>
      <trkpt lat="42.602359" lon="0.969351">
        <ele>2491.461</ele>
        <time>2013-09-19T06:47:46Z</time>
      </trkpt>
      <trkpt lat="42.602034" lon="0.967629">
        <ele>2504.914</ele>
        <time>2013-09-19T06:51:05Z</time>
      </trkpt>
      <trkpt lat="42.602042" lon="0.966583">
        <ele>2488.059</ele>
        <time>2013-09-19T06:52:30Z</time>
      </trkpt>
      <trkpt lat="42.601877" lon="0.966369">
        <ele>2487.111</ele>
        <time>2013-09-19T06:53:04Z</time>
      </trkpt>
      <trkpt lat="42.601938" lon="0.965561">
        <ele>2483.773</ele>
        <time>2013-09-19T06:54:27Z</time>
      </trkpt>
      <trkpt lat="42.602630" lon="0.964535">
        <ele>2508.791</ele>
        <time>2013-09-19T06:57:42Z</time>
      </trkpt>
      <trkpt lat="42.602609" lon="0.963711">
        <ele>2514.081</ele>
        <time>2013-09-19T06:59:15Z</time>
      </trkpt>
      <trkpt lat="42.602215" lon="0.962918">
        <ele>2534.719</ele>
        <time>2013-09-19T07:01:15Z</time>
      </trkpt>
      <trkpt lat="42.602747" lon="0.961026">
        <ele>2545.707</ele>
        <time>2013-09-19T07:04:41Z</time>
      </trkpt>
      <trkpt lat="42.602645" lon="0.960659">
        <ele>2548.644</ele>
        <time>2013-09-19T07:05:14Z</time>
      </trkpt>
      <trkpt lat="42.602724" lon="0.959638">
        <ele>2556.811</ele>
        <time>2013-09-19T07:06:52Z</time>
      </trkpt>
      <trkpt lat="42.604053" lon="0.958022">
        <ele>2581.318</ele>
        <time>2013-09-19T07:11:26Z</time>
      </trkpt>
      <trkpt lat="42.604840" lon="0.957635">
        <ele>2575.011</ele>
        <time>2013-09-19T07:12:35Z</time>
      </trkpt>
      <trkpt lat="42.605229" lon="0.958349">
        <ele>2573.636</ele>
        <time>2013-09-19T07:13:58Z</time>
      </trkpt>
      <trkpt lat="42.605506" lon="0.958384">
        <ele>2564.528</ele>
        <time>2013-09-19T07:14:36Z</time>
      </trkpt>
      <trkpt lat="42.605805" lon="0.958661">
        <ele>2562.570</ele>
        <time>2013-09-19T07:15:57Z</time>
      </trkpt>
      <trkpt lat="42.606008" lon="0.959219">
        <ele>2546.772</ele>
        <time>2013-09-19T07:17:28Z</time>
      </trkpt>
      <trkpt lat="42.606483" lon="0.959501">
        <ele>2531.313</ele>
        <time>2013-09-19T07:18:28Z</time>
      </trkpt>
      <trkpt lat="42.606686" lon="0.960270">
        <ele>2514.514</ele>
        <time>2013-09-19T07:20:03Z</time>
      </trkpt>
      <trkpt lat="42.606839" lon="0.960396">
        <ele>2513.507</ele>
        <time>2013-09-19T07:20:15Z</time>
      </trkpt>
      <trkpt lat="42.607401" lon="0.960427">
        <ele>2508.232</ele>
        <time>2013-09-19T07:20:58Z</time>
      </trkpt>
      <trkpt lat="42.607994" lon="0.961218">
        <ele>2505.879</ele>
        <time>2013-09-19T07:22:24Z</time>
      </trkpt>
      <trkpt lat="42.608229" lon="0.961270">
        <ele>2507.336</ele>
        <time>2013-09-19T07:22:44Z</time>
      </trkpt>
      <trkpt lat="42.608469" lon="0.961112">
        <ele>2504.999</ele>
        <time>2013-09-19T07:23:17Z</time>
      </trkpt>
      <trkpt lat="42.608895" lon="0.961652">
        <ele>2484.244</ele>
        <time>2013-09-19T07:25:22Z</time>
      </trkpt>
      <trkpt lat="42.609770" lon="0.961822">
        <ele>2465.056</ele>
        <time>2013-09-19T07:27:19Z</time>
      </trkpt>
      <trkpt lat="42.609818" lon="0.962276">
        <ele>2453.458</ele>
        <time>2013-09-19T07:29:04Z</time>
      </trkpt>
      <trkpt lat="42.610178" lon="0.962977">
        <ele>2434.225</ele>
        <time>2013-09-19T07:30:39Z</time>
      </trkpt>
      <trkpt lat="42.610743" lon="0.963692">
        <ele>2426.526</ele>
        <time>2013-09-19T07:32:12Z</time>
      </trkpt>
      <trkpt lat="42.610876" lon="0.963706">
        <ele>2424.108</ele>
        <time>2013-09-19T07:32:31Z</time>
      </trkpt>
      <trkpt lat="42.611207" lon="0.963206">
        <ele>2393.807</ele>
        <time>2013-09-19T07:34:08Z</time>
      </trkpt>
      <trkpt lat="42.611510" lon="0.962223">
        <ele>2378.947</ele>
        <time>2013-09-19T07:35:41Z</time>
      </trkpt>
      <trkpt lat="42.612533" lon="0.962898">
        <ele>2344.894</ele>
        <time>2013-09-19T07:43:10Z</time>
      </trkpt>
      <trkpt lat="42.612763" lon="0.962759">
        <ele>2335.221</ele>
        <time>2013-09-19T07:43:42Z</time>
      </trkpt>
      <trkpt lat="42.612953" lon="0.962864">
        <ele>2328.944</ele>
        <time>2013-09-19T07:44:06Z</time>
      </trkpt>
      <trkpt lat="42.613325" lon="0.962744">
        <ele>2316.979</ele>
        <time>2013-09-19T07:44:53Z</time>
      </trkpt>
      <trkpt lat="42.613833" lon="0.962883">
        <ele>2316.941</ele>
        <time>2013-09-19T07:45:33Z</time>
      </trkpt>
      <trkpt lat="42.614575" lon="0.962589">
        <ele>2319.813</ele>
        <time>2013-09-19T07:47:07Z</time>
      </trkpt>
      <trkpt lat="42.615016" lon="0.962995">
        <ele>2317.428</ele>
        <time>2013-09-19T07:48:40Z</time>
      </trkpt>
      <trkpt lat="42.615093" lon="0.962900">
        <ele>2315.589</ele>
        <time>2013-09-19T07:49:03Z</time>
      </trkpt>
      <trkpt lat="42.615274" lon="0.962995">
        <ele>2314.517</ele>
        <time>2013-09-19T07:49:24Z</time>
      </trkpt>
      <trkpt lat="42.615357" lon="0.963196">
        <ele>2315.507</ele>
        <time>2013-09-19T07:49:43Z</time>
      </trkpt>
      <trkpt lat="42.615796" lon="0.963253">
        <ele>2307.377</ele>
        <time>2013-09-19T07:50:38Z</time>
      </trkpt>
      <trkpt lat="42.616188" lon="0.963018">
        <ele>2305.924</ele>
        <time>2013-09-19T07:51:15Z</time>
      </trkpt>
      <trkpt lat="42.616759" lon="0.963047">
        <ele>2302.091</ele>
        <time>2013-09-19T07:52:25Z</time>
      </trkpt>
      <trkpt lat="42.617343" lon="0.962551">
        <ele>2284.264</ele>
        <time>2013-09-19T07:53:56Z</time>
      </trkpt>
      <trkpt lat="42.617786" lon="0.962600">
        <ele>2283.819</ele>
        <time>2013-09-19T07:54:44Z</time>
      </trkpt>
      <trkpt lat="42.618227" lon="0.962259">
        <ele>2274.661</ele>
        <time>2013-09-19T07:55:49Z</time>
      </trkpt>
      <trkpt lat="42.619002" lon="0.962011">
        <ele>2278.073</ele>
        <time>2013-09-19T07:57:03Z</time>
      </trkpt>
      <trkpt lat="42.619995" lon="0.962431">
        <ele>2280.922</ele>
        <time>2013-09-19T07:59:06Z</time>
      </trkpt>
      <trkpt lat="42.620401" lon="0.962941">
        <ele>2283.862</ele>
        <time>2013-09-19T08:01:07Z</time>
      </trkpt>
      <trkpt lat="42.620971" lon="0.963337">
        <ele>2295.308</ele>
        <time>2013-09-19T08:03:28Z</time>
      </trkpt>
      <trkpt lat="42.621188" lon="0.961795">
        <ele>2267.907</ele>
        <time>2013-09-19T08:24:53Z</time>
      </trkpt>
      <trkpt lat="42.621890" lon="0.960108">
        <ele>2269.857</ele>
        <time>2013-09-19T08:26:58Z</time>
      </trkpt>
      <trkpt lat="42.621882" lon="0.958940">
        <ele>2260.254</ele>
        <time>2013-09-19T08:28:10Z</time>
      </trkpt>
      <trkpt lat="42.622315" lon="0.957096">
        <ele>2266.911</ele>
        <time>2013-09-19T08:30:35Z</time>
      </trkpt>
      <trkpt lat="42.622468" lon="0.956525">
        <ele>2272.254</ele>
        <time>2013-09-19T08:31:33Z</time>
      </trkpt>
      <trkpt lat="42.622764" lon="0.956281">
        <ele>2271.719</ele>
        <time>2013-09-19T08:32:25Z</time>
      </trkpt>
      <trkpt lat="42.622915" lon="0.955822">
        <ele>2284.271</ele>
        <time>2013-09-19T08:34:19Z</time>
      </trkpt>
      <trkpt lat="42.623806" lon="0.954864">
        <ele>2275.623</ele>
        <time>2013-09-19T08:36:25Z</time>
      </trkpt>
      <trkpt lat="42.624784" lon="0.954559">
        <ele>2285.282</ele>
        <time>2013-09-19T08:40:11Z</time>
      </trkpt>
      <trkpt lat="42.625026" lon="0.954756">
        <ele>2280.443</ele>
        <time>2013-09-19T08:40:59Z</time>
      </trkpt>
      <trkpt lat="42.626232" lon="0.954828">
        <ele>2307.817</ele>
        <time>2013-09-19T08:46:09Z</time>
      </trkpt>
      <trkpt lat="42.627181" lon="0.955373">
        <ele>2316.407</ele>
        <time>2013-09-19T08:48:40Z</time>
      </trkpt>
      <trkpt lat="42.628139" lon="0.954280">
        <ele>2315.023</ele>
        <time>2013-09-19T08:52:08Z</time>
      </trkpt>
      <trkpt lat="42.628517" lon="0.953352">
        <ele>2322.710</ele>
        <time>2013-09-19T08:53:37Z</time>
      </trkpt>
      <trkpt lat="42.628083" lon="0.951504">
        <ele>2337.147</ele>
        <time>2013-09-19T08:59:44Z</time>
      </trkpt>
      <trkpt lat="42.628149" lon="0.951067">
        <ele>2351.070</ele>
        <time>2013-09-19T09:01:40Z</time>
      </trkpt>
      <trkpt lat="42.628868" lon="0.949947">
        <ele>2373.695</ele>
        <time>2013-09-19T09:05:48Z</time>
      </trkpt>
      <trkpt lat="42.628747" lon="0.949240">
        <ele>2362.147</ele>
        <time>2013-09-19T09:07:11Z</time>
      </trkpt>
      <trkpt lat="42.628872" lon="0.949013">
        <ele>2378.939</ele>
        <time>2013-09-19T09:08:20Z</time>
      </trkpt>
      <trkpt lat="42.628791" lon="0.948884">
        <ele>2386.141</ele>
        <time>2013-09-19T09:08:54Z</time>
      </trkpt>
      <trkpt lat="42.628887" lon="0.948904">
        <ele>2387.681</ele>
        <time>2013-09-19T09:09:26Z</time>
      </trkpt>
      <trkpt lat="42.628694" lon="0.948806">
        <ele>2392.409</ele>
        <time>2013-09-19T09:10:34Z</time>
      </trkpt>
      <trkpt lat="42.628943" lon="0.948003">
        <ele>2408.207</ele>
        <time>2013-09-19T09:13:18Z</time>
      </trkpt>
      <trkpt lat="42.628618" lon="0.947945">
        <ele>2411.699</ele>
        <time>2013-09-19T09:14:49Z</time>
      </trkpt>
      <trkpt lat="42.629158" lon="0.947291">
        <ele>2451.556</ele>
        <time>2013-09-19T09:19:58Z</time>
      </trkpt>
      <trkpt lat="42.629092" lon="0.946932">
        <ele>2442.933</ele>
        <time>2013-09-19T09:21:34Z</time>
      </trkpt>
      <trkpt lat="42.628855" lon="0.946632">
        <ele>2431.356</ele>
        <time>2013-09-19T09:22:11Z</time>
      </trkpt>
      <trkpt lat="42.628979" lon="0.946328">
        <ele>2415.991</ele>
        <time>2013-09-19T09:22:50Z</time>
      </trkpt>
      <trkpt lat="42.628801" lon="0.945853">
        <ele>2405.873</ele>
        <time>2013-09-19T09:23:47Z</time>
      </trkpt>
      <trkpt lat="42.629024" lon="0.945359">
        <ele>2385.715</ele>
        <time>2013-09-19T09:25:15Z</time>
      </trkpt>
      <trkpt lat="42.629041" lon="0.944772">
        <ele>2367.466</ele>
        <time>2013-09-19T09:26:13Z</time>
      </trkpt>
      <trkpt lat="42.629321" lon="0.944217">
        <ele>2349.629</ele>
        <time>2013-09-19T09:27:31Z</time>
      </trkpt>
      <trkpt lat="42.629287" lon="0.943694">
        <ele>2338.521</ele>
        <time>2013-09-19T09:29:06Z</time>
      </trkpt>
      <trkpt lat="42.629048" lon="0.943240">
        <ele>2338.507</ele>
        <time>2013-09-19T09:31:11Z</time>
      </trkpt>
      <trkpt lat="42.629715" lon="0.942532">
        <ele>2291.011</ele>
        <time>2013-09-19T09:34:17Z</time>
      </trkpt>
      <trkpt lat="42.630256" lon="0.940465">
        <ele>2231.468</ele>
        <time>2013-09-19T09:40:51Z</time>
      </trkpt>
      <trkpt lat="42.630512" lon="0.940133">
        <ele>2199.685</ele>
        <time>2013-09-19T09:42:48Z</time>
      </trkpt>
      <trkpt lat="42.630758" lon="0.940158">
        <ele>2189.588</ele>
        <time>2013-09-19T09:43:37Z</time>
      </trkpt>
      <trkpt lat="42.630934" lon="0.939626">
        <ele>2185.223</ele>
        <time>2013-09-19T09:47:49Z</time>
      </trkpt>
      <trkpt lat="42.631470" lon="0.939353">
        <ele>2172.245</ele>
        <time>2013-09-19T09:48:47Z</time>
      </trkpt>
      <trkpt lat="42.631275" lon="0.939002">
        <ele>2164.117</ele>
        <time>2013-09-19T09:49:28Z</time>
      </trkpt>
      <trkpt lat="42.631535" lon="0.938606">
        <ele>2152.157</ele>
        <time>2013-09-19T09:50:20Z</time>
      </trkpt>
      <trkpt lat="42.631474" lon="0.938352">
        <ele>2145.300</ele>
        <time>2013-09-19T09:50:58Z</time>
      </trkpt>
      <trkpt lat="42.631632" lon="0.938086">
        <ele>2132.820</ele>
        <time>2013-09-19T09:51:46Z</time>
      </trkpt>
      <trkpt lat="42.631456" lon="0.937717">
        <ele>2119.407</ele>
        <time>2013-09-19T09:52:37Z</time>
      </trkpt>
      <trkpt lat="42.630746" lon="0.937490">
        <ele>2115.060</ele>
        <time>2013-09-19T09:54:17Z</time>
      </trkpt>
      <trkpt lat="42.630294" lon="0.937000">
        <ele>2114.697</ele>
        <time>2013-09-19T09:55:26Z</time>
      </trkpt>
      <trkpt lat="42.630448" lon="0.936207">
        <ele>2117.934</ele>
        <time>2013-09-19T09:58:15Z</time>
      </trkpt>
      <trkpt lat="42.630332" lon="0.936064">
        <ele>2131.987</ele>
        <time>2013-09-19T09:59:24Z</time>
      </trkpt>
      <trkpt lat="42.630088" lon="0.935918">
        <ele>2142.422</ele>
        <time>2013-09-19T10:00:44Z</time>
      </trkpt>
      <trkpt lat="42.629839" lon="0.936077">
        <ele>2140.024</ele>
        <time>2013-09-19T10:01:36Z</time>
      </trkpt>
      <trkpt lat="42.629311" lon="0.935853">
        <ele>2144.846</ele>
        <time>2013-09-19T10:03:11Z</time>
      </trkpt>
      <trkpt lat="42.628933" lon="0.935235">
        <ele>2153.015</ele>
        <time>2013-09-19T10:04:33Z</time>
      </trkpt>
      <trkpt lat="42.628621" lon="0.935245">
        <ele>2151.165</ele>
        <time>2013-09-19T10:05:18Z</time>
      </trkpt>
      <trkpt lat="42.627593" lon="0.933247">
        <ele>2132.311</ele>
        <time>2013-09-19T10:10:38Z</time>
      </trkpt>
      <trkpt lat="42.626638" lon="0.932325">
        <ele>2124.707</ele>
        <time>2013-09-19T10:13:15Z</time>
      </trkpt>
      <trkpt lat="42.626924" lon="0.931772">
        <ele>2122.376</ele>
        <time>2013-09-19T10:14:56Z</time>
      </trkpt>
      <trkpt lat="42.627056" lon="0.930872">
        <ele>2143.463</ele>
        <time>2013-09-19T10:16:55Z</time>
      </trkpt>
      <trkpt lat="42.626464" lon="0.929845">
        <ele>2125.680</ele>
        <time>2013-09-19T10:19:17Z</time>
      </trkpt>
      <trkpt lat="42.625552" lon="0.929560">
        <ele>2142.083</ele>
        <time>2013-09-19T10:23:09Z</time>
      </trkpt>
      <trkpt lat="42.626358" lon="0.928702">
        <ele>2173.288</ele>
        <time>2013-09-19T10:28:01Z</time>
      </trkpt>
      <trkpt lat="42.626470" lon="0.928213">
        <ele>2169.820</ele>
        <time>2013-09-19T10:29:21Z</time>
      </trkpt>
      <trkpt lat="42.626415" lon="0.927140">
        <ele>2150.112</ele>
        <time>2013-09-19T10:31:52Z</time>
      </trkpt>
      <trkpt lat="42.626660" lon="0.926853">
        <ele>2146.386</ele>
        <time>2013-09-19T10:32:42Z</time>
      </trkpt>
      <trkpt lat="42.626185" lon="0.926294">
        <ele>2129.560</ele>
        <time>2013-09-19T10:34:03Z</time>
      </trkpt>
      <trkpt lat="42.626242" lon="0.924075">
        <ele>2127.126</ele>
        <time>2013-09-19T10:37:31Z</time>
      </trkpt>
      <trkpt lat="42.625960" lon="0.923677">
        <ele>2129.507</ele>
        <time>2013-09-19T10:39:17Z</time>
      </trkpt>
      <trkpt lat="42.626540" lon="0.921843">
        <ele>2106.963</ele>
        <time>2013-09-19T10:42:19Z</time>
      </trkpt>
      <trkpt lat="42.626740" lon="0.921919">
        <ele>2099.740</ele>
        <time>2013-09-19T10:42:45Z</time>
      </trkpt>
      <trkpt lat="42.626647" lon="0.921628">
        <ele>2105.447</ele>
        <time>2013-09-19T10:44:29Z</time>
      </trkpt>
      <trkpt lat="42.626584" lon="0.921736">
        <ele>2117.090</ele>
        <time>2013-09-19T10:45:38Z</time>
      </trkpt>
      <trkpt lat="42.626804" lon="0.921434">
        <ele>2134.325</ele>
        <time>2013-09-19T10:46:35Z</time>
      </trkpt>
      <trkpt lat="42.626095" lon="0.919641">
        <ele>2115.057</ele>
        <time>2013-09-19T10:50:19Z</time>
      </trkpt>
      <trkpt lat="42.625604" lon="0.919250">
        <ele>2130.989</ele>
        <time>2013-09-19T10:51:47Z</time>
      </trkpt>
      <trkpt lat="42.625304" lon="0.919305">
        <ele>2127.543</ele>
        <time>2013-09-19T10:52:23Z</time>
      </trkpt>
      <trkpt lat="42.624907" lon="0.920072">
        <ele>2125.164</ele>
        <time>2013-09-19T10:53:55Z</time>
      </trkpt>
      <trkpt lat="42.624692" lon="0.920031">
        <ele>2126.110</ele>
        <time>2013-09-19T10:54:16Z</time>
      </trkpt>
      <trkpt lat="42.624292" lon="0.920573">
        <ele>2128.507</ele>
        <time>2013-09-19T10:57:07Z</time>
      </trkpt>
      <trkpt lat="42.623969" lon="0.920583">
        <ele>2107.819</ele>
        <time>2013-09-19T11:01:35Z</time>
      </trkpt>
      <trkpt lat="42.624372" lon="0.920596">
        <ele>2104.556</ele>
        <time>2013-09-19T11:12:34Z</time>
      </trkpt>
      <trkpt lat="42.624570" lon="0.920386">
        <ele>2088.123</ele>
        <time>2013-09-19T11:14:52Z</time>
      </trkpt>
      <trkpt lat="42.624699" lon="0.920432">
        <ele>2082.856</ele>
        <time>2013-09-19T11:15:18Z</time>
      </trkpt>
      <trkpt lat="42.624295" lon="0.920389">
        <ele>2094.931</ele>
        <time>2013-09-19T11:20:56Z</time>
      </trkpt>
      <trkpt lat="42.624071" lon="0.920614">
        <ele>2122.333</ele>
        <time>2013-09-19T11:23:41Z</time>
      </trkpt>
      <trkpt lat="42.624342" lon="0.920350">
        <ele>2123.735</ele>
        <time>2013-09-19T11:24:36Z</time>
      </trkpt>
      <trkpt lat="42.624262" lon="0.920592">
        <ele>2124.233</ele>
        <time>2013-09-19T11:27:41Z</time>
      </trkpt>
      <trkpt lat="42.624306" lon="0.920333">
        <ele>2124.223</ele>
        <time>2013-09-19T11:30:43Z</time>
      </trkpt>
      <trkpt lat="42.624195" lon="0.920790">
        <ele>2124.215</ele>
        <time>2013-09-19T11:31:55Z</time>
      </trkpt>
      <trkpt lat="42.622851" lon="0.920339">
        <ele>2120.807</ele>
        <time>2013-09-19T11:40:51Z</time>
      </trkpt>
      <trkpt lat="42.623954" lon="0.920275">
        <ele>2122.378</ele>
        <time>2013-09-19T11:41:05Z</time>
      </trkpt>
      <trkpt lat="42.624444" lon="0.920558">
        <ele>2071.365</ele>
        <time>2013-09-19T11:45:05Z</time>
      </trkpt>
      <trkpt lat="42.624410" lon="0.920418">
        <ele>2105.992</ele>
        <time>2013-09-19T11:45:15Z</time>
      </trkpt>
      <trkpt lat="42.624738" lon="0.920049">
        <ele>2117.455</ele>
        <time>2013-09-19T11:45:58Z</time>
      </trkpt>
      <trkpt lat="42.624948" lon="0.920089">
        <ele>2125.180</ele>
        <time>2013-09-19T11:46:43Z</time>
      </trkpt>
      <trkpt lat="42.625230" lon="0.919323">
        <ele>2132.812</ele>
        <time>2013-09-19T11:48:20Z</time>
      </trkpt>
      <trkpt lat="42.625607" lon="0.919313">
        <ele>2140.034</ele>
        <time>2013-09-19T11:49:30Z</time>
      </trkpt>
      <trkpt lat="42.625770" lon="0.919486">
        <ele>2139.192</ele>
        <time>2013-09-19T11:49:53Z</time>
      </trkpt>
      <trkpt lat="42.625872" lon="0.919219">
        <ele>2140.073</ele>
        <time>2013-09-19T11:51:04Z</time>
      </trkpt>
      <trkpt lat="42.625629" lon="0.918775">
        <ele>2146.820</ele>
        <time>2013-09-19T11:52:45Z</time>
      </trkpt>
      <trkpt lat="42.625395" lon="0.918747">
        <ele>2149.707</ele>
        <time>2013-09-19T11:53:43Z</time>
      </trkpt>
      <trkpt lat="42.624046" lon="0.917521">
        <ele>2168.994</ele>
        <time>2013-09-19T11:59:43Z</time>
      </trkpt>
      <trkpt lat="42.623625" lon="0.917428">
        <ele>2175.191</ele>
        <time>2013-09-19T12:01:25Z</time>
      </trkpt>
      <trkpt lat="42.623372" lon="0.917142">
        <ele>2184.728</ele>
        <time>2013-09-19T12:02:17Z</time>
      </trkpt>
      <trkpt lat="42.622633" lon="0.917017">
        <ele>2199.631</ele>
        <time>2013-09-19T12:04:58Z</time>
      </trkpt>
      <trkpt lat="42.622471" lon="0.916611">
        <ele>2198.746</ele>
        <time>2013-09-19T12:05:47Z</time>
      </trkpt>
      <trkpt lat="42.622647" lon="0.916399">
        <ele>2198.218</ele>
        <time>2013-09-19T12:06:23Z</time>
      </trkpt>
      <trkpt lat="42.622678" lon="0.915813">
        <ele>2195.350</ele>
        <time>2013-09-19T12:07:15Z</time>
      </trkpt>
      <trkpt lat="42.621960" lon="0.914825">
        <ele>2198.229</ele>
        <time>2013-09-19T12:09:19Z</time>
      </trkpt>
      <trkpt lat="42.621366" lon="0.912723">
        <ele>2213.600</ele>
        <time>2013-09-19T12:14:49Z</time>
      </trkpt>
      <trkpt lat="42.621297" lon="0.909792">
        <ele>2229.920</ele>
        <time>2013-09-19T12:20:59Z</time>
      </trkpt>
      <trkpt lat="42.621576" lon="0.908550">
        <ele>2245.807</ele>
        <time>2013-09-19T12:28:05Z</time>
      </trkpt>
      <trkpt lat="42.621471" lon="0.908176">
        <ele>2260.797</ele>
        <time>2013-09-19T12:29:22Z</time>
      </trkpt>
      <trkpt lat="42.621556" lon="0.907626">
        <ele>2277.094</ele>
        <time>2013-09-19T12:32:47Z</time>
      </trkpt>
      <trkpt lat="42.621674" lon="0.907494">
        <ele>2276.531</ele>
        <time>2013-09-19T12:33:59Z</time>
      </trkpt>
      <trkpt lat="42.621835" lon="0.907592">
        <ele>2278.514</ele>
        <time>2013-09-19T12:34:58Z</time>
      </trkpt>
      <trkpt lat="42.621642" lon="0.906779">
        <ele>2302.569</ele>
        <time>2013-09-19T12:40:21Z</time>
      </trkpt>
      <trkpt lat="42.621863" lon="0.906809">
        <ele>2304.491</ele>
        <time>2013-09-19T12:42:02Z</time>
      </trkpt>
      <trkpt lat="42.621872" lon="0.906584">
        <ele>2307.393</ele>
        <time>2013-09-19T12:42:45Z</time>
      </trkpt>
      <trkpt lat="42.622095" lon="0.906618">
        <ele>2321.759</ele>
        <time>2013-09-19T12:45:17Z</time>
      </trkpt>
      <trkpt lat="42.622187" lon="0.906490">
        <ele>2323.603</ele>
        <time>2013-09-19T12:46:29Z</time>
      </trkpt>
      <trkpt lat="42.622000" lon="0.906108">
        <ele>2329.923</ele>
        <time>2013-09-19T12:48:49Z</time>
      </trkpt>
      <trkpt lat="42.622127" lon="0.905667">
        <ele>2354.407</ele>
        <time>2013-09-19T12:53:20Z</time>
      </trkpt>
      <trkpt lat="42.621928" lon="0.905267">
        <ele>2357.890</ele>
        <time>2013-09-19T12:54:50Z</time>
      </trkpt>
      <trkpt lat="42.622126" lon="0.905071">
        <ele>2373.617</ele>
        <time>2013-09-19T12:55:58Z</time>
      </trkpt>
      <trkpt lat="42.621908" lon="0.904669">
        <ele>2374.164</ele>
        <time>2013-09-19T12:57:55Z</time>
      </trkpt>
      <trkpt lat="42.621999" lon="0.904002">
        <ele>2395.377</ele>
        <time>2013-09-19T13:01:28Z</time>
      </trkpt>
      <trkpt lat="42.621861" lon="0.903856">
        <ele>2394.862</ele>
        <time>2013-09-19T13:02:41Z</time>
      </trkpt>
      <trkpt lat="42.622002" lon="0.903742">
        <ele>2402.034</ele>
        <time>2013-09-19T13:03:33Z</time>
      </trkpt>
      <trkpt lat="42.621800" lon="0.903572">
        <ele>2401.096</ele>
        <time>2013-09-19T13:04:48Z</time>
      </trkpt>
      <trkpt lat="42.621694" lon="0.903162">
        <ele>2419.872</ele>
        <time>2013-09-19T13:06:12Z</time>
      </trkpt>
      <trkpt lat="42.621826" lon="0.902973">
        <ele>2424.113</ele>
        <time>2013-09-19T13:07:28Z</time>
      </trkpt>
      <trkpt lat="42.621648" lon="0.902218">
        <ele>2439.514</ele>
        <time>2013-09-19T13:10:16Z</time>
      </trkpt>
      <trkpt lat="42.621797" lon="0.902096">
        <ele>2449.107</ele>
        <time>2013-09-19T13:11:34Z</time>
      </trkpt>
      <trkpt lat="42.621859" lon="0.901443">
        <ele>2453.482</ele>
        <time>2013-09-19T13:13:33Z</time>
      </trkpt>
      <trkpt lat="42.621563" lon="0.900065">
        <ele>2466.459</ele>
        <time>2013-09-19T13:16:39Z</time>
      </trkpt>
      <trkpt lat="42.621693" lon="0.898975">
        <ele>2472.256</ele>
        <time>2013-09-19T13:18:38Z</time>
      </trkpt>
      <trkpt lat="42.621481" lon="0.898907">
        <ele>2473.159</ele>
        <time>2013-09-19T13:19:08Z</time>
      </trkpt>
      <trkpt lat="42.621376" lon="0.898250">
        <ele>2489.034</ele>
        <time>2013-09-19T13:24:02Z</time>
      </trkpt>
      <trkpt lat="42.621591" lon="0.897843">
        <ele>2494.326</ele>
        <time>2013-09-19T13:25:55Z</time>
      </trkpt>
      <trkpt lat="42.621587" lon="0.896595">
        <ele>2534.288</ele>
        <time>2013-09-19T13:30:57Z</time>
      </trkpt>
      <trkpt lat="42.621470" lon="0.896278">
        <ele>2539.969</ele>
        <time>2013-09-19T13:32:44Z</time>
      </trkpt>
      <trkpt lat="42.621702" lon="0.895871">
        <ele>2552.904</ele>
        <time>2013-09-19T13:35:15Z</time>
      </trkpt>
      <trkpt lat="42.621421" lon="0.894729">
        <ele>2545.224</ele>
        <time>2013-09-19T13:39:06Z</time>
      </trkpt>
      <trkpt lat="42.621806" lon="0.893786">
        <ele>2531.307</ele>
        <time>2013-09-19T13:40:49Z</time>
      </trkpt>
      <trkpt lat="42.621752" lon="0.893082">
        <ele>2522.271</ele>
        <time>2013-09-19T13:41:50Z</time>
      </trkpt>
      <trkpt lat="42.621948" lon="0.892814">
        <ele>2503.438</ele>
        <time>2013-09-19T13:42:59Z</time>
      </trkpt>
      <trkpt lat="42.621918" lon="0.892309">
        <ele>2495.275</ele>
        <time>2013-09-19T13:44:53Z</time>
      </trkpt>
      <trkpt lat="42.622366" lon="0.891152">
        <ele>2465.078</ele>
        <time>2013-09-19T13:46:55Z</time>
      </trkpt>
      <trkpt lat="42.622492" lon="0.889548">
        <ele>2422.773</ele>
        <time>2013-09-19T13:50:05Z</time>
      </trkpt>
      <trkpt lat="42.622398" lon="0.889228">
        <ele>2420.725</ele>
        <time>2013-09-19T13:50:27Z</time>
      </trkpt>
      <trkpt lat="42.622503" lon="0.888941">
        <ele>2418.327</ele>
        <time>2013-09-19T13:51:00Z</time>
      </trkpt>
      <trkpt lat="42.622676" lon="0.888879">
        <ele>2412.638</ele>
        <time>2013-09-19T13:51:23Z</time>
      </trkpt>
      <trkpt lat="42.622921" lon="0.887786">
        <ele>2402.570</ele>
        <time>2013-09-19T13:52:41Z</time>
      </trkpt>
      <trkpt lat="42.623208" lon="0.887389">
        <ele>2403.017</ele>
        <time>2013-09-19T13:53:22Z</time>
      </trkpt>
      <trkpt lat="42.623660" lon="0.887199">
        <ele>2407.807</ele>
        <time>2013-09-19T13:54:39Z</time>
      </trkpt>
      <trkpt lat="42.624061" lon="0.886431">
        <ele>2415.988</ele>
        <time>2013-09-19T13:57:22Z</time>
      </trkpt>
      <trkpt lat="42.624203" lon="0.886431">
        <ele>2416.975</ele>
        <time>2013-09-19T13:57:51Z</time>
      </trkpt>
      <trkpt lat="42.624157" lon="0.884416">
        <ele>2420.322</ele>
        <time>2013-09-19T14:01:16Z</time>
      </trkpt>
      <trkpt lat="42.624617" lon="0.884149">
        <ele>2434.245</ele>
        <time>2013-09-19T14:15:53Z</time>
      </trkpt>
      <trkpt lat="42.624844" lon="0.884206">
        <ele>2443.850</ele>
        <time>2013-09-19T14:17:21Z</time>
      </trkpt>
      <trkpt lat="42.624696" lon="0.883559">
        <ele>2464.552</ele>
        <time>2013-09-19T14:21:18Z</time>
      </trkpt>
      <trkpt lat="42.625336" lon="0.881913">
        <ele>2502.064</ele>
        <time>2013-09-19T14:33:00Z</time>
      </trkpt>
      <trkpt lat="42.625371" lon="0.880538">
        <ele>2473.195</ele>
        <time>2013-09-19T14:35:20Z</time>
      </trkpt>
      <trkpt lat="42.626347" lon="0.878335">
        <ele>2455.349</ele>
        <time>2013-09-19T14:38:05Z</time>
      </trkpt>
      <trkpt lat="42.626294" lon="0.877096">
        <ele>2454.423</ele>
        <time>2013-09-19T14:41:42Z</time>
      </trkpt>
      <trkpt lat="42.625974" lon="0.876260">
        <ele>2456.807</ele>
        <time>2013-09-19T14:44:22Z</time>
      </trkpt>
      <trkpt lat="42.626058" lon="0.875729">
        <ele>2461.684</ele>
        <time>2013-09-19T14:48:13Z</time>
      </trkpt>
      <trkpt lat="42.626914" lon="0.874606">
        <ele>2446.741</ele>
        <time>2013-09-19T14:51:32Z</time>
      </trkpt>
      <trkpt lat="42.627150" lon="0.873439">
        <ele>2408.298</ele>
        <time>2013-09-19T14:55:10Z</time>
      </trkpt>
      <trkpt lat="42.627452" lon="0.872843">
        <ele>2394.851</ele>
        <time>2013-09-19T14:57:08Z</time>
      </trkpt>
      <trkpt lat="42.627887" lon="0.872477">
        <ele>2370.386</ele>
        <time>2013-09-19T14:59:12Z</time>
      </trkpt>
      <trkpt lat="42.627831" lon="0.872241">
        <ele>2365.518</ele>
        <time>2013-09-19T14:59:41Z</time>
      </trkpt>
      <trkpt lat="42.628089" lon="0.872308">
        <ele>2356.860</ele>
        <time>2013-09-19T15:00:38Z</time>
      </trkpt>
      <trkpt lat="42.628219" lon="0.872060">
        <ele>2352.023</ele>
        <time>2013-09-19T15:01:24Z</time>
      </trkpt>
      <trkpt lat="42.628708" lon="0.871966">
        <ele>2351.583</ele>
        <time>2013-09-19T15:03:04Z</time>
      </trkpt>
      <trkpt lat="42.629057" lon="0.871609">
        <ele>2348.211</ele>
        <time>2013-09-19T15:04:32Z</time>
      </trkpt>
      <trkpt lat="42.628937" lon="0.870868">
        <ele>2324.607</ele>
        <time>2013-09-19T15:06:41Z</time>
      </trkpt>
      <trkpt lat="42.629610" lon="0.870313">
        <ele>2305.947</ele>
        <time>2013-09-19T15:08:29Z</time>
      </trkpt>
      <trkpt lat="42.629792" lon="0.869717">
        <ele>2285.724</ele>
        <time>2013-09-19T15:10:47Z</time>
      </trkpt>
      <trkpt lat="42.629557" lon="0.869198">
        <ele>2268.951</ele>
        <time>2013-09-19T15:12:21Z</time>
      </trkpt>
      <trkpt lat="42.630306" lon="0.867501">
        <ele>2232.814</ele>
        <time>2013-09-19T15:15:39Z</time>
      </trkpt>
      <trkpt lat="42.630442" lon="0.866792">
        <ele>2221.759</ele>
        <time>2013-09-19T15:16:36Z</time>
      </trkpt>
      <trkpt lat="42.630593" lon="0.866635">
        <ele>2228.031</ele>
        <time>2013-09-19T15:17:44Z</time>
      </trkpt>
      <trkpt lat="42.631240" lon="0.866670">
        <ele>2225.163</ele>
        <time>2013-09-19T15:18:54Z</time>
      </trkpt>
      <trkpt lat="42.631752" lon="0.866044">
        <ele>2216.983</ele>
        <time>2013-09-19T15:21:06Z</time>
      </trkpt>
      <trkpt lat="42.631878" lon="0.865302">
        <ele>2219.825</ele>
        <time>2013-09-19T15:22:25Z</time>
      </trkpt>
      <trkpt lat="42.632274" lon="0.864388">
        <ele>2223.717</ele>
        <time>2013-09-19T15:24:13Z</time>
      </trkpt>
      <trkpt lat="42.632663" lon="0.862279">
        <ele>2227.007</ele>
        <time>2013-09-19T15:28:05Z</time>
      </trkpt>
      <trkpt lat="42.632943" lon="0.861792">
        <ele>2220.353</ele>
        <time>2013-09-19T15:29:38Z</time>
      </trkpt>
      <trkpt lat="42.632820" lon="0.861541">
        <ele>2220.860</ele>
        <time>2013-09-19T15:30:20Z</time>
      </trkpt>
      <trkpt lat="42.632679" lon="0.861557">
        <ele>2220.387</ele>
        <time>2013-09-19T15:30:46Z</time>
      </trkpt>
      <trkpt lat="42.632648" lon="0.861274">
        <ele>2220.360</ele>
        <time>2013-09-19T15:31:53Z</time>
      </trkpt>
      <trkpt lat="42.632991" lon="0.860042">
        <ele>2181.455</ele>
        <time>2013-09-19T15:38:40Z</time>
      </trkpt>
      <trkpt lat="42.632864" lon="0.859986">
        <ele>2172.747</ele>
        <time>2013-09-19T15:39:29Z</time>
      </trkpt>
      <trkpt lat="42.632907" lon="0.859468">
        <ele>2154.939</ele>
        <time>2013-09-19T15:41:29Z</time>
      </trkpt>
      <trkpt lat="42.633085" lon="0.859240">
        <ele>2142.047</ele>
        <time>2013-09-19T15:42:36Z</time>
      </trkpt>
      <trkpt lat="42.633248" lon="0.858345">
        <ele>2116.529</ele>
        <time>2013-09-19T15:45:09Z</time>
      </trkpt>
      <trkpt lat="42.633677" lon="0.857726">
        <ele>2103.021</ele>
        <time>2013-09-19T15:46:35Z</time>
      </trkpt>
      <trkpt lat="42.633359" lon="0.857952">
        <ele>2090.507</ele>
        <time>2013-09-19T15:47:21Z</time>
      </trkpt>
      <trkpt lat="42.632842" lon="0.858009">
        <ele>2079.529</ele>
        <time>2013-09-19T15:48:36Z</time>
      </trkpt>
      <trkpt lat="42.632876" lon="0.857512">
        <ele>2067.556</ele>
        <time>2013-09-19T15:50:23Z</time>
      </trkpt>
      <trkpt lat="42.633148" lon="0.857004">
        <ele>2057.833</ele>
        <time>2013-09-19T15:51:51Z</time>
      </trkpt>
      <trkpt lat="42.632997" lon="0.856233">
        <ele>2035.396</ele>
        <time>2013-09-19T15:53:24Z</time>
      </trkpt>
      <trkpt lat="42.633388" lon="0.856304">
        <ele>2031.961</ele>
        <time>2013-09-19T15:54:09Z</time>
      </trkpt>
      <trkpt lat="42.634243" lon="0.855750">
        <ele>2020.833</ele>
        <time>2013-09-19T15:56:00Z</time>
      </trkpt>
      <trkpt lat="42.634140" lon="0.855610">
        <ele>2012.735</ele>
        <time>2013-09-19T15:56:35Z</time>
      </trkpt>
      <trkpt lat="42.634414" lon="0.855301">
        <ele>2010.744</ele>
        <time>2013-09-19T15:57:26Z</time>
      </trkpt>
      <trkpt lat="42.634622" lon="0.854686">
        <ele>2010.705</ele>
        <time>2013-09-19T16:00:05Z</time>
      </trkpt>
      <trkpt lat="42.634625" lon="0.854666">
        <ele>1990.077</ele>
        <time>2019-07-13T07:42:05Z</time>
      </trkpt>
      <trkpt lat="42.634311" lon="0.854831">
        <ele>2010.561</ele>
        <time>2019-07-13T07:42:45Z</time>
      </trkpt>
      <trkpt lat="42.634048" lon="0.855292">
        <ele>2010.627</ele>
        <time>2019-07-13T07:43:36Z</time>
      </trkpt>
      <trkpt lat="42.633295" lon="0.855173">
        <ele>2010.408</ele>
        <time>2019-07-13T07:44:49Z</time>
      </trkpt>
      <trkpt lat="42.632546" lon="0.853683">
        <ele>2021.450</ele>
        <time>2019-07-13T07:47:52Z</time>
      </trkpt>
      <trkpt lat="42.632376" lon="0.852912">
        <ele>2043.415</ele>
        <time>2019-07-13T07:51:39Z</time>
      </trkpt>
      <trkpt lat="42.632058" lon="0.852770">
        <ele>2060.924</ele>
        <time>2019-07-13T07:53:48Z</time>
      </trkpt>
      <trkpt lat="42.631580" lon="0.852185">
        <ele>2091.956</ele>
        <time>2019-07-13T07:58:14Z</time>
      </trkpt>
      <trkpt lat="42.631355" lon="0.852089">
        <ele>2095.041</ele>
        <time>2019-07-13T08:01:14Z</time>
      </trkpt>
      <trkpt lat="42.630986" lon="0.852181">
        <ele>2096.688</ele>
        <time>2019-07-13T08:01:59Z</time>
      </trkpt>
      <trkpt lat="42.630495" lon="0.851589">
        <ele>2111.292</ele>
        <time>2019-07-13T08:04:15Z</time>
      </trkpt>
      <trkpt lat="42.630007" lon="0.851454">
        <ele>2126.814</ele>
        <time>2019-07-13T08:06:15Z</time>
      </trkpt>
      <trkpt lat="42.629470" lon="0.851660">
        <ele>2151.614</ele>
        <time>2019-07-13T08:09:39Z</time>
      </trkpt>
      <trkpt lat="42.629204" lon="0.852194">
        <ele>2152.454</ele>
        <time>2019-07-13T08:10:35Z</time>
      </trkpt>
      <trkpt lat="42.628422" lon="0.852958">
        <ele>2159.509</ele>
        <time>2019-07-13T08:12:29Z</time>
      </trkpt>
      <trkpt lat="42.628393" lon="0.854180">
        <ele>2160.608</ele>
        <time>2019-07-13T08:15:06Z</time>
      </trkpt>
      <trkpt lat="42.627950" lon="0.854551">
        <ele>2169.954</ele>
        <time>2019-07-13T08:16:33Z</time>
      </trkpt>
      <trkpt lat="42.627166" lon="0.856225">
        <ele>2197.949</ele>
        <time>2019-07-13T08:21:56Z</time>
      </trkpt>
      <trkpt lat="42.626834" lon="0.856382">
        <ele>2212.498</ele>
        <time>2019-07-13T08:24:03Z</time>
      </trkpt>
      <trkpt lat="42.626818" lon="0.856160">
        <ele>2213.790</ele>
        <time>2019-07-13T08:24:44Z</time>
      </trkpt>
      <trkpt lat="42.626597" lon="0.855994">
        <ele>2222.845</ele>
        <time>2019-07-13T08:25:56Z</time>
      </trkpt>
      <trkpt lat="42.625777" lon="0.856279">
        <ele>2235.822</ele>
        <time>2019-07-13T08:28:44Z</time>
      </trkpt>
      <trkpt lat="42.625387" lon="0.856604">
        <ele>2256.066</ele>
        <time>2019-07-13T08:31:38Z</time>
      </trkpt>
      <trkpt lat="42.624909" lon="0.856617">
        <ele>2279.758</ele>
        <time>2019-07-13T08:34:59Z</time>
      </trkpt>
      <trkpt lat="42.623969" lon="0.856062">
        <ele>2348.542</ele>
        <time>2019-07-13T08:44:46Z</time>
      </trkpt>
      <trkpt lat="42.623865" lon="0.855853">
        <ele>2361.022</ele>
        <time>2019-07-13T08:46:27Z</time>
      </trkpt>
      <trkpt lat="42.623590" lon="0.855913">
        <ele>2379.814</ele>
        <time>2019-07-13T08:48:54Z</time>
      </trkpt>
      <trkpt lat="42.623132" lon="0.855563">
        <ele>2412.608</ele>
        <time>2019-07-13T08:53:54Z</time>
      </trkpt>
      <trkpt lat="42.623006" lon="0.855675">
        <ele>2413.197</ele>
        <time>2019-07-13T08:59:19Z</time>
      </trkpt>
      <trkpt lat="42.623170" lon="0.855521">
        <ele>2413.992</ele>
        <time>2019-07-13T09:10:45Z</time>
      </trkpt>
      <trkpt lat="42.622497" lon="0.855361">
        <ele>2442.851</ele>
        <time>2019-07-13T09:16:16Z</time>
      </trkpt>
      <trkpt lat="42.622329" lon="0.855091">
        <ele>2453.833</ele>
        <time>2019-07-13T09:18:07Z</time>
      </trkpt>
      <trkpt lat="42.621706" lon="0.855308">
        <ele>2468.188</ele>
        <time>2019-07-13T09:22:43Z</time>
      </trkpt>
      <trkpt lat="42.621440" lon="0.855007">
        <ele>2476.125</ele>
        <time>2019-07-13T09:25:10Z</time>
      </trkpt>
      <trkpt lat="42.621297" lon="0.855162">
        <ele>2483.659</ele>
        <time>2019-07-13T09:26:31Z</time>
      </trkpt>
      <trkpt lat="42.620991" lon="0.855083">
        <ele>2499.291</ele>
        <time>2019-07-13T09:29:34Z</time>
      </trkpt>
      <trkpt lat="42.620718" lon="0.855290">
        <ele>2506.242</ele>
        <time>2019-07-13T09:31:37Z</time>
      </trkpt>
      <trkpt lat="42.619673" lon="0.855285">
        <ele>2551.222</ele>
        <time>2019-07-13T09:49:47Z</time>
      </trkpt>
      <trkpt lat="42.619329" lon="0.857877">
        <ele>2512.014</ele>
        <time>2019-07-13T10:20:46Z</time>
      </trkpt>
      <trkpt lat="42.619375" lon="0.859245">
        <ele>2474.608</ele>
        <time>2019-07-13T10:24:42Z</time>
      </trkpt>
      <trkpt lat="42.619563" lon="0.859654">
        <ele>2474.027</ele>
        <time>2019-07-13T10:25:37Z</time>
      </trkpt>
      <trkpt lat="42.619272" lon="0.860277">
        <ele>2459.682</ele>
        <time>2019-07-13T10:28:26Z</time>
      </trkpt>
      <trkpt lat="42.618923" lon="0.860441">
        <ele>2442.881</ele>
        <time>2019-07-13T10:31:01Z</time>
      </trkpt>
      <trkpt lat="42.618631" lon="0.860409">
        <ele>2441.853</ele>
        <time>2019-07-13T10:47:00Z</time>
      </trkpt>
      <trkpt lat="42.618274" lon="0.859828">
        <ele>2413.538</ele>
        <time>2019-07-13T10:50:13Z</time>
      </trkpt>
      <trkpt lat="42.617881" lon="0.859895">
        <ele>2405.735</ele>
        <time>2019-07-13T10:51:18Z</time>
      </trkpt>
      <trkpt lat="42.617796" lon="0.859679">
        <ele>2398.929</ele>
        <time>2019-07-13T10:52:05Z</time>
      </trkpt>
      <trkpt lat="42.617293" lon="0.859474">
        <ele>2398.271</ele>
        <time>2019-07-13T10:53:01Z</time>
      </trkpt>
      <trkpt lat="42.616338" lon="0.860008">
        <ele>2401.648</ele>
        <time>2019-07-13T10:56:04Z</time>
      </trkpt>
      <trkpt lat="42.616150" lon="0.859954">
        <ele>2402.561</ele>
        <time>2019-07-13T10:56:23Z</time>
      </trkpt>
      <trkpt lat="42.615726" lon="0.860167">
        <ele>2404.717</ele>
        <time>2019-07-13T10:57:52Z</time>
      </trkpt>
      <trkpt lat="42.615009" lon="0.860582">
        <ele>2392.108</ele>
        <time>2019-07-13T10:59:53Z</time>
      </trkpt>
      <trkpt lat="42.614475" lon="0.861234">
        <ele>2376.527</ele>
        <time>2019-07-13T11:03:18Z</time>
      </trkpt>
      <trkpt lat="42.614103" lon="0.861271">
        <ele>2357.012</ele>
        <time>2019-07-13T11:05:44Z</time>
      </trkpt>
      <trkpt lat="42.614005" lon="0.861906">
        <ele>2336.451</ele>
        <time>2019-07-13T11:12:20Z</time>
      </trkpt>
      <trkpt lat="42.613713" lon="0.862200">
        <ele>2322.143</ele>
        <time>2019-07-13T11:14:07Z</time>
      </trkpt>
      <trkpt lat="42.613955" lon="0.862509">
        <ele>2305.868</ele>
        <time>2019-07-13T11:15:47Z</time>
      </trkpt>
      <trkpt lat="42.613804" lon="0.863261">
        <ele>2276.325</ele>
        <time>2019-07-13T11:19:15Z</time>
      </trkpt>
      <trkpt lat="42.614193" lon="0.863524">
        <ele>2272.379</ele>
        <time>2019-07-13T11:21:45Z</time>
      </trkpt>
      <trkpt lat="42.614391" lon="0.864042">
        <ele>2274.111</ele>
        <time>2019-07-13T11:23:04Z</time>
      </trkpt>
      <trkpt lat="42.614369" lon="0.865500">
        <ele>2272.766</ele>
        <time>2019-07-13T11:26:01Z</time>
      </trkpt>
      <trkpt lat="42.613554" lon="0.866390">
        <ele>2273.129</ele>
        <time>2019-07-13T11:28:05Z</time>
      </trkpt>
      <trkpt lat="42.613409" lon="0.866733">
        <ele>2276.121</ele>
        <time>2019-07-13T11:28:56Z</time>
      </trkpt>
      <trkpt lat="42.612998" lon="0.866919">
        <ele>2271.408</ele>
        <time>2019-07-13T11:30:10Z</time>
      </trkpt>
      <trkpt lat="42.612916" lon="0.867319">
        <ele>2271.289</ele>
        <time>2019-07-13T11:30:48Z</time>
      </trkpt>
      <trkpt lat="42.613061" lon="0.867652">
        <ele>2266.934</ele>
        <time>2019-07-13T11:31:22Z</time>
      </trkpt>
      <trkpt lat="42.613040" lon="0.868231">
        <ele>2266.223</ele>
        <time>2019-07-13T11:32:28Z</time>
      </trkpt>
      <trkpt lat="42.612265" lon="0.869458">
        <ele>2257.725</ele>
        <time>2019-07-13T11:36:08Z</time>
      </trkpt>
      <trkpt lat="42.612015" lon="0.870428">
        <ele>2258.990</ele>
        <time>2019-07-13T11:38:34Z</time>
      </trkpt>
      <trkpt lat="42.611580" lon="0.871179">
        <ele>2263.987</ele>
        <time>2019-07-13T11:40:10Z</time>
      </trkpt>
      <trkpt lat="42.610406" lon="0.872180">
        <ele>2264.821</ele>
        <time>2019-07-13T11:44:30Z</time>
      </trkpt>
      <trkpt lat="42.610505" lon="0.872560">
        <ele>2266.293</ele>
        <time>2019-07-13T11:45:13Z</time>
      </trkpt>
      <trkpt lat="42.610397" lon="0.872755">
        <ele>2266.852</ele>
        <time>2019-07-13T11:45:58Z</time>
      </trkpt>
      <trkpt lat="42.610586" lon="0.872770">
        <ele>2266.553</ele>
        <time>2019-07-13T11:47:04Z</time>
      </trkpt>
      <trkpt lat="42.610615" lon="0.873091">
        <ele>2266.508</ele>
        <time>2019-07-13T11:47:34Z</time>
      </trkpt>
      <trkpt lat="42.610432" lon="0.873284">
        <ele>2264.308</ele>
        <time>2019-07-13T11:48:27Z</time>
      </trkpt>
      <trkpt lat="42.610194" lon="0.873099">
        <ele>2260.538</ele>
        <time>2019-07-13T11:49:14Z</time>
      </trkpt>
      <trkpt lat="42.609870" lon="0.873292">
        <ele>2252.743</ele>
        <time>2019-07-13T11:50:14Z</time>
      </trkpt>
      <trkpt lat="42.609699" lon="0.873206">
        <ele>2249.012</ele>
        <time>2019-07-13T11:50:48Z</time>
      </trkpt>
      <trkpt lat="42.609544" lon="0.873439">
        <ele>2243.284</ele>
        <time>2019-07-13T11:51:21Z</time>
      </trkpt>
      <trkpt lat="42.609167" lon="0.873507">
        <ele>2235.339</ele>
        <time>2019-07-13T11:52:20Z</time>
      </trkpt>
      <trkpt lat="42.608218" lon="0.875302">
        <ele>2219.596</ele>
        <time>2019-07-13T11:58:32Z</time>
      </trkpt>
      <trkpt lat="42.607647" lon="0.875496">
        <ele>2224.650</ele>
        <time>2019-07-13T12:00:19Z</time>
      </trkpt>
      <trkpt lat="42.607239" lon="0.876096">
        <ele>2225.282</ele>
        <time>2019-07-13T12:01:49Z</time>
      </trkpt>
      <trkpt lat="42.606892" lon="0.876381">
        <ele>2219.783</ele>
        <time>2019-07-13T12:03:16Z</time>
      </trkpt>
      <trkpt lat="42.606358" lon="0.876548">
        <ele>2208.225</ele>
        <time>2019-07-13T12:05:30Z</time>
      </trkpt>
      <trkpt lat="42.606266" lon="0.876833">
        <ele>2207.617</ele>
        <time>2019-07-13T12:06:01Z</time>
      </trkpt>
      <trkpt lat="42.605943" lon="0.877127">
        <ele>2206.308</ele>
        <time>2019-07-13T12:06:40Z</time>
      </trkpt>
      <trkpt lat="42.605519" lon="0.877105">
        <ele>2198.491</ele>
        <time>2019-07-13T12:07:45Z</time>
      </trkpt>
      <trkpt lat="42.605315" lon="0.877288">
        <ele>2204.686</ele>
        <time>2019-07-13T12:08:20Z</time>
      </trkpt>
      <trkpt lat="42.605354" lon="0.877190">
        <ele>2204.425</ele>
        <time>2019-07-13T12:10:11Z</time>
      </trkpt>
      <trkpt lat="42.605614" lon="0.876920">
        <ele>2204.956</ele>
        <time>2013-09-20T09:20:07Z</time>
      </trkpt>
      <trkpt lat="42.606078" lon="0.876075">
        <ele>2193.959</ele>
        <time>2013-09-20T09:21:48Z</time>
      </trkpt>
      <trkpt lat="42.606040" lon="0.874720">
        <ele>2191.914</ele>
        <time>2013-09-20T09:23:20Z</time>
      </trkpt>
      <trkpt lat="42.605803" lon="0.873390">
        <ele>2161.707</ele>
        <time>2013-09-20T09:25:42Z</time>
      </trkpt>
      <trkpt lat="42.605743" lon="0.873232">
        <ele>2158.850</ele>
        <time>2013-09-20T09:26:07Z</time>
      </trkpt>
      <trkpt lat="42.605490" lon="0.873196">
        <ele>2154.977</ele>
        <time>2013-09-20T09:26:54Z</time>
      </trkpt>
      <trkpt lat="42.605519" lon="0.872918">
        <ele>2153.544</ele>
        <time>2013-09-20T09:27:18Z</time>
      </trkpt>
      <trkpt lat="42.605362" lon="0.872785">
        <ele>2141.067</ele>
        <time>2013-09-20T09:28:38Z</time>
      </trkpt>
      <trkpt lat="42.605243" lon="0.871928">
        <ele>2142.474</ele>
        <time>2013-09-20T09:29:34Z</time>
      </trkpt>
      <trkpt lat="42.605469" lon="0.870599">
        <ele>2144.433</ele>
        <time>2013-09-20T09:31:41Z</time>
      </trkpt>
      <trkpt lat="42.605355" lon="0.870126">
        <ele>2143.423</ele>
        <time>2013-09-20T09:32:12Z</time>
      </trkpt>
      <trkpt lat="42.605210" lon="0.870109">
        <ele>2143.912</ele>
        <time>2013-09-20T09:32:34Z</time>
      </trkpt>
      <trkpt lat="42.605449" lon="0.869618">
        <ele>2120.332</ele>
        <time>2013-09-20T09:33:49Z</time>
      </trkpt>
      <trkpt lat="42.605767" lon="0.869339">
        <ele>2108.805</ele>
        <time>2013-09-20T09:34:40Z</time>
      </trkpt>
      <trkpt lat="42.605876" lon="0.868962">
        <ele>2102.507</ele>
        <time>2013-09-20T09:35:21Z</time>
      </trkpt>
      <trkpt lat="42.605885" lon="0.868423">
        <ele>2108.826</ele>
        <time>2013-09-20T09:35:52Z</time>
      </trkpt>
      <trkpt lat="42.605531" lon="0.867941">
        <ele>2120.363</ele>
        <time>2013-09-20T09:36:44Z</time>
      </trkpt>
      <trkpt lat="42.605705" lon="0.867655">
        <ele>2117.450</ele>
        <time>2013-09-20T09:37:16Z</time>
      </trkpt>
      <trkpt lat="42.605600" lon="0.867514">
        <ele>2112.263</ele>
        <time>2013-09-20T09:37:41Z</time>
      </trkpt>
      <trkpt lat="42.605362" lon="0.867783">
        <ele>2117.060</ele>
        <time>2013-09-20T09:38:17Z</time>
      </trkpt>
      <trkpt lat="42.605650" lon="0.867219">
        <ele>2103.529</ele>
        <time>2013-09-20T09:39:16Z</time>
      </trkpt>
      <trkpt lat="42.605639" lon="0.866595">
        <ele>2086.799</ele>
        <time>2013-09-20T09:40:11Z</time>
      </trkpt>
      <trkpt lat="42.605857" lon="0.866381">
        <ele>2078.017</ele>
        <time>2013-09-20T09:40:50Z</time>
      </trkpt>
      <trkpt lat="42.605913" lon="0.865870">
        <ele>2066.087</ele>
        <time>2013-09-20T09:41:56Z</time>
      </trkpt>
      <trkpt lat="42.606123" lon="0.865515">
        <ele>2048.715</ele>
        <time>2013-09-20T09:43:34Z</time>
      </trkpt>
      <trkpt lat="42.606093" lon="0.865109">
        <ele>2041.507</ele>
        <time>2013-09-20T09:44:28Z</time>
      </trkpt>
      <trkpt lat="42.606440" lon="0.863487">
        <ele>2029.586</ele>
        <time>2013-09-20T09:47:21Z</time>
      </trkpt>
      <trkpt lat="42.606333" lon="0.863577">
        <ele>2025.613</ele>
        <time>2013-09-20T09:47:54Z</time>
      </trkpt>
      <trkpt lat="42.606281" lon="0.863412">
        <ele>2017.070</ele>
        <time>2013-09-20T09:48:28Z</time>
      </trkpt>
      <trkpt lat="42.606060" lon="0.863449">
        <ele>2017.023</ele>
        <time>2013-09-20T09:49:03Z</time>
      </trkpt>
      <trkpt lat="42.605576" lon="0.864062">
        <ele>2033.890</ele>
        <time>2013-09-20T09:50:27Z</time>
      </trkpt>
      <trkpt lat="42.605452" lon="0.863978">
        <ele>2027.149</ele>
        <time>2013-09-20T09:50:48Z</time>
      </trkpt>
      <trkpt lat="42.605569" lon="0.864105">
        <ele>2021.849</ele>
        <time>2013-09-20T09:51:02Z</time>
      </trkpt>
      <trkpt lat="42.605495" lon="0.864312">
        <ele>2017.512</ele>
        <time>2013-09-20T09:51:27Z</time>
      </trkpt>
      <trkpt lat="42.605293" lon="0.864350">
        <ele>2017.532</ele>
        <time>2013-09-20T09:52:27Z</time>
      </trkpt>
      <trkpt lat="42.605554" lon="0.863710">
        <ele>1998.205</ele>
        <time>2013-09-20T09:53:59Z</time>
      </trkpt>
      <trkpt lat="42.605473" lon="0.863280">
        <ele>1980.507</ele>
        <time>2013-09-20T09:54:39Z</time>
      </trkpt>
      <trkpt lat="42.605254" lon="0.863268">
        <ele>1973.786</ele>
        <time>2013-09-20T09:55:11Z</time>
      </trkpt>
      <trkpt lat="42.605192" lon="0.863112">
        <ele>1974.273</ele>
        <time>2013-09-20T09:55:36Z</time>
      </trkpt>
      <trkpt lat="42.604984" lon="0.863362">
        <ele>1979.540</ele>
        <time>2013-09-20T09:56:08Z</time>
      </trkpt>
      <trkpt lat="42.604474" lon="0.862920">
        <ele>1969.923</ele>
        <time>2013-09-20T09:57:50Z</time>
      </trkpt>
      <trkpt lat="42.604184" lon="0.863142">
        <ele>1964.130</ele>
        <time>2013-09-20T09:58:36Z</time>
      </trkpt>
      <trkpt lat="42.604025" lon="0.862957">
        <ele>1961.279</ele>
        <time>2013-09-20T09:59:45Z</time>
      </trkpt>
      <trkpt lat="42.604188" lon="0.862391">
        <ele>1960.849</ele>
        <time>2013-09-20T10:00:52Z</time>
      </trkpt>
      <trkpt lat="42.604053" lon="0.862442">
        <ele>1953.166</ele>
        <time>2013-09-20T10:01:20Z</time>
      </trkpt>
      <trkpt lat="42.604023" lon="0.862223">
        <ele>1948.729</ele>
        <time>2013-09-20T10:01:45Z</time>
      </trkpt>
      <trkpt lat="42.603826" lon="0.862221">
        <ele>1937.721</ele>
        <time>2013-09-20T10:02:32Z</time>
      </trkpt>
      <trkpt lat="42.603847" lon="0.861937">
        <ele>1936.707</ele>
        <time>2013-09-20T10:03:00Z</time>
      </trkpt>
      <trkpt lat="42.603369" lon="0.862423">
        <ele>1922.351</ele>
        <time>2013-09-20T10:04:09Z</time>
      </trkpt>
      <trkpt lat="42.603268" lon="0.862357">
        <ele>1921.848</ele>
        <time>2013-09-20T10:04:22Z</time>
      </trkpt>
      <trkpt lat="42.603470" lon="0.861813">
        <ele>1908.845</ele>
        <time>2013-09-20T10:05:30Z</time>
      </trkpt>
      <trkpt lat="42.603384" lon="0.861744">
        <ele>1907.428</ele>
        <time>2013-09-20T10:05:39Z</time>
      </trkpt>
      <trkpt lat="42.603185" lon="0.861959">
        <ele>1900.775</ele>
        <time>2013-09-20T10:06:11Z</time>
      </trkpt>
      <trkpt lat="42.602744" lon="0.862056">
        <ele>1902.624</ele>
        <time>2013-09-20T10:07:00Z</time>
      </trkpt>
      <trkpt lat="42.602680" lon="0.861834">
        <ele>1897.344</ele>
        <time>2013-09-20T10:07:34Z</time>
      </trkpt>
      <trkpt lat="42.602896" lon="0.861285">
        <ele>1876.645</ele>
        <time>2013-09-20T10:09:12Z</time>
      </trkpt>
      <trkpt lat="42.602586" lon="0.860839">
        <ele>1875.247</ele>
        <time>2013-09-20T10:10:22Z</time>
      </trkpt>
      <trkpt lat="42.602472" lon="0.860026">
        <ele>1866.111</ele>
        <time>2013-09-20T10:11:35Z</time>
      </trkpt>
      <trkpt lat="42.602190" lon="0.859598">
        <ele>1861.307</ele>
        <time>2013-09-20T10:12:38Z</time>
      </trkpt>
      <trkpt lat="42.601543" lon="0.859002">
        <ele>1847.339</ele>
        <time>2013-09-20T10:13:42Z</time>
      </trkpt>
      <trkpt lat="42.600642" lon="0.859079">
        <ele>1848.896</ele>
        <time>2013-09-20T10:14:54Z</time>
      </trkpt>
      <trkpt lat="42.600062" lon="0.858062">
        <ele>1846.423</ele>
        <time>2013-09-20T10:16:11Z</time>
      </trkpt>
      <trkpt lat="42.599653" lon="0.857814">
        <ele>1844.446</ele>
        <time>2013-09-20T10:17:06Z</time>
      </trkpt>
      <trkpt lat="42.599508" lon="0.858155">
        <ele>1839.693</ele>
        <time>2013-09-20T10:17:41Z</time>
      </trkpt>
      <trkpt lat="42.599163" lon="0.858129">
        <ele>1843.062</ele>
        <time>2013-09-20T10:18:25Z</time>
      </trkpt>
      <trkpt lat="42.599082" lon="0.857924">
        <ele>1845.962</ele>
        <time>2013-09-20T10:18:50Z</time>
      </trkpt>
      <trkpt lat="42.598751" lon="0.858077">
        <ele>1838.249</ele>
        <time>2013-09-20T10:19:49Z</time>
      </trkpt>
      <trkpt lat="42.598646" lon="0.857951">
        <ele>1829.102</ele>
        <time>2013-09-20T10:20:11Z</time>
      </trkpt>
      <trkpt lat="42.598462" lon="0.858361">
        <ele>1819.022</ele>
        <time>2013-09-20T10:20:55Z</time>
      </trkpt>
      <trkpt lat="42.597651" lon="0.858933">
        <ele>1820.907</ele>
        <time>2013-09-20T10:22:30Z</time>
      </trkpt>
      <trkpt lat="42.597112" lon="0.858513">
        <ele>1803.199</ele>
        <time>2013-09-20T10:24:34Z</time>
      </trkpt>
      <trkpt lat="42.597046" lon="0.858712">
        <ele>1809.336</ele>
        <time>2013-09-20T10:25:01Z</time>
      </trkpt>
      <trkpt lat="42.596477" lon="0.859163">
        <ele>1848.383</ele>
        <time>2013-09-20T10:26:26Z</time>
      </trkpt>
      <trkpt lat="42.596021" lon="0.859243">
        <ele>1840.686</ele>
        <time>2013-09-20T10:27:09Z</time>
      </trkpt>
      <trkpt lat="42.596079" lon="0.859480">
        <ele>1839.163</ele>
        <time>2013-09-20T10:27:33Z</time>
      </trkpt>
      <trkpt lat="42.595887" lon="0.859652">
        <ele>1826.222</ele>
        <time>2013-09-20T10:28:18Z</time>
      </trkpt>
      <trkpt lat="42.595459" lon="0.859684">
        <ele>1814.612</ele>
        <time>2013-09-20T10:29:27Z</time>
      </trkpt>
      <trkpt lat="42.595177" lon="0.859881">
        <ele>1811.711</ele>
        <time>2013-09-20T10:30:13Z</time>
      </trkpt>
      <trkpt lat="42.594155" lon="0.859406">
        <ele>1812.221</ele>
        <time>2013-09-20T10:32:16Z</time>
      </trkpt>
      <trkpt lat="42.593355" lon="0.859770">
        <ele>1794.003</ele>
        <time>2013-09-20T10:34:05Z</time>
      </trkpt>
      <trkpt lat="42.592794" lon="0.859211">
        <ele>1788.707</ele>
        <time>2013-09-20T10:35:35Z</time>
      </trkpt>
      <trkpt lat="42.591932" lon="0.858862">
        <ele>1776.716</ele>
        <time>2013-09-20T10:37:52Z</time>
      </trkpt>
      <trkpt lat="42.591623" lon="0.858543">
        <ele>1768.083</ele>
        <time>2013-09-20T10:38:38Z</time>
      </trkpt>
      <trkpt lat="42.591194" lon="0.858710">
        <ele>1764.260</ele>
        <time>2013-09-20T10:39:28Z</time>
      </trkpt>
      <trkpt lat="42.590762" lon="0.858681">
        <ele>1763.763</ele>
        <time>2013-09-20T10:40:13Z</time>
      </trkpt>
      <trkpt lat="42.590726" lon="0.859005">
        <ele>1761.330</ele>
        <time>2013-09-20T10:41:06Z</time>
      </trkpt>
      <trkpt lat="42.590235" lon="0.859492">
        <ele>1761.399</ele>
        <time>2013-09-20T10:42:14Z</time>
      </trkpt>
      <trkpt lat="42.589977" lon="0.859558">
        <ele>1760.869</ele>
        <time>2013-09-20T10:43:07Z</time>
      </trkpt>
      <trkpt lat="42.587997" lon="0.859543">
        <ele>1758.411</ele>
        <time>2013-09-20T10:46:58Z</time>
      </trkpt>
      <trkpt lat="42.587458" lon="0.859384">
        <ele>1757.921</ele>
        <time>2013-09-20T10:48:00Z</time>
      </trkpt>
      <trkpt lat="42.587005" lon="0.858801">
        <ele>1757.003</ele>
        <time>2013-09-20T10:49:08Z</time>
      </trkpt>
      <trkpt lat="42.586531" lon="0.858778">
        <ele>1756.507</ele>
        <time>2013-09-20T10:50:12Z</time>
      </trkpt>
      <trkpt lat="42.586226" lon="0.858396">
        <ele>1756.036</ele>
        <time>2013-09-20T10:50:43Z</time>
      </trkpt>
      <trkpt lat="42.585631" lon="0.858018">
        <ele>1810.323</ele>
        <time>2013-09-20T10:51:20Z</time>
      </trkpt>
      <trkpt lat="42.584816" lon="0.856362">
        <ele>1902.130</ele>
        <time>2013-09-20T10:53:27Z</time>
      </trkpt>
      <trkpt lat="42.584066" lon="0.855465">
        <ele>1884.863</ele>
        <time>2013-09-20T10:54:45Z</time>
      </trkpt>
      <trkpt lat="42.583664" lon="0.855343">
        <ele>1876.280</ele>
        <time>2013-09-20T10:55:17Z</time>
      </trkpt>
      <trkpt lat="42.582904" lon="0.855571">
        <ele>1875.789</ele>
        <time>2013-09-20T10:56:16Z</time>
      </trkpt>
      <trkpt lat="42.582451" lon="0.855460">
        <ele>1872.379</ele>
        <time>2013-09-20T10:56:51Z</time>
      </trkpt>
      <trkpt lat="42.581825" lon="0.855763">
        <ele>1831.082</ele>
        <time>2013-09-20T10:57:37Z</time>
      </trkpt>
      <trkpt lat="42.582630" lon="0.855389">
        <ele>1800.743</ele>
        <time>2013-09-20T10:58:42Z</time>
      </trkpt>
      <trkpt lat="42.583285" lon="0.854861">
        <ele>1788.717</ele>
        <time>2013-09-20T10:59:40Z</time>
      </trkpt>
      <trkpt lat="42.583613" lon="0.854844">
        <ele>1797.307</ele>
        <time>2013-09-20T10:59:56Z</time>
      </trkpt>
      <trkpt lat="42.584074" lon="0.854563">
        <ele>1827.623</ele>
        <time>2013-09-20T11:00:26Z</time>
      </trkpt>
      <trkpt lat="42.584477" lon="0.855418">
        <ele>1830.050</ele>
        <time>2013-09-20T11:00:54Z</time>
      </trkpt>
      <trkpt lat="42.584138" lon="0.854516">
        <ele>1851.627</ele>
        <time>2013-09-20T11:01:24Z</time>
      </trkpt>
      <trkpt lat="42.583337" lon="0.854612">
        <ele>1871.310</ele>
        <time>2013-09-20T11:02:30Z</time>
      </trkpt>
      <trkpt lat="42.581528" lon="0.855477">
        <ele>1894.427</ele>
        <time>2013-09-20T11:05:12Z</time>
      </trkpt>
      <trkpt lat="42.580775" lon="0.855197">
        <ele>1882.416</ele>
        <time>2013-09-20T11:06:09Z</time>
      </trkpt>
      <trkpt lat="42.580739" lon="0.855090">
        <ele>1881.046</ele>
        <time>2013-09-20T11:06:15Z</time>
      </trkpt>
      <trkpt lat="42.581241" lon="0.855157">
        <ele>1874.751</ele>
        <time>2013-09-20T11:07:01Z</time>
      </trkpt>
      <trkpt lat="42.581614" lon="0.854998">
        <ele>1871.301</ele>
        <time>2013-09-20T11:07:30Z</time>
      </trkpt>
      <trkpt lat="42.581762" lon="0.854615">
        <ele>1870.411</ele>
        <time>2013-09-20T11:07:52Z</time>
      </trkpt>
      <trkpt lat="42.582544" lon="0.854247">
        <ele>1870.407</ele>
        <time>2013-09-20T11:08:54Z</time>
      </trkpt>
      <trkpt lat="42.583288" lon="0.854943">
        <ele>1705.030</ele>
        <time>2013-09-20T11:09:42Z</time>
      </trkpt>
      <trkpt lat="42.583914" lon="0.854813">
        <ele>1662.357</ele>
        <time>2013-09-20T11:10:31Z</time>
      </trkpt>
      <trkpt lat="42.584038" lon="0.854712">
        <ele>1656.074</ele>
        <time>2013-09-20T11:10:44Z</time>
      </trkpt>
      <trkpt lat="42.583521" lon="0.853859">
        <ele>1672.857</ele>
        <time>2013-09-20T11:12:09Z</time>
      </trkpt>
    </trkseg>
  </trk>
</gpx>
